GEFSGL_prec_meanprecacc_006.txt.gz
Total_Precipitation_Accumulation
0.00 0.00 0.00 0.00 0.00 0.00 0.00 0.00 0.00 0.00 0.00 0.00 0.00 0.00 0.00 0.00 0.00 0.00 0.00 0.00 0.00 0.00 0.00 0.00 0.00 0.00 0.00 0.00 0.00 0.00 0.01 0.03 0.02 0.00 0.00 0.00 0.01 0.02 0.03 0.05 0.06 0.05 0.04
0.00 0.00 0.00 0.00 0.00 0.00 0.00 0.00 0.00 0.00 0.00 0.00 0.00 0.00 0.00 0.00 0.00 0.00 0.00 0.00 0.00 0.00 0.00 0.00 0.00 0.00 0.00 0.00 0.00 0.00 0.01 0.01 0.02 0.01 0.00 0.00 0.01 0.01 0.03 0.04 0.03 0.03 0.02
0.00 0.00 0.00 0.00 0.00 0.00 0.00 0.00 0.00 0.00 0.00 0.00 0.00 0.00 0.00 0.00 0.00 0.00 0.00 0.00 0.00 0.00 0.00 0.00 0.00 0.00 0.00 0.00 0.00 0.00 0.00 0.00 0.00 0.00 0.00 0.00 0.01 0.01 0.02 0.03 0.04 0.05 0.03
0.01 0.01 0.00 0.00 0.00 0.00 0.00 0.00 0.00 0.00 0.00 0.00 0.00 0.00 0.00 0.00 0.01 0.01 0.00 0.00 0.00 0.00 0.00 0.00 0.00 0.00 0.00 0.00 0.00 0.00 0.00 0.00 0.00 0.00 0.00 0.00 0.00 0.01 0.02 0.03 0.05 0.06 0.08
0.01 0.00 0.00 0.00 0.00 0.00 0.00 0.00 0.00 0.00 0.00 0.00 0.00 0.00 0.00 0.01 0.03 0.02 0.00 0.00 0.00 0.00 0.00 0.00 0.00 0.00 0.00 0.00 0.00 0.00 0.00 0.00 0.00 0.00 0.00 0.00 0.00 0.01 0.01 0.01 0.02 0.03 0.06
0.00 0.00 0.00 0.00 0.00 0.00 0.00 0.00 0.00 0.00 0.00 0.00 0.00 0.00 0.00 0.02 0.05 0.03 0.01 0.00 0.00 0.00 0.00 0.00 0.01 0.01 0.01 0.01 0.01 0.01 0.01 0.00 0.00 0.00 0.00 0.00 0.00 0.00 0.01 0.01 0.01 0.01 0.01
0.00 0.00 0.00 0.00 0.00 0.00 0.00 0.00 0.00 0.00 0.00 0.00 0.00 0.00 0.00 0.01 0.02 0.01 0.00 0.00 0.00 0.00 0.00 0.00 0.00 0.00 0.01 0.00 0.00 0.00 0.00 0.00 0.00 0.00 0.00 0.00 0.00 0.00 0.01 0.02 0.02 0.02 0.01
0.00 0.00 0.00 0.00 0.00 0.00 0.00 0.00 0.00 0.00 0.00 0.00 0.00 0.00 0.00 0.00 0.01 0.01 0.00 0.00 0.00 0.00 0.00 0.00 0.00 0.00 0.00 0.00 0.00 0.00 0.00 0.00 0.00 0.00 0.00 0.00 0.00 0.00 0.01 0.02 0.02 0.02 0.01
0.01 0.00 0.00 0.00 0.00 0.00 0.00 0.00 0.00 0.00 0.00 0.00 0.00 0.00 0.00 0.00 0.00 0.01 0.01 0.00 0.00 0.00 0.00 0.00 0.00 0.00 0.00 0.01 0.00 0.00 0.00 0.00 0.00 0.00 0.00 0.01 0.01 0.01 0.02 0.03 0.03 0.04 0.02
0.00 0.00 0.00 0.00 0.00 0.00 0.00 0.00 0.00 0.00 0.00 0.00 0.00 0.00 0.00 0.00 0.00 0.00 0.01 0.00 0.00 0.00 0.00 0.00 0.00 0.00 0.01 0.01 0.01 0.01 0.00 0.00 0.00 0.00 0.00 0.00 0.00 0.00 0.01 0.02 0.02 0.03 0.03
0.00 0.00 0.00 0.00 0.00 0.00 0.00 0.00 0.00 0.00 0.00 0.00 0.00 0.00 0.00 0.00 0.00 0.00 0.00 0.00 0.00 0.00 0.00 0.00 0.00 0.00 0.01 0.01 0.01 0.00 0.01 0.01 0.00 0.00 0.00 0.01 0.01 0.00 0.00 0.01 0.01 0.03 0.03
0.00 0.00 0.00 0.00 0.00 0.00 0.00 0.00 0.00 0.00 0.00 0.00 0.00 0.00 0.00 0.00 0.00 0.00 0.00 0.00 0.00 0.00 0.00 0.00 0.00 0.00 0.00 0.00 0.00 0.00 0.00 0.00 0.00 0.00 0.01 0.01 0.01 0.01 0.01 0.01 0.02 0.03 0.03
0.00 0.00 0.00 0.00 0.00 0.00 0.00 0.00 0.00 0.00 0.00 0.00 0.00 0.00 0.00 0.00 0.00 0.00 0.00 0.00 0.00 0.00 0.00 0.00 0.00 0.00 0.00 0.00 0.00 0.00 0.00 0.00 0.00 0.00 0.00 0.01 0.01 0.01 0.01 0.02 0.02 0.03 0.04
0.00 0.00 0.00 0.00 0.00 0.00 0.00 0.00 0.00 0.00 0.00 0.00 0.00 0.00 0.00 0.00 0.00 0.00 0.00 0.00 0.00 0.00 0.00 0.00 0.00 0.00 0.00 0.00 0.00 0.00 0.00 0.00 0.00 0.01 0.01 0.00 0.00 0.00 0.01 0.01 0.02 0.03 0.05
0.00 0.00 0.00 0.00 0.00 0.00 0.00 0.00 0.00 0.00 0.00 0.00 0.00 0.00 0.00 0.00 0.00 0.01 0.01 0.00 0.00 0.00 0.00 0.00 0.00 0.00 0.00 0.00 0.00 0.00 0.00 0.00 0.00 0.00 0.01 0.01 0.01 0.00 0.00 0.01 0.02 0.04 0.07
0.00 0.00 0.00 0.00 0.00 0.00 0.00 0.00 0.00 0.00 0.00 0.00 0.00 0.00 0.00 0.00 0.01 0.01 0.01 0.00 0.00 0.00 0.00 0.00 0.00 0.00 0.00 0.00 0.00 0.00 0.00 0.00 0.00 0.00 0.01 0.01 0.01 0.01 0.01 0.01 0.02 0.04 0.06
0.00 0.00 0.00 0.00 0.00 0.00 0.00 0.00 0.00 0.00 0.00 0.00 0.00 0.00 0.00 0.00 0.01 0.01 0.00 0.00 0.00 0.00 0.00 0.00 0.00 0.00 0.00 0.00 0.00 0.00 0.00 0.00 0.00 0.01 0.01 0.01 0.01 0.02 0.02 0.02 0.02 0.05 0.09
0.00 0.00 0.00 0.00 0.00 0.00 0.00 0.00 0.00 0.00 0.00 0.00 0.00 0.00 0.00 0.00 0.01 0.01 0.00 0.00 0.00 0.00 0.00 0.00 0.00 0.00 0.00 0.00 0.00 0.00 0.00 0.00 0.00 0.00 0.01 0.01 0.01 0.03 0.03 0.03 0.04 0.08 0.12
0.00 0.00 0.00 0.00 0.00 0.00 0.00 0.00 0.00 0.00 0.00 0.00 0.00 0.00 0.00 0.00 0.00 0.00 0.00 0.00 0.00 0.00 0.00 0.00 0.00 0.00 0.00 0.00 0.00 0.00 0.00 0.00 0.00 0.01 0.01 0.01 0.01 0.03 0.03 0.03 0.05 0.09 0.15
0.00 0.00 0.00 0.00 0.00 0.00 0.00 0.00 0.00 0.00 0.00 0.00 0.00 0.00 0.00 0.00 0.00 0.00 0.00 0.00 0.00 0.00 0.00 0.00 0.00 0.00 0.00 0.00 0.00 0.00 0.00 0.00 0.00 0.01 0.01 0.01 0.02 0.03 0.04 0.04 0.06 0.10 0.14
0.00 0.00 0.00 0.00 0.00 0.00 0.00 0.00 0.00 0.00 0.00 0.00 0.00 0.00 0.00 0.00 0.00 0.00 0.00 0.00 0.00 0.00 0.00 0.00 0.00 0.00 0.00 0.00 0.00 0.00 0.00 0.00 0.00 0.01 0.01 0.02 0.03 0.04 0.05 0.06 0.07 0.09 0.12
0.00 0.00 0.00 0.00 0.00 0.00 0.00 0.00 0.00 0.00 0.00 0.00 0.00 0.00 0.00 0.00 0.00 0.00 0.00 0.00 0.00 0.00 0.00 0.00 0.00 0.00 0.00 0.00 0.00 0.00 0.00 0.00 0.01 0.01 0.02 0.02 0.03 0.05 0.07 0.08 0.10 0.12 0.14
0.00 0.00 0.00 0.00 0.00 0.00 0.00 0.00 0.00 0.00 0.00 0.00 0.00 0.00 0.00 0.00 0.00 0.00 0.00 0.00 0.00 0.00 0.00 0.00 0.00 0.00 0.00 0.00 0.00 0.00 0.00 0.01 0.03 0.04 0.04 0.04 0.05 0.07 0.08 0.10 0.11 0.13 0.15
0.00 0.00 0.00 0.00 0.00 0.00 0.00 0.00 0.00 0.00 0.00 0.00 0.00 0.00 0.00 0.00 0.00 0.00 0.00 0.00 0.00 0.00 0.00 0.00 0.00 0.00 0.00 0.00 0.00 0.00 0.01 0.04 0.08 0.07 0.05 0.05 0.06 0.07 0.09 0.10 0.11 0.13 0.14
0.00 0.00 0.00 0.00 0.00 0.00 0.00 0.00 0.00 0.00 0.00 0.00 0.00 0.00 0.00 0.00 0.00 0.00 0.00 0.00 0.00 0.00 0.00 0.00 0.00 0.00 0.00 0.00 0.00 0.00 0.02 0.06 0.06 0.04 0.03 0.04 0.06 0.08 0.09 0.10 0.11 0.12 0.13
0.00 0.00 0.00 0.00 0.00 0.00 0.00 0.00 0.00 0.00 0.00 0.00 0.00 0.00 0.00 0.01 0.01 0.00 0.00 0.01 0.01 0.00 0.00 0.00 0.00 0.00 0.00 0.00 0.00 0.00 0.03 0.06 0.05 0.03 0.03 0.05 0.07 0.08 0.09 0.09 0.10 0.11 0.12

GEFSGL_prec_meanprecacc_012.txt.gz
Total_Precipitation_Accumulation
0.00 0.01 0.01 0.01 0.00 0.00 0.00 0.00 0.00 0.00 0.00 0.00 0.00 0.00 0.00 0.00 0.00 0.00 0.00 0.00 0.00 0.00 0.00 0.00 0.00 0.00 0.00 0.00 0.00 0.01 0.01 0.03 0.02 0.00 0.00 0.00 0.01 0.02 0.03 0.05 0.06 0.05 0.04
0.01 0.02 0.02 0.02 0.02 0.01 0.01 0.00 0.00 0.00 0.00 0.00 0.00 0.00 0.00 0.00 0.00 0.00 0.00 0.00 0.00 0.00 0.00 0.00 0.00 0.00 0.00 0.00 0.00 0.00 0.01 0.02 0.02 0.01 0.00 0.00 0.01 0.01 0.03 0.04 0.03 0.03 0.02
0.02 0.03 0.04 0.05 0.06 0.05 0.03 0.01 0.01 0.00 0.00 0.00 0.00 0.00 0.00 0.00 0.00 0.00 0.00 0.00 0.00 0.00 0.00 0.00 0.00 0.00 0.00 0.00 0.00 0.00 0.00 0.00 0.01 0.01 0.00 0.00 0.01 0.01 0.02 0.03 0.04 0.05 0.04
0.05 0.08 0.10 0.11 0.11 0.10 0.07 0.04 0.02 0.01 0.00 0.00 0.00 0.00 0.00 0.00 0.01 0.01 0.00 0.00 0.00 0.00 0.00 0.00 0.00 0.00 0.00 0.00 0.00 0.00 0.00 0.00 0.00 0.00 0.00 0.00 0.00 0.01 0.02 0.03 0.05 0.06 0.08
0.16 0.18 0.18 0.15 0.12 0.08 0.05 0.03 0.02 0.01 0.01 0.01 0.00 0.00 0.00 0.02 0.04 0.02 0.01 0.00 0.00 0.00 0.00 0.00 0.00 0.01 0.01 0.01 0.01 0.00 0.00 0.00 0.00 0.00 0.00 0.00 0.00 0.01 0.01 0.01 0.02 0.03 0.06
0.24 0.23 0.20 0.15 0.12 0.09 0.06 0.05 0.03 0.02 0.01 0.00 0.00 0.00 0.00 0.03 0.07 0.04 0.01 0.00 0.00 0.00 0.00 0.00 0.01 0.02 0.02 0.03 0.04 0.03 0.02 0.01 0.01 0.00 0.00 0.00 0.00 0.00 0.01 0.01 0.01 0.02 0.01
0.26 0.26 0.23 0.18 0.14 0.10 0.07 0.04 0.02 0.01 0.00 0.00 0.00 0.00 0.00 0.03 0.07 0.03 0.00 0.00 0.00 0.00 0.00 0.00 0.00 0.00 0.01 0.01 0.01 0.01 0.00 0.00 0.00 0.00 0.00 0.00 0.00 0.00 0.01 0.02 0.02 0.02 0.01
0.24 0.21 0.17 0.12 0.09 0.06 0.04 0.02 0.01 0.00 0.00 0.00 0.00 0.00 0.00 0.01 0.03 0.04 0.01 0.00 0.00 0.00 0.00 0.00 0.00 0.00 0.00 0.00 0.00 0.00 0.00 0.00 0.00 0.00 0.00 0.00 0.00 0.00 0.01 0.02 0.03 0.03 0.02
0.14 0.11 0.08 0.05 0.04 0.03 0.02 0.01 0.00 0.00 0.00 0.00 0.00 0.00 0.00 0.00 0.00 0.02 0.01 0.00 0.00 0.00 0.00 0.00 0.00 0.00 0.00 0.01 0.01 0.00 0.00 0.00 0.00 0.00 0.00 0.01 0.01 0.01 0.02 0.03 0.04 0.04 0.03
0.06 0.04 0.02 0.01 0.02 0.02 0.01 0.00 0.00 0.00 0.00 0.00 0.00 0.00 0.00 0.00 0.00 0.00 0.01 0.00 0.00 0.00 0.00 0.00 0.00 0.00 0.01 0.01 0.01 0.01 0.00 0.00 0.00 0.00 0.00 0.00 0.00 0.00 0.01 0.02 0.03 0.04 0.04
0.02 0.01 0.00 0.00 0.00 0.00 0.00 0.00 0.00 0.00 0.00 0.00 0.00 0.00 0.00 0.00 0.00 0.00 0.01 0.00 0.00 0.00 0.00 0.00 0.00 0.00 0.01 0.01 0.01 0.00 0.01 0.01 0.01 0.00 0.00 0.01 0.01 0.00 0.00 0.01 0.01 0.03 0.03
0.00 0.00 0.00 0.00 0.00 0.00 0.00 0.00 0.00 0.00 0.00 0.00 0.00 0.00 0.00 0.00 0.00 0.00 0.01 0.01 0.01 0.00 0.00 0.00 0.00 0.00 0.00 0.00 0.00 0.00 0.00 0.00 0.00 0.00 0.01 0.01 0.01 0.01 0.01 0.01 0.02 0.03 0.03
0.00 0.00 0.00 0.00 0.00 0.00 0.00 0.00 0.00 0.00 0.00 0.00 0.00 0.00 0.00 0.00 0.00 0.00 0.01 0.00 0.00 0.00 0.00 0.00 0.00 0.00 0.00 0.00 0.00 0.00 0.00 0.00 0.00 0.00 0.00 0.01 0.01 0.01 0.01 0.02 0.02 0.03 0.04
0.00 0.00 0.00 0.00 0.00 0.00 0.00 0.00 0.00 0.00 0.00 0.00 0.00 0.00 0.00 0.00 0.00 0.01 0.02 0.01 0.00 0.00 0.00 0.00 0.00 0.00 0.00 0.00 0.00 0.00 0.00 0.00 0.00 0.01 0.01 0.00 0.00 0.01 0.01 0.01 0.02 0.04 0.05
0.00 0.00 0.00 0.00 0.00 0.00 0.00 0.00 0.00 0.00 0.00 0.00 0.00 0.00 0.00 0.00 0.00 0.03 0.05 0.03 0.01 0.01 0.00 0.00 0.00 0.00 0.00 0.00 0.00 0.00 0.00 0.00 0.00 0.00 0.01 0.01 0.01 0.01 0.00 0.01 0.02 0.04 0.07
0.00 0.00 0.00 0.00 0.00 0.00 0.00 0.00 0.00 0.00 0.00 0.00 0.00 0.00 0.01 0.01 0.02 0.04 0.04 0.02 0.01 0.00 0.00 0.00 0.00 0.00 0.00 0.00 0.00 0.00 0.00 0.00 0.00 0.01 0.01 0.01 0.01 0.01 0.01 0.01 0.02 0.05 0.07
0.00 0.00 0.00 0.00 0.00 0.00 0.00 0.00 0.00 0.00 0.00 0.00 0.00 0.00 0.00 0.01 0.02 0.03 0.04 0.01 0.00 0.00 0.00 0.00 0.00 0.00 0.00 0.00 0.00 0.00 0.00 0.00 0.00 0.01 0.01 0.01 0.02 0.02 0.02 0.02 0.03 0.06 0.09
0.00 0.00 0.00 0.00 0.00 0.00 0.00 0.00 0.00 0.00 0.00 0.00 0.00 0.00 0.00 0.00 0.01 0.02 0.02 0.00 0.00 0.00 0.00 0.00 0.00 0.00 0.00 0.00 0.00 0.00 0.00 0.00 0.00 0.01 0.01 0.01 0.02 0.03 0.04 0.04 0.05 0.09 0.12
0.00 0.00 0.01 0.00 0.00 0.00 0.00 0.00 0.00 0.00 0.00 0.00 0.00 0.00 0.00 0.00 0.00 0.00 0.00 0.00 0.00 0.00 0.00 0.00 0.00 0.00 0.00 0.00 0.00 0.00 0.00 0.00 0.00 0.01 0.01 0.01 0.01 0.03 0.04 0.04 0.06 0.10 0.16
0.00 0.00 0.00 0.00 0.00 0.00 0.00 0.00 0.00 0.00 0.00 0.00 0.00 0.00 0.00 0.00 0.00 0.00 0.00 0.00 0.00 0.00 0.00 0.00 0.00 0.00 0.00 0.00 0.00 0.00 0.00 0.00 0.00 0.01 0.01 0.01 0.02 0.04 0.05 0.05 0.07 0.11 0.15
0.00 0.00 0.00 0.00 0.00 0.00 0.00 0.00 0.00 0.00 0.00 0.00 0.00 0.00 0.01 0.02 0.01 0.00 0.00 0.00 0.00 0.00 0.00 0.00 0.00 0.00 0.00 0.00 0.00 0.00 0.00 0.00 0.00 0.01 0.01 0.02 0.03 0.05 0.06 0.07 0.09 0.11 0.13
0.00 0.00 0.00 0.00 0.00 0.00 0.00 0.00 0.00 0.00 0.00 0.00 0.00 0.00 0.00 0.00 0.00 0.00 0.00 0.00 0.00 0.00 0.00 0.00 0.00 0.00 0.00 0.00 0.00 0.00 0.00 0.00 0.01 0.01 0.02 0.02 0.04 0.06 0.08 0.10 0.11 0.14 0.16
0.00 0.00 0.00 0.00 0.00 0.00 0.00 0.00 0.00 0.00 0.00 0.00 0.00 0.00 0.00 0.00 0.00 0.00 0.00 0.00 0.00 0.00 0.00 0.00 0.00 0.00 0.00 0.00 0.00 0.00 0.00 0.01 0.03 0.04 0.05 0.06 0.06 0.08 0.10 0.12 0.14 0.16 0.18
0.00 0.00 0.00 0.00 0.00 0.00 0.00 0.00 0.00 0.00 0.00 0.00 0.00 0.00 0.00 0.00 0.00 0.00 0.00 0.00 0.00 0.00 0.00 0.00 0.00 0.00 0.00 0.00 0.00 0.00 0.01 0.04 0.08 0.10 0.09 0.10 0.10 0.10 0.11 0.13 0.15 0.17 0.20
0.00 0.00 0.00 0.00 0.00 0.00 0.00 0.00 0.00 0.00 0.00 0.00 0.00 0.00 0.00 0.00 0.00 0.00 0.00 0.01 0.01 0.01 0.00 0.01 0.00 0.00 0.00 0.00 0.00 0.00 0.02 0.06 0.08 0.10 0.11 0.11 0.10 0.10 0.12 0.15 0.17 0.19 0.21
0.00 0.00 0.00 0.00 0.00 0.00 0.00 0.00 0.00 0.00 0.00 0.00 0.01 0.01 0.01 0.01 0.01 0.01 0.01 0.02 0.02 0.01 0.01 0.00 0.00 0.00 0.00 0.00 0.00 0.00 0.03 0.08 0.11 0.11 0.08 0.08 0.09 0.11 0.13 0.15 0.16 0.18 0.20

GEFSGL_prec_meanprecacc_018.txt.gz
Total_Precipitation_Accumulation
0.01 0.01 0.01 0.02 0.03 0.03 0.04 0.04 0.05 0.04 0.04 0.03 0.02 0.01 0.01 0.00 0.00 0.00 0.00 0.00 0.00 0.00 0.00 0.00 0.00 0.00 0.00 0.00 0.01 0.01 0.02 0.03 0.02 0.00 0.00 0.00 0.01 0.02 0.03 0.05 0.06 0.05 0.04
0.02 0.02 0.03 0.04 0.06 0.08 0.10 0.11 0.10 0.08 0.07 0.05 0.04 0.03 0.02 0.01 0.00 0.00 0.00 0.00 0.00 0.00 0.00 0.00 0.00 0.00 0.00 0.00 0.01 0.01 0.02 0.02 0.03 0.01 0.00 0.01 0.01 0.02 0.03 0.04 0.03 0.03 0.02
0.03 0.04 0.06 0.08 0.12 0.15 0.18 0.18 0.16 0.14 0.11 0.08 0.07 0.05 0.03 0.02 0.01 0.01 0.00 0.00 0.00 0.00 0.00 0.00 0.00 0.00 0.00 0.00 0.01 0.01 0.01 0.02 0.02 0.03 0.02 0.01 0.01 0.02 0.03 0.03 0.04 0.05 0.04
0.08 0.10 0.14 0.17 0.21 0.24 0.24 0.23 0.20 0.18 0.16 0.14 0.12 0.09 0.06 0.04 0.03 0.02 0.01 0.00 0.00 0.00 0.00 0.00 0.00 0.00 0.00 0.00 0.00 0.01 0.01 0.02 0.02 0.02 0.02 0.02 0.01 0.01 0.02 0.03 0.05 0.06 0.08
0.19 0.22 0.23 0.22 0.22 0.21 0.20 0.20 0.20 0.20 0.19 0.17 0.13 0.10 0.07 0.06 0.05 0.03 0.01 0.01 0.01 0.01 0.01 0.00 0.01 0.01 0.02 0.02 0.02 0.01 0.01 0.01 0.01 0.01 0.01 0.01 0.01 0.01 0.01 0.01 0.02 0.03 0.06
0.26 0.27 0.25 0.22 0.21 0.20 0.20 0.19 0.19 0.18 0.15 0.12 0.09 0.08 0.07 0.09 0.11 0.04 0.01 0.01 0.01 0.01 0.01 0.01 0.01 0.02 0.04 0.06 0.06 0.04 0.02 0.01 0.01 0.01 0.01 0.01 0.01 0.01 0.01 0.01 0.01 0.02 0.01
0.28 0.28 0.26 0.24 0.23 0.21 0.18 0.16 0.14 0.12 0.09 0.06 0.04 0.04 0.05 0.10 0.13 0.05 0.01 0.00 0.00 0.00 0.00 0.00 0.00 0.01 0.01 0.01 0.02 0.01 0.01 0.00 0.01 0.01 0.01 0.01 0.01 0.01 0.02 0.02 0.02 0.02 0.01
0.25 0.23 0.19 0.16 0.15 0.14 0.13 0.11 0.09 0.06 0.05 0.03 0.02 0.01 0.01 0.03 0.06 0.06 0.01 0.00 0.00 0.00 0.00 0.00 0.00 0.00 0.00 0.00 0.00 0.00 0.00 0.00 0.00 0.00 0.00 0.00 0.00 0.00 0.01 0.02 0.03 0.03 0.02
0.15 0.12 0.09 0.07 0.07 0.08 0.08 0.06 0.04 0.03 0.02 0.01 0.00 0.00 0.00 0.00 0.00 0.02 0.02 0.00 0.00 0.00 0.00 0.00 0.00 0.00 0.00 0.01 0.01 0.00 0.00 0.00 0.00 0.00 0.00 0.01 0.01 0.01 0.02 0.03 0.04 0.04 0.03
0.07 0.05 0.03 0.02 0.02 0.03 0.03 0.02 0.01 0.01 0.00 0.00 0.00 0.00 0.00 0.00 0.00 0.00 0.01 0.00 0.00 0.00 0.00 0.00 0.00 0.00 0.01 0.01 0.01 0.01 0.00 0.00 0.00 0.00 0.00 0.00 0.00 0.00 0.01 0.02 0.03 0.04 0.04
0.02 0.01 0.00 0.00 0.00 0.01 0.00 0.00 0.01 0.00 0.00 0.00 0.00 0.00 0.00 0.00 0.00 0.00 0.01 0.01 0.00 0.00 0.00 0.00 0.00 0.00 0.01 0.01 0.01 0.00 0.01 0.01 0.01 0.00 0.00 0.01 0.01 0.00 0.00 0.01 0.01 0.03 0.04
0.00 0.00 0.00 0.00 0.00 0.00 0.00 0.00 0.00 0.00 0.00 0.00 0.00 0.00 0.00 0.00 0.00 0.00 0.01 0.01 0.01 0.00 0.00 0.00 0.00 0.00 0.00 0.00 0.00 0.00 0.00 0.00 0.00 0.00 0.01 0.01 0.01 0.01 0.01 0.01 0.02 0.03 0.03
0.00 0.00 0.00 0.00 0.00 0.00 0.00 0.00 0.00 0.00 0.00 0.00 0.00 0.00 0.00 0.00 0.00 0.00 0.01 0.01 0.01 0.00 0.00 0.00 0.00 0.00 0.00 0.00 0.00 0.00 0.00 0.00 0.00 0.00 0.00 0.01 0.01 0.01 0.01 0.02 0.02 0.03 0.04
0.00 0.00 0.00 0.00 0.00 0.00 0.00 0.00 0.00 0.00 0.00 0.00 0.00 0.00 0.00 0.00 0.00 0.01 0.02 0.02 0.01 0.01 0.00 0.00 0.00 0.00 0.00 0.00 0.00 0.00 0.00 0.00 0.00 0.01 0.01 0.00 0.00 0.01 0.01 0.01 0.02 0.04 0.05
0.00 0.00 0.00 0.00 0.00 0.00 0.00 0.00 0.00 0.00 0.00 0.01 0.01 0.01 0.01 0.01 0.01 0.05 0.08 0.06 0.04 0.02 0.01 0.00 0.00 0.00 0.00 0.00 0.00 0.00 0.00 0.00 0.00 0.00 0.01 0.01 0.01 0.01 0.00 0.01 0.02 0.04 0.07
0.00 0.00 0.00 0.00 0.00 0.00 0.00 0.00 0.00 0.00 0.00 0.00 0.00 0.01 0.01 0.01 0.03 0.06 0.07 0.05 0.02 0.01 0.00 0.00 0.00 0.00 0.00 0.00 0.00 0.00 0.00 0.00 0.00 0.01 0.01 0.01 0.01 0.01 0.01 0.01 0.02 0.05 0.07
0.00 0.00 0.00 0.00 0.00 0.00 0.00 0.00 0.00 0.00 0.00 0.00 0.00 0.00 0.01 0.02 0.03 0.05 0.07 0.03 0.01 0.00 0.00 0.00 0.00 0.00 0.00 0.00 0.00 0.00 0.00 0.00 0.00 0.01 0.01 0.01 0.02 0.02 0.02 0.02 0.03 0.06 0.09
0.00 0.00 0.00 0.00 0.00 0.00 0.00 0.00 0.00 0.00 0.00 0.00 0.00 0.00 0.00 0.01 0.02 0.03 0.05 0.03 0.01 0.01 0.00 0.00 0.00 0.00 0.00 0.00 0.00 0.00 0.00 0.00 0.00 0.01 0.01 0.01 0.02 0.04 0.04 0.04 0.05 0.09 0.12
0.00 0.00 0.01 0.01 0.00 0.00 0.00 0.00 0.00 0.00 0.00 0.00 0.00 0.00 0.00 0.00 0.01 0.01 0.02 0.01 0.01 0.00 0.00 0.00 0.00 0.00 0.00 0.00 0.00 0.00 0.00 0.00 0.00 0.01 0.01 0.01 0.02 0.04 0.04 0.04 0.06 0.10 0.16
0.00 0.00 0.01 0.00 0.00 0.00 0.00 0.00 0.00 0.00 0.00 0.00 0.00 0.00 0.00 0.01 0.01 0.01 0.01 0.00 0.00 0.00 0.00 0.00 0.00 0.00 0.00 0.00 0.00 0.00 0.00 0.00 0.00 0.01 0.01 0.01 0.02 0.04 0.05 0.06 0.08 0.11 0.15
0.00 0.00 0.00 0.00 0.00 0.00 0.00 0.01 0.01 0.00 0.00 0.00 0.00 0.00 0.02 0.02 0.01 0.00 0.00 0.00 0.00 0.00 0.00 0.00 0.00 0.00 0.00 0.00 0.00 0.00 0.00 0.00 0.00 0.01 0.01 0.02 0.03 0.05 0.06 0.08 0.09 0.11 0.14
0.00 0.00 0.00 0.00 0.00 0.00 0.01 0.00 0.00 0.00 0.00 0.00 0.00 0.00 0.01 0.00 0.00 0.00 0.00 0.00 0.00 0.00 0.00 0.00 0.00 0.00 0.00 0.00 0.00 0.00 0.00 0.00 0.01 0.01 0.02 0.02 0.04 0.06 0.08 0.10 0.12 0.15 0.17
0.00 0.00 0.00 0.00 0.00 0.00 0.00 0.00 0.00 0.00 0.00 0.00 0.00 0.00 0.00 0.00 0.00 0.00 0.00 0.00 0.00 0.00 0.00 0.00 0.00 0.00 0.00 0.00 0.00 0.00 0.01 0.01 0.03 0.04 0.05 0.06 0.06 0.08 0.11 0.13 0.15 0.17 0.19
0.00 0.00 0.00 0.00 0.00 0.00 0.00 0.00 0.00 0.00 0.00 0.00 0.00 0.00 0.00 0.00 0.00 0.00 0.00 0.00 0.00 0.01 0.01 0.01 0.01 0.01 0.00 0.00 0.00 0.00 0.01 0.04 0.08 0.10 0.10 0.11 0.11 0.11 0.13 0.15 0.16 0.18 0.21
0.00 0.00 0.00 0.00 0.00 0.00 0.00 0.00 0.00 0.00 0.00 0.00 0.00 0.00 0.00 0.00 0.00 0.00 0.01 0.01 0.01 0.01 0.01 0.01 0.01 0.00 0.00 0.00 0.00 0.00 0.02 0.07 0.09 0.12 0.15 0.16 0.15 0.14 0.16 0.17 0.18 0.20 0.23
0.00 0.00 0.00 0.00 0.00 0.00 0.01 0.01 0.01 0.00 0.01 0.01 0.01 0.01 0.01 0.01 0.01 0.01 0.01 0.02 0.02 0.02 0.01 0.01 0.00 0.00 0.00 0.00 0.00 0.01 0.04 0.12 0.17 0.19 0.18 0.18 0.17 0.15 0.15 0.17 0.18 0.20 0.22

GEFSGL_prec_meanprecacc_024.txt.gz
Total_Precipitation_Accumulation
0.01 0.01 0.02 0.02 0.03 0.03 0.04 0.05 0.06 0.07 0.08 0.08 0.08 0.08 0.08 0.09 0.09 0.09 0.09 0.07 0.05 0.02 0.01 0.01 0.00 0.00 0.00 0.00 0.01 0.01 0.02 0.03 0.02 0.00 0.00 0.00 0.01 0.02 0.03 0.05 0.06 0.05 0.04
0.03 0.03 0.03 0.04 0.06 0.09 0.11 0.12 0.12 0.13 0.13 0.13 0.12 0.11 0.10 0.09 0.08 0.08 0.08 0.07 0.06 0.05 0.03 0.03 0.02 0.01 0.00 0.00 0.01 0.01 0.02 0.02 0.03 0.02 0.00 0.01 0.01 0.02 0.03 0.04 0.03 0.03 0.02
0.04 0.05 0.06 0.09 0.12 0.16 0.19 0.19 0.19 0.19 0.19 0.18 0.18 0.17 0.16 0.15 0.13 0.11 0.10 0.09 0.08 0.07 0.06 0.05 0.04 0.03 0.01 0.01 0.01 0.01 0.01 0.02 0.02 0.03 0.02 0.02 0.01 0.02 0.03 0.03 0.04 0.05 0.04
0.09 0.11 0.14 0.18 0.22 0.25 0.26 0.24 0.23 0.23 0.23 0.23 0.23 0.24 0.24 0.24 0.23 0.20 0.17 0.14 0.12 0.10 0.08 0.07 0.06 0.04 0.02 0.01 0.01 0.01 0.01 0.02 0.02 0.03 0.03 0.03 0.02 0.02 0.03 0.04 0.05 0.06 0.08
0.20 0.23 0.23 0.22 0.22 0.22 0.22 0.22 0.23 0.25 0.26 0.25 0.24 0.24 0.27 0.30 0.29 0.20 0.17 0.16 0.15 0.14 0.12 0.09 0.07 0.06 0.05 0.04 0.02 0.01 0.01 0.01 0.01 0.02 0.02 0.02 0.01 0.02 0.02 0.02 0.03 0.03 0.06
0.27 0.27 0.25 0.22 0.21 0.21 0.21 0.22 0.23 0.23 0.21 0.17 0.16 0.20 0.26 0.32 0.34 0.20 0.13 0.13 0.15 0.14 0.13 0.10 0.07 0.07 0.07 0.09 0.08 0.05 0.03 0.02 0.02 0.01 0.02 0.02 0.01 0.02 0.02 0.03 0.04 0.04 0.03
0.28 0.28 0.26 0.24 0.23 0.21 0.20 0.18 0.17 0.16 0.13 0.10 0.08 0.10 0.15 0.23 0.27 0.16 0.09 0.07 0.07 0.06 0.06 0.04 0.03 0.03 0.03 0.03 0.03 0.02 0.01 0.01 0.01 0.02 0.03 0.04 0.04 0.03 0.04 0.05 0.06 0.06 0.05
0.25 0.23 0.19 0.16 0.15 0.14 0.13 0.12 0.10 0.09 0.08 0.06 0.04 0.04 0.04 0.06 0.11 0.11 0.05 0.03 0.03 0.02 0.01 0.01 0.00 0.00 0.01 0.01 0.00 0.00 0.00 0.00 0.00 0.01 0.02 0.04 0.04 0.04 0.05 0.07 0.07 0.07 0.05
0.15 0.12 0.09 0.07 0.07 0.08 0.08 0.07 0.04 0.03 0.03 0.02 0.01 0.01 0.01 0.01 0.02 0.05 0.04 0.01 0.01 0.01 0.00 0.00 0.00 0.00 0.01 0.01 0.01 0.01 0.00 0.00 0.00 0.00 0.01 0.02 0.02 0.03 0.03 0.05 0.05 0.06 0.04
0.07 0.05 0.03 0.02 0.02 0.03 0.03 0.02 0.01 0.01 0.01 0.00 0.00 0.00 0.00 0.00 0.01 0.04 0.04 0.01 0.01 0.00 0.00 0.00 0.00 0.00 0.01 0.01 0.01 0.01 0.00 0.00 0.00 0.00 0.00 0.00 0.00 0.00 0.01 0.02 0.03 0.05 0.04
0.02 0.01 0.00 0.00 0.00 0.01 0.00 0.00 0.01 0.00 0.00 0.00 0.00 0.00 0.00 0.00 0.00 0.03 0.06 0.02 0.01 0.00 0.00 0.00 0.00 0.01 0.01 0.01 0.01 0.00 0.01 0.01 0.01 0.00 0.00 0.01 0.01 0.00 0.00 0.01 0.01 0.03 0.04
0.00 0.00 0.00 0.00 0.00 0.00 0.00 0.00 0.00 0.00 0.00 0.00 0.00 0.00 0.00 0.00 0.00 0.03 0.06 0.07 0.05 0.01 0.00 0.00 0.00 0.00 0.00 0.00 0.00 0.00 0.00 0.00 0.00 0.00 0.01 0.01 0.01 0.01 0.01 0.01 0.02 0.03 0.03
0.00 0.00 0.00 0.00 0.00 0.00 0.00 0.00 0.00 0.00 0.00 0.00 0.00 0.00 0.00 0.00 0.00 0.01 0.02 0.03 0.04 0.03 0.01 0.01 0.01 0.00 0.00 0.00 0.00 0.00 0.00 0.00 0.00 0.00 0.00 0.01 0.01 0.01 0.01 0.02 0.02 0.03 0.04
0.00 0.00 0.00 0.00 0.00 0.00 0.00 0.00 0.00 0.00 0.01 0.03 0.02 0.01 0.00 0.00 0.00 0.01 0.03 0.02 0.02 0.03 0.02 0.02 0.02 0.00 0.00 0.00 0.00 0.00 0.00 0.00 0.00 0.01 0.01 0.00 0.00 0.01 0.01 0.01 0.02 0.04 0.05
0.00 0.00 0.00 0.00 0.00 0.00 0.00 0.00 0.00 0.00 0.02 0.05 0.04 0.03 0.03 0.02 0.03 0.08 0.11 0.08 0.06 0.05 0.03 0.01 0.01 0.00 0.00 0.00 0.00 0.00 0.00 0.00 0.00 0.00 0.01 0.01 0.01 0.01 0.00 0.01 0.02 0.04 0.07
0.00 0.00 0.00 0.00 0.00 0.00 0.00 0.00 0.00 0.00 0.01 0.01 0.02 0.03 0.03 0.05 0.08 0.09 0.10 0.09 0.06 0.05 0.03 0.01 0.00 0.00 0.00 0.00 0.00 0.00 0.00 0.00 0.00 0.01 0.01 0.01 0.01 0.01 0.01 0.01 0.02 0.05 0.07
0.00 0.00 0.00 0.00 0.00 0.00 0.00 0.00 0.00 0.00 0.00 0.00 0.00 0.01 0.02 0.04 0.06 0.07 0.10 0.07 0.05 0.03 0.02 0.01 0.00 0.00 0.00 0.00 0.00 0.00 0.00 0.00 0.00 0.01 0.01 0.01 0.02 0.02 0.02 0.02 0.03 0.06 0.09
0.00 0.00 0.00 0.00 0.00 0.00 0.00 0.00 0.00 0.00 0.00 0.00 0.00 0.00 0.01 0.02 0.03 0.05 0.07 0.05 0.03 0.02 0.01 0.01 0.00 0.00 0.00 0.00 0.00 0.00 0.00 0.00 0.00 0.01 0.01 0.01 0.02 0.04 0.04 0.04 0.05 0.09 0.12
0.00 0.00 0.01 0.01 0.00 0.00 0.00 0.00 0.00 0.00 0.00 0.00 0.00 0.00 0.00 0.00 0.01 0.01 0.02 0.01 0.01 0.01 0.00 0.00 0.00 0.00 0.00 0.00 0.00 0.00 0.00 0.00 0.00 0.01 0.01 0.01 0.02 0.04 0.04 0.04 0.06 0.10 0.16
0.00 0.01 0.01 0.01 0.00 0.00 0.00 0.00 0.00 0.00 0.00 0.00 0.00 0.00 0.00 0.01 0.01 0.01 0.01 0.00 0.00 0.00 0.00 0.00 0.00 0.00 0.00 0.00 0.00 0.00 0.00 0.00 0.00 0.01 0.01 0.01 0.02 0.04 0.05 0.06 0.08 0.11 0.15
0.00 0.00 0.00 0.01 0.01 0.01 0.01 0.01 0.01 0.00 0.00 0.00 0.00 0.00 0.02 0.03 0.01 0.00 0.00 0.00 0.00 0.00 0.00 0.00 0.00 0.00 0.00 0.00 0.00 0.00 0.00 0.00 0.00 0.01 0.01 0.02 0.03 0.05 0.06 0.08 0.09 0.11 0.14
0.01 0.01 0.01 0.02 0.01 0.01 0.01 0.01 0.01 0.01 0.00 0.00 0.00 0.00 0.01 0.00 0.00 0.00 0.00 0.00 0.00 0.00 0.00 0.00 0.00 0.00 0.00 0.00 0.00 0.00 0.00 0.00 0.01 0.01 0.02 0.02 0.04 0.06 0.08 0.10 0.12 0.15 0.17
0.03 0.03 0.02 0.01 0.01 0.00 0.00 0.00 0.00 0.01 0.01 0.00 0.00 0.00 0.00 0.00 0.00 0.00 0.00 0.00 0.00 0.00 0.00 0.00 0.00 0.00 0.00 0.00 0.00 0.00 0.01 0.01 0.03 0.04 0.05 0.06 0.06 0.08 0.11 0.13 0.15 0.17 0.19
0.03 0.02 0.01 0.00 0.00 0.00 0.01 0.01 0.01 0.01 0.01 0.01 0.01 0.00 0.00 0.00 0.00 0.00 0.00 0.00 0.00 0.01 0.01 0.01 0.01 0.01 0.00 0.00 0.00 0.00 0.01 0.04 0.08 0.10 0.10 0.11 0.11 0.11 0.13 0.15 0.17 0.18 0.21
0.01 0.01 0.01 0.01 0.01 0.01 0.02 0.02 0.02 0.02 0.02 0.02 0.01 0.01 0.01 0.00 0.00 0.00 0.01 0.01 0.01 0.01 0.01 0.01 0.01 0.00 0.00 0.00 0.00 0.00 0.02 0.07 0.11 0.15 0.19 0.20 0.18 0.16 0.16 0.18 0.19 0.21 0.23
0.00 0.01 0.01 0.01 0.02 0.03 0.04 0.04 0.04 0.04 0.04 0.04 0.03 0.02 0.02 0.02 0.01 0.01 0.01 0.02 0.02 0.02 0.01 0.01 0.00 0.00 0.00 0.00 0.00 0.01 0.05 0.15 0.22 0.27 0.28 0.28 0.23 0.19 0.18 0.19 0.20 0.21 0.24

GEFSGL_prec_meanprecacc_030.txt.gz
Total_Precipitation_Accumulation
0.01 0.01 0.02 0.02 0.03 0.03 0.04 0.05 0.07 0.08 0.08 0.09 0.09 0.09 0.11 0.13 0.15 0.18 0.21 0.23 0.24 0.23 0.22 0.21 0.20 0.17 0.13 0.08 0.05 0.04 0.03 0.04 0.03 0.00 0.00 0.01 0.02 0.02 0.03 0.06 0.06 0.05 0.04
0.03 0.03 0.04 0.04 0.06 0.09 0.11 0.12 0.13 0.14 0.14 0.14 0.13 0.12 0.12 0.11 0.12 0.14 0.17 0.19 0.21 0.23 0.24 0.24 0.23 0.20 0.16 0.11 0.07 0.04 0.04 0.04 0.04 0.02 0.01 0.01 0.01 0.02 0.03 0.04 0.03 0.03 0.02
0.04 0.05 0.06 0.09 0.12 0.16 0.19 0.20 0.20 0.20 0.19 0.19 0.19 0.18 0.18 0.18 0.18 0.17 0.17 0.17 0.18 0.19 0.19 0.21 0.23 0.24 0.21 0.15 0.09 0.05 0.04 0.03 0.03 0.03 0.02 0.02 0.02 0.02 0.03 0.03 0.04 0.05 0.04
0.09 0.11 0.14 0.18 0.22 0.25 0.26 0.25 0.23 0.23 0.24 0.24 0.24 0.25 0.26 0.29 0.30 0.26 0.23 0.21 0.21 0.21 0.20 0.20 0.20 0.20 0.20 0.18 0.14 0.08 0.05 0.04 0.04 0.04 0.03 0.03 0.02 0.02 0.03 0.04 0.05 0.06 0.08
0.20 0.23 0.23 0.22 0.22 0.22 0.22 0.22 0.23 0.25 0.26 0.26 0.24 0.25 0.29 0.34 0.37 0.28 0.22 0.22 0.24 0.25 0.25 0.24 0.22 0.22 0.22 0.19 0.15 0.11 0.06 0.04 0.03 0.04 0.04 0.03 0.02 0.02 0.03 0.03 0.05 0.04 0.07
0.27 0.27 0.25 0.22 0.21 0.21 0.21 0.22 0.23 0.23 0.21 0.18 0.17 0.20 0.27 0.35 0.42 0.30 0.19 0.18 0.21 0.23 0.24 0.23 0.21 0.21 0.22 0.24 0.21 0.13 0.09 0.06 0.05 0.05 0.04 0.04 0.03 0.03 0.04 0.06 0.07 0.07 0.05
0.28 0.28 0.26 0.24 0.23 0.21 0.20 0.18 0.17 0.16 0.13 0.10 0.09 0.10 0.15 0.24 0.32 0.26 0.15 0.10 0.11 0.12 0.13 0.13 0.12 0.12 0.12 0.11 0.10 0.07 0.06 0.05 0.05 0.06 0.09 0.09 0.06 0.04 0.06 0.08 0.09 0.10 0.09
0.25 0.23 0.19 0.16 0.15 0.14 0.13 0.12 0.10 0.09 0.08 0.06 0.04 0.04 0.04 0.07 0.15 0.22 0.11 0.04 0.05 0.05 0.05 0.05 0.05 0.05 0.05 0.04 0.03 0.03 0.03 0.03 0.04 0.06 0.09 0.12 0.12 0.10 0.09 0.11 0.13 0.14 0.12
0.15 0.12 0.09 0.07 0.07 0.08 0.08 0.07 0.04 0.03 0.03 0.02 0.01 0.01 0.01 0.01 0.05 0.17 0.11 0.02 0.03 0.04 0.03 0.03 0.02 0.02 0.03 0.03 0.03 0.03 0.03 0.03 0.04 0.06 0.09 0.10 0.12 0.12 0.12 0.12 0.14 0.17 0.16
0.07 0.05 0.03 0.02 0.02 0.03 0.03 0.02 0.01 0.01 0.01 0.00 0.00 0.00 0.00 0.00 0.02 0.13 0.16 0.03 0.02 0.03 0.04 0.03 0.03 0.02 0.02 0.02 0.02 0.02 0.02 0.02 0.02 0.03 0.04 0.04 0.04 0.04 0.05 0.08 0.11 0.13 0.13
0.02 0.01 0.00 0.00 0.00 0.01 0.00 0.00 0.01 0.00 0.00 0.00 0.00 0.00 0.00 0.00 0.00 0.07 0.19 0.12 0.05 0.02 0.03 0.03 0.02 0.02 0.01 0.01 0.01 0.01 0.01 0.02 0.02 0.01 0.02 0.02 0.02 0.02 0.02 0.03 0.05 0.07 0.07
0.00 0.00 0.00 0.00 0.00 0.00 0.00 0.00 0.00 0.00 0.00 0.00 0.00 0.00 0.00 0.00 0.00 0.04 0.11 0.16 0.12 0.02 0.02 0.02 0.02 0.02 0.01 0.01 0.01 0.01 0.01 0.00 0.00 0.01 0.01 0.01 0.02 0.02 0.02 0.02 0.02 0.03 0.04
0.00 0.00 0.00 0.00 0.00 0.00 0.00 0.00 0.00 0.00 0.00 0.01 0.01 0.00 0.00 0.00 0.00 0.02 0.04 0.04 0.06 0.04 0.03 0.05 0.04 0.02 0.01 0.01 0.00 0.00 0.00 0.00 0.00 0.01 0.01 0.01 0.01 0.01 0.01 0.02 0.03 0.03 0.04
0.00 0.00 0.00 0.00 0.00 0.00 0.00 0.00 0.00 0.00 0.02 0.05 0.03 0.01 0.00 0.00 0.01 0.05 0.05 0.03 0.03 0.03 0.03 0.06 0.05 0.02 0.00 0.00 0.00 0.00 0.00 0.00 0.00 0.01 0.01 0.00 0.00 0.01 0.01 0.01 0.02 0.04 0.05
0.00 0.00 0.00 0.00 0.00 0.00 0.00 0.00 0.00 0.00 0.03 0.07 0.05 0.04 0.04 0.03 0.07 0.15 0.15 0.11 0.09 0.08 0.05 0.03 0.02 0.01 0.00 0.00 0.00 0.00 0.00 0.00 0.00 0.00 0.01 0.01 0.01 0.01 0.00 0.01 0.02 0.04 0.07
0.00 0.00 0.00 0.00 0.00 0.00 0.00 0.00 0.00 0.00 0.01 0.02 0.02 0.04 0.05 0.08 0.12 0.14 0.13 0.12 0.11 0.09 0.05 0.03 0.02 0.01 0.01 0.00 0.00 0.00 0.00 0.00 0.00 0.01 0.01 0.01 0.01 0.01 0.01 0.01 0.02 0.05 0.07
0.00 0.00 0.00 0.00 0.00 0.00 0.00 0.01 0.01 0.00 0.00 0.00 0.01 0.02 0.04 0.07 0.09 0.10 0.12 0.08 0.06 0.05 0.02 0.02 0.01 0.01 0.00 0.00 0.00 0.00 0.00 0.00 0.00 0.01 0.01 0.01 0.02 0.02 0.02 0.02 0.03 0.06 0.09
0.00 0.00 0.01 0.01 0.01 0.02 0.02 0.02 0.02 0.01 0.01 0.00 0.00 0.00 0.02 0.03 0.05 0.06 0.08 0.05 0.03 0.02 0.01 0.01 0.00 0.00 0.00 0.00 0.00 0.00 0.00 0.00 0.00 0.01 0.01 0.01 0.02 0.04 0.04 0.04 0.05 0.09 0.12
0.00 0.01 0.02 0.03 0.02 0.03 0.03 0.03 0.02 0.02 0.01 0.01 0.00 0.00 0.00 0.01 0.01 0.02 0.02 0.01 0.01 0.01 0.00 0.00 0.00 0.00 0.00 0.00 0.00 0.00 0.00 0.00 0.00 0.01 0.01 0.01 0.02 0.04 0.04 0.04 0.06 0.10 0.16
0.00 0.01 0.03 0.03 0.03 0.03 0.02 0.02 0.02 0.02 0.02 0.01 0.01 0.00 0.00 0.01 0.01 0.01 0.01 0.00 0.00 0.00 0.00 0.00 0.00 0.00 0.00 0.00 0.00 0.00 0.00 0.00 0.00 0.01 0.01 0.01 0.02 0.04 0.05 0.06 0.08 0.11 0.15
0.01 0.01 0.01 0.02 0.02 0.02 0.03 0.03 0.03 0.03 0.02 0.02 0.01 0.01 0.05 0.07 0.03 0.00 0.00 0.00 0.00 0.00 0.00 0.00 0.00 0.00 0.00 0.00 0.00 0.00 0.00 0.00 0.00 0.01 0.01 0.02 0.03 0.05 0.06 0.08 0.09 0.11 0.14
0.02 0.03 0.03 0.03 0.03 0.03 0.04 0.04 0.03 0.03 0.02 0.02 0.01 0.01 0.03 0.02 0.01 0.00 0.00 0.00 0.00 0.00 0.00 0.00 0.00 0.00 0.00 0.00 0.00 0.00 0.00 0.00 0.01 0.01 0.02 0.02 0.04 0.06 0.08 0.10 0.12 0.15 0.17
0.05 0.04 0.03 0.02 0.01 0.02 0.02 0.01 0.02 0.03 0.02 0.02 0.02 0.01 0.01 0.01 0.00 0.00 0.00 0.00 0.00 0.00 0.00 0.00 0.00 0.00 0.00 0.00 0.00 0.00 0.01 0.01 0.03 0.04 0.05 0.06 0.06 0.08 0.11 0.13 0.15 0.17 0.19
0.04 0.02 0.01 0.01 0.01 0.01 0.02 0.02 0.03 0.03 0.03 0.03 0.02 0.02 0.01 0.01 0.00 0.00 0.00 0.00 0.00 0.01 0.01 0.01 0.01 0.01 0.00 0.00 0.00 0.00 0.01 0.04 0.09 0.10 0.10 0.11 0.11 0.11 0.13 0.15 0.17 0.18 0.21
0.01 0.01 0.01 0.02 0.02 0.03 0.03 0.03 0.03 0.04 0.04 0.04 0.03 0.03 0.02 0.01 0.01 0.01 0.01 0.01 0.01 0.01 0.01 0.01 0.01 0.00 0.00 0.00 0.00 0.00 0.02 0.08 0.12 0.18 0.21 0.22 0.19 0.16 0.17 0.19 0.20 0.21 0.23
0.01 0.01 0.02 0.02 0.03 0.04 0.05 0.06 0.05 0.06 0.06 0.06 0.05 0.04 0.03 0.02 0.02 0.02 0.01 0.02 0.02 0.02 0.01 0.01 0.00 0.00 0.00 0.00 0.00 0.01 0.06 0.16 0.26 0.33 0.36 0.36 0.29 0.22 0.19 0.21 0.21 0.22 0.24

GEFSGL_prec_meanprecacc_036.txt.gz
Total_Precipitation_Accumulation
0.01 0.01 0.02 0.02 0.03 0.03 0.04 0.05 0.07 0.08 0.09 0.09 0.09 0.09 0.11 0.13 0.15 0.18 0.22 0.24 0.25 0.24 0.24 0.24 0.24 0.23 0.22 0.20 0.17 0.14 0.11 0.11 0.09 0.03 0.02 0.03 0.06 0.09 0.12 0.13 0.14 0.12 0.09
0.03 0.03 0.04 0.04 0.06 0.09 0.11 0.12 0.13 0.14 0.14 0.14 0.13 0.12 0.12 0.11 0.13 0.15 0.17 0.20 0.22 0.24 0.26 0.27 0.28 0.28 0.28 0.27 0.25 0.21 0.17 0.14 0.13 0.08 0.03 0.03 0.06 0.09 0.12 0.12 0.10 0.09 0.07
0.04 0.05 0.06 0.09 0.12 0.16 0.19 0.20 0.20 0.20 0.19 0.19 0.19 0.18 0.18 0.18 0.19 0.19 0.19 0.18 0.19 0.20 0.21 0.24 0.28 0.31 0.32 0.31 0.30 0.27 0.25 0.19 0.15 0.12 0.07 0.05 0.06 0.09 0.12 0.11 0.10 0.10 0.08
0.09 0.11 0.14 0.18 0.22 0.25 0.26 0.25 0.23 0.23 0.24 0.24 0.24 0.25 0.26 0.29 0.30 0.30 0.28 0.24 0.22 0.23 0.23 0.24 0.26 0.28 0.30 0.32 0.33 0.31 0.29 0.27 0.23 0.17 0.12 0.09 0.08 0.10 0.13 0.14 0.13 0.13 0.14
0.20 0.23 0.23 0.22 0.22 0.22 0.22 0.22 0.23 0.25 0.26 0.26 0.24 0.25 0.29 0.34 0.39 0.38 0.33 0.25 0.25 0.26 0.27 0.27 0.28 0.30 0.34 0.33 0.33 0.32 0.31 0.29 0.26 0.23 0.18 0.13 0.09 0.11 0.15 0.15 0.14 0.12 0.13
0.27 0.27 0.25 0.22 0.21 0.21 0.21 0.22 0.23 0.23 0.21 0.18 0.17 0.20 0.27 0.35 0.44 0.42 0.31 0.21 0.22 0.25 0.27 0.26 0.25 0.28 0.31 0.36 0.36 0.31 0.31 0.31 0.30 0.27 0.24 0.19 0.14 0.13 0.15 0.19 0.19 0.16 0.11
0.28 0.28 0.26 0.24 0.23 0.21 0.20 0.18 0.17 0.16 0.13 0.10 0.09 0.10 0.15 0.24 0.34 0.35 0.26 0.13 0.12 0.14 0.15 0.15 0.15 0.17 0.18 0.20 0.20 0.19 0.21 0.26 0.31 0.31 0.32 0.28 0.21 0.16 0.16 0.21 0.24 0.21 0.14
0.25 0.23 0.19 0.16 0.15 0.14 0.13 0.12 0.10 0.09 0.08 0.06 0.04 0.04 0.04 0.07 0.16 0.28 0.21 0.06 0.06 0.07 0.08 0.08 0.08 0.08 0.09 0.10 0.11 0.12 0.15 0.19 0.26 0.31 0.34 0.34 0.30 0.23 0.19 0.20 0.26 0.27 0.21
0.15 0.12 0.09 0.07 0.07 0.08 0.08 0.07 0.04 0.03 0.03 0.02 0.01 0.01 0.01 0.01 0.06 0.21 0.23 0.05 0.04 0.06 0.06 0.06 0.05 0.05 0.06 0.05 0.07 0.11 0.12 0.14 0.18 0.25 0.29 0.28 0.27 0.26 0.24 0.22 0.23 0.28 0.28
0.07 0.05 0.03 0.02 0.03 0.03 0.03 0.02 0.01 0.01 0.01 0.00 0.00 0.00 0.00 0.00 0.03 0.16 0.29 0.09 0.04 0.04 0.06 0.06 0.09 0.08 0.05 0.03 0.03 0.06 0.08 0.10 0.11 0.12 0.13 0.13 0.11 0.10 0.13 0.19 0.23 0.24 0.25
0.02 0.01 0.00 0.00 0.00 0.01 0.00 0.00 0.01 0.00 0.00 0.00 0.00 0.00 0.00 0.00 0.01 0.09 0.30 0.23 0.08 0.03 0.04 0.05 0.08 0.09 0.05 0.04 0.03 0.03 0.05 0.05 0.05 0.06 0.07 0.08 0.07 0.07 0.09 0.12 0.16 0.19 0.19
0.00 0.00 0.00 0.00 0.00 0.00 0.00 0.00 0.00 0.00 0.00 0.00 0.00 0.00 0.00 0.00 0.01 0.06 0.17 0.24 0.17 0.03 0.03 0.06 0.09 0.09 0.06 0.04 0.02 0.02 0.02 0.01 0.01 0.02 0.03 0.04 0.05 0.05 0.06 0.08 0.10 0.11 0.13
0.00 0.00 0.00 0.00 0.00 0.00 0.00 0.00 0.00 0.00 0.00 0.01 0.01 0.01 0.00 0.00 0.00 0.05 0.08 0.07 0.09 0.06 0.09 0.18 0.13 0.06 0.03 0.03 0.01 0.00 0.00 0.00 0.00 0.01 0.01 0.02 0.02 0.03 0.03 0.04 0.05 0.06 0.07
0.00 0.00 0.00 0.00 0.00 0.00 0.00 0.00 0.01 0.01 0.04 0.08 0.07 0.04 0.02 0.01 0.03 0.11 0.10 0.04 0.04 0.05 0.07 0.15 0.12 0.04 0.01 0.00 0.00 0.00 0.00 0.00 0.00 0.01 0.01 0.01 0.00 0.01 0.01 0.01 0.03 0.04 0.06
0.00 0.00 0.00 0.00 0.00 0.00 0.00 0.00 0.01 0.02 0.08 0.17 0.13 0.09 0.07 0.06 0.14 0.24 0.20 0.14 0.14 0.12 0.07 0.06 0.04 0.02 0.01 0.00 0.00 0.00 0.00 0.00 0.00 0.00 0.01 0.01 0.01 0.01 0.00 0.01 0.02 0.04 0.07
0.00 0.00 0.00 0.01 0.00 0.01 0.01 0.01 0.01 0.02 0.05 0.06 0.07 0.09 0.09 0.13 0.20 0.19 0.15 0.13 0.14 0.12 0.06 0.05 0.04 0.03 0.01 0.01 0.00 0.00 0.00 0.00 0.00 0.01 0.01 0.01 0.01 0.01 0.01 0.01 0.02 0.05 0.07
0.01 0.01 0.01 0.01 0.01 0.01 0.01 0.02 0.02 0.01 0.01 0.01 0.02 0.05 0.08 0.13 0.15 0.13 0.13 0.09 0.07 0.05 0.02 0.02 0.02 0.01 0.01 0.00 0.00 0.00 0.00 0.00 0.00 0.01 0.01 0.01 0.02 0.02 0.02 0.02 0.03 0.06 0.09
0.00 0.01 0.02 0.02 0.02 0.03 0.03 0.03 0.03 0.03 0.02 0.01 0.00 0.02 0.04 0.07 0.09 0.09 0.08 0.05 0.03 0.02 0.01 0.01 0.00 0.00 0.00 0.00 0.00 0.00 0.00 0.00 0.00 0.01 0.01 0.01 0.02 0.04 0.04 0.04 0.05 0.09 0.12
0.00 0.01 0.03 0.03 0.03 0.03 0.04 0.04 0.03 0.02 0.02 0.01 0.00 0.00 0.01 0.02 0.02 0.02 0.03 0.02 0.01 0.01 0.00 0.00 0.00 0.00 0.00 0.00 0.00 0.00 0.00 0.00 0.00 0.01 0.01 0.01 0.02 0.04 0.04 0.04 0.06 0.10 0.16
0.00 0.01 0.03 0.03 0.03 0.03 0.03 0.03 0.03 0.03 0.03 0.02 0.01 0.01 0.02 0.02 0.01 0.01 0.01 0.00 0.00 0.00 0.00 0.00 0.00 0.00 0.00 0.00 0.00 0.00 0.00 0.00 0.00 0.01 0.01 0.01 0.02 0.04 0.05 0.06 0.08 0.11 0.15
0.01 0.01 0.02 0.02 0.02 0.03 0.04 0.04 0.04 0.04 0.03 0.03 0.02 0.03 0.10 0.09 0.03 0.01 0.00 0.00 0.00 0.00 0.00 0.00 0.00 0.00 0.00 0.00 0.00 0.00 0.00 0.00 0.00 0.01 0.01 0.02 0.03 0.05 0.06 0.08 0.09 0.11 0.14
0.02 0.03 0.03 0.03 0.03 0.03 0.05 0.04 0.03 0.04 0.03 0.03 0.01 0.01 0.04 0.03 0.01 0.00 0.00 0.00 0.00 0.00 0.00 0.00 0.00 0.00 0.00 0.00 0.00 0.00 0.00 0.00 0.01 0.01 0.02 0.02 0.04 0.06 0.08 0.10 0.12 0.15 0.17
0.05 0.04 0.03 0.02 0.01 0.02 0.02 0.01 0.02 0.03 0.03 0.02 0.02 0.02 0.01 0.01 0.00 0.00 0.00 0.00 0.00 0.00 0.00 0.00 0.00 0.00 0.00 0.00 0.00 0.00 0.01 0.01 0.03 0.04 0.05 0.06 0.06 0.08 0.11 0.13 0.15 0.17 0.19
0.04 0.02 0.01 0.01 0.01 0.02 0.02 0.02 0.03 0.03 0.03 0.03 0.03 0.02 0.02 0.01 0.01 0.00 0.00 0.00 0.00 0.01 0.01 0.01 0.01 0.01 0.00 0.00 0.00 0.00 0.01 0.04 0.09 0.11 0.11 0.12 0.11 0.11 0.13 0.15 0.17 0.18 0.21
0.01 0.01 0.01 0.02 0.03 0.03 0.04 0.03 0.03 0.04 0.04 0.04 0.03 0.03 0.02 0.01 0.01 0.01 0.01 0.01 0.01 0.01 0.01 0.01 0.01 0.00 0.00 0.00 0.00 0.00 0.03 0.08 0.13 0.20 0.25 0.26 0.21 0.17 0.18 0.20 0.20 0.21 0.24
0.01 0.01 0.02 0.03 0.04 0.05 0.06 0.07 0.06 0.06 0.07 0.06 0.05 0.04 0.03 0.02 0.02 0.02 0.01 0.02 0.02 0.02 0.01 0.01 0.00 0.00 0.00 0.00 0.00 0.01 0.07 0.17 0.28 0.38 0.44 0.44 0.34 0.25 0.21 0.22 0.22 0.23 0.25

GEFSGL_prec_meanprecacc_042.txt.gz
Total_Precipitation_Accumulation
0.01 0.01 0.02 0.02 0.03 0.03 0.04 0.05 0.07 0.08 0.09 0.09 0.09 0.09 0.11 0.13 0.15 0.18 0.22 0.25 0.26 0.25 0.25 0.25 0.25 0.25 0.24 0.22 0.20 0.18 0.16 0.16 0.13 0.05 0.03 0.04 0.07 0.10 0.13 0.15 0.16 0.14 0.10
0.03 0.03 0.04 0.04 0.06 0.09 0.11 0.12 0.13 0.14 0.14 0.14 0.13 0.12 0.12 0.11 0.13 0.15 0.18 0.21 0.24 0.26 0.28 0.28 0.29 0.29 0.29 0.28 0.27 0.25 0.22 0.19 0.17 0.12 0.06 0.05 0.08 0.12 0.15 0.16 0.14 0.13 0.10
0.04 0.05 0.06 0.09 0.12 0.16 0.19 0.20 0.20 0.20 0.19 0.19 0.19 0.18 0.18 0.18 0.19 0.19 0.19 0.21 0.22 0.23 0.23 0.26 0.29 0.33 0.34 0.33 0.32 0.30 0.28 0.23 0.19 0.16 0.10 0.09 0.09 0.13 0.16 0.18 0.17 0.15 0.13
0.09 0.11 0.14 0.18 0.22 0.25 0.26 0.25 0.23 0.23 0.24 0.24 0.24 0.25 0.26 0.29 0.30 0.30 0.30 0.27 0.25 0.25 0.24 0.25 0.27 0.30 0.33 0.35 0.37 0.35 0.32 0.30 0.26 0.21 0.16 0.13 0.12 0.15 0.20 0.22 0.22 0.20 0.19
0.20 0.23 0.23 0.22 0.22 0.22 0.22 0.22 0.23 0.25 0.26 0.26 0.24 0.25 0.29 0.34 0.39 0.39 0.38 0.30 0.28 0.28 0.28 0.28 0.29 0.33 0.37 0.39 0.40 0.39 0.35 0.33 0.31 0.29 0.24 0.19 0.18 0.20 0.24 0.26 0.27 0.23 0.22
0.27 0.27 0.25 0.22 0.21 0.21 0.21 0.22 0.23 0.23 0.21 0.18 0.17 0.20 0.27 0.35 0.44 0.44 0.38 0.27 0.26 0.27 0.28 0.27 0.26 0.29 0.34 0.39 0.44 0.39 0.39 0.38 0.37 0.35 0.34 0.31 0.27 0.26 0.29 0.36 0.38 0.33 0.25
0.28 0.28 0.26 0.24 0.23 0.21 0.20 0.18 0.17 0.16 0.13 0.10 0.09 0.10 0.15 0.24 0.34 0.37 0.32 0.19 0.16 0.17 0.17 0.16 0.16 0.19 0.21 0.22 0.24 0.23 0.26 0.33 0.41 0.44 0.47 0.47 0.41 0.36 0.37 0.43 0.47 0.42 0.32
0.25 0.23 0.19 0.16 0.15 0.14 0.13 0.12 0.10 0.09 0.08 0.06 0.04 0.04 0.04 0.07 0.17 0.31 0.28 0.11 0.10 0.10 0.09 0.09 0.10 0.12 0.13 0.13 0.13 0.16 0.19 0.24 0.35 0.45 0.53 0.56 0.54 0.49 0.46 0.51 0.59 0.59 0.49
0.15 0.12 0.09 0.07 0.07 0.08 0.08 0.07 0.05 0.04 0.03 0.02 0.01 0.01 0.01 0.01 0.07 0.25 0.32 0.10 0.08 0.08 0.08 0.09 0.10 0.10 0.11 0.08 0.09 0.15 0.17 0.19 0.25 0.36 0.45 0.47 0.49 0.54 0.57 0.57 0.60 0.66 0.69
0.07 0.05 0.03 0.02 0.03 0.03 0.03 0.02 0.01 0.01 0.01 0.01 0.00 0.00 0.00 0.00 0.04 0.22 0.42 0.14 0.06 0.06 0.08 0.12 0.21 0.19 0.13 0.06 0.05 0.09 0.12 0.16 0.16 0.17 0.21 0.25 0.29 0.33 0.44 0.58 0.64 0.62 0.65
0.02 0.01 0.00 0.00 0.00 0.01 0.01 0.01 0.01 0.01 0.01 0.01 0.00 0.01 0.01 0.01 0.02 0.14 0.41 0.30 0.11 0.05 0.08 0.13 0.26 0.22 0.11 0.06 0.04 0.06 0.09 0.09 0.10 0.11 0.12 0.16 0.20 0.27 0.36 0.47 0.56 0.57 0.54
0.00 0.00 0.00 0.00 0.00 0.00 0.00 0.00 0.01 0.01 0.01 0.01 0.01 0.01 0.01 0.01 0.02 0.11 0.25 0.30 0.22 0.06 0.11 0.16 0.23 0.18 0.10 0.05 0.03 0.03 0.02 0.02 0.03 0.05 0.06 0.08 0.12 0.20 0.29 0.37 0.44 0.48 0.49
0.00 0.00 0.00 0.00 0.00 0.00 0.00 0.01 0.01 0.01 0.02 0.04 0.04 0.03 0.01 0.01 0.03 0.09 0.11 0.11 0.13 0.10 0.19 0.31 0.22 0.11 0.05 0.03 0.01 0.00 0.00 0.00 0.01 0.02 0.03 0.04 0.06 0.10 0.15 0.21 0.27 0.33 0.34
0.00 0.00 0.00 0.00 0.00 0.00 0.00 0.01 0.01 0.02 0.08 0.13 0.10 0.07 0.03 0.03 0.08 0.15 0.12 0.06 0.06 0.07 0.09 0.18 0.14 0.05 0.01 0.00 0.00 0.00 0.00 0.00 0.01 0.01 0.01 0.01 0.01 0.03 0.06 0.10 0.14 0.19 0.23
0.00 0.00 0.00 0.00 0.00 0.00 0.00 0.00 0.02 0.03 0.13 0.22 0.18 0.14 0.11 0.12 0.20 0.28 0.22 0.16 0.16 0.14 0.08 0.07 0.05 0.02 0.01 0.00 0.00 0.00 0.00 0.00 0.00 0.00 0.01 0.01 0.01 0.01 0.02 0.04 0.07 0.11 0.16
0.00 0.00 0.00 0.01 0.00 0.01 0.01 0.01 0.01 0.03 0.07 0.08 0.10 0.15 0.14 0.20 0.25 0.21 0.16 0.14 0.16 0.14 0.07 0.05 0.04 0.03 0.01 0.01 0.00 0.00 0.00 0.00 0.00 0.01 0.01 0.01 0.01 0.01 0.01 0.02 0.04 0.07 0.11
0.01 0.01 0.01 0.01 0.01 0.01 0.01 0.02 0.02 0.01 0.02 0.02 0.04 0.08 0.12 0.17 0.17 0.14 0.13 0.09 0.07 0.05 0.03 0.02 0.02 0.01 0.01 0.00 0.00 0.00 0.00 0.00 0.00 0.01 0.01 0.01 0.02 0.02 0.02 0.02 0.03 0.06 0.10
0.00 0.01 0.02 0.02 0.02 0.03 0.03 0.04 0.03 0.03 0.02 0.01 0.01 0.03 0.06 0.09 0.10 0.09 0.09 0.05 0.03 0.02 0.01 0.01 0.00 0.00 0.00 0.00 0.00 0.00 0.00 0.00 0.00 0.01 0.01 0.01 0.02 0.04 0.04 0.04 0.05 0.09 0.13
0.00 0.01 0.03 0.03 0.03 0.03 0.04 0.04 0.03 0.03 0.02 0.01 0.01 0.01 0.02 0.02 0.02 0.02 0.03 0.02 0.01 0.01 0.00 0.00 0.00 0.00 0.00 0.00 0.00 0.00 0.00 0.00 0.00 0.01 0.01 0.01 0.02 0.04 0.04 0.04 0.06 0.10 0.16
0.00 0.01 0.03 0.03 0.03 0.03 0.03 0.03 0.03 0.03 0.03 0.02 0.02 0.02 0.03 0.02 0.01 0.01 0.01 0.00 0.00 0.00 0.00 0.00 0.00 0.00 0.00 0.00 0.00 0.00 0.00 0.00 0.00 0.01 0.01 0.01 0.02 0.04 0.05 0.06 0.08 0.11 0.15
0.01 0.01 0.02 0.02 0.02 0.03 0.04 0.05 0.04 0.04 0.04 0.03 0.02 0.03 0.11 0.10 0.04 0.01 0.00 0.00 0.00 0.00 0.00 0.00 0.00 0.00 0.00 0.00 0.00 0.00 0.00 0.00 0.01 0.01 0.01 0.02 0.03 0.05 0.06 0.08 0.09 0.11 0.14
0.02 0.03 0.03 0.03 0.03 0.03 0.05 0.04 0.04 0.04 0.04 0.03 0.02 0.01 0.05 0.03 0.01 0.00 0.00 0.00 0.00 0.00 0.00 0.00 0.00 0.00 0.00 0.00 0.00 0.00 0.00 0.00 0.01 0.01 0.02 0.02 0.04 0.06 0.08 0.10 0.12 0.15 0.17
0.05 0.04 0.03 0.02 0.02 0.02 0.02 0.02 0.03 0.04 0.04 0.03 0.03 0.02 0.02 0.01 0.01 0.00 0.00 0.00 0.00 0.00 0.00 0.00 0.00 0.00 0.00 0.00 0.00 0.00 0.01 0.02 0.03 0.04 0.06 0.06 0.06 0.09 0.11 0.13 0.15 0.17 0.19
0.04 0.02 0.01 0.01 0.01 0.02 0.02 0.03 0.03 0.04 0.05 0.05 0.04 0.04 0.03 0.02 0.01 0.01 0.01 0.01 0.01 0.01 0.01 0.01 0.01 0.01 0.00 0.00 0.00 0.00 0.01 0.04 0.09 0.11 0.11 0.12 0.12 0.12 0.13 0.16 0.17 0.19 0.21
0.01 0.01 0.01 0.02 0.03 0.04 0.04 0.04 0.05 0.06 0.06 0.07 0.07 0.06 0.05 0.04 0.03 0.03 0.02 0.02 0.02 0.02 0.01 0.01 0.01 0.01 0.00 0.00 0.00 0.00 0.03 0.08 0.13 0.21 0.26 0.27 0.22 0.18 0.18 0.20 0.21 0.22 0.24
0.01 0.01 0.02 0.03 0.04 0.06 0.07 0.08 0.08 0.09 0.10 0.10 0.09 0.09 0.08 0.07 0.06 0.06 0.05 0.05 0.05 0.04 0.02 0.02 0.01 0.00 0.00 0.00 0.00 0.01 0.07 0.17 0.28 0.39 0.47 0.48 0.38 0.27 0.23 0.23 0.23 0.23 0.25

GEFSGL_prec_meanprecacc_048.txt.gz
Total_Precipitation_Accumulation
0.01 0.01 0.02 0.02 0.03 0.03 0.04 0.05 0.07 0.08 0.09 0.09 0.09 0.09 0.11 0.13 0.15 0.18 0.22 0.25 0.26 0.26 0.26 0.27 0.27 0.26 0.25 0.23 0.21 0.19 0.18 0.21 0.17 0.06 0.05 0.10 0.18 0.23 0.24 0.22 0.21 0.17 0.12
0.03 0.03 0.04 0.04 0.06 0.09 0.11 0.12 0.13 0.14 0.14 0.14 0.13 0.12 0.12 0.11 0.13 0.15 0.18 0.21 0.25 0.28 0.30 0.32 0.32 0.31 0.30 0.30 0.29 0.27 0.24 0.22 0.21 0.14 0.07 0.08 0.14 0.21 0.25 0.25 0.20 0.16 0.11
0.04 0.05 0.06 0.09 0.12 0.16 0.19 0.20 0.20 0.20 0.19 0.19 0.19 0.18 0.18 0.18 0.19 0.19 0.19 0.21 0.23 0.25 0.26 0.29 0.31 0.35 0.36 0.35 0.34 0.33 0.30 0.24 0.21 0.18 0.12 0.10 0.13 0.18 0.23 0.25 0.23 0.20 0.15
0.09 0.11 0.14 0.18 0.22 0.25 0.26 0.25 0.23 0.23 0.24 0.24 0.24 0.25 0.26 0.29 0.31 0.30 0.31 0.29 0.27 0.27 0.25 0.27 0.29 0.33 0.36 0.39 0.42 0.40 0.35 0.31 0.28 0.22 0.17 0.15 0.15 0.18 0.24 0.27 0.27 0.25 0.22
0.20 0.23 0.23 0.22 0.22 0.22 0.22 0.22 0.23 0.25 0.26 0.26 0.24 0.25 0.29 0.35 0.40 0.43 0.45 0.36 0.31 0.30 0.29 0.30 0.31 0.37 0.43 0.45 0.50 0.49 0.42 0.36 0.33 0.30 0.26 0.21 0.20 0.23 0.28 0.30 0.32 0.28 0.25
0.27 0.27 0.25 0.22 0.21 0.21 0.22 0.22 0.23 0.23 0.21 0.18 0.17 0.20 0.27 0.36 0.50 0.57 0.53 0.37 0.30 0.29 0.31 0.28 0.28 0.31 0.36 0.43 0.51 0.47 0.45 0.43 0.41 0.38 0.37 0.35 0.30 0.29 0.33 0.39 0.42 0.37 0.30
0.28 0.28 0.26 0.24 0.23 0.21 0.20 0.18 0.17 0.16 0.13 0.10 0.09 0.10 0.16 0.26 0.44 0.54 0.48 0.29 0.21 0.22 0.21 0.18 0.18 0.21 0.23 0.22 0.26 0.26 0.28 0.36 0.45 0.48 0.52 0.52 0.45 0.39 0.40 0.46 0.51 0.47 0.37
0.25 0.23 0.19 0.16 0.15 0.14 0.13 0.12 0.10 0.09 0.08 0.06 0.04 0.04 0.04 0.09 0.28 0.49 0.41 0.19 0.16 0.16 0.13 0.13 0.16 0.18 0.18 0.16 0.15 0.17 0.20 0.26 0.39 0.48 0.57 0.60 0.58 0.52 0.49 0.55 0.64 0.66 0.56
0.15 0.12 0.09 0.07 0.07 0.08 0.08 0.07 0.05 0.04 0.03 0.02 0.02 0.01 0.01 0.02 0.16 0.45 0.45 0.14 0.12 0.13 0.14 0.19 0.23 0.21 0.19 0.11 0.10 0.15 0.18 0.21 0.27 0.38 0.48 0.50 0.51 0.57 0.60 0.61 0.66 0.73 0.80
0.07 0.05 0.03 0.02 0.03 0.03 0.03 0.02 0.01 0.01 0.01 0.01 0.00 0.01 0.01 0.01 0.10 0.38 0.56 0.18 0.08 0.08 0.12 0.20 0.37 0.32 0.19 0.07 0.05 0.09 0.13 0.17 0.17 0.18 0.22 0.26 0.30 0.36 0.47 0.63 0.71 0.71 0.79
0.02 0.01 0.00 0.00 0.00 0.01 0.01 0.01 0.01 0.01 0.01 0.01 0.01 0.01 0.01 0.01 0.04 0.23 0.54 0.35 0.13 0.07 0.12 0.23 0.40 0.31 0.16 0.08 0.04 0.06 0.11 0.10 0.10 0.11 0.13 0.17 0.21 0.29 0.40 0.53 0.65 0.68 0.69
0.00 0.00 0.00 0.00 0.00 0.00 0.00 0.00 0.01 0.01 0.01 0.01 0.01 0.01 0.01 0.01 0.03 0.13 0.30 0.36 0.25 0.08 0.16 0.21 0.29 0.21 0.12 0.06 0.03 0.03 0.03 0.02 0.03 0.05 0.06 0.09 0.14 0.23 0.34 0.44 0.54 0.61 0.65
0.00 0.00 0.00 0.00 0.00 0.00 0.00 0.01 0.01 0.01 0.03 0.04 0.04 0.03 0.02 0.01 0.03 0.10 0.12 0.13 0.15 0.10 0.21 0.33 0.23 0.11 0.06 0.03 0.01 0.00 0.00 0.00 0.01 0.02 0.03 0.05 0.09 0.14 0.21 0.29 0.38 0.46 0.50
0.00 0.00 0.00 0.00 0.00 0.00 0.00 0.01 0.01 0.03 0.10 0.15 0.11 0.08 0.04 0.03 0.09 0.16 0.12 0.06 0.07 0.07 0.09 0.18 0.15 0.05 0.01 0.00 0.00 0.00 0.00 0.00 0.01 0.01 0.02 0.03 0.03 0.06 0.10 0.18 0.26 0.34 0.41
0.00 0.00 0.00 0.00 0.00 0.00 0.00 0.00 0.02 0.04 0.15 0.24 0.19 0.16 0.12 0.13 0.23 0.31 0.23 0.17 0.17 0.14 0.08 0.07 0.05 0.02 0.01 0.00 0.00 0.00 0.00 0.00 0.00 0.01 0.01 0.02 0.03 0.04 0.06 0.11 0.19 0.26 0.34
0.00 0.00 0.00 0.01 0.00 0.01 0.01 0.01 0.01 0.03 0.07 0.09 0.11 0.17 0.16 0.22 0.27 0.22 0.16 0.15 0.16 0.14 0.07 0.05 0.04 0.03 0.01 0.01 0.00 0.00 0.00 0.00 0.00 0.01 0.01 0.02 0.03 0.04 0.05 0.07 0.13 0.20 0.26
0.01 0.01 0.02 0.01 0.01 0.01 0.01 0.02 0.02 0.01 0.02 0.02 0.04 0.09 0.14 0.19 0.18 0.15 0.13 0.09 0.08 0.05 0.03 0.02 0.02 0.01 0.01 0.00 0.00 0.00 0.00 0.00 0.00 0.01 0.01 0.01 0.03 0.04 0.05 0.06 0.09 0.16 0.23
0.00 0.01 0.02 0.02 0.02 0.03 0.03 0.04 0.04 0.03 0.02 0.01 0.01 0.03 0.07 0.09 0.10 0.10 0.09 0.05 0.03 0.02 0.01 0.01 0.00 0.00 0.00 0.00 0.00 0.00 0.00 0.00 0.00 0.01 0.01 0.01 0.02 0.04 0.06 0.06 0.09 0.15 0.22
0.00 0.01 0.03 0.03 0.03 0.03 0.04 0.04 0.03 0.03 0.03 0.02 0.01 0.01 0.02 0.02 0.02 0.03 0.03 0.02 0.01 0.01 0.00 0.00 0.00 0.00 0.00 0.00 0.00 0.00 0.00 0.00 0.00 0.01 0.01 0.01 0.02 0.04 0.05 0.05 0.08 0.13 0.21
0.00 0.01 0.03 0.03 0.03 0.03 0.03 0.04 0.04 0.04 0.03 0.03 0.02 0.03 0.04 0.04 0.02 0.01 0.01 0.01 0.01 0.00 0.00 0.00 0.00 0.00 0.00 0.00 0.00 0.00 0.00 0.00 0.00 0.01 0.01 0.01 0.02 0.04 0.05 0.06 0.08 0.13 0.17
0.01 0.01 0.02 0.02 0.02 0.03 0.04 0.05 0.05 0.05 0.04 0.03 0.02 0.04 0.15 0.14 0.06 0.02 0.01 0.01 0.01 0.01 0.00 0.00 0.00 0.00 0.00 0.00 0.00 0.00 0.00 0.00 0.01 0.01 0.02 0.02 0.03 0.05 0.06 0.08 0.10 0.12 0.15
0.02 0.03 0.03 0.03 0.03 0.03 0.05 0.04 0.04 0.04 0.04 0.04 0.02 0.02 0.06 0.05 0.03 0.02 0.02 0.02 0.02 0.02 0.01 0.01 0.00 0.00 0.00 0.00 0.00 0.00 0.00 0.00 0.01 0.01 0.02 0.03 0.04 0.07 0.08 0.10 0.12 0.15 0.17
0.05 0.04 0.03 0.02 0.02 0.02 0.02 0.02 0.03 0.04 0.04 0.04 0.04 0.03 0.03 0.04 0.04 0.04 0.04 0.04 0.04 0.04 0.03 0.02 0.02 0.01 0.00 0.00 0.00 0.00 0.01 0.02 0.03 0.04 0.06 0.06 0.07 0.09 0.11 0.13 0.15 0.17 0.19
0.04 0.02 0.01 0.01 0.02 0.02 0.02 0.03 0.04 0.05 0.05 0.06 0.05 0.05 0.05 0.05 0.05 0.05 0.05 0.06 0.06 0.06 0.05 0.05 0.03 0.02 0.01 0.01 0.00 0.00 0.01 0.04 0.09 0.11 0.11 0.12 0.12 0.12 0.13 0.16 0.17 0.19 0.21
0.01 0.01 0.01 0.02 0.03 0.04 0.04 0.04 0.05 0.06 0.07 0.07 0.08 0.07 0.07 0.06 0.06 0.06 0.07 0.08 0.09 0.08 0.07 0.07 0.06 0.04 0.02 0.01 0.01 0.00 0.03 0.08 0.14 0.21 0.26 0.27 0.23 0.18 0.19 0.20 0.21 0.22 0.24
0.01 0.01 0.02 0.03 0.04 0.06 0.08 0.08 0.08 0.09 0.11 0.10 0.10 0.10 0.10 0.10 0.09 0.09 0.11 0.13 0.15 0.12 0.10 0.09 0.07 0.06 0.03 0.02 0.01 0.02 0.07 0.18 0.28 0.39 0.47 0.48 0.38 0.27 0.23 0.24 0.23 0.24 0.26

GEFSGL_prec_meanprecacc_054.txt.gz
Total_Precipitation_Accumulation
0.01 0.01 0.02 0.02 0.03 0.03 0.04 0.05 0.07 0.08 0.09 0.09 0.09 0.10 0.11 0.13 0.15 0.19 0.22 0.25 0.26 0.26 0.27 0.28 0.29 0.28 0.27 0.25 0.23 0.21 0.20 0.24 0.21 0.08 0.06 0.12 0.22 0.26 0.27 0.25 0.24 0.21 0.16
0.03 0.03 0.04 0.04 0.06 0.09 0.11 0.12 0.13 0.14 0.14 0.14 0.13 0.13 0.12 0.13 0.14 0.16 0.19 0.22 0.26 0.29 0.31 0.33 0.33 0.33 0.33 0.32 0.31 0.28 0.25 0.24 0.25 0.16 0.08 0.10 0.17 0.25 0.31 0.31 0.25 0.21 0.17
0.04 0.05 0.06 0.09 0.12 0.16 0.19 0.20 0.20 0.20 0.19 0.19 0.19 0.19 0.20 0.21 0.23 0.22 0.22 0.23 0.25 0.27 0.28 0.31 0.34 0.38 0.39 0.37 0.37 0.36 0.32 0.27 0.24 0.20 0.13 0.11 0.15 0.22 0.28 0.32 0.31 0.27 0.22
0.09 0.11 0.14 0.18 0.22 0.25 0.26 0.25 0.23 0.23 0.24 0.24 0.24 0.25 0.29 0.35 0.40 0.40 0.36 0.34 0.31 0.30 0.29 0.30 0.33 0.37 0.41 0.45 0.49 0.45 0.38 0.34 0.30 0.25 0.19 0.16 0.16 0.21 0.29 0.33 0.36 0.35 0.33
0.20 0.23 0.23 0.22 0.22 0.22 0.22 0.22 0.23 0.25 0.26 0.26 0.24 0.25 0.31 0.42 0.59 0.62 0.56 0.45 0.37 0.35 0.33 0.33 0.35 0.42 0.51 0.60 0.62 0.56 0.47 0.40 0.35 0.32 0.27 0.23 0.21 0.25 0.31 0.35 0.38 0.37 0.38
0.27 0.27 0.25 0.22 0.21 0.21 0.22 0.22 0.23 0.23 0.21 0.18 0.17 0.21 0.29 0.43 0.71 0.75 0.62 0.43 0.37 0.36 0.36 0.33 0.32 0.35 0.40 0.47 0.57 0.54 0.51 0.47 0.43 0.40 0.39 0.37 0.32 0.30 0.34 0.42 0.48 0.45 0.42
0.28 0.28 0.26 0.24 0.23 0.21 0.20 0.18 0.17 0.16 0.13 0.10 0.09 0.11 0.17 0.32 0.61 0.67 0.54 0.35 0.28 0.30 0.29 0.24 0.23 0.24 0.25 0.23 0.28 0.27 0.29 0.38 0.47 0.50 0.54 0.55 0.48 0.41 0.42 0.49 0.55 0.54 0.45
0.25 0.23 0.19 0.16 0.15 0.14 0.13 0.12 0.10 0.09 0.08 0.06 0.04 0.04 0.06 0.13 0.41 0.60 0.44 0.21 0.20 0.22 0.21 0.22 0.23 0.22 0.21 0.17 0.16 0.18 0.20 0.27 0.40 0.50 0.60 0.63 0.61 0.56 0.52 0.57 0.67 0.71 0.63
0.15 0.12 0.09 0.07 0.07 0.08 0.08 0.07 0.05 0.04 0.03 0.02 0.02 0.01 0.02 0.05 0.24 0.54 0.47 0.15 0.14 0.15 0.19 0.28 0.30 0.25 0.21 0.11 0.10 0.16 0.18 0.22 0.28 0.39 0.49 0.51 0.52 0.59 0.62 0.63 0.69 0.78 0.87
0.07 0.05 0.03 0.02 0.03 0.03 0.03 0.02 0.01 0.01 0.01 0.01 0.00 0.01 0.01 0.02 0.14 0.45 0.58 0.18 0.10 0.11 0.16 0.28 0.44 0.35 0.22 0.08 0.06 0.10 0.14 0.17 0.18 0.18 0.22 0.26 0.30 0.37 0.49 0.66 0.75 0.76 0.86
0.02 0.01 0.00 0.00 0.00 0.01 0.01 0.01 0.01 0.01 0.01 0.01 0.01 0.01 0.01 0.01 0.05 0.27 0.57 0.36 0.14 0.09 0.16 0.28 0.44 0.33 0.16 0.08 0.05 0.07 0.11 0.10 0.11 0.12 0.14 0.17 0.21 0.29 0.41 0.56 0.69 0.74 0.77
0.00 0.00 0.00 0.00 0.00 0.00 0.00 0.00 0.01 0.01 0.01 0.01 0.01 0.01 0.01 0.01 0.03 0.15 0.32 0.37 0.25 0.09 0.16 0.22 0.29 0.21 0.12 0.06 0.03 0.04 0.03 0.02 0.04 0.05 0.07 0.10 0.15 0.24 0.35 0.47 0.58 0.65 0.73
0.00 0.00 0.00 0.00 0.00 0.00 0.00 0.01 0.01 0.01 0.03 0.05 0.04 0.03 0.02 0.01 0.04 0.11 0.13 0.13 0.15 0.10 0.21 0.33 0.23 0.11 0.06 0.03 0.01 0.00 0.00 0.00 0.01 0.02 0.04 0.06 0.10 0.16 0.22 0.31 0.41 0.50 0.56
0.00 0.00 0.00 0.00 0.00 0.00 0.00 0.01 0.01 0.03 0.11 0.16 0.12 0.08 0.04 0.03 0.10 0.17 0.13 0.06 0.07 0.07 0.09 0.18 0.15 0.05 0.01 0.00 0.00 0.00 0.00 0.00 0.01 0.02 0.03 0.03 0.04 0.07 0.12 0.20 0.30 0.39 0.47
0.00 0.00 0.00 0.00 0.00 0.00 0.00 0.01 0.02 0.04 0.17 0.28 0.22 0.18 0.14 0.15 0.26 0.34 0.26 0.18 0.18 0.14 0.09 0.07 0.05 0.02 0.01 0.00 0.00 0.00 0.00 0.00 0.00 0.01 0.02 0.02 0.04 0.05 0.09 0.15 0.24 0.32 0.42
0.00 0.00 0.01 0.01 0.01 0.01 0.01 0.01 0.01 0.03 0.08 0.10 0.13 0.19 0.17 0.25 0.31 0.25 0.18 0.16 0.17 0.14 0.07 0.05 0.04 0.03 0.01 0.01 0.00 0.00 0.00 0.00 0.00 0.01 0.02 0.02 0.04 0.06 0.08 0.11 0.19 0.27 0.36
0.01 0.01 0.02 0.01 0.01 0.01 0.02 0.02 0.02 0.01 0.02 0.02 0.04 0.09 0.15 0.21 0.21 0.17 0.16 0.11 0.08 0.06 0.03 0.02 0.02 0.01 0.01 0.00 0.00 0.00 0.00 0.00 0.00 0.01 0.02 0.02 0.04 0.06 0.08 0.10 0.15 0.23 0.32
0.01 0.01 0.02 0.02 0.02 0.03 0.03 0.04 0.04 0.04 0.02 0.01 0.01 0.03 0.07 0.11 0.13 0.12 0.11 0.06 0.03 0.02 0.02 0.01 0.01 0.00 0.00 0.00 0.00 0.00 0.00 0.00 0.00 0.01 0.01 0.02 0.03 0.06 0.08 0.10 0.14 0.22 0.31
0.00 0.01 0.03 0.03 0.03 0.03 0.04 0.04 0.03 0.03 0.03 0.02 0.01 0.01 0.02 0.03 0.03 0.03 0.04 0.03 0.02 0.02 0.01 0.01 0.00 0.00 0.00 0.00 0.00 0.00 0.00 0.00 0.00 0.01 0.01 0.01 0.02 0.05 0.07 0.08 0.12 0.20 0.30
0.00 0.02 0.03 0.03 0.03 0.03 0.03 0.04 0.04 0.04 0.04 0.03 0.03 0.04 0.07 0.06 0.03 0.02 0.02 0.02 0.02 0.02 0.02 0.01 0.01 0.01 0.00 0.00 0.00 0.00 0.00 0.00 0.00 0.01 0.01 0.02 0.02 0.05 0.07 0.09 0.12 0.18 0.25
0.01 0.01 0.02 0.02 0.02 0.03 0.04 0.05 0.05 0.05 0.05 0.04 0.03 0.05 0.19 0.18 0.08 0.04 0.03 0.04 0.05 0.05 0.04 0.03 0.02 0.01 0.01 0.00 0.00 0.00 0.00 0.00 0.01 0.01 0.02 0.02 0.03 0.05 0.07 0.10 0.12 0.16 0.20
0.02 0.03 0.03 0.03 0.03 0.03 0.05 0.05 0.04 0.05 0.05 0.04 0.03 0.02 0.06 0.05 0.04 0.04 0.05 0.05 0.06 0.06 0.06 0.05 0.03 0.02 0.02 0.01 0.01 0.01 0.00 0.00 0.01 0.01 0.02 0.03 0.04 0.07 0.09 0.11 0.14 0.18 0.21
0.05 0.04 0.03 0.02 0.02 0.02 0.02 0.02 0.03 0.04 0.05 0.04 0.04 0.04 0.04 0.04 0.06 0.07 0.07 0.07 0.08 0.09 0.08 0.07 0.06 0.04 0.03 0.02 0.01 0.01 0.01 0.02 0.03 0.04 0.06 0.06 0.07 0.09 0.11 0.13 0.16 0.19 0.22
0.04 0.02 0.01 0.01 0.02 0.02 0.02 0.03 0.04 0.05 0.06 0.06 0.06 0.06 0.06 0.06 0.06 0.07 0.07 0.08 0.10 0.10 0.10 0.11 0.09 0.06 0.04 0.03 0.02 0.01 0.01 0.04 0.09 0.11 0.11 0.12 0.12 0.12 0.13 0.16 0.18 0.20 0.23
0.01 0.01 0.01 0.02 0.03 0.04 0.04 0.04 0.05 0.06 0.07 0.07 0.08 0.08 0.07 0.07 0.07 0.07 0.08 0.10 0.12 0.12 0.11 0.12 0.11 0.09 0.06 0.05 0.03 0.02 0.04 0.09 0.14 0.21 0.26 0.27 0.23 0.18 0.19 0.20 0.21 0.22 0.25
0.01 0.01 0.02 0.03 0.04 0.06 0.08 0.08 0.08 0.09 0.11 0.11 0.11 0.11 0.11 0.10 0.10 0.11 0.13 0.16 0.19 0.17 0.14 0.13 0.12 0.11 0.08 0.05 0.04 0.04 0.09 0.19 0.29 0.40 0.47 0.48 0.38 0.27 0.23 0.24 0.23 0.24 0.26

GEFSGL_prec_meanprecacc_060.txt.gz
Total_Precipitation_Accumulation
0.01 0.01 0.02 0.02 0.03 0.03 0.04 0.05 0.07 0.08 0.09 0.09 0.09 0.10 0.11 0.14 0.17 0.20 0.24 0.28 0.30 0.30 0.30 0.31 0.31 0.31 0.30 0.28 0.26 0.24 0.24 0.29 0.26 0.10 0.07 0.14 0.24 0.28 0.29 0.27 0.26 0.25 0.23
0.03 0.03 0.04 0.04 0.06 0.09 0.11 0.12 0.13 0.14 0.14 0.14 0.13 0.13 0.13 0.14 0.16 0.18 0.21 0.25 0.31 0.34 0.35 0.38 0.38 0.36 0.37 0.35 0.35 0.32 0.28 0.27 0.29 0.19 0.09 0.11 0.19 0.27 0.32 0.32 0.26 0.23 0.21
0.04 0.05 0.06 0.09 0.12 0.16 0.19 0.20 0.20 0.20 0.19 0.19 0.19 0.19 0.20 0.23 0.26 0.26 0.25 0.26 0.30 0.32 0.33 0.37 0.41 0.45 0.46 0.43 0.42 0.40 0.35 0.29 0.27 0.24 0.15 0.12 0.16 0.24 0.29 0.33 0.32 0.30 0.26
0.09 0.11 0.14 0.18 0.22 0.25 0.26 0.25 0.23 0.23 0.24 0.24 0.24 0.26 0.29 0.37 0.49 0.50 0.40 0.37 0.34 0.34 0.34 0.36 0.40 0.46 0.52 0.57 0.58 0.50 0.42 0.38 0.33 0.27 0.20 0.17 0.17 0.23 0.31 0.35 0.37 0.38 0.37
0.20 0.23 0.23 0.22 0.22 0.22 0.22 0.22 0.23 0.25 0.26 0.26 0.24 0.26 0.32 0.45 0.74 0.75 0.59 0.46 0.40 0.38 0.36 0.37 0.40 0.49 0.61 0.70 0.71 0.64 0.52 0.44 0.38 0.33 0.28 0.24 0.23 0.27 0.33 0.37 0.40 0.40 0.43
0.27 0.27 0.25 0.22 0.21 0.21 0.22 0.22 0.23 0.23 0.21 0.18 0.17 0.21 0.30 0.46 0.82 0.85 0.65 0.45 0.39 0.39 0.39 0.36 0.35 0.38 0.43 0.50 0.60 0.58 0.55 0.50 0.46 0.42 0.41 0.38 0.34 0.32 0.36 0.44 0.50 0.48 0.46
0.28 0.28 0.26 0.24 0.23 0.21 0.20 0.18 0.17 0.16 0.13 0.10 0.09 0.11 0.17 0.34 0.69 0.74 0.57 0.36 0.29 0.32 0.31 0.26 0.25 0.26 0.26 0.24 0.28 0.27 0.30 0.39 0.49 0.52 0.56 0.57 0.50 0.43 0.44 0.50 0.58 0.57 0.50
0.25 0.23 0.19 0.16 0.15 0.14 0.13 0.12 0.10 0.09 0.08 0.06 0.04 0.04 0.06 0.14 0.46 0.66 0.47 0.22 0.21 0.24 0.24 0.24 0.25 0.24 0.23 0.18 0.16 0.18 0.20 0.27 0.41 0.51 0.61 0.65 0.63 0.58 0.54 0.59 0.69 0.73 0.66
0.15 0.12 0.09 0.07 0.07 0.08 0.08 0.07 0.05 0.04 0.03 0.02 0.02 0.01 0.02 0.06 0.27 0.59 0.50 0.16 0.14 0.16 0.21 0.30 0.31 0.27 0.23 0.12 0.11 0.16 0.18 0.22 0.28 0.40 0.49 0.52 0.53 0.60 0.64 0.64 0.70 0.79 0.90
0.07 0.05 0.03 0.02 0.03 0.03 0.03 0.02 0.01 0.01 0.01 0.01 0.00 0.01 0.01 0.02 0.15 0.48 0.62 0.19 0.10 0.11 0.17 0.29 0.45 0.36 0.23 0.08 0.06 0.10 0.14 0.18 0.18 0.19 0.22 0.26 0.30 0.37 0.50 0.67 0.77 0.78 0.89
0.02 0.01 0.00 0.00 0.00 0.01 0.01 0.01 0.01 0.01 0.01 0.01 0.01 0.01 0.01 0.01 0.05 0.28 0.61 0.39 0.16 0.10 0.16 0.29 0.44 0.33 0.17 0.08 0.05 0.07 0.12 0.11 0.11 0.12 0.14 0.17 0.21 0.30 0.42 0.56 0.70 0.77 0.80
0.00 0.00 0.00 0.00 0.00 0.00 0.00 0.00 0.01 0.01 0.01 0.01 0.01 0.01 0.01 0.01 0.04 0.16 0.35 0.41 0.28 0.10 0.17 0.22 0.29 0.21 0.12 0.06 0.03 0.04 0.03 0.03 0.04 0.06 0.07 0.10 0.15 0.24 0.36 0.47 0.59 0.67 0.76
0.00 0.00 0.00 0.00 0.00 0.00 0.00 0.01 0.01 0.01 0.03 0.05 0.05 0.04 0.02 0.02 0.04 0.13 0.16 0.15 0.17 0.11 0.22 0.34 0.23 0.12 0.06 0.03 0.01 0.00 0.00 0.00 0.01 0.03 0.04 0.06 0.10 0.16 0.23 0.32 0.41 0.51 0.58
0.00 0.00 0.00 0.00 0.00 0.00 0.00 0.01 0.01 0.03 0.12 0.18 0.14 0.09 0.04 0.04 0.12 0.25 0.21 0.09 0.08 0.08 0.10 0.18 0.15 0.05 0.01 0.00 0.00 0.00 0.00 0.00 0.01 0.02 0.04 0.04 0.05 0.07 0.12 0.21 0.31 0.40 0.49
0.00 0.00 0.00 0.00 0.00 0.00 0.00 0.01 0.02 0.04 0.18 0.31 0.24 0.22 0.17 0.18 0.32 0.45 0.35 0.24 0.22 0.18 0.10 0.07 0.05 0.03 0.01 0.01 0.00 0.00 0.00 0.00 0.01 0.01 0.02 0.03 0.04 0.06 0.09 0.16 0.25 0.34 0.44
0.01 0.00 0.01 0.01 0.01 0.01 0.01 0.01 0.01 0.03 0.08 0.10 0.13 0.21 0.20 0.29 0.37 0.30 0.23 0.20 0.20 0.17 0.08 0.06 0.05 0.03 0.02 0.01 0.00 0.00 0.00 0.00 0.01 0.01 0.02 0.03 0.05 0.07 0.09 0.12 0.20 0.29 0.38
0.01 0.01 0.02 0.01 0.01 0.01 0.02 0.02 0.02 0.01 0.02 0.02 0.04 0.10 0.16 0.24 0.24 0.21 0.19 0.13 0.09 0.07 0.04 0.03 0.02 0.02 0.01 0.01 0.01 0.00 0.00 0.00 0.01 0.02 0.03 0.03 0.05 0.07 0.09 0.11 0.17 0.25 0.35
0.01 0.01 0.02 0.02 0.02 0.03 0.03 0.04 0.04 0.04 0.02 0.01 0.01 0.03 0.08 0.12 0.14 0.14 0.13 0.07 0.03 0.03 0.03 0.02 0.02 0.01 0.01 0.01 0.01 0.00 0.00 0.00 0.00 0.01 0.02 0.02 0.04 0.08 0.10 0.11 0.16 0.25 0.34
0.00 0.01 0.03 0.03 0.03 0.03 0.04 0.04 0.03 0.03 0.03 0.02 0.01 0.01 0.02 0.03 0.03 0.04 0.05 0.03 0.03 0.03 0.02 0.02 0.02 0.01 0.01 0.01 0.00 0.00 0.00 0.00 0.01 0.01 0.02 0.02 0.03 0.07 0.09 0.10 0.14 0.22 0.33
0.00 0.02 0.03 0.03 0.03 0.03 0.03 0.04 0.04 0.04 0.04 0.03 0.03 0.04 0.08 0.07 0.03 0.02 0.02 0.03 0.04 0.04 0.03 0.03 0.03 0.02 0.02 0.01 0.01 0.00 0.00 0.00 0.01 0.01 0.02 0.02 0.03 0.06 0.09 0.11 0.14 0.20 0.28
0.01 0.01 0.02 0.02 0.02 0.03 0.04 0.05 0.05 0.05 0.05 0.04 0.03 0.05 0.20 0.19 0.08 0.04 0.04 0.05 0.07 0.08 0.07 0.06 0.04 0.04 0.03 0.02 0.01 0.01 0.01 0.01 0.01 0.01 0.02 0.03 0.04 0.06 0.08 0.11 0.15 0.18 0.24
0.02 0.03 0.03 0.03 0.03 0.03 0.05 0.05 0.04 0.05 0.05 0.04 0.03 0.02 0.06 0.06 0.04 0.05 0.05 0.06 0.08 0.10 0.10 0.09 0.07 0.05 0.05 0.03 0.02 0.02 0.01 0.01 0.01 0.02 0.02 0.03 0.05 0.07 0.10 0.13 0.16 0.20 0.25
0.05 0.04 0.03 0.02 0.02 0.02 0.02 0.02 0.03 0.04 0.05 0.04 0.04 0.04 0.04 0.05 0.06 0.07 0.08 0.09 0.10 0.11 0.11 0.11 0.10 0.07 0.06 0.05 0.03 0.02 0.02 0.02 0.03 0.04 0.06 0.06 0.07 0.09 0.12 0.15 0.18 0.22 0.25
0.04 0.02 0.01 0.01 0.02 0.02 0.02 0.03 0.04 0.05 0.06 0.06 0.06 0.06 0.06 0.06 0.07 0.07 0.08 0.09 0.11 0.12 0.13 0.14 0.12 0.10 0.08 0.06 0.04 0.02 0.02 0.05 0.09 0.11 0.11 0.13 0.12 0.12 0.14 0.17 0.19 0.22 0.26
0.01 0.01 0.01 0.02 0.03 0.04 0.04 0.04 0.05 0.06 0.07 0.07 0.08 0.08 0.07 0.07 0.07 0.07 0.08 0.10 0.13 0.13 0.13 0.14 0.14 0.12 0.10 0.07 0.05 0.04 0.05 0.11 0.15 0.22 0.27 0.27 0.23 0.19 0.19 0.21 0.22 0.24 0.27
0.01 0.01 0.02 0.03 0.04 0.06 0.08 0.08 0.08 0.09 0.11 0.11 0.11 0.11 0.11 0.11 0.10 0.11 0.13 0.17 0.20 0.18 0.16 0.15 0.15 0.14 0.11 0.08 0.06 0.06 0.11 0.21 0.31 0.41 0.48 0.49 0.38 0.28 0.24 0.24 0.24 0.25 0.28

GEFSGL_prec_meanprecacc_066.txt.gz
Total_Precipitation_Accumulation
0.01 0.01 0.02 0.02 0.03 0.03 0.04 0.05 0.07 0.08 0.09 0.09 0.09 0.10 0.11 0.14 0.17 0.21 0.25 0.29 0.33 0.33 0.34 0.36 0.36 0.36 0.35 0.33 0.31 0.29 0.29 0.35 0.33 0.13 0.09 0.15 0.25 0.29 0.30 0.27 0.26 0.25 0.24
0.03 0.03 0.04 0.04 0.06 0.09 0.11 0.12 0.13 0.14 0.14 0.14 0.13 0.13 0.13 0.14 0.16 0.19 0.22 0.26 0.33 0.36 0.38 0.42 0.42 0.42 0.43 0.42 0.42 0.38 0.34 0.35 0.38 0.24 0.12 0.12 0.20 0.28 0.33 0.33 0.27 0.24 0.22
0.04 0.05 0.06 0.09 0.12 0.16 0.19 0.20 0.20 0.20 0.19 0.19 0.19 0.19 0.20 0.23 0.27 0.28 0.26 0.28 0.31 0.34 0.36 0.40 0.45 0.49 0.52 0.51 0.50 0.46 0.41 0.34 0.32 0.29 0.18 0.14 0.18 0.25 0.31 0.34 0.33 0.30 0.26
0.09 0.11 0.14 0.18 0.22 0.25 0.26 0.25 0.23 0.23 0.24 0.24 0.24 0.26 0.29 0.37 0.51 0.54 0.42 0.38 0.36 0.36 0.35 0.38 0.43 0.50 0.57 0.62 0.64 0.55 0.45 0.41 0.36 0.31 0.23 0.20 0.20 0.24 0.33 0.37 0.38 0.38 0.38
0.20 0.23 0.23 0.22 0.22 0.22 0.22 0.22 0.23 0.25 0.26 0.26 0.24 0.26 0.32 0.46 0.77 0.81 0.62 0.48 0.42 0.40 0.37 0.38 0.42 0.51 0.64 0.74 0.75 0.67 0.55 0.47 0.40 0.35 0.30 0.25 0.24 0.29 0.36 0.40 0.42 0.41 0.44
0.27 0.27 0.25 0.22 0.21 0.21 0.22 0.22 0.23 0.23 0.21 0.18 0.17 0.21 0.30 0.47 0.84 0.89 0.69 0.47 0.40 0.40 0.40 0.36 0.35 0.39 0.44 0.51 0.61 0.59 0.57 0.52 0.48 0.43 0.42 0.40 0.36 0.35 0.40 0.47 0.53 0.50 0.48
0.28 0.28 0.26 0.24 0.23 0.21 0.20 0.18 0.17 0.16 0.13 0.10 0.09 0.11 0.17 0.34 0.70 0.77 0.60 0.38 0.30 0.32 0.32 0.27 0.25 0.27 0.27 0.25 0.29 0.27 0.30 0.39 0.50 0.54 0.58 0.58 0.52 0.46 0.48 0.54 0.60 0.60 0.53
0.25 0.23 0.19 0.16 0.15 0.14 0.13 0.12 0.10 0.09 0.08 0.06 0.04 0.04 0.06 0.14 0.47 0.68 0.50 0.24 0.22 0.24 0.24 0.25 0.25 0.24 0.23 0.19 0.17 0.18 0.21 0.27 0.41 0.51 0.62 0.66 0.64 0.60 0.58 0.64 0.72 0.75 0.69
0.15 0.12 0.09 0.07 0.07 0.08 0.08 0.07 0.05 0.04 0.03 0.02 0.02 0.01 0.02 0.06 0.27 0.61 0.53 0.18 0.16 0.18 0.22 0.31 0.32 0.27 0.24 0.14 0.11 0.16 0.19 0.22 0.28 0.40 0.50 0.52 0.54 0.62 0.67 0.67 0.72 0.82 0.93
0.07 0.05 0.03 0.02 0.03 0.03 0.03 0.02 0.01 0.01 0.01 0.01 0.00 0.01 0.01 0.02 0.15 0.49 0.65 0.24 0.16 0.15 0.18 0.29 0.46 0.37 0.24 0.10 0.08 0.11 0.14 0.18 0.18 0.19 0.22 0.26 0.30 0.37 0.51 0.69 0.80 0.82 0.94
0.02 0.01 0.00 0.00 0.00 0.01 0.01 0.01 0.01 0.01 0.01 0.01 0.01 0.01 0.01 0.01 0.05 0.29 0.65 0.48 0.25 0.14 0.17 0.29 0.45 0.35 0.19 0.10 0.07 0.08 0.13 0.11 0.11 0.12 0.14 0.17 0.21 0.30 0.42 0.58 0.73 0.80 0.85
0.00 0.00 0.00 0.00 0.00 0.00 0.00 0.00 0.01 0.01 0.01 0.01 0.01 0.01 0.01 0.01 0.04 0.18 0.40 0.48 0.34 0.14 0.18 0.23 0.30 0.22 0.14 0.07 0.04 0.05 0.04 0.03 0.04 0.06 0.07 0.10 0.15 0.24 0.36 0.48 0.60 0.69 0.79
0.00 0.00 0.00 0.00 0.00 0.00 0.00 0.01 0.01 0.01 0.03 0.05 0.05 0.04 0.02 0.02 0.04 0.15 0.20 0.19 0.20 0.14 0.23 0.35 0.24 0.13 0.07 0.04 0.02 0.01 0.01 0.01 0.02 0.03 0.04 0.06 0.10 0.16 0.23 0.32 0.42 0.53 0.60
0.00 0.00 0.00 0.00 0.00 0.00 0.00 0.01 0.01 0.03 0.12 0.18 0.14 0.09 0.05 0.04 0.13 0.28 0.25 0.12 0.10 0.10 0.11 0.19 0.15 0.06 0.01 0.01 0.00 0.00 0.01 0.01 0.02 0.03 0.04 0.04 0.05 0.08 0.13 0.22 0.32 0.42 0.50
0.00 0.00 0.00 0.00 0.00 0.00 0.00 0.01 0.02 0.04 0.18 0.31 0.25 0.22 0.18 0.20 0.34 0.49 0.39 0.27 0.25 0.20 0.12 0.08 0.05 0.03 0.02 0.01 0.00 0.00 0.00 0.01 0.01 0.02 0.03 0.04 0.05 0.07 0.10 0.16 0.27 0.35 0.46
0.01 0.00 0.01 0.01 0.01 0.01 0.01 0.01 0.01 0.03 0.08 0.10 0.14 0.21 0.20 0.30 0.39 0.32 0.26 0.22 0.21 0.18 0.10 0.06 0.05 0.03 0.02 0.02 0.01 0.01 0.00 0.01 0.01 0.02 0.03 0.04 0.06 0.08 0.10 0.13 0.21 0.31 0.40
0.01 0.01 0.02 0.01 0.01 0.01 0.02 0.02 0.02 0.01 0.02 0.02 0.04 0.10 0.16 0.24 0.25 0.22 0.20 0.13 0.10 0.07 0.04 0.03 0.03 0.02 0.02 0.02 0.01 0.01 0.01 0.01 0.01 0.02 0.04 0.05 0.06 0.09 0.10 0.13 0.18 0.27 0.37
0.01 0.01 0.02 0.02 0.02 0.03 0.03 0.04 0.04 0.04 0.02 0.01 0.01 0.03 0.08 0.12 0.14 0.14 0.14 0.07 0.04 0.03 0.03 0.03 0.03 0.02 0.02 0.02 0.01 0.01 0.01 0.01 0.01 0.02 0.03 0.04 0.06 0.09 0.11 0.13 0.17 0.27 0.36
0.00 0.01 0.03 0.03 0.03 0.03 0.04 0.04 0.03 0.03 0.03 0.02 0.01 0.01 0.02 0.03 0.03 0.04 0.05 0.04 0.04 0.03 0.03 0.03 0.03 0.03 0.03 0.02 0.01 0.01 0.01 0.01 0.01 0.02 0.03 0.03 0.05 0.08 0.11 0.12 0.16 0.24 0.35
0.00 0.02 0.03 0.03 0.03 0.03 0.03 0.04 0.04 0.04 0.04 0.03 0.03 0.04 0.08 0.07 0.03 0.02 0.02 0.03 0.04 0.04 0.05 0.05 0.04 0.03 0.04 0.03 0.02 0.02 0.01 0.01 0.01 0.02 0.03 0.03 0.04 0.07 0.10 0.12 0.16 0.23 0.31
0.01 0.01 0.02 0.02 0.02 0.03 0.04 0.05 0.05 0.05 0.05 0.04 0.03 0.05 0.20 0.19 0.08 0.04 0.04 0.05 0.08 0.09 0.08 0.07 0.06 0.05 0.05 0.04 0.03 0.02 0.02 0.02 0.01 0.02 0.03 0.03 0.05 0.08 0.10 0.13 0.16 0.21 0.27
0.02 0.03 0.03 0.03 0.03 0.03 0.05 0.05 0.04 0.05 0.05 0.04 0.03 0.02 0.06 0.06 0.05 0.05 0.05 0.07 0.09 0.11 0.11 0.11 0.09 0.07 0.07 0.06 0.04 0.03 0.02 0.02 0.02 0.02 0.03 0.04 0.06 0.09 0.11 0.14 0.17 0.23 0.28
0.05 0.04 0.03 0.02 0.02 0.02 0.02 0.02 0.03 0.04 0.05 0.04 0.04 0.04 0.04 0.05 0.06 0.07 0.08 0.09 0.11 0.12 0.12 0.13 0.12 0.09 0.08 0.07 0.05 0.04 0.04 0.04 0.04 0.05 0.07 0.07 0.08 0.10 0.13 0.16 0.19 0.23 0.28
0.04 0.02 0.01 0.01 0.02 0.02 0.02 0.03 0.04 0.05 0.06 0.06 0.06 0.06 0.06 0.06 0.07 0.07 0.08 0.09 0.12 0.13 0.14 0.16 0.14 0.12 0.10 0.08 0.06 0.04 0.04 0.07 0.11 0.12 0.12 0.13 0.13 0.13 0.15 0.18 0.20 0.23 0.28
0.01 0.01 0.01 0.02 0.03 0.04 0.04 0.04 0.05 0.06 0.07 0.07 0.08 0.08 0.07 0.07 0.07 0.07 0.08 0.11 0.13 0.14 0.14 0.15 0.16 0.14 0.12 0.09 0.07 0.06 0.07 0.12 0.16 0.22 0.27 0.28 0.23 0.19 0.20 0.22 0.23 0.25 0.28
0.01 0.01 0.02 0.03 0.04 0.06 0.08 0.08 0.08 0.09 0.11 0.11 0.11 0.11 0.11 0.11 0.11 0.11 0.13 0.18 0.21 0.19 0.17 0.16 0.16 0.15 0.13 0.10 0.08 0.07 0.12 0.22 0.32 0.42 0.49 0.50 0.39 0.28 0.24 0.25 0.25 0.26 0.29

GEFSGL_prec_meanprecacc_072.txt.gz
Total_Precipitation_Accumulation
0.01 0.01 0.02 0.02 0.03 0.03 0.04 0.05 0.07 0.08 0.09 0.09 0.09 0.10 0.11 0.14 0.17 0.21 0.25 0.29 0.33 0.33 0.34 0.36 0.37 0.37 0.37 0.35 0.34 0.33 0.34 0.43 0.41 0.15 0.09 0.16 0.27 0.31 0.31 0.28 0.27 0.26 0.24
0.03 0.03 0.04 0.04 0.06 0.09 0.11 0.12 0.13 0.14 0.14 0.14 0.13 0.13 0.13 0.14 0.16 0.19 0.22 0.26 0.33 0.37 0.39 0.42 0.43 0.43 0.44 0.44 0.44 0.41 0.38 0.39 0.44 0.28 0.13 0.14 0.22 0.30 0.35 0.34 0.27 0.24 0.23
0.04 0.05 0.06 0.09 0.12 0.16 0.19 0.20 0.20 0.20 0.19 0.19 0.19 0.19 0.20 0.23 0.27 0.28 0.26 0.28 0.31 0.34 0.36 0.41 0.45 0.50 0.53 0.52 0.51 0.48 0.42 0.36 0.34 0.31 0.19 0.16 0.20 0.26 0.31 0.35 0.34 0.31 0.27
0.09 0.11 0.14 0.18 0.22 0.25 0.26 0.25 0.23 0.23 0.24 0.24 0.24 0.26 0.29 0.37 0.51 0.54 0.43 0.39 0.36 0.36 0.35 0.38 0.44 0.51 0.58 0.63 0.65 0.56 0.46 0.42 0.37 0.32 0.24 0.21 0.21 0.25 0.33 0.38 0.39 0.39 0.38
0.20 0.23 0.23 0.22 0.22 0.22 0.22 0.22 0.23 0.25 0.26 0.26 0.24 0.26 0.32 0.46 0.77 0.81 0.64 0.50 0.43 0.41 0.38 0.39 0.43 0.53 0.66 0.77 0.79 0.71 0.58 0.49 0.41 0.36 0.31 0.26 0.25 0.30 0.38 0.41 0.43 0.41 0.44
0.27 0.27 0.25 0.22 0.21 0.21 0.22 0.22 0.23 0.23 0.21 0.18 0.17 0.21 0.30 0.47 0.84 0.90 0.71 0.49 0.42 0.42 0.42 0.38 0.36 0.40 0.46 0.53 0.64 0.63 0.60 0.55 0.50 0.45 0.43 0.41 0.36 0.36 0.41 0.49 0.55 0.52 0.49
0.28 0.28 0.26 0.24 0.23 0.21 0.20 0.18 0.17 0.16 0.13 0.10 0.09 0.11 0.17 0.34 0.70 0.78 0.63 0.40 0.32 0.34 0.34 0.29 0.27 0.28 0.28 0.26 0.30 0.29 0.31 0.40 0.51 0.56 0.59 0.59 0.52 0.47 0.50 0.56 0.63 0.63 0.55
0.25 0.23 0.19 0.16 0.15 0.14 0.14 0.12 0.10 0.09 0.08 0.06 0.04 0.04 0.06 0.14 0.47 0.69 0.52 0.25 0.23 0.26 0.26 0.27 0.27 0.25 0.24 0.22 0.22 0.21 0.22 0.28 0.41 0.52 0.62 0.66 0.65 0.62 0.61 0.67 0.76 0.78 0.71
0.15 0.12 0.09 0.07 0.07 0.08 0.08 0.07 0.05 0.04 0.03 0.02 0.02 0.01 0.02 0.06 0.27 0.61 0.55 0.20 0.18 0.20 0.24 0.32 0.34 0.29 0.26 0.20 0.20 0.21 0.21 0.23 0.28 0.40 0.50 0.53 0.55 0.63 0.69 0.70 0.76 0.85 0.96
0.07 0.05 0.03 0.02 0.03 0.03 0.03 0.02 0.01 0.01 0.01 0.01 0.00 0.01 0.01 0.02 0.15 0.50 0.67 0.27 0.19 0.17 0.20 0.30 0.46 0.40 0.29 0.18 0.15 0.14 0.16 0.19 0.19 0.19 0.22 0.27 0.31 0.38 0.52 0.72 0.83 0.86 0.98
0.02 0.01 0.00 0.00 0.01 0.01 0.01 0.01 0.01 0.01 0.01 0.01 0.01 0.01 0.01 0.01 0.05 0.29 0.66 0.51 0.30 0.19 0.19 0.30 0.46 0.37 0.24 0.15 0.10 0.10 0.15 0.14 0.12 0.12 0.14 0.17 0.22 0.30 0.43 0.59 0.76 0.85 0.90
0.00 0.00 0.00 0.00 0.00 0.00 0.00 0.01 0.01 0.01 0.01 0.01 0.01 0.01 0.01 0.01 0.04 0.18 0.41 0.50 0.37 0.17 0.20 0.24 0.32 0.26 0.18 0.10 0.06 0.07 0.06 0.04 0.04 0.06 0.07 0.10 0.15 0.24 0.37 0.49 0.62 0.72 0.84
0.00 0.00 0.00 0.00 0.00 0.00 0.01 0.01 0.01 0.01 0.03 0.05 0.05 0.04 0.02 0.02 0.04 0.15 0.21 0.21 0.22 0.15 0.24 0.37 0.27 0.15 0.08 0.05 0.02 0.02 0.02 0.02 0.02 0.04 0.05 0.07 0.10 0.17 0.24 0.33 0.44 0.55 0.63
0.00 0.00 0.00 0.00 0.00 0.01 0.01 0.01 0.01 0.03 0.12 0.18 0.14 0.09 0.05 0.04 0.13 0.29 0.27 0.14 0.12 0.11 0.13 0.20 0.16 0.06 0.02 0.01 0.01 0.01 0.01 0.01 0.03 0.04 0.04 0.05 0.05 0.08 0.14 0.23 0.34 0.44 0.53
0.00 0.01 0.01 0.01 0.01 0.01 0.01 0.01 0.02 0.04 0.18 0.31 0.25 0.22 0.18 0.20 0.34 0.50 0.41 0.29 0.27 0.23 0.14 0.09 0.06 0.03 0.02 0.01 0.01 0.00 0.00 0.01 0.01 0.02 0.04 0.04 0.05 0.07 0.11 0.18 0.29 0.38 0.50
0.01 0.01 0.01 0.02 0.01 0.01 0.01 0.01 0.01 0.03 0.08 0.10 0.14 0.21 0.20 0.30 0.39 0.33 0.27 0.24 0.23 0.20 0.10 0.07 0.05 0.04 0.03 0.02 0.01 0.01 0.01 0.01 0.02 0.03 0.04 0.05 0.07 0.09 0.11 0.14 0.23 0.34 0.44
0.02 0.02 0.03 0.02 0.02 0.02 0.02 0.03 0.03 0.01 0.02 0.02 0.04 0.10 0.16 0.24 0.25 0.22 0.21 0.14 0.10 0.08 0.05 0.04 0.03 0.03 0.03 0.02 0.02 0.02 0.02 0.01 0.02 0.03 0.04 0.05 0.07 0.10 0.11 0.14 0.20 0.30 0.40
0.01 0.02 0.03 0.03 0.03 0.03 0.04 0.04 0.05 0.04 0.03 0.01 0.01 0.03 0.08 0.12 0.14 0.14 0.14 0.07 0.04 0.03 0.04 0.04 0.03 0.03 0.03 0.03 0.02 0.02 0.02 0.01 0.02 0.03 0.04 0.05 0.07 0.11 0.13 0.15 0.20 0.30 0.40
0.01 0.02 0.04 0.04 0.04 0.04 0.04 0.04 0.04 0.04 0.03 0.02 0.01 0.01 0.02 0.03 0.03 0.04 0.05 0.04 0.04 0.04 0.04 0.04 0.03 0.04 0.04 0.03 0.03 0.02 0.02 0.02 0.02 0.03 0.04 0.04 0.06 0.10 0.12 0.14 0.18 0.27 0.39
0.01 0.03 0.04 0.04 0.04 0.04 0.04 0.04 0.05 0.05 0.04 0.03 0.03 0.04 0.08 0.07 0.04 0.02 0.02 0.03 0.04 0.05 0.05 0.05 0.04 0.04 0.05 0.04 0.04 0.03 0.03 0.02 0.02 0.03 0.04 0.04 0.05 0.09 0.12 0.14 0.18 0.26 0.35
0.02 0.02 0.03 0.03 0.03 0.04 0.05 0.06 0.06 0.06 0.05 0.04 0.03 0.05 0.20 0.19 0.08 0.04 0.04 0.05 0.08 0.09 0.09 0.08 0.06 0.06 0.06 0.05 0.05 0.04 0.03 0.03 0.02 0.03 0.04 0.04 0.06 0.09 0.11 0.15 0.18 0.23 0.30
0.03 0.04 0.04 0.04 0.04 0.04 0.06 0.05 0.05 0.05 0.05 0.04 0.03 0.02 0.06 0.06 0.05 0.05 0.05 0.07 0.09 0.11 0.12 0.12 0.10 0.08 0.09 0.09 0.07 0.05 0.04 0.03 0.03 0.03 0.04 0.05 0.06 0.10 0.12 0.15 0.19 0.25 0.31
0.05 0.05 0.04 0.03 0.03 0.03 0.03 0.03 0.03 0.05 0.05 0.04 0.04 0.04 0.04 0.05 0.06 0.07 0.08 0.09 0.11 0.12 0.13 0.14 0.13 0.10 0.09 0.08 0.07 0.06 0.06 0.06 0.06 0.06 0.08 0.08 0.09 0.11 0.14 0.17 0.21 0.26 0.31
0.05 0.03 0.03 0.03 0.03 0.03 0.03 0.04 0.04 0.05 0.06 0.06 0.06 0.06 0.06 0.06 0.07 0.07 0.08 0.10 0.12 0.13 0.15 0.16 0.15 0.13 0.11 0.10 0.07 0.05 0.06 0.09 0.12 0.13 0.13 0.14 0.14 0.14 0.16 0.19 0.22 0.25 0.31
0.02 0.02 0.03 0.04 0.05 0.05 0.05 0.05 0.05 0.07 0.07 0.07 0.08 0.08 0.07 0.07 0.07 0.07 0.08 0.11 0.13 0.14 0.14 0.16 0.17 0.15 0.13 0.11 0.09 0.07 0.08 0.13 0.18 0.24 0.28 0.29 0.24 0.20 0.21 0.23 0.24 0.27 0.30
0.02 0.03 0.04 0.05 0.06 0.07 0.09 0.09 0.09 0.10 0.11 0.11 0.11 0.11 0.11 0.11 0.11 0.11 0.13 0.18 0.21 0.19 0.17 0.17 0.17 0.16 0.13 0.11 0.09 0.08 0.13 0.23 0.33 0.43 0.50 0.50 0.40 0.29 0.25 0.26 0.26 0.27 0.31

GEFSGL_prec_meanprecacc_078.txt.gz
Total_Precipitation_Accumulation
0.01 0.01 0.02 0.02 0.03 0.03 0.04 0.05 0.07 0.08 0.09 0.09 0.09 0.10 0.12 0.14 0.17 0.21 0.25 0.29 0.33 0.33 0.34 0.36 0.37 0.37 0.37 0.35 0.34 0.34 0.35 0.46 0.45 0.15 0.09 0.16 0.27 0.32 0.32 0.29 0.28 0.27 0.25
0.03 0.03 0.04 0.04 0.06 0.09 0.11 0.12 0.13 0.14 0.14 0.14 0.13 0.13 0.13 0.14 0.16 0.19 0.22 0.26 0.33 0.37 0.39 0.42 0.43 0.43 0.45 0.44 0.44 0.42 0.39 0.41 0.47 0.30 0.13 0.14 0.23 0.30 0.35 0.34 0.28 0.25 0.24
0.04 0.05 0.06 0.09 0.12 0.16 0.19 0.20 0.20 0.20 0.20 0.19 0.19 0.20 0.20 0.23 0.27 0.28 0.26 0.28 0.31 0.34 0.36 0.41 0.46 0.51 0.54 0.52 0.52 0.49 0.44 0.38 0.37 0.34 0.20 0.16 0.20 0.27 0.32 0.35 0.34 0.31 0.27
0.09 0.11 0.14 0.18 0.22 0.25 0.26 0.25 0.23 0.23 0.24 0.24 0.24 0.26 0.29 0.37 0.51 0.54 0.43 0.39 0.36 0.36 0.36 0.39 0.45 0.52 0.59 0.64 0.67 0.58 0.50 0.46 0.40 0.34 0.25 0.21 0.21 0.25 0.34 0.38 0.39 0.39 0.38
0.20 0.23 0.23 0.22 0.22 0.22 0.22 0.22 0.23 0.25 0.26 0.26 0.24 0.26 0.32 0.46 0.78 0.81 0.64 0.50 0.43 0.41 0.39 0.40 0.43 0.54 0.68 0.81 0.87 0.78 0.67 0.57 0.46 0.40 0.33 0.26 0.25 0.30 0.38 0.41 0.43 0.42 0.44
0.27 0.27 0.25 0.22 0.21 0.21 0.22 0.22 0.23 0.23 0.21 0.18 0.17 0.21 0.30 0.47 0.85 0.90 0.71 0.49 0.43 0.43 0.43 0.39 0.37 0.41 0.47 0.56 0.68 0.68 0.67 0.63 0.58 0.51 0.48 0.43 0.37 0.37 0.41 0.50 0.56 0.53 0.49
0.28 0.28 0.26 0.24 0.23 0.21 0.20 0.18 0.18 0.16 0.13 0.10 0.09 0.11 0.18 0.34 0.70 0.78 0.63 0.41 0.33 0.35 0.34 0.29 0.27 0.28 0.28 0.27 0.32 0.31 0.34 0.44 0.56 0.61 0.64 0.61 0.54 0.48 0.51 0.57 0.64 0.64 0.56
0.25 0.23 0.19 0.16 0.15 0.14 0.14 0.13 0.11 0.09 0.08 0.06 0.05 0.04 0.06 0.14 0.47 0.69 0.52 0.26 0.23 0.26 0.26 0.28 0.27 0.26 0.24 0.25 0.28 0.27 0.25 0.29 0.42 0.53 0.64 0.67 0.66 0.63 0.63 0.70 0.78 0.80 0.71
0.15 0.12 0.09 0.07 0.07 0.08 0.08 0.07 0.05 0.04 0.04 0.03 0.02 0.02 0.02 0.06 0.27 0.61 0.55 0.20 0.18 0.20 0.24 0.33 0.34 0.30 0.27 0.26 0.29 0.29 0.24 0.24 0.29 0.41 0.52 0.54 0.56 0.65 0.72 0.74 0.78 0.87 0.97
0.07 0.05 0.03 0.02 0.03 0.04 0.04 0.03 0.02 0.02 0.02 0.01 0.01 0.01 0.01 0.03 0.15 0.50 0.67 0.27 0.20 0.18 0.20 0.30 0.47 0.41 0.32 0.24 0.23 0.21 0.19 0.21 0.20 0.19 0.23 0.27 0.31 0.38 0.54 0.74 0.86 0.88 1.00
0.02 0.01 0.01 0.00 0.01 0.01 0.01 0.01 0.02 0.02 0.02 0.01 0.01 0.01 0.01 0.01 0.05 0.29 0.66 0.52 0.31 0.20 0.20 0.30 0.46 0.39 0.28 0.20 0.15 0.14 0.19 0.19 0.15 0.13 0.14 0.17 0.22 0.30 0.43 0.60 0.78 0.88 0.93
0.00 0.00 0.00 0.00 0.01 0.01 0.01 0.01 0.01 0.02 0.02 0.02 0.02 0.02 0.01 0.01 0.04 0.18 0.41 0.51 0.39 0.19 0.21 0.24 0.32 0.29 0.21 0.14 0.09 0.09 0.10 0.07 0.06 0.07 0.08 0.10 0.15 0.24 0.37 0.50 0.64 0.75 0.86
0.00 0.00 0.00 0.01 0.01 0.01 0.01 0.02 0.02 0.02 0.04 0.06 0.05 0.04 0.02 0.02 0.04 0.15 0.22 0.22 0.23 0.16 0.25 0.38 0.28 0.17 0.10 0.06 0.03 0.03 0.03 0.02 0.03 0.04 0.06 0.07 0.11 0.17 0.24 0.34 0.45 0.57 0.66
0.00 0.01 0.01 0.01 0.01 0.01 0.02 0.02 0.03 0.04 0.13 0.19 0.14 0.10 0.05 0.04 0.13 0.29 0.27 0.14 0.12 0.12 0.13 0.21 0.17 0.07 0.02 0.01 0.01 0.01 0.01 0.02 0.04 0.05 0.05 0.05 0.06 0.09 0.14 0.24 0.35 0.46 0.56
0.00 0.01 0.01 0.01 0.01 0.02 0.02 0.02 0.03 0.05 0.19 0.32 0.25 0.22 0.19 0.20 0.35 0.51 0.41 0.29 0.28 0.24 0.16 0.10 0.06 0.03 0.02 0.01 0.01 0.01 0.01 0.01 0.02 0.03 0.04 0.05 0.06 0.08 0.12 0.19 0.31 0.41 0.53
0.01 0.01 0.02 0.02 0.02 0.02 0.02 0.02 0.03 0.04 0.09 0.11 0.14 0.21 0.21 0.30 0.40 0.33 0.27 0.24 0.23 0.20 0.11 0.07 0.05 0.04 0.03 0.03 0.02 0.01 0.01 0.02 0.03 0.04 0.05 0.06 0.08 0.10 0.12 0.16 0.25 0.36 0.47
0.02 0.03 0.03 0.03 0.03 0.03 0.03 0.04 0.04 0.02 0.02 0.03 0.05 0.10 0.17 0.25 0.26 0.22 0.21 0.14 0.10 0.08 0.05 0.04 0.04 0.03 0.03 0.03 0.03 0.02 0.02 0.02 0.03 0.05 0.06 0.07 0.09 0.11 0.13 0.16 0.22 0.32 0.43
0.01 0.02 0.03 0.04 0.04 0.04 0.05 0.05 0.05 0.05 0.03 0.01 0.01 0.03 0.08 0.13 0.15 0.14 0.14 0.08 0.04 0.03 0.04 0.04 0.04 0.03 0.04 0.04 0.03 0.03 0.03 0.02 0.03 0.04 0.05 0.06 0.08 0.13 0.15 0.17 0.23 0.34 0.43
0.02 0.03 0.05 0.05 0.05 0.05 0.05 0.05 0.05 0.04 0.04 0.03 0.02 0.01 0.03 0.04 0.03 0.04 0.05 0.04 0.04 0.04 0.04 0.04 0.04 0.04 0.05 0.04 0.04 0.03 0.03 0.03 0.03 0.04 0.05 0.05 0.07 0.12 0.15 0.17 0.21 0.31 0.43
0.02 0.03 0.05 0.05 0.05 0.05 0.05 0.05 0.05 0.06 0.05 0.04 0.04 0.05 0.09 0.08 0.04 0.03 0.02 0.03 0.04 0.05 0.05 0.06 0.05 0.05 0.06 0.05 0.05 0.04 0.04 0.03 0.03 0.04 0.05 0.05 0.07 0.11 0.14 0.17 0.22 0.29 0.39
0.02 0.02 0.03 0.04 0.04 0.04 0.06 0.07 0.07 0.07 0.06 0.05 0.04 0.06 0.21 0.19 0.09 0.04 0.04 0.05 0.08 0.09 0.09 0.08 0.07 0.06 0.07 0.06 0.06 0.05 0.04 0.04 0.03 0.04 0.05 0.05 0.07 0.10 0.13 0.17 0.21 0.27 0.35
0.03 0.04 0.04 0.05 0.05 0.05 0.07 0.06 0.06 0.06 0.06 0.06 0.04 0.03 0.07 0.06 0.05 0.05 0.06 0.07 0.09 0.11 0.13 0.13 0.10 0.09 0.10 0.10 0.08 0.06 0.05 0.04 0.04 0.04 0.05 0.06 0.08 0.11 0.14 0.18 0.22 0.29 0.36
0.06 0.06 0.05 0.04 0.04 0.04 0.05 0.04 0.05 0.07 0.07 0.06 0.05 0.05 0.04 0.05 0.06 0.07 0.08 0.09 0.11 0.13 0.13 0.14 0.13 0.11 0.10 0.09 0.08 0.08 0.08 0.08 0.07 0.08 0.09 0.09 0.10 0.13 0.16 0.20 0.24 0.30 0.36
0.05 0.04 0.04 0.04 0.04 0.05 0.06 0.06 0.07 0.07 0.08 0.07 0.07 0.06 0.06 0.07 0.07 0.07 0.08 0.10 0.12 0.14 0.15 0.17 0.16 0.13 0.12 0.11 0.08 0.07 0.07 0.11 0.15 0.15 0.14 0.16 0.15 0.15 0.18 0.22 0.25 0.30 0.36
0.03 0.03 0.05 0.06 0.07 0.08 0.08 0.08 0.08 0.09 0.09 0.09 0.09 0.09 0.08 0.07 0.07 0.07 0.09 0.11 0.14 0.14 0.14 0.16 0.17 0.16 0.13 0.12 0.10 0.08 0.10 0.15 0.19 0.25 0.30 0.30 0.26 0.22 0.23 0.26 0.28 0.31 0.36
0.03 0.04 0.06 0.08 0.09 0.11 0.12 0.13 0.12 0.12 0.13 0.12 0.12 0.12 0.11 0.11 0.11 0.11 0.14 0.18 0.21 0.19 0.17 0.17 0.17 0.16 0.14 0.12 0.10 0.10 0.14 0.25 0.34 0.44 0.51 0.52 0.42 0.31 0.27 0.28 0.29 0.31 0.36

GEFSGL_prec_meanprecacc_084.txt.gz
Total_Precipitation_Accumulation
0.01 0.01 0.02 0.02 0.03 0.03 0.04 0.05 0.07 0.08 0.09 0.09 0.09 0.10 0.12 0.14 0.17 0.21 0.25 0.29 0.33 0.34 0.34 0.36 0.38 0.37 0.37 0.35 0.34 0.34 0.36 0.48 0.48 0.16 0.10 0.16 0.27 0.32 0.32 0.30 0.28 0.27 0.25
0.03 0.03 0.04 0.04 0.06 0.09 0.11 0.12 0.13 0.14 0.14 0.14 0.13 0.13 0.13 0.14 0.17 0.19 0.23 0.27 0.33 0.37 0.39 0.42 0.43 0.43 0.45 0.44 0.45 0.43 0.40 0.42 0.50 0.32 0.13 0.14 0.23 0.31 0.35 0.34 0.28 0.26 0.24
0.04 0.05 0.06 0.09 0.12 0.16 0.19 0.20 0.20 0.20 0.20 0.19 0.19 0.20 0.20 0.23 0.27 0.28 0.27 0.28 0.32 0.34 0.36 0.41 0.46 0.51 0.54 0.52 0.52 0.50 0.45 0.39 0.39 0.37 0.22 0.17 0.20 0.27 0.32 0.35 0.34 0.31 0.28
0.09 0.11 0.14 0.18 0.22 0.25 0.26 0.25 0.23 0.23 0.24 0.24 0.24 0.26 0.30 0.38 0.51 0.55 0.44 0.40 0.37 0.37 0.36 0.39 0.45 0.53 0.60 0.65 0.68 0.59 0.51 0.49 0.44 0.39 0.28 0.22 0.22 0.26 0.34 0.38 0.39 0.39 0.39
0.20 0.23 0.23 0.22 0.22 0.22 0.22 0.22 0.23 0.25 0.27 0.26 0.25 0.26 0.32 0.47 0.78 0.82 0.65 0.51 0.44 0.42 0.40 0.41 0.44 0.54 0.69 0.83 0.90 0.83 0.73 0.65 0.53 0.46 0.37 0.29 0.27 0.32 0.39 0.42 0.44 0.42 0.45
0.27 0.27 0.25 0.22 0.21 0.21 0.22 0.22 0.23 0.23 0.21 0.18 0.17 0.22 0.30 0.48 0.86 0.91 0.72 0.50 0.44 0.44 0.44 0.39 0.37 0.41 0.48 0.57 0.71 0.72 0.73 0.72 0.67 0.61 0.55 0.48 0.40 0.38 0.42 0.51 0.57 0.54 0.50
0.28 0.28 0.26 0.24 0.23 0.21 0.20 0.18 0.18 0.16 0.13 0.11 0.09 0.12 0.18 0.36 0.72 0.80 0.64 0.41 0.33 0.35 0.35 0.30 0.28 0.28 0.28 0.27 0.32 0.32 0.36 0.46 0.60 0.68 0.70 0.65 0.56 0.49 0.52 0.59 0.66 0.66 0.57
0.25 0.23 0.19 0.16 0.15 0.14 0.14 0.13 0.11 0.10 0.08 0.06 0.05 0.05 0.07 0.16 0.49 0.70 0.53 0.26 0.23 0.26 0.27 0.28 0.28 0.26 0.24 0.25 0.29 0.29 0.27 0.30 0.43 0.55 0.66 0.69 0.67 0.64 0.66 0.74 0.81 0.82 0.73
0.15 0.12 0.09 0.07 0.07 0.08 0.08 0.07 0.05 0.04 0.04 0.03 0.03 0.03 0.03 0.07 0.29 0.62 0.56 0.21 0.19 0.21 0.24 0.33 0.35 0.30 0.28 0.28 0.32 0.33 0.27 0.26 0.30 0.43 0.54 0.57 0.60 0.69 0.78 0.82 0.85 0.92 1.00
0.07 0.05 0.03 0.02 0.03 0.04 0.04 0.03 0.02 0.02 0.02 0.02 0.02 0.02 0.02 0.04 0.17 0.51 0.67 0.28 0.21 0.18 0.21 0.31 0.47 0.41 0.34 0.27 0.27 0.26 0.23 0.23 0.21 0.21 0.24 0.28 0.33 0.40 0.56 0.78 0.90 0.92 1.02
0.02 0.01 0.01 0.00 0.01 0.01 0.01 0.01 0.02 0.02 0.02 0.02 0.02 0.02 0.02 0.03 0.06 0.30 0.67 0.53 0.32 0.21 0.21 0.31 0.46 0.39 0.29 0.22 0.19 0.19 0.23 0.23 0.19 0.16 0.16 0.19 0.23 0.31 0.44 0.61 0.79 0.90 0.96
0.00 0.00 0.00 0.00 0.01 0.01 0.01 0.01 0.02 0.02 0.02 0.03 0.03 0.03 0.02 0.02 0.05 0.19 0.42 0.52 0.39 0.20 0.22 0.25 0.33 0.29 0.23 0.16 0.11 0.12 0.13 0.11 0.09 0.09 0.09 0.11 0.16 0.25 0.37 0.51 0.65 0.77 0.89
0.00 0.00 0.00 0.01 0.01 0.01 0.01 0.02 0.02 0.02 0.04 0.06 0.06 0.05 0.03 0.03 0.05 0.16 0.22 0.23 0.24 0.17 0.25 0.38 0.29 0.18 0.11 0.07 0.04 0.04 0.04 0.03 0.04 0.05 0.06 0.07 0.11 0.18 0.25 0.35 0.46 0.59 0.68
0.00 0.01 0.01 0.01 0.01 0.01 0.02 0.02 0.03 0.05 0.14 0.20 0.15 0.10 0.06 0.05 0.14 0.30 0.28 0.15 0.13 0.13 0.14 0.21 0.17 0.07 0.02 0.01 0.01 0.01 0.01 0.02 0.04 0.06 0.06 0.05 0.06 0.09 0.15 0.25 0.37 0.48 0.59
0.00 0.01 0.01 0.01 0.01 0.02 0.02 0.02 0.04 0.06 0.20 0.33 0.26 0.23 0.19 0.21 0.35 0.51 0.42 0.30 0.28 0.25 0.16 0.10 0.07 0.04 0.02 0.01 0.01 0.01 0.01 0.01 0.02 0.03 0.05 0.06 0.07 0.09 0.13 0.20 0.32 0.43 0.56
0.01 0.01 0.02 0.02 0.02 0.02 0.02 0.03 0.03 0.05 0.10 0.12 0.15 0.22 0.21 0.31 0.40 0.34 0.28 0.25 0.24 0.21 0.12 0.08 0.06 0.04 0.03 0.03 0.02 0.01 0.01 0.02 0.03 0.04 0.06 0.07 0.09 0.11 0.13 0.17 0.27 0.38 0.49
0.02 0.03 0.03 0.03 0.03 0.03 0.04 0.04 0.04 0.03 0.03 0.04 0.06 0.11 0.18 0.25 0.27 0.23 0.22 0.15 0.11 0.09 0.06 0.04 0.04 0.03 0.03 0.03 0.03 0.03 0.03 0.02 0.04 0.05 0.06 0.08 0.10 0.13 0.15 0.18 0.24 0.34 0.45
0.02 0.03 0.04 0.04 0.04 0.05 0.05 0.06 0.06 0.06 0.05 0.03 0.02 0.05 0.10 0.15 0.17 0.16 0.15 0.09 0.05 0.04 0.04 0.05 0.04 0.04 0.04 0.04 0.04 0.03 0.03 0.02 0.03 0.05 0.06 0.07 0.10 0.15 0.17 0.19 0.25 0.36 0.46
0.02 0.03 0.05 0.05 0.05 0.05 0.06 0.06 0.05 0.06 0.05 0.04 0.03 0.04 0.06 0.07 0.07 0.06 0.07 0.06 0.05 0.04 0.04 0.04 0.04 0.05 0.05 0.05 0.04 0.04 0.04 0.04 0.04 0.05 0.05 0.06 0.09 0.14 0.17 0.18 0.23 0.34 0.46
0.02 0.03 0.05 0.05 0.05 0.05 0.06 0.07 0.07 0.07 0.07 0.06 0.06 0.07 0.12 0.12 0.09 0.06 0.05 0.05 0.05 0.05 0.06 0.06 0.05 0.05 0.06 0.06 0.05 0.04 0.04 0.03 0.03 0.04 0.05 0.06 0.08 0.13 0.16 0.18 0.24 0.32 0.42
0.03 0.03 0.04 0.05 0.05 0.05 0.07 0.08 0.09 0.09 0.08 0.08 0.06 0.08 0.23 0.22 0.11 0.07 0.06 0.07 0.09 0.10 0.10 0.09 0.07 0.07 0.07 0.06 0.06 0.05 0.05 0.04 0.04 0.05 0.06 0.06 0.09 0.13 0.15 0.19 0.23 0.31 0.39
0.04 0.05 0.05 0.06 0.06 0.06 0.09 0.09 0.09 0.09 0.09 0.09 0.07 0.06 0.10 0.09 0.07 0.07 0.08 0.08 0.10 0.12 0.13 0.13 0.11 0.09 0.10 0.10 0.09 0.07 0.05 0.05 0.05 0.05 0.06 0.07 0.10 0.14 0.17 0.20 0.25 0.32 0.40
0.07 0.07 0.06 0.05 0.05 0.07 0.08 0.08 0.09 0.10 0.10 0.09 0.08 0.07 0.07 0.07 0.08 0.09 0.10 0.10 0.12 0.14 0.14 0.15 0.14 0.11 0.10 0.10 0.09 0.09 0.09 0.09 0.08 0.09 0.11 0.11 0.12 0.16 0.19 0.23 0.28 0.34 0.40
0.07 0.06 0.06 0.06 0.07 0.08 0.09 0.10 0.10 0.10 0.11 0.11 0.10 0.09 0.08 0.08 0.09 0.09 0.10 0.11 0.13 0.15 0.16 0.17 0.16 0.14 0.12 0.11 0.09 0.07 0.08 0.13 0.17 0.18 0.17 0.19 0.19 0.19 0.22 0.26 0.29 0.33 0.40
0.04 0.06 0.07 0.09 0.10 0.11 0.12 0.12 0.12 0.12 0.12 0.12 0.12 0.11 0.09 0.09 0.09 0.09 0.10 0.12 0.15 0.15 0.15 0.16 0.17 0.16 0.13 0.12 0.10 0.09 0.11 0.17 0.22 0.28 0.33 0.34 0.29 0.26 0.27 0.30 0.32 0.35 0.40
0.05 0.07 0.09 0.11 0.13 0.15 0.16 0.17 0.15 0.15 0.16 0.15 0.14 0.14 0.13 0.13 0.12 0.13 0.15 0.19 0.22 0.20 0.17 0.17 0.17 0.16 0.14 0.12 0.11 0.11 0.16 0.27 0.36 0.46 0.54 0.56 0.46 0.35 0.32 0.33 0.33 0.36 0.40

GEFSGL_prec_meanprecacc_090.txt.gz
Total_Precipitation_Accumulation
0.01 0.01 0.02 0.02 0.03 0.03 0.04 0.05 0.07 0.08 0.09 0.09 0.09 0.10 0.12 0.14 0.17 0.21 0.25 0.30 0.33 0.34 0.34 0.37 0.38 0.37 0.37 0.35 0.35 0.34 0.37 0.49 0.49 0.16 0.10 0.17 0.28 0.32 0.32 0.30 0.28 0.27 0.26
0.03 0.03 0.04 0.04 0.06 0.09 0.11 0.12 0.13 0.14 0.14 0.14 0.13 0.13 0.13 0.14 0.17 0.19 0.23 0.27 0.33 0.37 0.39 0.43 0.44 0.44 0.45 0.45 0.45 0.43 0.41 0.43 0.51 0.32 0.13 0.14 0.23 0.31 0.35 0.35 0.28 0.26 0.24
0.04 0.05 0.06 0.09 0.12 0.16 0.19 0.20 0.20 0.20 0.20 0.19 0.19 0.20 0.20 0.23 0.28 0.28 0.27 0.29 0.32 0.35 0.37 0.42 0.47 0.52 0.55 0.53 0.53 0.51 0.45 0.39 0.39 0.38 0.22 0.17 0.21 0.27 0.32 0.35 0.34 0.31 0.28
0.09 0.11 0.14 0.18 0.22 0.25 0.26 0.25 0.23 0.23 0.24 0.24 0.24 0.26 0.30 0.38 0.51 0.55 0.45 0.40 0.37 0.37 0.37 0.40 0.46 0.54 0.61 0.66 0.69 0.60 0.52 0.49 0.45 0.40 0.29 0.23 0.22 0.26 0.35 0.39 0.40 0.39 0.39
0.20 0.23 0.23 0.22 0.22 0.22 0.22 0.22 0.23 0.25 0.27 0.26 0.25 0.26 0.32 0.47 0.79 0.82 0.65 0.52 0.45 0.42 0.40 0.42 0.45 0.55 0.70 0.84 0.91 0.84 0.75 0.67 0.56 0.49 0.40 0.32 0.29 0.34 0.41 0.43 0.45 0.42 0.45
0.27 0.27 0.25 0.22 0.21 0.21 0.22 0.22 0.23 0.23 0.21 0.18 0.17 0.22 0.30 0.48 0.86 0.91 0.72 0.50 0.44 0.45 0.45 0.40 0.38 0.42 0.49 0.59 0.73 0.75 0.76 0.76 0.72 0.65 0.59 0.51 0.42 0.40 0.44 0.52 0.59 0.55 0.51
0.28 0.28 0.26 0.24 0.23 0.21 0.20 0.18 0.18 0.16 0.13 0.11 0.09 0.12 0.18 0.36 0.72 0.80 0.65 0.42 0.34 0.36 0.36 0.31 0.29 0.29 0.30 0.29 0.35 0.36 0.40 0.50 0.64 0.72 0.75 0.68 0.57 0.51 0.54 0.61 0.67 0.68 0.58
0.25 0.23 0.19 0.16 0.15 0.14 0.14 0.13 0.11 0.10 0.08 0.06 0.05 0.05 0.07 0.16 0.49 0.71 0.54 0.28 0.25 0.28 0.28 0.30 0.30 0.28 0.26 0.28 0.32 0.32 0.30 0.32 0.45 0.57 0.68 0.70 0.68 0.65 0.68 0.76 0.84 0.85 0.75
0.15 0.12 0.09 0.07 0.07 0.08 0.08 0.07 0.05 0.04 0.04 0.03 0.03 0.03 0.03 0.07 0.29 0.63 0.57 0.23 0.22 0.22 0.25 0.35 0.37 0.32 0.29 0.30 0.37 0.36 0.29 0.27 0.31 0.45 0.57 0.60 0.63 0.73 0.83 0.91 0.95 1.00 1.04
0.07 0.05 0.03 0.02 0.03 0.04 0.04 0.03 0.02 0.02 0.02 0.02 0.02 0.02 0.02 0.04 0.17 0.51 0.69 0.31 0.24 0.21 0.23 0.33 0.50 0.44 0.36 0.30 0.32 0.30 0.26 0.24 0.22 0.23 0.26 0.30 0.34 0.42 0.59 0.82 0.96 0.99 1.09
0.02 0.01 0.01 0.00 0.01 0.01 0.01 0.01 0.02 0.02 0.02 0.02 0.02 0.02 0.02 0.03 0.07 0.31 0.69 0.56 0.35 0.24 0.24 0.34 0.48 0.41 0.33 0.26 0.23 0.23 0.25 0.25 0.22 0.19 0.18 0.20 0.24 0.32 0.44 0.62 0.80 0.93 1.00
0.00 0.00 0.00 0.00 0.01 0.01 0.01 0.01 0.02 0.02 0.02 0.03 0.03 0.03 0.03 0.02 0.05 0.19 0.44 0.55 0.43 0.24 0.25 0.27 0.34 0.31 0.26 0.20 0.16 0.16 0.16 0.15 0.13 0.12 0.11 0.12 0.17 0.26 0.38 0.51 0.66 0.78 0.90
0.00 0.00 0.00 0.01 0.01 0.01 0.01 0.02 0.02 0.03 0.04 0.07 0.07 0.05 0.03 0.03 0.06 0.16 0.24 0.25 0.29 0.22 0.29 0.40 0.31 0.20 0.14 0.10 0.08 0.08 0.07 0.06 0.06 0.07 0.07 0.08 0.11 0.18 0.25 0.35 0.47 0.60 0.69
0.00 0.01 0.01 0.01 0.01 0.01 0.02 0.02 0.03 0.05 0.14 0.21 0.16 0.11 0.06 0.06 0.14 0.31 0.29 0.17 0.17 0.19 0.19 0.24 0.21 0.11 0.06 0.04 0.03 0.03 0.03 0.04 0.05 0.07 0.06 0.06 0.07 0.10 0.16 0.26 0.38 0.50 0.61
0.01 0.01 0.01 0.01 0.02 0.02 0.02 0.02 0.04 0.06 0.20 0.34 0.27 0.24 0.20 0.22 0.36 0.52 0.44 0.32 0.31 0.29 0.22 0.16 0.12 0.08 0.06 0.04 0.02 0.02 0.02 0.02 0.03 0.04 0.05 0.06 0.07 0.09 0.13 0.21 0.34 0.44 0.58
0.01 0.02 0.02 0.02 0.02 0.02 0.03 0.03 0.03 0.05 0.10 0.12 0.15 0.23 0.22 0.32 0.41 0.36 0.30 0.27 0.27 0.25 0.19 0.15 0.10 0.07 0.05 0.04 0.03 0.02 0.02 0.02 0.03 0.05 0.06 0.07 0.10 0.12 0.14 0.18 0.28 0.40 0.51
0.02 0.03 0.04 0.03 0.03 0.04 0.04 0.05 0.05 0.03 0.04 0.04 0.06 0.12 0.19 0.27 0.28 0.25 0.25 0.18 0.15 0.13 0.13 0.09 0.07 0.06 0.05 0.04 0.03 0.03 0.03 0.02 0.04 0.06 0.07 0.08 0.11 0.14 0.16 0.19 0.25 0.36 0.47
0.02 0.03 0.05 0.04 0.05 0.06 0.06 0.07 0.07 0.07 0.05 0.03 0.03 0.06 0.11 0.16 0.19 0.19 0.18 0.14 0.10 0.09 0.09 0.08 0.06 0.05 0.05 0.05 0.04 0.04 0.03 0.03 0.03 0.05 0.06 0.07 0.11 0.16 0.19 0.20 0.26 0.38 0.48
0.02 0.04 0.06 0.06 0.06 0.06 0.07 0.07 0.07 0.07 0.07 0.05 0.04 0.05 0.08 0.09 0.10 0.10 0.10 0.11 0.09 0.07 0.07 0.06 0.06 0.06 0.06 0.06 0.05 0.04 0.04 0.04 0.04 0.05 0.06 0.07 0.10 0.15 0.18 0.20 0.25 0.35 0.49
0.03 0.05 0.07 0.06 0.06 0.07 0.07 0.08 0.09 0.09 0.09 0.08 0.08 0.09 0.14 0.15 0.13 0.10 0.09 0.09 0.09 0.08 0.07 0.08 0.06 0.06 0.07 0.06 0.06 0.05 0.05 0.04 0.04 0.05 0.06 0.07 0.09 0.14 0.18 0.20 0.25 0.34 0.45
0.03 0.04 0.06 0.06 0.06 0.07 0.09 0.11 0.11 0.11 0.11 0.10 0.08 0.10 0.26 0.26 0.14 0.09 0.09 0.10 0.12 0.12 0.12 0.10 0.09 0.08 0.08 0.07 0.07 0.06 0.05 0.05 0.04 0.06 0.07 0.08 0.11 0.15 0.17 0.21 0.26 0.33 0.42
0.06 0.06 0.07 0.08 0.08 0.09 0.11 0.11 0.11 0.12 0.12 0.11 0.09 0.08 0.12 0.12 0.10 0.10 0.10 0.11 0.12 0.14 0.15 0.15 0.12 0.10 0.11 0.11 0.09 0.08 0.06 0.06 0.06 0.07 0.08 0.09 0.12 0.16 0.19 0.23 0.27 0.35 0.43
0.08 0.09 0.08 0.07 0.07 0.09 0.10 0.10 0.11 0.13 0.13 0.12 0.11 0.10 0.09 0.10 0.10 0.12 0.13 0.13 0.15 0.16 0.16 0.16 0.15 0.12 0.11 0.11 0.09 0.10 0.10 0.10 0.09 0.11 0.14 0.15 0.16 0.19 0.23 0.27 0.31 0.37 0.43
0.09 0.08 0.08 0.08 0.09 0.10 0.12 0.12 0.13 0.13 0.14 0.13 0.12 0.11 0.10 0.10 0.11 0.11 0.12 0.13 0.16 0.17 0.18 0.19 0.18 0.15 0.13 0.12 0.10 0.08 0.10 0.15 0.20 0.22 0.22 0.24 0.24 0.24 0.26 0.30 0.33 0.37 0.44
0.07 0.08 0.10 0.11 0.13 0.14 0.15 0.14 0.14 0.15 0.15 0.15 0.14 0.13 0.11 0.11 0.11 0.11 0.12 0.14 0.17 0.17 0.17 0.18 0.18 0.17 0.14 0.13 0.11 0.10 0.12 0.19 0.25 0.34 0.39 0.40 0.35 0.31 0.32 0.35 0.37 0.39 0.44
0.07 0.09 0.11 0.13 0.15 0.17 0.19 0.19 0.18 0.18 0.19 0.17 0.16 0.15 0.15 0.15 0.14 0.14 0.16 0.21 0.24 0.21 0.19 0.18 0.18 0.17 0.15 0.13 0.11 0.12 0.18 0.30 0.40 0.51 0.60 0.62 0.51 0.40 0.36 0.38 0.37 0.40 0.44

GEFSGL_prec_meanprecacc_096.txt.gz
Total_Precipitation_Accumulation
0.01 0.01 0.02 0.02 0.03 0.03 0.04 0.05 0.07 0.08 0.09 0.09 0.09 0.10 0.12 0.14 0.17 0.21 0.25 0.30 0.33 0.34 0.34 0.37 0.38 0.38 0.38 0.36 0.35 0.35 0.37 0.49 0.50 0.17 0.10 0.17 0.28 0.32 0.33 0.30 0.28 0.27 0.26
0.03 0.03 0.04 0.04 0.06 0.09 0.11 0.12 0.13 0.14 0.14 0.14 0.13 0.13 0.13 0.14 0.17 0.19 0.23 0.27 0.33 0.37 0.39 0.43 0.44 0.44 0.46 0.45 0.46 0.44 0.41 0.44 0.51 0.33 0.14 0.14 0.23 0.31 0.36 0.35 0.28 0.26 0.24
0.04 0.05 0.06 0.09 0.12 0.16 0.19 0.20 0.20 0.20 0.20 0.19 0.19 0.20 0.20 0.23 0.28 0.28 0.27 0.29 0.32 0.35 0.37 0.42 0.47 0.52 0.56 0.54 0.54 0.52 0.46 0.40 0.41 0.40 0.23 0.17 0.21 0.27 0.33 0.36 0.34 0.31 0.28
0.09 0.11 0.14 0.18 0.22 0.25 0.26 0.25 0.23 0.23 0.24 0.24 0.24 0.26 0.30 0.38 0.51 0.55 0.45 0.40 0.37 0.37 0.37 0.40 0.46 0.55 0.62 0.67 0.71 0.62 0.53 0.51 0.47 0.42 0.31 0.23 0.23 0.26 0.36 0.40 0.40 0.39 0.39
0.20 0.23 0.23 0.22 0.22 0.22 0.22 0.22 0.23 0.25 0.27 0.26 0.25 0.26 0.32 0.47 0.79 0.83 0.65 0.52 0.45 0.43 0.40 0.42 0.46 0.56 0.71 0.85 0.93 0.86 0.77 0.70 0.59 0.52 0.42 0.33 0.30 0.34 0.42 0.44 0.46 0.43 0.45
0.27 0.27 0.25 0.22 0.21 0.21 0.22 0.22 0.23 0.23 0.21 0.18 0.17 0.22 0.30 0.48 0.86 0.91 0.73 0.51 0.44 0.45 0.45 0.41 0.39 0.43 0.50 0.61 0.76 0.78 0.79 0.79 0.75 0.68 0.61 0.53 0.42 0.40 0.44 0.54 0.61 0.57 0.52
0.28 0.28 0.26 0.24 0.23 0.21 0.20 0.18 0.18 0.16 0.13 0.11 0.09 0.12 0.18 0.36 0.72 0.80 0.65 0.42 0.34 0.36 0.36 0.32 0.30 0.30 0.31 0.31 0.38 0.41 0.46 0.56 0.68 0.75 0.78 0.69 0.58 0.51 0.55 0.63 0.70 0.69 0.58
0.25 0.23 0.19 0.16 0.15 0.14 0.14 0.13 0.11 0.10 0.08 0.06 0.05 0.05 0.07 0.16 0.49 0.71 0.54 0.28 0.25 0.28 0.28 0.30 0.31 0.29 0.27 0.30 0.35 0.36 0.34 0.37 0.51 0.64 0.76 0.74 0.69 0.66 0.69 0.78 0.87 0.88 0.77
0.15 0.12 0.09 0.07 0.07 0.08 0.08 0.07 0.05 0.05 0.04 0.03 0.03 0.03 0.04 0.07 0.29 0.63 0.58 0.24 0.22 0.23 0.26 0.35 0.38 0.34 0.30 0.33 0.42 0.41 0.32 0.28 0.33 0.49 0.64 0.66 0.66 0.77 0.87 0.99 1.06 1.09 1.10
0.07 0.05 0.03 0.02 0.03 0.04 0.04 0.03 0.02 0.02 0.02 0.02 0.02 0.02 0.02 0.04 0.17 0.52 0.70 0.32 0.25 0.22 0.24 0.34 0.51 0.45 0.37 0.33 0.39 0.36 0.29 0.25 0.23 0.25 0.30 0.36 0.41 0.47 0.64 0.89 1.04 1.05 1.13
0.02 0.01 0.01 0.00 0.01 0.01 0.02 0.02 0.02 0.02 0.02 0.02 0.02 0.02 0.02 0.03 0.07 0.32 0.70 0.57 0.36 0.25 0.26 0.35 0.49 0.43 0.35 0.30 0.29 0.29 0.28 0.27 0.24 0.22 0.21 0.23 0.27 0.36 0.48 0.66 0.85 0.96 1.02
0.00 0.00 0.00 0.00 0.01 0.01 0.01 0.02 0.02 0.02 0.03 0.03 0.03 0.03 0.03 0.02 0.06 0.20 0.45 0.56 0.44 0.25 0.27 0.28 0.35 0.32 0.29 0.25 0.22 0.23 0.21 0.21 0.22 0.18 0.15 0.15 0.18 0.27 0.39 0.53 0.68 0.80 0.92
0.00 0.00 0.01 0.01 0.01 0.01 0.02 0.02 0.02 0.03 0.05 0.07 0.07 0.06 0.04 0.03 0.06 0.17 0.24 0.26 0.30 0.24 0.30 0.42 0.33 0.22 0.17 0.14 0.13 0.14 0.15 0.15 0.17 0.14 0.11 0.10 0.12 0.19 0.26 0.36 0.48 0.62 0.71
0.00 0.01 0.01 0.01 0.01 0.02 0.02 0.02 0.03 0.05 0.15 0.21 0.16 0.12 0.07 0.06 0.15 0.31 0.30 0.18 0.18 0.21 0.21 0.27 0.24 0.15 0.10 0.08 0.06 0.07 0.09 0.12 0.13 0.12 0.09 0.07 0.08 0.11 0.17 0.27 0.39 0.51 0.62
0.01 0.01 0.02 0.02 0.02 0.02 0.02 0.02 0.05 0.07 0.21 0.35 0.29 0.26 0.22 0.23 0.37 0.54 0.45 0.33 0.32 0.31 0.26 0.21 0.17 0.14 0.12 0.10 0.06 0.04 0.05 0.07 0.08 0.08 0.08 0.08 0.09 0.10 0.14 0.21 0.34 0.45 0.59
0.02 0.03 0.03 0.03 0.03 0.03 0.03 0.04 0.04 0.06 0.11 0.14 0.17 0.25 0.24 0.34 0.43 0.38 0.32 0.30 0.29 0.28 0.24 0.21 0.15 0.11 0.09 0.08 0.06 0.05 0.04 0.05 0.06 0.07 0.08 0.09 0.11 0.13 0.15 0.18 0.29 0.41 0.52
0.03 0.04 0.05 0.04 0.04 0.05 0.05 0.07 0.06 0.05 0.04 0.05 0.07 0.14 0.21 0.28 0.30 0.27 0.27 0.21 0.17 0.17 0.19 0.14 0.10 0.08 0.07 0.06 0.06 0.05 0.05 0.04 0.05 0.07 0.09 0.09 0.12 0.15 0.17 0.20 0.26 0.37 0.48
0.03 0.04 0.06 0.06 0.06 0.07 0.08 0.09 0.10 0.09 0.07 0.04 0.03 0.07 0.12 0.18 0.21 0.21 0.21 0.17 0.14 0.12 0.13 0.11 0.09 0.07 0.07 0.07 0.06 0.05 0.05 0.04 0.05 0.07 0.08 0.09 0.12 0.17 0.20 0.21 0.27 0.39 0.49
0.03 0.05 0.07 0.07 0.07 0.08 0.09 0.09 0.09 0.09 0.09 0.07 0.05 0.06 0.08 0.10 0.11 0.11 0.13 0.14 0.12 0.10 0.09 0.09 0.08 0.08 0.08 0.08 0.06 0.06 0.06 0.06 0.05 0.06 0.07 0.08 0.11 0.17 0.20 0.21 0.26 0.36 0.51
0.04 0.06 0.09 0.08 0.08 0.08 0.09 0.10 0.11 0.11 0.11 0.10 0.09 0.10 0.15 0.17 0.14 0.11 0.11 0.12 0.11 0.10 0.10 0.10 0.09 0.09 0.09 0.08 0.08 0.07 0.07 0.06 0.05 0.06 0.08 0.09 0.11 0.17 0.20 0.22 0.27 0.36 0.47
0.05 0.06 0.08 0.08 0.08 0.08 0.11 0.13 0.13 0.14 0.14 0.12 0.10 0.11 0.28 0.29 0.17 0.11 0.11 0.12 0.14 0.14 0.14 0.12 0.10 0.10 0.10 0.09 0.09 0.08 0.07 0.06 0.06 0.07 0.09 0.10 0.13 0.17 0.20 0.24 0.28 0.35 0.45
0.07 0.08 0.08 0.09 0.09 0.10 0.13 0.13 0.14 0.15 0.15 0.14 0.10 0.09 0.14 0.15 0.12 0.12 0.12 0.12 0.14 0.16 0.17 0.17 0.14 0.12 0.12 0.12 0.11 0.10 0.08 0.07 0.07 0.08 0.10 0.11 0.14 0.19 0.22 0.26 0.30 0.38 0.46
0.11 0.11 0.10 0.09 0.09 0.11 0.12 0.12 0.14 0.16 0.15 0.14 0.13 0.11 0.10 0.11 0.12 0.13 0.14 0.14 0.16 0.18 0.18 0.19 0.17 0.14 0.12 0.12 0.11 0.12 0.12 0.11 0.11 0.13 0.17 0.18 0.19 0.22 0.26 0.30 0.34 0.41 0.47
0.11 0.11 0.10 0.10 0.11 0.12 0.14 0.15 0.15 0.16 0.16 0.16 0.15 0.13 0.12 0.12 0.12 0.12 0.13 0.15 0.17 0.19 0.20 0.21 0.20 0.17 0.15 0.14 0.12 0.11 0.12 0.17 0.23 0.26 0.26 0.28 0.27 0.26 0.29 0.34 0.36 0.40 0.47
0.09 0.10 0.12 0.13 0.15 0.16 0.17 0.17 0.16 0.17 0.18 0.18 0.17 0.15 0.13 0.13 0.13 0.12 0.13 0.15 0.18 0.19 0.18 0.20 0.20 0.19 0.16 0.15 0.13 0.12 0.14 0.22 0.29 0.38 0.46 0.47 0.41 0.36 0.36 0.39 0.40 0.43 0.47
0.09 0.11 0.13 0.15 0.18 0.20 0.23 0.23 0.21 0.21 0.22 0.20 0.18 0.18 0.17 0.16 0.15 0.15 0.17 0.21 0.25 0.23 0.20 0.19 0.19 0.19 0.17 0.14 0.13 0.14 0.20 0.32 0.44 0.56 0.66 0.69 0.58 0.45 0.41 0.43 0.42 0.44 0.49

GEFSGL_prec_meanprecacc_102.txt.gz
Total_Precipitation_Accumulation
0.01 0.01 0.02 0.02 0.03 0.03 0.04 0.05 0.07 0.08 0.09 0.09 0.09 0.10 0.12 0.14 0.17 0.21 0.25 0.30 0.33 0.34 0.34 0.37 0.38 0.38 0.38 0.36 0.35 0.35 0.37 0.49 0.50 0.17 0.10 0.17 0.28 0.33 0.33 0.30 0.28 0.28 0.26
0.03 0.03 0.04 0.04 0.06 0.09 0.11 0.12 0.13 0.14 0.14 0.14 0.13 0.13 0.13 0.14 0.17 0.19 0.23 0.27 0.33 0.37 0.39 0.43 0.44 0.44 0.46 0.45 0.46 0.44 0.42 0.44 0.52 0.33 0.14 0.14 0.23 0.31 0.36 0.35 0.29 0.26 0.24
0.04 0.05 0.06 0.09 0.12 0.16 0.19 0.20 0.20 0.20 0.20 0.19 0.19 0.20 0.20 0.24 0.28 0.28 0.27 0.29 0.32 0.35 0.37 0.42 0.47 0.52 0.56 0.54 0.54 0.52 0.47 0.41 0.41 0.40 0.23 0.17 0.21 0.27 0.33 0.37 0.35 0.32 0.28
0.09 0.11 0.14 0.18 0.22 0.25 0.26 0.25 0.23 0.23 0.24 0.24 0.24 0.26 0.30 0.38 0.51 0.55 0.45 0.40 0.38 0.37 0.37 0.40 0.46 0.55 0.62 0.67 0.71 0.62 0.54 0.52 0.48 0.43 0.31 0.24 0.23 0.27 0.37 0.41 0.41 0.40 0.39
0.20 0.23 0.23 0.22 0.22 0.22 0.22 0.22 0.23 0.25 0.27 0.26 0.25 0.26 0.32 0.47 0.79 0.83 0.65 0.52 0.45 0.43 0.40 0.42 0.46 0.56 0.71 0.86 0.93 0.86 0.77 0.72 0.61 0.54 0.43 0.34 0.31 0.36 0.43 0.44 0.47 0.44 0.46
0.27 0.27 0.25 0.22 0.21 0.21 0.22 0.22 0.23 0.23 0.21 0.18 0.17 0.22 0.30 0.48 0.86 0.91 0.73 0.51 0.45 0.45 0.45 0.41 0.39 0.44 0.50 0.61 0.77 0.79 0.80 0.81 0.77 0.70 0.63 0.54 0.43 0.41 0.45 0.55 0.63 0.60 0.54
0.28 0.28 0.26 0.24 0.23 0.21 0.20 0.18 0.18 0.16 0.13 0.11 0.09 0.12 0.19 0.36 0.72 0.81 0.66 0.43 0.34 0.36 0.36 0.32 0.30 0.31 0.32 0.32 0.39 0.43 0.50 0.60 0.71 0.78 0.81 0.71 0.59 0.52 0.57 0.66 0.72 0.71 0.59
0.25 0.23 0.19 0.16 0.15 0.14 0.14 0.13 0.11 0.10 0.08 0.07 0.05 0.05 0.07 0.16 0.49 0.72 0.55 0.29 0.25 0.28 0.28 0.30 0.31 0.29 0.28 0.31 0.36 0.37 0.36 0.40 0.55 0.70 0.81 0.76 0.70 0.67 0.71 0.81 0.89 0.91 0.79
0.15 0.12 0.09 0.07 0.07 0.08 0.08 0.07 0.05 0.05 0.04 0.03 0.03 0.03 0.04 0.08 0.29 0.64 0.59 0.24 0.23 0.23 0.26 0.36 0.39 0.34 0.31 0.34 0.44 0.43 0.33 0.29 0.35 0.54 0.71 0.72 0.70 0.80 0.91 1.05 1.13 1.17 1.15
0.07 0.05 0.03 0.02 0.03 0.04 0.04 0.03 0.02 0.02 0.02 0.02 0.02 0.02 0.03 0.04 0.17 0.53 0.71 0.33 0.26 0.22 0.24 0.34 0.51 0.46 0.38 0.35 0.41 0.39 0.32 0.26 0.24 0.27 0.34 0.43 0.49 0.55 0.73 1.00 1.12 1.11 1.17
0.02 0.01 0.01 0.00 0.01 0.01 0.02 0.02 0.02 0.02 0.02 0.02 0.03 0.03 0.03 0.03 0.07 0.32 0.71 0.58 0.37 0.27 0.27 0.36 0.49 0.44 0.37 0.33 0.33 0.32 0.31 0.28 0.26 0.24 0.23 0.25 0.32 0.43 0.56 0.77 0.97 1.03 1.06
0.00 0.00 0.00 0.00 0.01 0.01 0.02 0.02 0.02 0.03 0.03 0.04 0.04 0.04 0.03 0.03 0.06 0.21 0.46 0.59 0.47 0.29 0.29 0.29 0.36 0.34 0.31 0.28 0.25 0.27 0.25 0.25 0.27 0.22 0.18 0.17 0.20 0.29 0.42 0.57 0.75 0.88 0.96
0.00 0.00 0.01 0.01 0.01 0.01 0.02 0.03 0.03 0.04 0.06 0.08 0.08 0.07 0.04 0.04 0.07 0.18 0.26 0.29 0.33 0.27 0.32 0.43 0.35 0.24 0.20 0.17 0.16 0.18 0.19 0.20 0.24 0.20 0.13 0.11 0.13 0.19 0.27 0.38 0.52 0.67 0.77
0.00 0.01 0.01 0.01 0.02 0.02 0.02 0.03 0.04 0.06 0.16 0.23 0.19 0.14 0.09 0.07 0.15 0.32 0.31 0.20 0.20 0.22 0.23 0.29 0.26 0.17 0.12 0.09 0.08 0.09 0.13 0.17 0.18 0.17 0.12 0.09 0.09 0.13 0.19 0.29 0.42 0.54 0.67
0.01 0.02 0.02 0.02 0.02 0.03 0.03 0.03 0.05 0.08 0.23 0.39 0.33 0.30 0.26 0.26 0.38 0.56 0.48 0.36 0.35 0.33 0.29 0.24 0.20 0.17 0.15 0.13 0.09 0.06 0.07 0.10 0.14 0.13 0.12 0.11 0.11 0.12 0.16 0.23 0.37 0.48 0.63
0.03 0.03 0.03 0.04 0.04 0.04 0.04 0.04 0.04 0.06 0.12 0.15 0.19 0.28 0.26 0.36 0.46 0.41 0.35 0.32 0.32 0.31 0.29 0.26 0.18 0.14 0.12 0.10 0.09 0.07 0.06 0.07 0.08 0.11 0.12 0.12 0.13 0.15 0.16 0.20 0.31 0.43 0.54
0.04 0.05 0.06 0.05 0.05 0.06 0.07 0.08 0.08 0.05 0.05 0.05 0.08 0.15 0.22 0.30 0.32 0.29 0.29 0.23 0.19 0.19 0.23 0.18 0.13 0.10 0.09 0.08 0.08 0.07 0.06 0.05 0.07 0.10 0.11 0.12 0.14 0.17 0.18 0.22 0.28 0.38 0.49
0.03 0.05 0.07 0.07 0.08 0.09 0.10 0.10 0.11 0.11 0.08 0.05 0.04 0.07 0.13 0.19 0.22 0.22 0.22 0.19 0.15 0.14 0.15 0.14 0.11 0.09 0.09 0.09 0.08 0.07 0.06 0.06 0.08 0.09 0.10 0.11 0.14 0.19 0.22 0.23 0.28 0.40 0.50
0.04 0.05 0.08 0.09 0.09 0.09 0.10 0.10 0.10 0.10 0.09 0.07 0.06 0.06 0.09 0.11 0.12 0.12 0.14 0.16 0.14 0.11 0.10 0.10 0.09 0.10 0.10 0.09 0.08 0.07 0.07 0.07 0.07 0.08 0.09 0.10 0.13 0.19 0.22 0.22 0.27 0.38 0.52
0.04 0.07 0.10 0.10 0.10 0.10 0.10 0.11 0.12 0.12 0.12 0.11 0.10 0.11 0.16 0.18 0.15 0.12 0.12 0.14 0.13 0.12 0.11 0.12 0.10 0.10 0.11 0.10 0.09 0.09 0.08 0.07 0.07 0.08 0.09 0.11 0.13 0.19 0.23 0.24 0.29 0.39 0.49
0.06 0.07 0.09 0.10 0.10 0.10 0.12 0.14 0.15 0.16 0.16 0.14 0.11 0.12 0.30 0.32 0.19 0.13 0.12 0.13 0.16 0.16 0.15 0.14 0.12 0.11 0.11 0.11 0.10 0.09 0.09 0.08 0.07 0.09 0.10 0.12 0.15 0.20 0.22 0.26 0.31 0.38 0.47
0.08 0.10 0.10 0.11 0.11 0.12 0.15 0.15 0.15 0.17 0.17 0.16 0.12 0.10 0.15 0.16 0.14 0.14 0.13 0.13 0.15 0.17 0.18 0.19 0.16 0.13 0.13 0.14 0.12 0.11 0.09 0.08 0.08 0.10 0.12 0.13 0.17 0.21 0.24 0.28 0.33 0.41 0.48
0.12 0.13 0.12 0.10 0.10 0.12 0.13 0.13 0.15 0.18 0.17 0.16 0.15 0.13 0.12 0.13 0.14 0.15 0.15 0.16 0.17 0.19 0.20 0.20 0.19 0.15 0.13 0.13 0.12 0.13 0.14 0.12 0.12 0.14 0.19 0.20 0.21 0.24 0.28 0.33 0.37 0.43 0.49
0.14 0.13 0.13 0.12 0.12 0.13 0.15 0.16 0.16 0.17 0.18 0.18 0.17 0.15 0.14 0.14 0.14 0.13 0.14 0.16 0.18 0.20 0.21 0.23 0.21 0.18 0.16 0.15 0.13 0.12 0.14 0.19 0.25 0.29 0.29 0.31 0.30 0.29 0.32 0.36 0.39 0.43 0.49
0.11 0.12 0.13 0.15 0.17 0.18 0.19 0.18 0.18 0.19 0.20 0.20 0.19 0.17 0.15 0.14 0.14 0.13 0.14 0.16 0.19 0.20 0.19 0.21 0.21 0.20 0.18 0.16 0.14 0.13 0.16 0.24 0.32 0.43 0.51 0.53 0.46 0.39 0.39 0.42 0.43 0.45 0.50
0.10 0.12 0.15 0.17 0.20 0.22 0.25 0.25 0.22 0.23 0.25 0.22 0.20 0.19 0.18 0.18 0.16 0.16 0.18 0.22 0.26 0.24 0.21 0.21 0.20 0.20 0.18 0.15 0.14 0.15 0.22 0.35 0.47 0.59 0.72 0.76 0.64 0.50 0.46 0.48 0.47 0.49 0.53

GEFSGL_prec_meanprecacc_108.txt.gz
Total_Precipitation_Accumulation
0.01 0.01 0.02 0.02 0.03 0.03 0.04 0.05 0.07 0.08 0.09 0.09 0.09 0.10 0.12 0.14 0.17 0.21 0.25 0.30 0.33 0.34 0.34 0.37 0.38 0.38 0.38 0.36 0.35 0.35 0.37 0.49 0.50 0.17 0.10 0.17 0.28 0.33 0.33 0.30 0.28 0.28 0.26
0.03 0.03 0.04 0.04 0.06 0.09 0.11 0.12 0.13 0.14 0.14 0.14 0.13 0.13 0.13 0.14 0.17 0.19 0.23 0.27 0.33 0.37 0.39 0.43 0.44 0.44 0.46 0.45 0.46 0.44 0.42 0.44 0.52 0.33 0.14 0.14 0.23 0.31 0.36 0.35 0.29 0.26 0.24
0.04 0.05 0.06 0.09 0.12 0.16 0.19 0.20 0.20 0.20 0.20 0.19 0.19 0.20 0.20 0.24 0.28 0.28 0.27 0.29 0.32 0.35 0.37 0.42 0.47 0.52 0.56 0.54 0.54 0.52 0.47 0.41 0.42 0.41 0.23 0.17 0.21 0.28 0.33 0.37 0.35 0.32 0.28
0.09 0.11 0.14 0.18 0.22 0.25 0.26 0.25 0.23 0.23 0.24 0.24 0.24 0.26 0.30 0.38 0.52 0.55 0.45 0.40 0.38 0.37 0.37 0.40 0.46 0.55 0.62 0.67 0.71 0.63 0.54 0.53 0.49 0.45 0.32 0.24 0.23 0.27 0.37 0.42 0.41 0.40 0.39
0.20 0.23 0.23 0.22 0.22 0.22 0.22 0.22 0.23 0.25 0.27 0.26 0.25 0.26 0.32 0.47 0.79 0.83 0.66 0.52 0.45 0.43 0.41 0.42 0.46 0.57 0.72 0.87 0.95 0.87 0.79 0.74 0.63 0.56 0.45 0.35 0.32 0.37 0.44 0.45 0.48 0.44 0.46
0.27 0.27 0.25 0.22 0.21 0.21 0.22 0.22 0.23 0.23 0.21 0.18 0.17 0.22 0.31 0.48 0.86 0.92 0.74 0.52 0.46 0.46 0.46 0.42 0.40 0.45 0.52 0.63 0.80 0.83 0.85 0.85 0.82 0.74 0.66 0.56 0.44 0.42 0.46 0.57 0.64 0.62 0.56
0.28 0.28 0.26 0.24 0.23 0.21 0.20 0.18 0.18 0.16 0.13 0.11 0.09 0.12 0.19 0.36 0.73 0.82 0.67 0.44 0.36 0.38 0.38 0.33 0.32 0.32 0.33 0.34 0.41 0.46 0.54 0.65 0.78 0.86 0.88 0.75 0.61 0.53 0.60 0.71 0.75 0.73 0.60
0.25 0.23 0.19 0.16 0.15 0.14 0.14 0.13 0.11 0.10 0.08 0.07 0.05 0.06 0.08 0.16 0.50 0.72 0.57 0.30 0.27 0.29 0.30 0.31 0.33 0.31 0.30 0.33 0.38 0.39 0.38 0.42 0.59 0.76 0.88 0.81 0.74 0.70 0.75 0.85 0.92 0.95 0.82
0.15 0.12 0.09 0.07 0.07 0.08 0.08 0.07 0.05 0.05 0.04 0.03 0.03 0.03 0.04 0.08 0.30 0.65 0.60 0.26 0.25 0.24 0.27 0.37 0.41 0.36 0.33 0.37 0.48 0.46 0.35 0.31 0.36 0.58 0.76 0.77 0.75 0.85 0.97 1.14 1.24 1.28 1.22
0.07 0.05 0.03 0.02 0.03 0.04 0.04 0.03 0.02 0.02 0.03 0.03 0.02 0.03 0.03 0.05 0.18 0.54 0.73 0.36 0.28 0.24 0.26 0.36 0.53 0.49 0.41 0.39 0.46 0.43 0.36 0.28 0.26 0.29 0.37 0.47 0.54 0.61 0.81 1.09 1.21 1.20 1.22
0.02 0.01 0.01 0.00 0.01 0.01 0.02 0.02 0.02 0.03 0.03 0.03 0.03 0.03 0.03 0.03 0.08 0.33 0.73 0.61 0.40 0.31 0.30 0.38 0.51 0.46 0.41 0.37 0.38 0.37 0.35 0.32 0.29 0.26 0.26 0.28 0.36 0.48 0.62 0.87 1.06 1.10 1.12
0.00 0.00 0.00 0.00 0.01 0.01 0.02 0.02 0.03 0.03 0.04 0.04 0.04 0.04 0.03 0.03 0.06 0.21 0.48 0.61 0.51 0.33 0.32 0.31 0.37 0.35 0.34 0.32 0.30 0.31 0.30 0.30 0.32 0.27 0.22 0.20 0.22 0.31 0.45 0.62 0.85 0.96 1.01
0.00 0.00 0.01 0.01 0.01 0.01 0.02 0.03 0.04 0.04 0.06 0.09 0.08 0.07 0.05 0.04 0.07 0.18 0.27 0.30 0.35 0.30 0.34 0.45 0.37 0.27 0.23 0.20 0.19 0.22 0.24 0.26 0.30 0.26 0.18 0.13 0.14 0.20 0.29 0.42 0.58 0.75 0.85
0.01 0.01 0.01 0.01 0.02 0.02 0.03 0.04 0.05 0.07 0.17 0.25 0.20 0.16 0.10 0.08 0.16 0.33 0.33 0.21 0.22 0.25 0.25 0.31 0.28 0.19 0.14 0.11 0.10 0.12 0.15 0.20 0.24 0.22 0.15 0.10 0.10 0.14 0.21 0.32 0.46 0.60 0.75
0.01 0.02 0.02 0.02 0.03 0.03 0.03 0.03 0.06 0.09 0.24 0.41 0.36 0.33 0.29 0.28 0.40 0.59 0.52 0.39 0.38 0.36 0.32 0.27 0.22 0.19 0.17 0.14 0.10 0.07 0.08 0.13 0.17 0.17 0.15 0.14 0.14 0.15 0.18 0.25 0.40 0.53 0.68
0.03 0.03 0.04 0.04 0.04 0.04 0.05 0.05 0.05 0.07 0.13 0.16 0.20 0.29 0.28 0.38 0.48 0.43 0.38 0.35 0.35 0.34 0.33 0.29 0.20 0.15 0.14 0.12 0.10 0.08 0.07 0.08 0.10 0.13 0.15 0.16 0.16 0.17 0.19 0.22 0.34 0.47 0.58
0.04 0.05 0.06 0.06 0.06 0.07 0.08 0.10 0.09 0.06 0.05 0.06 0.08 0.15 0.23 0.32 0.34 0.31 0.31 0.25 0.21 0.22 0.26 0.21 0.15 0.12 0.11 0.10 0.09 0.08 0.07 0.06 0.08 0.12 0.14 0.15 0.17 0.20 0.22 0.25 0.31 0.42 0.52
0.04 0.06 0.08 0.08 0.09 0.10 0.11 0.12 0.13 0.13 0.09 0.05 0.04 0.07 0.14 0.20 0.23 0.24 0.24 0.21 0.17 0.15 0.16 0.15 0.12 0.10 0.10 0.10 0.09 0.09 0.08 0.08 0.10 0.11 0.12 0.13 0.17 0.23 0.25 0.26 0.31 0.43 0.52
0.04 0.06 0.09 0.10 0.10 0.11 0.11 0.12 0.11 0.11 0.11 0.08 0.06 0.07 0.09 0.11 0.12 0.13 0.15 0.17 0.16 0.12 0.11 0.11 0.11 0.12 0.12 0.11 0.10 0.09 0.09 0.09 0.09 0.10 0.11 0.12 0.15 0.22 0.26 0.25 0.29 0.40 0.56
0.05 0.08 0.11 0.11 0.11 0.11 0.11 0.13 0.14 0.14 0.13 0.12 0.11 0.11 0.17 0.20 0.17 0.13 0.12 0.15 0.15 0.13 0.13 0.13 0.12 0.12 0.13 0.12 0.11 0.10 0.10 0.09 0.09 0.10 0.11 0.13 0.15 0.22 0.25 0.26 0.31 0.41 0.52
0.06 0.07 0.10 0.11 0.11 0.11 0.14 0.16 0.17 0.18 0.18 0.15 0.12 0.12 0.32 0.36 0.22 0.14 0.13 0.14 0.17 0.18 0.17 0.15 0.13 0.13 0.13 0.13 0.12 0.11 0.10 0.09 0.08 0.10 0.12 0.14 0.17 0.23 0.24 0.28 0.33 0.40 0.49
0.09 0.11 0.12 0.13 0.13 0.13 0.16 0.17 0.17 0.19 0.19 0.17 0.13 0.10 0.16 0.18 0.15 0.15 0.14 0.14 0.16 0.18 0.20 0.20 0.17 0.14 0.15 0.15 0.14 0.13 0.11 0.10 0.09 0.11 0.13 0.15 0.18 0.23 0.26 0.31 0.36 0.43 0.51
0.14 0.15 0.14 0.12 0.11 0.13 0.15 0.14 0.17 0.19 0.19 0.17 0.16 0.15 0.13 0.14 0.15 0.16 0.17 0.16 0.18 0.20 0.21 0.22 0.21 0.16 0.14 0.15 0.14 0.15 0.16 0.14 0.13 0.16 0.21 0.22 0.23 0.26 0.30 0.35 0.39 0.45 0.51
0.16 0.15 0.14 0.13 0.13 0.14 0.16 0.17 0.18 0.18 0.19 0.20 0.18 0.16 0.15 0.15 0.15 0.15 0.15 0.16 0.19 0.21 0.22 0.24 0.23 0.19 0.18 0.17 0.15 0.14 0.16 0.20 0.28 0.32 0.32 0.34 0.33 0.31 0.34 0.38 0.41 0.45 0.51
0.13 0.14 0.15 0.16 0.18 0.20 0.21 0.20 0.19 0.20 0.21 0.21 0.20 0.18 0.16 0.15 0.15 0.14 0.14 0.17 0.20 0.21 0.20 0.22 0.23 0.21 0.19 0.17 0.16 0.15 0.18 0.26 0.35 0.47 0.56 0.58 0.50 0.42 0.42 0.45 0.45 0.47 0.52
0.12 0.13 0.16 0.18 0.21 0.24 0.27 0.27 0.24 0.24 0.26 0.24 0.22 0.21 0.20 0.19 0.18 0.17 0.19 0.23 0.27 0.25 0.22 0.21 0.21 0.21 0.19 0.17 0.16 0.17 0.24 0.38 0.50 0.63 0.77 0.83 0.70 0.54 0.49 0.51 0.50 0.52 0.56

GEFSGL_prec_meanprecacc_114.txt.gz
Total_Precipitation_Accumulation
0.01 0.01 0.02 0.02 0.03 0.03 0.04 0.05 0.07 0.08 0.09 0.09 0.09 0.10 0.12 0.14 0.17 0.21 0.25 0.30 0.33 0.34 0.34 0.37 0.38 0.38 0.38 0.36 0.35 0.35 0.38 0.50 0.51 0.17 0.10 0.17 0.28 0.33 0.33 0.30 0.28 0.28 0.26
0.03 0.03 0.04 0.04 0.06 0.09 0.11 0.12 0.13 0.14 0.14 0.14 0.13 0.13 0.13 0.14 0.17 0.19 0.23 0.27 0.33 0.37 0.39 0.43 0.44 0.44 0.46 0.46 0.46 0.45 0.42 0.45 0.53 0.35 0.14 0.15 0.23 0.31 0.36 0.35 0.29 0.26 0.24
0.04 0.05 0.06 0.09 0.12 0.16 0.19 0.20 0.20 0.20 0.20 0.19 0.19 0.20 0.20 0.24 0.28 0.28 0.27 0.29 0.32 0.35 0.37 0.42 0.47 0.53 0.57 0.55 0.55 0.53 0.48 0.42 0.43 0.43 0.25 0.18 0.21 0.28 0.33 0.37 0.35 0.32 0.28
0.09 0.11 0.14 0.18 0.22 0.25 0.26 0.25 0.23 0.23 0.24 0.24 0.24 0.26 0.30 0.38 0.52 0.55 0.45 0.41 0.38 0.37 0.37 0.41 0.47 0.55 0.63 0.68 0.72 0.64 0.55 0.55 0.51 0.47 0.34 0.25 0.24 0.28 0.38 0.42 0.41 0.40 0.39
0.20 0.23 0.23 0.22 0.22 0.22 0.22 0.22 0.23 0.25 0.27 0.26 0.25 0.26 0.32 0.47 0.79 0.83 0.66 0.53 0.46 0.44 0.41 0.43 0.47 0.58 0.74 0.89 0.98 0.91 0.82 0.78 0.68 0.61 0.49 0.38 0.34 0.38 0.45 0.46 0.48 0.45 0.47
0.27 0.27 0.25 0.22 0.21 0.21 0.22 0.22 0.23 0.23 0.21 0.18 0.17 0.22 0.31 0.48 0.87 0.93 0.75 0.53 0.47 0.47 0.47 0.43 0.41 0.46 0.54 0.67 0.85 0.89 0.92 0.94 0.92 0.85 0.76 0.64 0.49 0.44 0.49 0.60 0.67 0.65 0.58
0.28 0.28 0.26 0.24 0.23 0.21 0.20 0.18 0.18 0.16 0.13 0.11 0.09 0.12 0.19 0.36 0.73 0.82 0.68 0.46 0.37 0.39 0.39 0.34 0.33 0.33 0.35 0.35 0.44 0.50 0.57 0.70 0.85 0.95 1.00 0.84 0.67 0.59 0.67 0.79 0.82 0.78 0.63
0.25 0.23 0.19 0.16 0.15 0.14 0.14 0.13 0.11 0.10 0.08 0.07 0.05 0.06 0.08 0.16 0.50 0.73 0.58 0.32 0.27 0.30 0.30 0.32 0.34 0.32 0.31 0.35 0.41 0.42 0.40 0.44 0.61 0.80 0.94 0.86 0.78 0.75 0.81 0.93 1.00 1.03 0.88
0.15 0.12 0.09 0.07 0.07 0.08 0.08 0.07 0.06 0.05 0.04 0.03 0.03 0.04 0.04 0.08 0.30 0.65 0.62 0.27 0.26 0.25 0.27 0.37 0.41 0.38 0.35 0.41 0.52 0.49 0.37 0.33 0.38 0.61 0.81 0.81 0.80 0.92 1.05 1.26 1.38 1.42 1.33
0.07 0.05 0.03 0.02 0.03 0.04 0.04 0.03 0.03 0.02 0.03 0.03 0.03 0.03 0.03 0.05 0.18 0.54 0.74 0.37 0.29 0.25 0.27 0.37 0.55 0.51 0.44 0.43 0.50 0.48 0.40 0.31 0.28 0.32 0.40 0.50 0.57 0.65 0.87 1.18 1.32 1.35 1.35
0.02 0.01 0.01 0.00 0.01 0.01 0.02 0.02 0.02 0.03 0.03 0.03 0.03 0.03 0.03 0.04 0.08 0.34 0.74 0.62 0.42 0.32 0.32 0.40 0.52 0.48 0.44 0.41 0.43 0.42 0.39 0.36 0.33 0.30 0.29 0.31 0.38 0.50 0.65 0.90 1.10 1.18 1.22
0.00 0.00 0.00 0.00 0.01 0.01 0.02 0.02 0.03 0.03 0.04 0.04 0.05 0.04 0.03 0.03 0.07 0.22 0.49 0.63 0.53 0.35 0.34 0.32 0.39 0.38 0.37 0.36 0.33 0.35 0.34 0.36 0.38 0.33 0.27 0.23 0.25 0.34 0.46 0.64 0.88 1.00 1.06
0.00 0.00 0.01 0.01 0.01 0.02 0.02 0.03 0.04 0.04 0.07 0.09 0.09 0.08 0.05 0.04 0.07 0.19 0.28 0.32 0.38 0.32 0.36 0.47 0.39 0.30 0.25 0.22 0.21 0.24 0.27 0.29 0.34 0.30 0.22 0.16 0.16 0.22 0.31 0.45 0.61 0.80 0.90
0.01 0.01 0.01 0.01 0.02 0.02 0.03 0.04 0.05 0.08 0.18 0.26 0.21 0.17 0.11 0.09 0.17 0.34 0.34 0.22 0.23 0.26 0.26 0.32 0.30 0.20 0.15 0.12 0.10 0.13 0.16 0.22 0.26 0.25 0.18 0.12 0.12 0.16 0.24 0.34 0.49 0.64 0.81
0.01 0.02 0.02 0.02 0.03 0.03 0.03 0.04 0.07 0.09 0.25 0.43 0.38 0.36 0.32 0.30 0.41 0.61 0.54 0.42 0.40 0.39 0.35 0.30 0.24 0.20 0.18 0.15 0.11 0.08 0.09 0.14 0.19 0.19 0.18 0.17 0.16 0.18 0.21 0.27 0.43 0.57 0.73
0.03 0.03 0.04 0.04 0.04 0.04 0.05 0.05 0.05 0.07 0.14 0.17 0.22 0.31 0.30 0.40 0.50 0.46 0.40 0.37 0.37 0.37 0.36 0.32 0.22 0.17 0.15 0.14 0.12 0.10 0.08 0.09 0.11 0.15 0.17 0.18 0.19 0.20 0.21 0.25 0.37 0.51 0.62
0.04 0.05 0.06 0.06 0.06 0.07 0.08 0.10 0.10 0.06 0.06 0.06 0.09 0.16 0.24 0.33 0.35 0.33 0.33 0.27 0.23 0.23 0.28 0.22 0.16 0.13 0.12 0.11 0.10 0.10 0.08 0.07 0.09 0.13 0.16 0.17 0.20 0.23 0.25 0.28 0.34 0.45 0.55
0.04 0.06 0.08 0.08 0.09 0.11 0.12 0.13 0.14 0.14 0.10 0.05 0.04 0.08 0.14 0.21 0.24 0.25 0.25 0.22 0.18 0.15 0.17 0.16 0.13 0.11 0.11 0.11 0.10 0.10 0.09 0.09 0.11 0.13 0.14 0.15 0.19 0.26 0.29 0.29 0.34 0.45 0.55
0.04 0.06 0.09 0.10 0.10 0.11 0.12 0.13 0.12 0.12 0.12 0.09 0.06 0.07 0.09 0.12 0.13 0.13 0.15 0.19 0.17 0.13 0.12 0.12 0.12 0.13 0.13 0.12 0.11 0.10 0.11 0.11 0.10 0.12 0.13 0.14 0.18 0.25 0.29 0.27 0.32 0.42 0.59
0.05 0.08 0.11 0.12 0.12 0.12 0.12 0.14 0.15 0.15 0.15 0.13 0.12 0.12 0.17 0.21 0.18 0.13 0.13 0.16 0.16 0.15 0.14 0.14 0.13 0.13 0.14 0.13 0.13 0.12 0.12 0.11 0.10 0.12 0.13 0.15 0.18 0.24 0.28 0.29 0.34 0.44 0.54
0.07 0.08 0.11 0.11 0.12 0.12 0.15 0.18 0.19 0.20 0.19 0.16 0.12 0.13 0.33 0.39 0.24 0.15 0.14 0.15 0.18 0.20 0.19 0.17 0.14 0.13 0.14 0.14 0.14 0.13 0.12 0.11 0.10 0.12 0.14 0.16 0.20 0.26 0.27 0.31 0.36 0.42 0.51
0.10 0.12 0.13 0.14 0.14 0.14 0.18 0.19 0.19 0.21 0.20 0.18 0.13 0.11 0.17 0.19 0.16 0.16 0.15 0.15 0.17 0.19 0.21 0.22 0.19 0.15 0.16 0.17 0.17 0.16 0.13 0.12 0.11 0.13 0.16 0.17 0.21 0.25 0.29 0.34 0.39 0.46 0.53
0.15 0.16 0.15 0.13 0.13 0.15 0.16 0.15 0.18 0.20 0.20 0.18 0.17 0.15 0.14 0.15 0.16 0.17 0.18 0.17 0.19 0.21 0.22 0.23 0.23 0.18 0.16 0.17 0.17 0.19 0.19 0.16 0.15 0.18 0.24 0.25 0.25 0.28 0.32 0.37 0.41 0.48 0.54
0.17 0.17 0.16 0.15 0.14 0.15 0.17 0.18 0.18 0.19 0.20 0.20 0.19 0.17 0.16 0.16 0.16 0.16 0.16 0.17 0.20 0.22 0.23 0.26 0.25 0.21 0.19 0.19 0.18 0.17 0.19 0.23 0.31 0.35 0.35 0.37 0.36 0.33 0.36 0.41 0.43 0.46 0.53
0.14 0.16 0.17 0.18 0.19 0.21 0.22 0.21 0.19 0.21 0.22 0.22 0.21 0.19 0.17 0.17 0.16 0.15 0.15 0.18 0.21 0.22 0.21 0.23 0.24 0.23 0.20 0.19 0.18 0.18 0.20 0.29 0.38 0.52 0.62 0.63 0.54 0.44 0.44 0.47 0.47 0.49 0.54
0.13 0.15 0.17 0.19 0.22 0.25 0.28 0.28 0.25 0.25 0.27 0.25 0.23 0.22 0.21 0.21 0.19 0.18 0.20 0.25 0.29 0.26 0.23 0.23 0.22 0.22 0.20 0.19 0.18 0.19 0.26 0.40 0.53 0.67 0.84 0.91 0.76 0.58 0.52 0.54 0.53 0.54 0.58

GEFSGL_prec_meanprecacc_120.txt.gz
Total_Precipitation_Accumulation
0.01 0.01 0.02 0.02 0.03 0.03 0.04 0.05 0.07 0.08 0.09 0.09 0.09 0.10 0.12 0.14 0.17 0.21 0.25 0.30 0.33 0.34 0.35 0.37 0.38 0.38 0.38 0.36 0.36 0.36 0.38 0.51 0.52 0.17 0.10 0.17 0.28 0.33 0.33 0.30 0.29 0.28 0.26
0.03 0.03 0.04 0.04 0.06 0.09 0.11 0.12 0.13 0.14 0.14 0.14 0.13 0.13 0.13 0.14 0.17 0.19 0.23 0.27 0.33 0.37 0.39 0.43 0.44 0.44 0.46 0.46 0.47 0.45 0.43 0.45 0.54 0.36 0.15 0.15 0.24 0.32 0.36 0.35 0.29 0.26 0.24
0.04 0.05 0.06 0.09 0.12 0.16 0.19 0.20 0.20 0.20 0.20 0.19 0.19 0.20 0.20 0.24 0.28 0.28 0.27 0.29 0.32 0.35 0.37 0.42 0.47 0.53 0.57 0.55 0.55 0.54 0.48 0.43 0.44 0.44 0.26 0.18 0.22 0.28 0.34 0.37 0.35 0.32 0.28
0.09 0.11 0.14 0.18 0.22 0.25 0.26 0.25 0.23 0.23 0.24 0.24 0.24 0.26 0.30 0.38 0.52 0.55 0.45 0.41 0.38 0.37 0.37 0.41 0.47 0.56 0.63 0.69 0.73 0.64 0.56 0.56 0.53 0.50 0.36 0.27 0.25 0.28 0.39 0.43 0.42 0.40 0.39
0.20 0.23 0.23 0.22 0.22 0.22 0.22 0.22 0.23 0.25 0.27 0.26 0.25 0.26 0.32 0.47 0.79 0.83 0.66 0.53 0.46 0.44 0.42 0.43 0.47 0.59 0.76 0.91 1.00 0.93 0.85 0.82 0.72 0.66 0.55 0.42 0.37 0.40 0.47 0.47 0.50 0.46 0.47
0.27 0.27 0.25 0.22 0.21 0.21 0.22 0.22 0.23 0.23 0.21 0.18 0.17 0.22 0.31 0.48 0.87 0.93 0.76 0.53 0.47 0.47 0.48 0.43 0.41 0.47 0.55 0.68 0.87 0.92 0.95 0.98 0.96 0.90 0.81 0.69 0.53 0.47 0.52 0.63 0.71 0.69 0.61
0.28 0.28 0.26 0.24 0.23 0.21 0.20 0.18 0.18 0.16 0.13 0.11 0.09 0.12 0.19 0.36 0.73 0.83 0.69 0.46 0.37 0.39 0.39 0.35 0.33 0.33 0.36 0.36 0.45 0.50 0.58 0.72 0.88 0.99 1.04 0.88 0.69 0.61 0.70 0.83 0.86 0.82 0.66
0.25 0.23 0.19 0.16 0.15 0.14 0.14 0.13 0.11 0.10 0.08 0.07 0.05 0.06 0.08 0.16 0.50 0.74 0.59 0.32 0.28 0.30 0.30 0.32 0.34 0.32 0.31 0.35 0.42 0.43 0.40 0.45 0.62 0.82 0.96 0.87 0.79 0.76 0.83 0.97 1.04 1.07 0.91
0.15 0.12 0.09 0.07 0.07 0.08 0.08 0.07 0.06 0.05 0.04 0.03 0.03 0.04 0.04 0.08 0.30 0.66 0.62 0.28 0.26 0.25 0.28 0.37 0.42 0.38 0.36 0.43 0.55 0.51 0.39 0.34 0.39 0.63 0.83 0.85 0.84 0.97 1.11 1.34 1.49 1.54 1.43
0.07 0.05 0.03 0.02 0.03 0.04 0.04 0.03 0.03 0.02 0.03 0.03 0.03 0.03 0.03 0.05 0.18 0.54 0.75 0.38 0.30 0.25 0.27 0.37 0.55 0.52 0.46 0.46 0.53 0.51 0.43 0.32 0.29 0.33 0.41 0.52 0.59 0.66 0.90 1.22 1.39 1.44 1.45
0.02 0.01 0.01 0.00 0.01 0.01 0.02 0.02 0.02 0.03 0.03 0.03 0.03 0.03 0.03 0.04 0.08 0.34 0.75 0.64 0.43 0.34 0.33 0.41 0.53 0.50 0.46 0.44 0.46 0.45 0.43 0.39 0.36 0.34 0.32 0.33 0.40 0.52 0.66 0.92 1.13 1.23 1.31
0.00 0.00 0.00 0.00 0.01 0.01 0.02 0.02 0.03 0.03 0.04 0.04 0.05 0.04 0.03 0.03 0.07 0.22 0.50 0.65 0.56 0.38 0.36 0.33 0.39 0.39 0.40 0.40 0.37 0.38 0.38 0.40 0.40 0.35 0.29 0.25 0.27 0.35 0.48 0.65 0.89 1.02 1.09
0.00 0.00 0.01 0.01 0.01 0.02 0.02 0.03 0.04 0.04 0.07 0.09 0.09 0.08 0.05 0.04 0.07 0.20 0.29 0.33 0.40 0.34 0.37 0.49 0.42 0.33 0.29 0.24 0.22 0.26 0.29 0.30 0.35 0.32 0.24 0.17 0.17 0.23 0.32 0.46 0.63 0.81 0.92
0.01 0.01 0.01 0.01 0.02 0.02 0.03 0.04 0.05 0.08 0.18 0.26 0.22 0.18 0.12 0.09 0.17 0.34 0.35 0.24 0.26 0.29 0.28 0.34 0.32 0.23 0.17 0.13 0.11 0.13 0.17 0.23 0.28 0.27 0.19 0.14 0.13 0.18 0.25 0.36 0.51 0.66 0.84
0.01 0.02 0.02 0.02 0.03 0.03 0.03 0.04 0.07 0.09 0.25 0.44 0.40 0.37 0.34 0.32 0.42 0.63 0.58 0.45 0.44 0.42 0.39 0.34 0.26 0.21 0.19 0.15 0.11 0.08 0.09 0.15 0.20 0.21 0.19 0.18 0.17 0.19 0.22 0.28 0.45 0.60 0.77
0.03 0.03 0.04 0.04 0.04 0.04 0.05 0.05 0.05 0.07 0.14 0.18 0.22 0.32 0.31 0.42 0.52 0.48 0.43 0.41 0.41 0.40 0.41 0.36 0.24 0.18 0.16 0.14 0.13 0.10 0.09 0.10 0.12 0.16 0.19 0.19 0.20 0.21 0.23 0.26 0.39 0.54 0.65
0.04 0.05 0.06 0.06 0.06 0.07 0.09 0.11 0.10 0.06 0.06 0.06 0.09 0.17 0.25 0.34 0.37 0.35 0.35 0.29 0.26 0.26 0.30 0.24 0.17 0.14 0.13 0.12 0.11 0.11 0.09 0.07 0.10 0.15 0.17 0.19 0.22 0.25 0.27 0.30 0.36 0.47 0.58
0.04 0.06 0.08 0.08 0.09 0.11 0.13 0.14 0.15 0.15 0.11 0.06 0.04 0.08 0.15 0.22 0.25 0.26 0.27 0.24 0.19 0.16 0.18 0.17 0.15 0.12 0.12 0.12 0.12 0.11 0.10 0.10 0.12 0.14 0.16 0.17 0.21 0.28 0.31 0.31 0.35 0.47 0.57
0.04 0.06 0.09 0.10 0.11 0.12 0.13 0.13 0.13 0.13 0.12 0.09 0.07 0.07 0.10 0.12 0.13 0.14 0.16 0.20 0.19 0.14 0.13 0.13 0.13 0.14 0.15 0.14 0.12 0.11 0.12 0.12 0.11 0.13 0.15 0.16 0.19 0.28 0.31 0.29 0.33 0.44 0.61
0.05 0.08 0.12 0.12 0.12 0.12 0.12 0.14 0.15 0.16 0.16 0.14 0.13 0.12 0.18 0.22 0.19 0.14 0.13 0.16 0.17 0.16 0.15 0.16 0.14 0.14 0.16 0.15 0.14 0.13 0.13 0.12 0.12 0.13 0.15 0.16 0.19 0.26 0.30 0.30 0.36 0.46 0.56
0.07 0.08 0.11 0.12 0.12 0.13 0.15 0.18 0.20 0.21 0.21 0.18 0.13 0.13 0.34 0.41 0.27 0.16 0.14 0.16 0.19 0.21 0.20 0.19 0.16 0.15 0.15 0.15 0.16 0.15 0.14 0.12 0.11 0.14 0.16 0.17 0.21 0.27 0.29 0.33 0.38 0.45 0.54
0.10 0.12 0.13 0.14 0.14 0.15 0.19 0.20 0.21 0.23 0.22 0.19 0.14 0.11 0.17 0.19 0.17 0.17 0.16 0.16 0.18 0.21 0.23 0.25 0.21 0.17 0.18 0.20 0.20 0.19 0.16 0.13 0.12 0.15 0.17 0.19 0.22 0.27 0.30 0.35 0.40 0.47 0.55
0.15 0.17 0.16 0.13 0.13 0.16 0.17 0.16 0.19 0.22 0.21 0.19 0.18 0.16 0.15 0.16 0.16 0.18 0.18 0.18 0.20 0.22 0.23 0.25 0.25 0.20 0.17 0.19 0.20 0.23 0.23 0.19 0.17 0.20 0.26 0.27 0.27 0.30 0.34 0.39 0.42 0.49 0.55
0.18 0.18 0.17 0.16 0.15 0.17 0.19 0.19 0.19 0.20 0.21 0.22 0.20 0.19 0.17 0.17 0.17 0.16 0.17 0.18 0.21 0.23 0.24 0.27 0.27 0.23 0.20 0.21 0.20 0.20 0.21 0.26 0.34 0.39 0.39 0.40 0.38 0.35 0.37 0.42 0.44 0.47 0.54
0.16 0.17 0.18 0.20 0.21 0.22 0.23 0.22 0.21 0.22 0.23 0.24 0.23 0.20 0.18 0.17 0.17 0.16 0.16 0.19 0.22 0.23 0.22 0.24 0.26 0.25 0.22 0.21 0.20 0.20 0.22 0.31 0.42 0.56 0.67 0.68 0.58 0.47 0.46 0.48 0.48 0.50 0.55
0.15 0.16 0.18 0.20 0.24 0.26 0.29 0.29 0.26 0.26 0.28 0.26 0.24 0.23 0.22 0.22 0.20 0.19 0.21 0.26 0.30 0.28 0.25 0.24 0.23 0.23 0.22 0.21 0.19 0.20 0.28 0.43 0.56 0.71 0.89 0.98 0.82 0.62 0.54 0.56 0.54 0.56 0.60

GEFSGL_prec_meanprecacc_126.txt.gz
Total_Precipitation_Accumulation
0.01 0.01 0.02 0.02 0.03 0.03 0.04 0.05 0.07 0.08 0.09 0.09 0.09 0.10 0.12 0.14 0.17 0.21 0.25 0.30 0.33 0.34 0.35 0.37 0.38 0.38 0.38 0.36 0.36 0.36 0.38 0.51 0.53 0.18 0.10 0.17 0.28 0.33 0.33 0.30 0.29 0.28 0.26
0.03 0.03 0.04 0.04 0.06 0.09 0.11 0.12 0.13 0.14 0.14 0.14 0.13 0.13 0.13 0.14 0.17 0.19 0.23 0.27 0.33 0.37 0.39 0.43 0.44 0.44 0.46 0.46 0.47 0.45 0.43 0.46 0.55 0.36 0.15 0.15 0.24 0.32 0.36 0.35 0.29 0.26 0.24
0.04 0.05 0.06 0.09 0.12 0.16 0.19 0.20 0.20 0.20 0.20 0.19 0.19 0.20 0.20 0.24 0.28 0.28 0.27 0.29 0.32 0.35 0.37 0.42 0.47 0.53 0.57 0.55 0.55 0.54 0.49 0.43 0.45 0.44 0.26 0.18 0.22 0.28 0.34 0.37 0.35 0.32 0.28
0.09 0.11 0.14 0.18 0.22 0.25 0.26 0.25 0.23 0.23 0.24 0.24 0.24 0.26 0.30 0.38 0.52 0.55 0.45 0.41 0.38 0.37 0.37 0.41 0.47 0.56 0.63 0.69 0.73 0.65 0.57 0.57 0.54 0.51 0.38 0.28 0.26 0.29 0.40 0.44 0.43 0.41 0.40
0.20 0.23 0.23 0.22 0.22 0.22 0.22 0.22 0.23 0.25 0.27 0.26 0.25 0.26 0.32 0.47 0.79 0.83 0.66 0.53 0.46 0.44 0.42 0.44 0.48 0.59 0.76 0.92 1.02 0.95 0.87 0.85 0.76 0.70 0.58 0.45 0.38 0.42 0.48 0.49 0.52 0.47 0.48
0.27 0.27 0.25 0.22 0.21 0.21 0.22 0.22 0.23 0.23 0.21 0.18 0.17 0.22 0.31 0.48 0.87 0.93 0.76 0.54 0.47 0.48 0.48 0.43 0.41 0.47 0.56 0.69 0.89 0.94 0.98 1.02 1.00 0.94 0.85 0.73 0.55 0.49 0.53 0.65 0.73 0.71 0.62
0.28 0.28 0.26 0.24 0.23 0.21 0.20 0.18 0.18 0.16 0.13 0.11 0.09 0.12 0.19 0.36 0.73 0.83 0.69 0.47 0.38 0.39 0.39 0.35 0.33 0.33 0.36 0.36 0.45 0.51 0.59 0.73 0.90 1.02 1.09 0.91 0.71 0.62 0.71 0.85 0.89 0.84 0.67
0.25 0.23 0.19 0.16 0.15 0.14 0.14 0.13 0.11 0.10 0.08 0.07 0.05 0.06 0.08 0.16 0.50 0.74 0.59 0.32 0.28 0.30 0.30 0.33 0.34 0.32 0.31 0.36 0.42 0.43 0.41 0.45 0.63 0.83 0.97 0.88 0.80 0.78 0.86 1.02 1.11 1.15 0.96
0.15 0.12 0.09 0.07 0.07 0.08 0.08 0.07 0.06 0.05 0.04 0.03 0.03 0.04 0.04 0.08 0.30 0.66 0.63 0.28 0.26 0.25 0.28 0.37 0.42 0.38 0.36 0.45 0.57 0.54 0.40 0.34 0.40 0.64 0.86 0.88 0.88 1.02 1.17 1.42 1.59 1.64 1.50
0.07 0.05 0.03 0.02 0.03 0.04 0.04 0.03 0.03 0.02 0.03 0.03 0.03 0.03 0.03 0.05 0.18 0.55 0.75 0.38 0.30 0.25 0.27 0.37 0.56 0.53 0.48 0.50 0.56 0.54 0.47 0.34 0.31 0.35 0.43 0.54 0.61 0.68 0.92 1.25 1.43 1.50 1.51
0.02 0.01 0.01 0.00 0.01 0.01 0.02 0.02 0.02 0.03 0.03 0.03 0.03 0.03 0.03 0.04 0.08 0.34 0.76 0.64 0.44 0.35 0.34 0.41 0.54 0.51 0.48 0.47 0.50 0.49 0.48 0.44 0.41 0.39 0.36 0.35 0.41 0.52 0.66 0.92 1.14 1.26 1.35
0.00 0.00 0.00 0.00 0.01 0.01 0.02 0.02 0.03 0.03 0.04 0.04 0.05 0.04 0.03 0.03 0.07 0.22 0.51 0.66 0.57 0.40 0.38 0.34 0.40 0.41 0.43 0.44 0.41 0.42 0.43 0.45 0.45 0.38 0.30 0.26 0.27 0.36 0.48 0.66 0.90 1.04 1.12
0.00 0.00 0.01 0.01 0.01 0.02 0.02 0.03 0.04 0.04 0.07 0.09 0.09 0.08 0.05 0.04 0.07 0.20 0.30 0.34 0.41 0.36 0.39 0.51 0.44 0.36 0.32 0.27 0.25 0.29 0.31 0.33 0.37 0.33 0.24 0.17 0.17 0.24 0.33 0.47 0.63 0.82 0.94
0.01 0.01 0.01 0.01 0.02 0.02 0.03 0.04 0.05 0.08 0.19 0.26 0.22 0.18 0.12 0.09 0.17 0.34 0.35 0.25 0.27 0.30 0.30 0.36 0.34 0.25 0.18 0.14 0.12 0.14 0.18 0.24 0.29 0.29 0.21 0.14 0.14 0.18 0.26 0.37 0.52 0.68 0.86
0.01 0.02 0.02 0.02 0.03 0.03 0.03 0.04 0.07 0.09 0.26 0.45 0.40 0.38 0.35 0.33 0.43 0.64 0.60 0.48 0.47 0.46 0.43 0.39 0.30 0.23 0.20 0.16 0.11 0.09 0.10 0.15 0.21 0.22 0.21 0.20 0.18 0.20 0.23 0.29 0.46 0.62 0.79
0.03 0.03 0.04 0.04 0.04 0.04 0.05 0.05 0.05 0.07 0.14 0.18 0.23 0.33 0.32 0.42 0.53 0.50 0.46 0.43 0.44 0.44 0.45 0.40 0.26 0.19 0.17 0.15 0.13 0.11 0.09 0.11 0.13 0.17 0.20 0.21 0.22 0.23 0.24 0.27 0.41 0.57 0.67
0.04 0.05 0.06 0.06 0.06 0.07 0.09 0.11 0.10 0.07 0.06 0.06 0.09 0.17 0.26 0.35 0.39 0.36 0.37 0.31 0.28 0.28 0.32 0.26 0.18 0.15 0.13 0.13 0.12 0.12 0.10 0.08 0.11 0.16 0.19 0.20 0.23 0.27 0.28 0.31 0.38 0.49 0.60
0.04 0.06 0.08 0.08 0.09 0.11 0.13 0.14 0.15 0.15 0.11 0.06 0.04 0.08 0.15 0.22 0.26 0.27 0.28 0.26 0.20 0.16 0.18 0.18 0.15 0.13 0.13 0.13 0.13 0.12 0.12 0.11 0.13 0.15 0.17 0.19 0.23 0.31 0.33 0.32 0.37 0.49 0.59
0.04 0.06 0.09 0.10 0.11 0.12 0.13 0.14 0.13 0.13 0.13 0.09 0.07 0.07 0.10 0.13 0.14 0.14 0.17 0.21 0.20 0.15 0.13 0.14 0.13 0.15 0.16 0.15 0.13 0.13 0.13 0.13 0.13 0.15 0.16 0.17 0.21 0.30 0.33 0.30 0.35 0.45 0.63
0.05 0.08 0.12 0.12 0.12 0.12 0.13 0.15 0.16 0.17 0.16 0.14 0.13 0.13 0.18 0.23 0.20 0.14 0.14 0.17 0.18 0.17 0.15 0.16 0.14 0.15 0.17 0.16 0.15 0.15 0.15 0.14 0.13 0.15 0.17 0.18 0.21 0.29 0.33 0.32 0.38 0.47 0.58
0.07 0.08 0.11 0.12 0.12 0.13 0.16 0.19 0.20 0.22 0.22 0.19 0.14 0.14 0.35 0.44 0.29 0.18 0.15 0.17 0.20 0.22 0.21 0.20 0.17 0.15 0.16 0.17 0.17 0.17 0.16 0.14 0.13 0.15 0.18 0.19 0.23 0.29 0.30 0.35 0.40 0.46 0.55
0.10 0.12 0.13 0.15 0.15 0.15 0.20 0.21 0.22 0.24 0.23 0.21 0.15 0.12 0.18 0.21 0.18 0.17 0.17 0.16 0.18 0.21 0.23 0.26 0.22 0.18 0.19 0.21 0.22 0.22 0.18 0.15 0.13 0.16 0.20 0.21 0.24 0.29 0.32 0.37 0.42 0.49 0.57
0.15 0.17 0.16 0.14 0.14 0.17 0.18 0.17 0.20 0.23 0.22 0.20 0.19 0.17 0.15 0.16 0.17 0.18 0.19 0.18 0.20 0.23 0.24 0.26 0.27 0.21 0.18 0.20 0.22 0.26 0.27 0.22 0.19 0.23 0.29 0.30 0.29 0.32 0.35 0.40 0.44 0.50 0.57
0.19 0.19 0.19 0.17 0.17 0.18 0.20 0.20 0.20 0.21 0.22 0.23 0.21 0.19 0.18 0.18 0.17 0.17 0.18 0.19 0.22 0.23 0.25 0.28 0.28 0.24 0.22 0.22 0.22 0.23 0.25 0.29 0.38 0.43 0.42 0.44 0.41 0.37 0.39 0.44 0.45 0.49 0.55
0.18 0.19 0.20 0.21 0.22 0.23 0.24 0.23 0.21 0.23 0.24 0.25 0.24 0.21 0.19 0.18 0.18 0.17 0.17 0.20 0.23 0.24 0.22 0.25 0.27 0.26 0.23 0.22 0.22 0.22 0.25 0.34 0.46 0.62 0.74 0.74 0.62 0.49 0.48 0.50 0.50 0.51 0.57
0.16 0.17 0.19 0.21 0.24 0.27 0.30 0.30 0.27 0.27 0.29 0.27 0.25 0.24 0.23 0.23 0.21 0.20 0.22 0.27 0.31 0.29 0.25 0.24 0.24 0.24 0.24 0.23 0.21 0.22 0.30 0.46 0.60 0.76 0.97 1.06 0.88 0.65 0.57 0.58 0.56 0.57 0.62

GEFSGL_prec_meanprecacc_132.txt.gz
Total_Precipitation_Accumulation
0.01 0.01 0.02 0.02 0.03 0.03 0.04 0.05 0.07 0.08 0.09 0.09 0.09 0.10 0.12 0.14 0.17 0.21 0.25 0.30 0.33 0.34 0.35 0.37 0.38 0.38 0.38 0.36 0.36 0.36 0.38 0.52 0.54 0.18 0.10 0.17 0.28 0.33 0.33 0.30 0.29 0.28 0.26
0.03 0.03 0.04 0.04 0.06 0.09 0.11 0.12 0.13 0.14 0.14 0.14 0.13 0.13 0.13 0.14 0.17 0.19 0.23 0.27 0.33 0.37 0.39 0.43 0.44 0.44 0.46 0.46 0.47 0.45 0.43 0.46 0.56 0.37 0.15 0.15 0.24 0.32 0.37 0.36 0.29 0.26 0.24
0.04 0.05 0.06 0.09 0.12 0.16 0.19 0.20 0.20 0.20 0.20 0.19 0.19 0.20 0.20 0.24 0.28 0.28 0.27 0.29 0.32 0.35 0.37 0.42 0.47 0.53 0.57 0.55 0.56 0.54 0.49 0.43 0.45 0.46 0.27 0.19 0.22 0.29 0.34 0.38 0.35 0.32 0.28
0.09 0.11 0.14 0.18 0.22 0.25 0.26 0.25 0.23 0.23 0.24 0.24 0.24 0.26 0.30 0.38 0.52 0.55 0.45 0.41 0.38 0.37 0.37 0.41 0.47 0.56 0.64 0.69 0.74 0.65 0.57 0.58 0.55 0.53 0.40 0.29 0.27 0.30 0.41 0.45 0.44 0.41 0.40
0.20 0.23 0.23 0.22 0.22 0.22 0.22 0.22 0.23 0.25 0.27 0.26 0.25 0.26 0.32 0.47 0.79 0.83 0.66 0.53 0.46 0.44 0.42 0.44 0.48 0.60 0.77 0.93 1.03 0.96 0.89 0.88 0.79 0.74 0.62 0.47 0.40 0.43 0.50 0.50 0.54 0.48 0.48
0.27 0.27 0.25 0.22 0.21 0.21 0.22 0.22 0.23 0.23 0.21 0.18 0.17 0.22 0.31 0.48 0.87 0.93 0.76 0.54 0.48 0.48 0.48 0.43 0.41 0.47 0.56 0.70 0.90 0.96 1.00 1.05 1.05 0.99 0.91 0.78 0.57 0.51 0.55 0.67 0.75 0.74 0.64
0.28 0.28 0.26 0.24 0.23 0.21 0.20 0.18 0.18 0.16 0.13 0.11 0.09 0.12 0.19 0.36 0.73 0.83 0.69 0.47 0.38 0.39 0.39 0.35 0.33 0.33 0.36 0.36 0.45 0.52 0.60 0.74 0.93 1.06 1.13 0.94 0.73 0.64 0.74 0.89 0.92 0.88 0.70
0.25 0.23 0.19 0.16 0.15 0.14 0.14 0.13 0.11 0.10 0.08 0.07 0.05 0.06 0.08 0.16 0.50 0.74 0.59 0.33 0.28 0.30 0.31 0.33 0.34 0.32 0.31 0.36 0.43 0.44 0.42 0.46 0.64 0.85 0.99 0.90 0.82 0.80 0.90 1.07 1.18 1.23 1.02
0.15 0.12 0.09 0.07 0.07 0.08 0.08 0.07 0.06 0.05 0.04 0.03 0.03 0.04 0.04 0.08 0.30 0.66 0.63 0.28 0.26 0.25 0.28 0.38 0.42 0.39 0.37 0.46 0.59 0.56 0.42 0.35 0.41 0.66 0.89 0.92 0.93 1.08 1.24 1.52 1.72 1.76 1.57
0.07 0.05 0.03 0.02 0.03 0.04 0.04 0.03 0.03 0.02 0.03 0.03 0.03 0.03 0.03 0.05 0.18 0.55 0.75 0.38 0.30 0.25 0.27 0.37 0.56 0.54 0.50 0.52 0.59 0.58 0.51 0.36 0.32 0.37 0.46 0.56 0.63 0.70 0.94 1.28 1.48 1.57 1.56
0.02 0.01 0.01 0.00 0.01 0.01 0.02 0.02 0.02 0.03 0.03 0.03 0.03 0.03 0.03 0.04 0.08 0.34 0.76 0.65 0.44 0.36 0.35 0.42 0.54 0.52 0.50 0.50 0.54 0.53 0.52 0.48 0.45 0.44 0.40 0.38 0.43 0.53 0.67 0.93 1.16 1.30 1.41
0.00 0.00 0.00 0.00 0.01 0.01 0.02 0.02 0.03 0.03 0.04 0.04 0.05 0.04 0.03 0.03 0.07 0.22 0.51 0.67 0.58 0.42 0.39 0.35 0.41 0.42 0.45 0.47 0.45 0.46 0.47 0.49 0.49 0.42 0.33 0.28 0.28 0.37 0.49 0.67 0.91 1.05 1.14
0.00 0.00 0.01 0.01 0.01 0.02 0.02 0.03 0.04 0.04 0.07 0.09 0.09 0.08 0.05 0.04 0.07 0.20 0.30 0.35 0.42 0.37 0.40 0.52 0.45 0.38 0.35 0.29 0.26 0.30 0.33 0.34 0.39 0.35 0.26 0.18 0.18 0.24 0.34 0.48 0.64 0.83 0.94
0.01 0.01 0.01 0.01 0.02 0.02 0.03 0.04 0.05 0.08 0.19 0.26 0.22 0.18 0.12 0.10 0.17 0.34 0.35 0.26 0.28 0.32 0.31 0.37 0.36 0.27 0.20 0.15 0.13 0.15 0.18 0.24 0.30 0.31 0.22 0.16 0.15 0.19 0.27 0.38 0.54 0.69 0.88
0.01 0.02 0.02 0.02 0.03 0.03 0.03 0.04 0.07 0.09 0.26 0.45 0.40 0.38 0.36 0.34 0.43 0.65 0.62 0.51 0.50 0.50 0.47 0.44 0.34 0.26 0.22 0.17 0.12 0.10 0.10 0.16 0.22 0.23 0.22 0.21 0.19 0.21 0.23 0.30 0.48 0.64 0.81
0.03 0.03 0.04 0.04 0.04 0.04 0.05 0.05 0.05 0.07 0.14 0.18 0.23 0.33 0.32 0.43 0.54 0.52 0.47 0.46 0.46 0.47 0.50 0.46 0.30 0.21 0.19 0.16 0.14 0.12 0.10 0.11 0.14 0.18 0.21 0.22 0.23 0.24 0.25 0.28 0.42 0.59 0.69
0.04 0.05 0.06 0.06 0.06 0.07 0.09 0.11 0.10 0.07 0.06 0.06 0.10 0.17 0.26 0.36 0.39 0.38 0.38 0.33 0.30 0.31 0.36 0.28 0.20 0.16 0.15 0.14 0.13 0.13 0.11 0.09 0.12 0.17 0.20 0.21 0.25 0.28 0.30 0.33 0.39 0.51 0.61
0.04 0.06 0.08 0.08 0.09 0.11 0.13 0.14 0.16 0.15 0.11 0.06 0.04 0.08 0.15 0.23 0.27 0.28 0.30 0.28 0.21 0.17 0.19 0.19 0.16 0.14 0.14 0.14 0.14 0.13 0.12 0.12 0.14 0.16 0.19 0.20 0.25 0.33 0.35 0.34 0.38 0.50 0.60
0.04 0.06 0.09 0.10 0.11 0.12 0.13 0.14 0.14 0.14 0.13 0.10 0.07 0.07 0.10 0.13 0.15 0.15 0.18 0.22 0.21 0.16 0.14 0.14 0.14 0.16 0.17 0.16 0.14 0.14 0.14 0.14 0.14 0.16 0.18 0.19 0.23 0.33 0.36 0.32 0.36 0.47 0.65
0.05 0.08 0.12 0.12 0.13 0.13 0.13 0.15 0.16 0.17 0.17 0.15 0.14 0.13 0.18 0.23 0.21 0.15 0.14 0.18 0.19 0.18 0.16 0.17 0.15 0.16 0.18 0.17 0.17 0.16 0.16 0.15 0.14 0.16 0.18 0.19 0.23 0.31 0.35 0.34 0.39 0.49 0.60
0.07 0.08 0.11 0.12 0.13 0.13 0.16 0.20 0.21 0.23 0.23 0.20 0.15 0.14 0.36 0.46 0.32 0.19 0.17 0.18 0.21 0.23 0.22 0.21 0.18 0.17 0.17 0.18 0.19 0.18 0.18 0.15 0.14 0.17 0.19 0.21 0.25 0.31 0.32 0.37 0.41 0.48 0.57
0.11 0.12 0.14 0.15 0.15 0.16 0.20 0.22 0.24 0.25 0.24 0.21 0.16 0.12 0.19 0.22 0.19 0.18 0.17 0.17 0.19 0.22 0.25 0.28 0.24 0.19 0.20 0.23 0.24 0.24 0.20 0.16 0.15 0.18 0.22 0.23 0.26 0.31 0.34 0.39 0.43 0.51 0.58
0.16 0.17 0.17 0.15 0.15 0.18 0.19 0.18 0.21 0.24 0.23 0.21 0.19 0.18 0.16 0.17 0.18 0.19 0.20 0.19 0.21 0.24 0.25 0.28 0.29 0.22 0.19 0.22 0.25 0.29 0.30 0.24 0.20 0.25 0.32 0.32 0.31 0.33 0.37 0.42 0.45 0.52 0.58
0.20 0.20 0.19 0.18 0.17 0.19 0.21 0.21 0.21 0.22 0.23 0.23 0.22 0.20 0.18 0.19 0.18 0.18 0.18 0.20 0.23 0.24 0.26 0.30 0.30 0.26 0.23 0.24 0.25 0.25 0.27 0.32 0.41 0.47 0.46 0.47 0.44 0.39 0.41 0.46 0.47 0.50 0.57
0.19 0.20 0.21 0.22 0.23 0.24 0.25 0.23 0.22 0.23 0.24 0.25 0.24 0.22 0.19 0.19 0.18 0.17 0.18 0.20 0.24 0.25 0.23 0.26 0.28 0.28 0.25 0.23 0.23 0.24 0.27 0.37 0.50 0.68 0.80 0.80 0.66 0.52 0.49 0.52 0.52 0.53 0.58
0.17 0.18 0.20 0.22 0.25 0.27 0.30 0.31 0.27 0.27 0.30 0.28 0.25 0.24 0.24 0.24 0.22 0.21 0.23 0.28 0.32 0.30 0.27 0.25 0.25 0.25 0.25 0.24 0.22 0.24 0.33 0.49 0.64 0.80 1.05 1.15 0.94 0.69 0.59 0.61 0.58 0.59 0.63

GEFSGL_prec_meanprecacc_138.txt.gz
Total_Precipitation_Accumulation
0.01 0.01 0.02 0.02 0.03 0.03 0.04 0.05 0.07 0.08 0.09 0.09 0.09 0.10 0.12 0.14 0.17 0.21 0.25 0.30 0.33 0.34 0.35 0.37 0.38 0.38 0.38 0.36 0.36 0.36 0.38 0.52 0.54 0.18 0.10 0.17 0.28 0.33 0.33 0.30 0.29 0.28 0.26
0.03 0.03 0.04 0.04 0.06 0.09 0.11 0.12 0.13 0.14 0.14 0.14 0.13 0.13 0.13 0.14 0.17 0.19 0.23 0.27 0.33 0.37 0.39 0.43 0.44 0.44 0.46 0.46 0.47 0.45 0.43 0.46 0.56 0.37 0.15 0.16 0.24 0.32 0.37 0.36 0.29 0.26 0.24
0.04 0.05 0.06 0.09 0.12 0.16 0.19 0.20 0.20 0.20 0.20 0.19 0.19 0.20 0.20 0.24 0.28 0.28 0.27 0.29 0.32 0.35 0.37 0.42 0.47 0.53 0.57 0.55 0.56 0.54 0.49 0.43 0.46 0.46 0.27 0.19 0.23 0.29 0.35 0.38 0.35 0.32 0.28
0.09 0.11 0.14 0.18 0.22 0.25 0.26 0.25 0.24 0.23 0.24 0.24 0.24 0.26 0.30 0.38 0.52 0.55 0.45 0.41 0.38 0.37 0.37 0.41 0.47 0.56 0.64 0.70 0.74 0.65 0.57 0.58 0.56 0.54 0.41 0.30 0.27 0.30 0.41 0.46 0.45 0.42 0.41
0.20 0.23 0.23 0.22 0.22 0.22 0.22 0.22 0.23 0.25 0.27 0.26 0.25 0.26 0.32 0.47 0.79 0.83 0.66 0.53 0.46 0.44 0.42 0.44 0.48 0.60 0.77 0.93 1.04 0.97 0.90 0.90 0.82 0.77 0.64 0.49 0.41 0.44 0.52 0.52 0.55 0.49 0.49
0.27 0.27 0.25 0.22 0.21 0.21 0.22 0.22 0.23 0.23 0.21 0.18 0.17 0.22 0.31 0.48 0.87 0.93 0.76 0.54 0.48 0.48 0.48 0.44 0.42 0.47 0.56 0.70 0.91 0.97 1.02 1.08 1.09 1.03 0.94 0.81 0.59 0.52 0.57 0.69 0.78 0.77 0.66
0.28 0.28 0.26 0.24 0.23 0.21 0.20 0.18 0.18 0.16 0.13 0.11 0.09 0.12 0.19 0.36 0.73 0.83 0.70 0.47 0.38 0.39 0.39 0.35 0.33 0.33 0.36 0.37 0.46 0.52 0.61 0.75 0.94 1.08 1.16 0.96 0.75 0.65 0.75 0.91 0.94 0.91 0.73
0.25 0.23 0.19 0.16 0.15 0.14 0.14 0.13 0.11 0.10 0.08 0.07 0.05 0.06 0.08 0.16 0.50 0.74 0.59 0.33 0.28 0.30 0.31 0.33 0.34 0.32 0.31 0.36 0.43 0.45 0.42 0.46 0.64 0.86 1.01 0.91 0.83 0.81 0.92 1.11 1.23 1.28 1.05
0.15 0.12 0.09 0.07 0.07 0.08 0.08 0.07 0.06 0.05 0.04 0.03 0.03 0.04 0.04 0.08 0.30 0.66 0.63 0.28 0.26 0.25 0.28 0.38 0.42 0.39 0.37 0.47 0.60 0.58 0.44 0.36 0.42 0.68 0.92 0.95 0.97 1.12 1.29 1.58 1.79 1.84 1.63
0.07 0.05 0.03 0.02 0.03 0.04 0.04 0.03 0.03 0.02 0.03 0.03 0.03 0.03 0.03 0.05 0.18 0.55 0.75 0.38 0.30 0.25 0.27 0.38 0.56 0.54 0.51 0.54 0.61 0.60 0.54 0.38 0.34 0.38 0.48 0.58 0.65 0.71 0.96 1.31 1.51 1.63 1.62
0.02 0.01 0.01 0.00 0.01 0.01 0.02 0.02 0.02 0.03 0.03 0.03 0.03 0.03 0.03 0.04 0.08 0.34 0.76 0.65 0.45 0.37 0.36 0.43 0.55 0.53 0.51 0.51 0.56 0.56 0.55 0.51 0.49 0.48 0.44 0.40 0.44 0.54 0.68 0.94 1.17 1.33 1.45
0.00 0.00 0.00 0.00 0.01 0.01 0.02 0.02 0.03 0.03 0.04 0.04 0.05 0.04 0.03 0.03 0.07 0.22 0.51 0.67 0.59 0.42 0.40 0.35 0.41 0.43 0.47 0.49 0.48 0.49 0.50 0.54 0.52 0.45 0.36 0.30 0.30 0.38 0.50 0.67 0.92 1.06 1.16
0.00 0.00 0.01 0.01 0.01 0.02 0.02 0.03 0.04 0.04 0.07 0.09 0.09 0.08 0.05 0.04 0.07 0.20 0.30 0.35 0.42 0.38 0.41 0.53 0.47 0.39 0.37 0.31 0.28 0.33 0.36 0.37 0.41 0.38 0.28 0.20 0.19 0.25 0.35 0.49 0.65 0.84 0.95
0.01 0.01 0.01 0.01 0.02 0.02 0.03 0.04 0.05 0.08 0.19 0.26 0.22 0.18 0.12 0.10 0.17 0.35 0.36 0.26 0.29 0.33 0.32 0.39 0.38 0.28 0.21 0.16 0.14 0.16 0.19 0.25 0.32 0.33 0.24 0.17 0.16 0.20 0.28 0.39 0.55 0.70 0.89
0.01 0.02 0.02 0.02 0.03 0.03 0.03 0.04 0.07 0.09 0.26 0.45 0.41 0.39 0.36 0.34 0.43 0.66 0.63 0.52 0.52 0.52 0.50 0.47 0.37 0.28 0.23 0.18 0.14 0.11 0.12 0.17 0.24 0.25 0.24 0.22 0.21 0.22 0.24 0.31 0.49 0.65 0.83
0.03 0.03 0.04 0.04 0.04 0.04 0.05 0.05 0.05 0.07 0.14 0.18 0.23 0.34 0.33 0.43 0.55 0.52 0.49 0.47 0.48 0.49 0.53 0.49 0.33 0.24 0.21 0.19 0.17 0.14 0.12 0.13 0.15 0.20 0.23 0.23 0.24 0.25 0.26 0.29 0.43 0.60 0.71
0.04 0.05 0.06 0.06 0.06 0.07 0.09 0.11 0.11 0.07 0.06 0.07 0.10 0.18 0.26 0.36 0.40 0.38 0.39 0.34 0.31 0.32 0.38 0.30 0.21 0.18 0.17 0.16 0.16 0.16 0.13 0.10 0.13 0.19 0.22 0.23 0.26 0.29 0.31 0.34 0.40 0.53 0.63
0.04 0.06 0.08 0.08 0.09 0.11 0.13 0.14 0.16 0.16 0.11 0.06 0.04 0.08 0.16 0.23 0.28 0.29 0.31 0.29 0.22 0.17 0.20 0.20 0.17 0.15 0.16 0.16 0.16 0.15 0.14 0.13 0.15 0.18 0.20 0.21 0.26 0.35 0.37 0.35 0.39 0.52 0.62
0.04 0.06 0.09 0.10 0.11 0.12 0.13 0.14 0.14 0.14 0.13 0.10 0.07 0.07 0.10 0.13 0.15 0.16 0.18 0.22 0.21 0.16 0.14 0.15 0.15 0.17 0.18 0.18 0.16 0.15 0.16 0.16 0.15 0.17 0.19 0.20 0.24 0.35 0.38 0.33 0.37 0.48 0.67
0.05 0.08 0.12 0.12 0.13 0.13 0.13 0.15 0.16 0.17 0.17 0.15 0.14 0.13 0.19 0.24 0.22 0.15 0.15 0.18 0.20 0.19 0.17 0.18 0.16 0.17 0.19 0.19 0.19 0.18 0.18 0.16 0.15 0.18 0.19 0.20 0.24 0.33 0.37 0.35 0.41 0.51 0.61
0.07 0.08 0.11 0.12 0.13 0.14 0.16 0.20 0.22 0.24 0.24 0.20 0.15 0.14 0.36 0.46 0.32 0.20 0.17 0.18 0.22 0.24 0.23 0.22 0.19 0.18 0.19 0.20 0.21 0.20 0.19 0.17 0.15 0.18 0.21 0.22 0.26 0.33 0.34 0.38 0.43 0.50 0.59
0.11 0.13 0.14 0.15 0.15 0.16 0.21 0.23 0.24 0.26 0.24 0.22 0.16 0.12 0.19 0.22 0.20 0.19 0.18 0.18 0.20 0.23 0.26 0.30 0.26 0.21 0.22 0.25 0.26 0.26 0.22 0.18 0.16 0.20 0.23 0.24 0.28 0.32 0.36 0.41 0.45 0.52 0.60
0.16 0.18 0.17 0.15 0.15 0.18 0.19 0.18 0.21 0.24 0.23 0.21 0.20 0.18 0.16 0.17 0.18 0.20 0.20 0.20 0.22 0.25 0.26 0.30 0.31 0.24 0.20 0.23 0.26 0.31 0.32 0.26 0.22 0.28 0.35 0.35 0.33 0.35 0.39 0.44 0.47 0.54 0.60
0.20 0.20 0.20 0.18 0.18 0.19 0.21 0.21 0.21 0.22 0.23 0.23 0.22 0.20 0.19 0.19 0.19 0.18 0.19 0.20 0.24 0.25 0.27 0.31 0.32 0.28 0.24 0.25 0.27 0.28 0.30 0.34 0.44 0.51 0.49 0.50 0.46 0.41 0.43 0.48 0.49 0.51 0.58
0.19 0.20 0.21 0.22 0.23 0.24 0.25 0.23 0.22 0.23 0.25 0.25 0.24 0.22 0.20 0.19 0.19 0.18 0.18 0.21 0.25 0.25 0.24 0.27 0.29 0.29 0.26 0.24 0.25 0.26 0.29 0.40 0.54 0.73 0.86 0.85 0.70 0.54 0.51 0.54 0.53 0.54 0.60
0.17 0.18 0.20 0.22 0.25 0.28 0.31 0.31 0.27 0.27 0.30 0.28 0.26 0.25 0.25 0.25 0.23 0.22 0.23 0.29 0.33 0.31 0.27 0.26 0.25 0.26 0.26 0.25 0.24 0.25 0.35 0.52 0.67 0.85 1.11 1.22 0.99 0.73 0.62 0.63 0.60 0.61 0.65

GEFSGL_prec_meanprecacc_144.txt.gz
Total_Precipitation_Accumulation
0.01 0.01 0.02 0.02 0.03 0.03 0.05 0.06 0.07 0.08 0.09 0.09 0.09 0.10 0.12 0.14 0.17 0.22 0.25 0.30 0.33 0.34 0.35 0.37 0.38 0.38 0.38 0.36 0.36 0.36 0.38 0.52 0.54 0.18 0.10 0.17 0.28 0.33 0.33 0.30 0.29 0.28 0.26
0.03 0.03 0.04 0.05 0.06 0.09 0.11 0.12 0.13 0.14 0.14 0.14 0.13 0.13 0.13 0.14 0.17 0.19 0.23 0.27 0.34 0.37 0.39 0.43 0.44 0.44 0.46 0.46 0.47 0.45 0.43 0.46 0.56 0.38 0.15 0.16 0.24 0.32 0.37 0.36 0.29 0.26 0.24
0.04 0.05 0.06 0.09 0.12 0.16 0.19 0.20 0.20 0.20 0.20 0.19 0.19 0.20 0.21 0.24 0.28 0.29 0.27 0.29 0.33 0.35 0.37 0.42 0.47 0.53 0.57 0.55 0.56 0.54 0.49 0.43 0.46 0.47 0.28 0.19 0.23 0.29 0.35 0.38 0.35 0.32 0.28
0.09 0.11 0.14 0.18 0.22 0.25 0.26 0.25 0.24 0.23 0.24 0.24 0.24 0.26 0.30 0.38 0.52 0.56 0.45 0.41 0.38 0.37 0.37 0.41 0.47 0.56 0.64 0.70 0.74 0.65 0.58 0.58 0.56 0.54 0.41 0.30 0.28 0.30 0.41 0.46 0.45 0.42 0.41
0.20 0.23 0.23 0.22 0.22 0.22 0.22 0.22 0.23 0.25 0.27 0.26 0.25 0.27 0.32 0.47 0.79 0.83 0.66 0.53 0.46 0.44 0.42 0.44 0.48 0.60 0.77 0.94 1.04 0.98 0.91 0.91 0.83 0.78 0.65 0.50 0.42 0.45 0.52 0.52 0.56 0.50 0.49
0.27 0.27 0.25 0.22 0.21 0.21 0.22 0.22 0.23 0.23 0.21 0.18 0.17 0.22 0.31 0.48 0.87 0.93 0.76 0.54 0.48 0.48 0.48 0.44 0.42 0.48 0.56 0.70 0.91 0.97 1.02 1.09 1.10 1.05 0.96 0.82 0.60 0.52 0.57 0.70 0.79 0.78 0.67
0.28 0.28 0.26 0.24 0.23 0.21 0.20 0.18 0.18 0.16 0.13 0.11 0.09 0.12 0.19 0.36 0.73 0.83 0.70 0.47 0.38 0.39 0.40 0.35 0.34 0.33 0.36 0.37 0.46 0.52 0.61 0.75 0.95 1.09 1.18 0.97 0.75 0.66 0.76 0.92 0.96 0.93 0.75
0.25 0.23 0.19 0.16 0.15 0.14 0.14 0.13 0.11 0.10 0.08 0.07 0.05 0.06 0.08 0.16 0.50 0.74 0.59 0.33 0.28 0.31 0.31 0.33 0.34 0.32 0.31 0.37 0.44 0.45 0.42 0.46 0.65 0.87 1.01 0.92 0.84 0.82 0.94 1.14 1.28 1.34 1.09
0.15 0.12 0.09 0.07 0.07 0.08 0.08 0.07 0.06 0.05 0.04 0.03 0.03 0.04 0.04 0.08 0.30 0.66 0.63 0.28 0.26 0.26 0.28 0.38 0.42 0.39 0.37 0.48 0.61 0.59 0.44 0.37 0.42 0.69 0.93 0.97 1.00 1.16 1.34 1.64 1.86 1.91 1.68
0.07 0.05 0.03 0.02 0.03 0.04 0.04 0.03 0.03 0.02 0.03 0.03 0.03 0.03 0.03 0.05 0.18 0.55 0.75 0.38 0.30 0.25 0.27 0.38 0.56 0.55 0.51 0.55 0.62 0.62 0.56 0.38 0.34 0.39 0.48 0.59 0.66 0.73 0.99 1.34 1.54 1.68 1.67
0.02 0.01 0.01 0.00 0.01 0.01 0.02 0.02 0.02 0.03 0.03 0.03 0.03 0.03 0.03 0.04 0.08 0.34 0.76 0.65 0.45 0.37 0.36 0.43 0.55 0.53 0.52 0.52 0.58 0.58 0.57 0.53 0.51 0.50 0.46 0.42 0.45 0.56 0.70 0.96 1.18 1.35 1.49
0.00 0.00 0.00 0.00 0.01 0.01 0.02 0.02 0.03 0.03 0.04 0.04 0.05 0.04 0.03 0.03 0.07 0.22 0.51 0.68 0.59 0.43 0.40 0.36 0.42 0.44 0.48 0.51 0.49 0.50 0.53 0.56 0.55 0.47 0.39 0.32 0.32 0.39 0.51 0.68 0.93 1.07 1.17
0.00 0.00 0.01 0.01 0.01 0.02 0.02 0.03 0.04 0.04 0.07 0.09 0.09 0.08 0.05 0.04 0.07 0.20 0.30 0.35 0.43 0.38 0.41 0.53 0.47 0.41 0.38 0.32 0.29 0.34 0.37 0.38 0.43 0.39 0.30 0.21 0.21 0.26 0.36 0.50 0.66 0.84 0.96
0.01 0.01 0.01 0.01 0.02 0.02 0.03 0.04 0.05 0.08 0.19 0.26 0.22 0.18 0.12 0.10 0.17 0.35 0.36 0.26 0.29 0.33 0.33 0.39 0.39 0.29 0.21 0.16 0.14 0.16 0.19 0.26 0.33 0.36 0.27 0.19 0.17 0.21 0.29 0.40 0.56 0.71 0.90
0.01 0.02 0.02 0.02 0.03 0.03 0.03 0.04 0.07 0.09 0.26 0.45 0.41 0.39 0.36 0.34 0.43 0.66 0.63 0.52 0.53 0.53 0.51 0.49 0.38 0.28 0.24 0.19 0.14 0.11 0.12 0.18 0.25 0.26 0.25 0.24 0.22 0.23 0.25 0.32 0.50 0.66 0.84
0.03 0.03 0.04 0.04 0.04 0.04 0.05 0.05 0.05 0.07 0.14 0.18 0.23 0.34 0.33 0.43 0.55 0.53 0.49 0.48 0.49 0.50 0.55 0.51 0.33 0.24 0.22 0.19 0.17 0.15 0.13 0.14 0.17 0.21 0.24 0.25 0.25 0.26 0.27 0.30 0.44 0.61 0.72
0.04 0.05 0.06 0.06 0.06 0.07 0.09 0.11 0.11 0.07 0.06 0.07 0.10 0.18 0.26 0.36 0.40 0.39 0.40 0.35 0.32 0.33 0.39 0.31 0.22 0.18 0.17 0.16 0.16 0.16 0.14 0.11 0.14 0.20 0.23 0.24 0.27 0.31 0.32 0.35 0.41 0.54 0.64
0.04 0.06 0.08 0.08 0.09 0.11 0.13 0.14 0.16 0.16 0.11 0.06 0.04 0.08 0.16 0.23 0.28 0.30 0.31 0.29 0.22 0.18 0.20 0.20 0.18 0.15 0.16 0.16 0.16 0.16 0.15 0.14 0.17 0.20 0.22 0.23 0.28 0.36 0.38 0.36 0.40 0.53 0.63
0.04 0.06 0.09 0.10 0.11 0.12 0.13 0.14 0.14 0.14 0.14 0.10 0.07 0.07 0.10 0.14 0.15 0.16 0.18 0.22 0.21 0.17 0.15 0.15 0.15 0.18 0.19 0.18 0.17 0.17 0.18 0.18 0.17 0.19 0.20 0.21 0.25 0.36 0.39 0.34 0.38 0.49 0.68
0.05 0.08 0.12 0.12 0.13 0.13 0.13 0.15 0.17 0.18 0.17 0.15 0.14 0.13 0.19 0.24 0.22 0.16 0.15 0.18 0.20 0.19 0.18 0.19 0.17 0.17 0.20 0.20 0.21 0.20 0.20 0.17 0.16 0.19 0.20 0.21 0.25 0.34 0.38 0.36 0.42 0.52 0.62
0.07 0.08 0.11 0.13 0.13 0.14 0.17 0.20 0.22 0.24 0.24 0.21 0.15 0.14 0.37 0.47 0.33 0.21 0.18 0.19 0.22 0.25 0.24 0.23 0.20 0.18 0.19 0.21 0.23 0.21 0.20 0.18 0.16 0.19 0.22 0.23 0.27 0.34 0.35 0.39 0.44 0.51 0.60
0.11 0.13 0.14 0.15 0.16 0.16 0.21 0.23 0.24 0.26 0.25 0.22 0.16 0.12 0.20 0.22 0.20 0.19 0.18 0.18 0.20 0.23 0.26 0.30 0.27 0.22 0.23 0.27 0.28 0.28 0.24 0.19 0.17 0.21 0.25 0.25 0.29 0.33 0.37 0.42 0.46 0.53 0.61
0.16 0.18 0.17 0.15 0.15 0.18 0.19 0.18 0.21 0.24 0.24 0.21 0.20 0.18 0.17 0.18 0.19 0.20 0.21 0.20 0.22 0.25 0.26 0.30 0.31 0.25 0.21 0.24 0.28 0.33 0.34 0.27 0.23 0.29 0.37 0.37 0.35 0.36 0.40 0.45 0.48 0.55 0.61
0.20 0.20 0.20 0.18 0.18 0.19 0.21 0.21 0.21 0.22 0.23 0.24 0.22 0.21 0.19 0.19 0.19 0.18 0.19 0.20 0.24 0.25 0.27 0.31 0.32 0.28 0.25 0.26 0.28 0.29 0.31 0.36 0.46 0.53 0.52 0.53 0.48 0.42 0.44 0.49 0.50 0.52 0.59
0.19 0.21 0.22 0.22 0.23 0.24 0.25 0.24 0.22 0.23 0.25 0.25 0.25 0.22 0.20 0.19 0.19 0.18 0.18 0.21 0.25 0.26 0.24 0.27 0.30 0.29 0.26 0.25 0.25 0.26 0.30 0.42 0.57 0.78 0.91 0.89 0.72 0.56 0.53 0.55 0.54 0.55 0.61
0.17 0.18 0.20 0.22 0.25 0.28 0.31 0.31 0.28 0.28 0.30 0.28 0.26 0.25 0.25 0.25 0.23 0.22 0.24 0.29 0.34 0.32 0.28 0.26 0.26 0.26 0.26 0.26 0.24 0.26 0.36 0.54 0.70 0.89 1.18 1.30 1.04 0.75 0.64 0.65 0.62 0.62 0.66

GEFSGL_prec_meanprecacc_150.txt.gz
Total_Precipitation_Accumulation
0.01 0.01 0.02 0.02 0.03 0.03 0.05 0.06 0.07 0.08 0.09 0.09 0.10 0.11 0.13 0.15 0.18 0.22 0.26 0.30 0.34 0.34 0.35 0.37 0.38 0.38 0.38 0.36 0.36 0.36 0.39 0.52 0.54 0.18 0.10 0.17 0.28 0.33 0.33 0.30 0.29 0.28 0.26
0.03 0.03 0.04 0.05 0.06 0.09 0.11 0.12 0.13 0.14 0.15 0.14 0.14 0.14 0.14 0.15 0.17 0.20 0.24 0.28 0.34 0.38 0.40 0.43 0.45 0.44 0.47 0.46 0.47 0.45 0.43 0.46 0.57 0.38 0.15 0.16 0.24 0.32 0.37 0.36 0.29 0.26 0.24
0.04 0.05 0.06 0.09 0.12 0.16 0.19 0.20 0.20 0.20 0.20 0.19 0.19 0.20 0.21 0.24 0.28 0.29 0.28 0.30 0.33 0.35 0.37 0.43 0.47 0.53 0.57 0.55 0.56 0.54 0.49 0.44 0.46 0.47 0.28 0.19 0.23 0.29 0.35 0.38 0.35 0.32 0.28
0.09 0.11 0.14 0.18 0.22 0.25 0.26 0.25 0.24 0.23 0.24 0.24 0.24 0.26 0.30 0.38 0.52 0.56 0.45 0.41 0.38 0.37 0.37 0.41 0.47 0.56 0.64 0.70 0.74 0.66 0.58 0.59 0.57 0.55 0.42 0.30 0.28 0.30 0.41 0.46 0.45 0.42 0.41
0.20 0.23 0.23 0.22 0.22 0.22 0.22 0.22 0.23 0.25 0.27 0.26 0.25 0.27 0.32 0.47 0.79 0.83 0.66 0.53 0.46 0.44 0.42 0.44 0.48 0.60 0.77 0.94 1.05 0.98 0.92 0.91 0.84 0.79 0.66 0.50 0.42 0.45 0.52 0.52 0.56 0.50 0.49
0.27 0.27 0.25 0.22 0.21 0.21 0.22 0.22 0.23 0.23 0.21 0.18 0.17 0.22 0.31 0.48 0.87 0.93 0.76 0.54 0.48 0.48 0.48 0.44 0.42 0.48 0.57 0.71 0.92 0.97 1.03 1.09 1.11 1.06 0.97 0.82 0.60 0.53 0.57 0.70 0.79 0.79 0.68
0.28 0.28 0.26 0.24 0.23 0.21 0.20 0.19 0.18 0.16 0.13 0.11 0.09 0.12 0.19 0.36 0.73 0.83 0.70 0.47 0.38 0.40 0.40 0.35 0.34 0.34 0.37 0.37 0.46 0.52 0.61 0.75 0.95 1.10 1.19 0.98 0.76 0.66 0.77 0.93 0.97 0.95 0.77
0.25 0.23 0.19 0.16 0.15 0.14 0.14 0.13 0.11 0.10 0.08 0.07 0.05 0.06 0.08 0.16 0.50 0.74 0.59 0.33 0.28 0.31 0.31 0.33 0.35 0.33 0.31 0.37 0.44 0.45 0.43 0.47 0.65 0.87 1.02 0.92 0.84 0.83 0.95 1.17 1.32 1.38 1.11
0.15 0.12 0.09 0.07 0.07 0.08 0.08 0.07 0.06 0.05 0.04 0.04 0.03 0.04 0.04 0.08 0.30 0.66 0.63 0.29 0.27 0.26 0.28 0.38 0.42 0.39 0.37 0.48 0.62 0.60 0.45 0.37 0.42 0.69 0.94 0.99 1.01 1.18 1.37 1.67 1.91 1.96 1.72
0.07 0.05 0.03 0.02 0.03 0.04 0.04 0.03 0.03 0.02 0.03 0.03 0.03 0.03 0.03 0.05 0.18 0.55 0.76 0.39 0.31 0.25 0.28 0.38 0.56 0.55 0.52 0.55 0.63 0.63 0.57 0.39 0.35 0.40 0.49 0.60 0.67 0.73 1.00 1.36 1.57 1.71 1.70
0.02 0.01 0.01 0.00 0.01 0.01 0.02 0.02 0.02 0.03 0.03 0.03 0.03 0.03 0.03 0.04 0.08 0.34 0.76 0.65 0.45 0.37 0.36 0.43 0.55 0.53 0.53 0.53 0.59 0.59 0.58 0.55 0.53 0.52 0.47 0.42 0.45 0.56 0.70 0.96 1.19 1.37 1.52
0.00 0.00 0.00 0.00 0.01 0.01 0.02 0.02 0.03 0.03 0.04 0.04 0.05 0.04 0.03 0.03 0.07 0.22 0.51 0.68 0.60 0.43 0.40 0.36 0.42 0.44 0.49 0.52 0.50 0.51 0.54 0.58 0.56 0.48 0.39 0.32 0.32 0.39 0.51 0.69 0.93 1.08 1.19
0.00 0.00 0.01 0.01 0.01 0.02 0.02 0.03 0.04 0.04 0.07 0.09 0.09 0.08 0.05 0.04 0.07 0.20 0.30 0.36 0.43 0.39 0.41 0.54 0.48 0.41 0.39 0.33 0.29 0.35 0.38 0.38 0.43 0.40 0.30 0.22 0.21 0.27 0.36 0.50 0.66 0.85 0.97
0.01 0.01 0.01 0.01 0.02 0.02 0.03 0.04 0.05 0.08 0.19 0.26 0.22 0.18 0.12 0.10 0.17 0.35 0.36 0.27 0.30 0.34 0.33 0.40 0.39 0.30 0.22 0.17 0.15 0.17 0.20 0.26 0.34 0.36 0.27 0.19 0.17 0.22 0.30 0.41 0.57 0.72 0.91
0.01 0.02 0.02 0.02 0.03 0.03 0.03 0.04 0.07 0.09 0.26 0.45 0.41 0.39 0.36 0.35 0.44 0.67 0.64 0.53 0.54 0.54 0.53 0.51 0.40 0.29 0.24 0.19 0.14 0.11 0.12 0.18 0.25 0.27 0.26 0.24 0.23 0.24 0.26 0.33 0.51 0.67 0.85
0.03 0.03 0.04 0.04 0.04 0.04 0.05 0.05 0.05 0.07 0.14 0.18 0.23 0.34 0.33 0.44 0.55 0.53 0.50 0.49 0.50 0.52 0.57 0.53 0.35 0.25 0.22 0.20 0.17 0.15 0.13 0.14 0.17 0.21 0.25 0.25 0.26 0.27 0.28 0.31 0.45 0.62 0.73
0.04 0.05 0.06 0.06 0.06 0.07 0.09 0.11 0.11 0.07 0.06 0.07 0.10 0.18 0.27 0.36 0.41 0.39 0.41 0.36 0.33 0.34 0.40 0.32 0.22 0.19 0.18 0.17 0.16 0.17 0.14 0.11 0.14 0.21 0.24 0.25 0.28 0.32 0.34 0.36 0.42 0.55 0.64
0.04 0.06 0.08 0.08 0.09 0.11 0.13 0.14 0.16 0.16 0.11 0.06 0.04 0.08 0.16 0.23 0.28 0.30 0.32 0.30 0.23 0.18 0.20 0.21 0.18 0.16 0.16 0.17 0.16 0.16 0.15 0.14 0.17 0.21 0.23 0.24 0.29 0.37 0.40 0.38 0.41 0.54 0.64
0.04 0.06 0.09 0.10 0.11 0.12 0.13 0.14 0.14 0.14 0.14 0.10 0.07 0.07 0.10 0.14 0.15 0.16 0.18 0.23 0.21 0.17 0.15 0.15 0.16 0.18 0.19 0.19 0.17 0.17 0.18 0.18 0.17 0.20 0.21 0.22 0.26 0.37 0.40 0.35 0.39 0.50 0.70
0.05 0.08 0.12 0.12 0.13 0.13 0.13 0.15 0.17 0.18 0.17 0.15 0.14 0.14 0.19 0.24 0.22 0.16 0.15 0.18 0.20 0.19 0.18 0.19 0.17 0.18 0.20 0.21 0.21 0.20 0.20 0.18 0.17 0.19 0.21 0.22 0.26 0.35 0.39 0.37 0.43 0.53 0.63
0.07 0.08 0.11 0.13 0.13 0.14 0.17 0.20 0.22 0.24 0.24 0.21 0.15 0.15 0.37 0.48 0.34 0.21 0.18 0.19 0.23 0.25 0.24 0.23 0.20 0.19 0.20 0.22 0.24 0.22 0.21 0.18 0.17 0.20 0.22 0.24 0.28 0.35 0.36 0.40 0.45 0.52 0.61
0.11 0.13 0.14 0.15 0.16 0.17 0.21 0.23 0.25 0.26 0.25 0.22 0.16 0.13 0.20 0.23 0.20 0.19 0.18 0.18 0.20 0.24 0.27 0.31 0.28 0.22 0.23 0.28 0.29 0.29 0.25 0.20 0.17 0.21 0.26 0.26 0.30 0.34 0.38 0.43 0.48 0.54 0.62
0.16 0.18 0.17 0.15 0.16 0.19 0.20 0.19 0.21 0.24 0.24 0.22 0.20 0.18 0.17 0.18 0.19 0.20 0.21 0.20 0.22 0.25 0.26 0.31 0.32 0.25 0.21 0.25 0.29 0.34 0.36 0.28 0.24 0.30 0.39 0.38 0.36 0.38 0.42 0.47 0.50 0.56 0.62
0.20 0.21 0.21 0.19 0.18 0.19 0.21 0.22 0.22 0.22 0.24 0.24 0.23 0.21 0.19 0.19 0.19 0.18 0.19 0.20 0.24 0.25 0.27 0.32 0.33 0.29 0.25 0.27 0.29 0.30 0.33 0.37 0.48 0.55 0.53 0.55 0.50 0.43 0.46 0.51 0.51 0.54 0.60
0.20 0.21 0.22 0.23 0.23 0.24 0.25 0.24 0.22 0.23 0.25 0.26 0.25 0.22 0.20 0.19 0.19 0.18 0.18 0.21 0.25 0.26 0.24 0.27 0.30 0.30 0.27 0.25 0.26 0.27 0.30 0.43 0.60 0.82 0.96 0.93 0.75 0.58 0.55 0.57 0.56 0.57 0.62
0.18 0.19 0.20 0.22 0.25 0.28 0.31 0.32 0.28 0.28 0.30 0.28 0.26 0.25 0.25 0.25 0.23 0.22 0.24 0.29 0.34 0.32 0.28 0.26 0.26 0.26 0.26 0.26 0.25 0.26 0.37 0.56 0.73 0.93 1.24 1.37 1.09 0.78 0.66 0.67 0.64 0.64 0.68

GEFSGL_prec_meanprecacc_156.txt.gz
Total_Precipitation_Accumulation
0.01 0.01 0.02 0.02 0.03 0.03 0.05 0.06 0.07 0.08 0.09 0.10 0.10 0.11 0.13 0.15 0.18 0.23 0.27 0.31 0.35 0.35 0.36 0.38 0.39 0.39 0.39 0.37 0.36 0.37 0.39 0.53 0.55 0.18 0.10 0.17 0.28 0.33 0.33 0.30 0.29 0.28 0.26
0.03 0.03 0.04 0.05 0.06 0.09 0.11 0.12 0.13 0.14 0.15 0.14 0.14 0.14 0.14 0.15 0.18 0.20 0.24 0.28 0.35 0.38 0.40 0.44 0.45 0.45 0.47 0.47 0.48 0.46 0.44 0.48 0.58 0.39 0.16 0.16 0.24 0.32 0.37 0.36 0.29 0.26 0.24
0.04 0.05 0.06 0.09 0.12 0.16 0.19 0.20 0.20 0.20 0.20 0.19 0.20 0.20 0.21 0.24 0.28 0.29 0.28 0.30 0.33 0.36 0.38 0.43 0.48 0.54 0.57 0.56 0.56 0.55 0.50 0.44 0.47 0.48 0.29 0.20 0.23 0.29 0.35 0.38 0.35 0.33 0.28
0.09 0.11 0.14 0.18 0.22 0.25 0.26 0.25 0.24 0.23 0.24 0.24 0.25 0.26 0.30 0.38 0.52 0.56 0.45 0.41 0.38 0.38 0.38 0.41 0.48 0.56 0.64 0.70 0.75 0.66 0.59 0.60 0.58 0.56 0.42 0.31 0.28 0.30 0.42 0.46 0.45 0.42 0.41
0.20 0.23 0.23 0.22 0.22 0.22 0.22 0.22 0.23 0.25 0.27 0.26 0.25 0.27 0.32 0.47 0.79 0.83 0.66 0.53 0.47 0.44 0.42 0.44 0.48 0.60 0.78 0.95 1.05 0.99 0.93 0.93 0.85 0.80 0.67 0.51 0.43 0.45 0.53 0.53 0.56 0.50 0.50
0.27 0.27 0.25 0.22 0.21 0.21 0.22 0.23 0.23 0.23 0.22 0.19 0.17 0.22 0.31 0.48 0.87 0.94 0.76 0.54 0.48 0.48 0.48 0.44 0.42 0.48 0.57 0.72 0.92 0.99 1.04 1.11 1.12 1.07 0.98 0.84 0.61 0.53 0.58 0.71 0.80 0.80 0.69
0.28 0.28 0.26 0.24 0.23 0.22 0.20 0.19 0.18 0.17 0.14 0.11 0.09 0.12 0.19 0.36 0.73 0.83 0.70 0.47 0.38 0.40 0.40 0.36 0.35 0.35 0.38 0.38 0.47 0.53 0.62 0.76 0.96 1.11 1.20 0.99 0.77 0.67 0.78 0.95 0.99 0.97 0.78
0.25 0.23 0.19 0.16 0.15 0.14 0.14 0.13 0.11 0.10 0.09 0.07 0.05 0.06 0.08 0.16 0.50 0.74 0.59 0.33 0.28 0.31 0.31 0.34 0.35 0.33 0.32 0.37 0.44 0.46 0.43 0.47 0.65 0.88 1.03 0.94 0.86 0.84 0.98 1.20 1.35 1.40 1.13
0.15 0.12 0.09 0.07 0.07 0.08 0.09 0.07 0.06 0.05 0.04 0.04 0.03 0.04 0.04 0.08 0.30 0.66 0.63 0.29 0.27 0.26 0.28 0.38 0.43 0.39 0.38 0.49 0.63 0.61 0.46 0.37 0.43 0.70 0.95 1.00 1.03 1.21 1.39 1.71 1.95 2.00 1.74
0.07 0.05 0.03 0.02 0.03 0.04 0.04 0.03 0.03 0.03 0.03 0.03 0.03 0.03 0.03 0.05 0.18 0.55 0.76 0.39 0.31 0.26 0.28 0.38 0.57 0.55 0.52 0.56 0.65 0.65 0.59 0.40 0.36 0.41 0.50 0.61 0.68 0.74 1.01 1.37 1.59 1.74 1.72
0.02 0.01 0.01 0.00 0.01 0.01 0.02 0.02 0.03 0.03 0.03 0.03 0.03 0.03 0.03 0.04 0.08 0.35 0.76 0.65 0.45 0.38 0.36 0.43 0.55 0.54 0.53 0.55 0.61 0.61 0.60 0.57 0.55 0.54 0.48 0.43 0.46 0.56 0.70 0.97 1.20 1.38 1.55
0.00 0.00 0.00 0.00 0.01 0.01 0.02 0.02 0.03 0.03 0.04 0.04 0.05 0.04 0.03 0.03 0.07 0.22 0.52 0.68 0.60 0.44 0.41 0.36 0.42 0.45 0.50 0.53 0.52 0.53 0.56 0.60 0.58 0.50 0.40 0.33 0.33 0.40 0.51 0.69 0.94 1.09 1.19
0.00 0.00 0.01 0.01 0.01 0.02 0.02 0.03 0.04 0.04 0.07 0.09 0.09 0.08 0.05 0.04 0.08 0.20 0.31 0.36 0.44 0.39 0.42 0.55 0.49 0.43 0.40 0.34 0.30 0.36 0.39 0.40 0.44 0.41 0.31 0.22 0.21 0.27 0.36 0.50 0.67 0.86 0.98
0.01 0.01 0.01 0.01 0.02 0.02 0.03 0.04 0.05 0.08 0.19 0.26 0.22 0.18 0.12 0.10 0.17 0.35 0.36 0.27 0.30 0.34 0.34 0.41 0.40 0.30 0.23 0.17 0.15 0.17 0.20 0.26 0.34 0.37 0.28 0.20 0.18 0.22 0.31 0.41 0.58 0.73 0.93
0.01 0.02 0.02 0.02 0.03 0.03 0.03 0.04 0.07 0.09 0.26 0.45 0.41 0.39 0.37 0.35 0.44 0.67 0.65 0.54 0.55 0.55 0.55 0.52 0.41 0.30 0.25 0.19 0.14 0.11 0.12 0.19 0.26 0.27 0.27 0.25 0.23 0.24 0.26 0.33 0.52 0.69 0.87
0.03 0.03 0.04 0.04 0.04 0.04 0.05 0.05 0.05 0.08 0.14 0.18 0.23 0.34 0.33 0.44 0.55 0.54 0.50 0.50 0.51 0.53 0.58 0.55 0.36 0.26 0.23 0.20 0.18 0.15 0.13 0.15 0.17 0.22 0.25 0.26 0.27 0.28 0.28 0.32 0.47 0.64 0.74
0.04 0.05 0.06 0.06 0.06 0.07 0.09 0.11 0.11 0.07 0.06 0.07 0.10 0.18 0.27 0.37 0.41 0.39 0.41 0.37 0.34 0.35 0.41 0.33 0.23 0.19 0.18 0.17 0.17 0.17 0.15 0.11 0.15 0.21 0.25 0.26 0.29 0.33 0.34 0.37 0.44 0.56 0.66
0.04 0.06 0.08 0.08 0.09 0.11 0.13 0.14 0.16 0.16 0.11 0.06 0.04 0.09 0.16 0.24 0.28 0.30 0.32 0.30 0.23 0.18 0.21 0.21 0.18 0.16 0.17 0.17 0.17 0.17 0.16 0.15 0.17 0.21 0.23 0.25 0.30 0.38 0.41 0.39 0.42 0.55 0.65
0.04 0.06 0.09 0.10 0.11 0.12 0.13 0.14 0.14 0.14 0.14 0.10 0.07 0.07 0.11 0.14 0.16 0.16 0.19 0.23 0.22 0.17 0.15 0.16 0.16 0.18 0.19 0.19 0.18 0.17 0.18 0.19 0.18 0.20 0.22 0.23 0.27 0.38 0.41 0.36 0.40 0.51 0.71
0.05 0.08 0.12 0.12 0.13 0.13 0.13 0.16 0.17 0.18 0.17 0.16 0.14 0.14 0.19 0.25 0.23 0.16 0.15 0.19 0.21 0.19 0.18 0.19 0.17 0.18 0.20 0.21 0.22 0.21 0.21 0.18 0.17 0.20 0.21 0.23 0.27 0.37 0.40 0.38 0.44 0.54 0.64
0.07 0.08 0.12 0.13 0.13 0.14 0.17 0.20 0.22 0.25 0.25 0.21 0.16 0.15 0.37 0.48 0.34 0.21 0.18 0.19 0.23 0.25 0.24 0.24 0.20 0.19 0.20 0.22 0.24 0.23 0.21 0.19 0.17 0.21 0.23 0.25 0.29 0.36 0.37 0.42 0.46 0.53 0.62
0.11 0.13 0.14 0.16 0.16 0.17 0.21 0.23 0.25 0.27 0.25 0.23 0.17 0.13 0.20 0.23 0.20 0.19 0.18 0.18 0.20 0.24 0.27 0.31 0.28 0.22 0.24 0.28 0.30 0.30 0.25 0.20 0.18 0.22 0.27 0.27 0.31 0.36 0.39 0.45 0.49 0.56 0.64
0.16 0.18 0.17 0.16 0.16 0.19 0.20 0.19 0.22 0.25 0.24 0.22 0.20 0.19 0.17 0.18 0.19 0.20 0.21 0.20 0.23 0.25 0.26 0.31 0.33 0.26 0.22 0.26 0.30 0.36 0.37 0.29 0.25 0.31 0.40 0.40 0.38 0.39 0.43 0.48 0.51 0.58 0.63
0.21 0.21 0.21 0.20 0.19 0.20 0.22 0.23 0.22 0.23 0.24 0.25 0.23 0.21 0.19 0.19 0.19 0.18 0.19 0.20 0.24 0.25 0.27 0.32 0.33 0.29 0.25 0.27 0.29 0.31 0.34 0.38 0.50 0.57 0.55 0.56 0.51 0.45 0.47 0.52 0.52 0.55 0.62
0.21 0.22 0.23 0.24 0.25 0.26 0.26 0.25 0.23 0.24 0.26 0.26 0.25 0.23 0.20 0.20 0.19 0.18 0.18 0.21 0.25 0.26 0.24 0.27 0.30 0.30 0.27 0.26 0.26 0.28 0.31 0.44 0.62 0.85 1.00 0.97 0.77 0.59 0.56 0.58 0.57 0.58 0.63
0.19 0.20 0.22 0.24 0.27 0.29 0.32 0.32 0.29 0.28 0.31 0.29 0.26 0.26 0.25 0.25 0.23 0.22 0.24 0.29 0.34 0.32 0.28 0.27 0.26 0.26 0.27 0.27 0.25 0.27 0.38 0.58 0.75 0.96 1.29 1.42 1.12 0.80 0.67 0.69 0.65 0.65 0.70

GEFSGL_prec_meanprecacc_162.txt.gz
Total_Precipitation_Accumulation
0.01 0.01 0.02 0.02 0.03 0.03 0.05 0.06 0.07 0.08 0.09 0.10 0.10 0.11 0.13 0.15 0.18 0.23 0.27 0.31 0.35 0.36 0.36 0.38 0.39 0.39 0.39 0.37 0.37 0.37 0.40 0.53 0.56 0.19 0.11 0.17 0.29 0.33 0.33 0.30 0.29 0.28 0.26
0.03 0.03 0.04 0.05 0.06 0.09 0.11 0.12 0.13 0.14 0.15 0.15 0.14 0.14 0.14 0.15 0.18 0.20 0.24 0.28 0.35 0.39 0.40 0.44 0.46 0.45 0.48 0.47 0.48 0.47 0.45 0.48 0.59 0.40 0.17 0.17 0.25 0.33 0.38 0.36 0.29 0.26 0.24
0.04 0.05 0.06 0.09 0.12 0.16 0.19 0.20 0.20 0.20 0.20 0.19 0.20 0.20 0.21 0.24 0.28 0.29 0.28 0.30 0.33 0.36 0.38 0.43 0.48 0.54 0.58 0.56 0.56 0.55 0.50 0.45 0.47 0.48 0.29 0.20 0.24 0.30 0.36 0.38 0.36 0.33 0.28
0.09 0.11 0.14 0.18 0.22 0.25 0.26 0.25 0.24 0.23 0.24 0.24 0.25 0.26 0.30 0.38 0.52 0.56 0.45 0.41 0.38 0.38 0.38 0.42 0.48 0.57 0.64 0.70 0.75 0.66 0.59 0.60 0.58 0.57 0.44 0.32 0.29 0.31 0.42 0.47 0.45 0.42 0.41
0.20 0.23 0.23 0.22 0.22 0.22 0.22 0.22 0.24 0.25 0.27 0.26 0.25 0.27 0.33 0.47 0.79 0.83 0.66 0.53 0.47 0.44 0.42 0.44 0.48 0.60 0.78 0.95 1.06 1.00 0.94 0.94 0.87 0.82 0.69 0.53 0.44 0.46 0.54 0.54 0.57 0.50 0.50
0.27 0.27 0.25 0.22 0.21 0.21 0.22 0.23 0.23 0.23 0.22 0.19 0.18 0.22 0.31 0.48 0.87 0.94 0.76 0.54 0.48 0.48 0.48 0.44 0.42 0.48 0.57 0.72 0.93 0.99 1.05 1.12 1.14 1.09 1.00 0.85 0.62 0.54 0.59 0.72 0.82 0.82 0.70
0.28 0.28 0.26 0.24 0.23 0.22 0.20 0.19 0.18 0.17 0.14 0.11 0.09 0.12 0.19 0.36 0.74 0.83 0.70 0.47 0.38 0.40 0.40 0.36 0.35 0.35 0.38 0.38 0.48 0.55 0.63 0.77 0.98 1.12 1.21 1.00 0.78 0.68 0.80 0.97 1.01 0.99 0.80
0.25 0.23 0.19 0.16 0.15 0.14 0.14 0.13 0.11 0.10 0.09 0.07 0.06 0.06 0.08 0.16 0.50 0.74 0.59 0.33 0.28 0.31 0.31 0.34 0.35 0.33 0.32 0.38 0.45 0.47 0.44 0.47 0.66 0.89 1.05 0.95 0.87 0.86 0.99 1.22 1.36 1.42 1.14
0.15 0.12 0.09 0.07 0.07 0.08 0.09 0.08 0.06 0.05 0.04 0.04 0.04 0.04 0.04 0.08 0.30 0.66 0.63 0.29 0.27 0.26 0.28 0.38 0.43 0.39 0.38 0.50 0.63 0.61 0.46 0.38 0.43 0.71 0.97 1.01 1.05 1.22 1.42 1.73 1.98 2.04 1.77
0.07 0.05 0.03 0.02 0.03 0.04 0.04 0.03 0.03 0.03 0.03 0.03 0.03 0.03 0.03 0.05 0.18 0.55 0.76 0.39 0.31 0.26 0.28 0.38 0.57 0.56 0.53 0.57 0.65 0.66 0.60 0.41 0.36 0.42 0.51 0.61 0.68 0.75 1.02 1.39 1.61 1.77 1.75
0.02 0.01 0.01 0.01 0.01 0.01 0.02 0.02 0.03 0.03 0.03 0.03 0.03 0.03 0.03 0.04 0.08 0.35 0.76 0.65 0.46 0.38 0.37 0.43 0.55 0.54 0.54 0.55 0.62 0.62 0.61 0.57 0.56 0.54 0.49 0.44 0.47 0.57 0.71 0.97 1.21 1.40 1.57
0.00 0.00 0.00 0.01 0.01 0.01 0.02 0.02 0.03 0.03 0.04 0.04 0.05 0.04 0.03 0.03 0.07 0.23 0.52 0.68 0.61 0.44 0.41 0.36 0.43 0.45 0.51 0.54 0.52 0.53 0.56 0.61 0.59 0.51 0.42 0.34 0.34 0.41 0.52 0.70 0.94 1.09 1.20
0.00 0.01 0.01 0.01 0.01 0.02 0.02 0.04 0.04 0.04 0.07 0.10 0.09 0.08 0.05 0.04 0.08 0.21 0.31 0.36 0.44 0.40 0.42 0.55 0.50 0.43 0.40 0.34 0.31 0.36 0.40 0.41 0.46 0.43 0.33 0.24 0.22 0.28 0.37 0.51 0.67 0.86 0.98
0.01 0.01 0.01 0.01 0.02 0.02 0.03 0.04 0.06 0.08 0.19 0.27 0.23 0.19 0.12 0.10 0.18 0.35 0.37 0.28 0.31 0.34 0.34 0.41 0.40 0.31 0.23 0.17 0.16 0.18 0.21 0.28 0.35 0.38 0.29 0.20 0.18 0.23 0.31 0.42 0.59 0.74 0.94
0.01 0.02 0.02 0.02 0.03 0.04 0.03 0.04 0.07 0.10 0.26 0.45 0.41 0.39 0.37 0.35 0.44 0.67 0.65 0.54 0.55 0.55 0.55 0.53 0.41 0.30 0.25 0.20 0.15 0.13 0.14 0.20 0.27 0.28 0.27 0.26 0.24 0.25 0.27 0.33 0.53 0.70 0.88
0.03 0.03 0.04 0.04 0.05 0.05 0.06 0.06 0.06 0.08 0.14 0.19 0.23 0.34 0.33 0.44 0.56 0.54 0.51 0.50 0.51 0.53 0.58 0.55 0.37 0.27 0.24 0.22 0.19 0.16 0.14 0.15 0.18 0.22 0.26 0.27 0.28 0.28 0.29 0.32 0.47 0.65 0.75
0.04 0.06 0.07 0.07 0.07 0.08 0.10 0.12 0.11 0.07 0.06 0.07 0.10 0.18 0.27 0.37 0.41 0.40 0.42 0.37 0.34 0.35 0.41 0.33 0.24 0.20 0.19 0.18 0.18 0.18 0.15 0.12 0.15 0.22 0.25 0.26 0.30 0.33 0.35 0.38 0.44 0.57 0.66
0.05 0.07 0.09 0.09 0.10 0.12 0.14 0.15 0.16 0.16 0.12 0.07 0.05 0.09 0.16 0.24 0.29 0.31 0.33 0.31 0.24 0.19 0.21 0.21 0.19 0.16 0.17 0.18 0.17 0.17 0.16 0.15 0.18 0.22 0.24 0.25 0.30 0.39 0.41 0.39 0.43 0.56 0.66
0.05 0.07 0.10 0.11 0.12 0.13 0.14 0.15 0.15 0.15 0.15 0.11 0.08 0.08 0.11 0.14 0.16 0.17 0.19 0.23 0.22 0.17 0.15 0.16 0.16 0.18 0.20 0.19 0.18 0.18 0.19 0.19 0.18 0.21 0.23 0.23 0.28 0.39 0.42 0.36 0.41 0.52 0.72
0.06 0.10 0.13 0.13 0.13 0.13 0.14 0.16 0.18 0.19 0.18 0.16 0.15 0.15 0.20 0.25 0.23 0.17 0.16 0.19 0.21 0.19 0.18 0.19 0.17 0.18 0.20 0.21 0.22 0.21 0.21 0.19 0.18 0.21 0.22 0.24 0.28 0.37 0.41 0.39 0.45 0.55 0.65
0.09 0.10 0.13 0.14 0.14 0.15 0.18 0.22 0.24 0.26 0.26 0.22 0.17 0.16 0.38 0.49 0.35 0.22 0.19 0.20 0.23 0.26 0.25 0.24 0.21 0.19 0.20 0.22 0.25 0.23 0.22 0.19 0.18 0.21 0.24 0.25 0.30 0.37 0.38 0.43 0.47 0.54 0.63
0.12 0.14 0.15 0.17 0.17 0.18 0.23 0.25 0.27 0.28 0.27 0.24 0.17 0.14 0.21 0.23 0.21 0.20 0.19 0.19 0.21 0.24 0.27 0.32 0.28 0.22 0.24 0.29 0.31 0.31 0.26 0.21 0.18 0.23 0.28 0.28 0.32 0.36 0.40 0.46 0.50 0.57 0.65
0.18 0.20 0.19 0.17 0.17 0.21 0.22 0.21 0.23 0.26 0.26 0.23 0.21 0.20 0.18 0.19 0.20 0.21 0.22 0.21 0.23 0.26 0.27 0.31 0.33 0.26 0.22 0.26 0.30 0.37 0.38 0.30 0.26 0.33 0.42 0.41 0.39 0.40 0.44 0.49 0.52 0.58 0.64
0.23 0.23 0.23 0.22 0.21 0.22 0.24 0.25 0.24 0.25 0.26 0.26 0.24 0.22 0.21 0.21 0.20 0.19 0.20 0.21 0.25 0.26 0.28 0.32 0.33 0.29 0.26 0.27 0.30 0.32 0.34 0.39 0.52 0.59 0.57 0.58 0.53 0.46 0.48 0.53 0.53 0.56 0.63
0.23 0.24 0.25 0.26 0.27 0.28 0.28 0.26 0.25 0.25 0.27 0.27 0.26 0.24 0.21 0.21 0.20 0.19 0.19 0.22 0.26 0.26 0.25 0.27 0.30 0.30 0.27 0.26 0.27 0.28 0.32 0.45 0.64 0.88 1.03 0.99 0.79 0.60 0.58 0.59 0.58 0.59 0.64
0.21 0.22 0.24 0.25 0.28 0.31 0.33 0.33 0.30 0.30 0.32 0.30 0.28 0.27 0.26 0.26 0.24 0.23 0.24 0.30 0.35 0.33 0.29 0.27 0.26 0.27 0.27 0.27 0.25 0.27 0.39 0.59 0.76 0.98 1.32 1.46 1.15 0.81 0.68 0.71 0.67 0.67 0.71

GEFSGL_prec_meanprecacc_168.txt.gz
Total_Precipitation_Accumulation
0.02 0.02 0.02 0.03 0.03 0.04 0.05 0.06 0.07 0.08 0.09 0.10 0.10 0.11 0.13 0.15 0.19 0.23 0.27 0.31 0.35 0.36 0.36 0.38 0.40 0.40 0.40 0.37 0.37 0.37 0.40 0.54 0.56 0.19 0.11 0.18 0.29 0.33 0.33 0.30 0.29 0.28 0.26
0.03 0.03 0.04 0.05 0.07 0.09 0.11 0.12 0.13 0.14 0.15 0.15 0.14 0.14 0.14 0.15 0.18 0.20 0.24 0.28 0.35 0.39 0.41 0.44 0.46 0.46 0.48 0.47 0.48 0.47 0.45 0.49 0.59 0.40 0.17 0.17 0.25 0.33 0.38 0.37 0.29 0.26 0.24
0.05 0.05 0.06 0.09 0.12 0.16 0.19 0.20 0.20 0.20 0.20 0.19 0.20 0.20 0.21 0.24 0.28 0.29 0.28 0.30 0.33 0.36 0.38 0.44 0.49 0.54 0.58 0.56 0.56 0.55 0.50 0.45 0.48 0.49 0.30 0.21 0.24 0.31 0.36 0.39 0.36 0.33 0.28
0.09 0.12 0.14 0.18 0.22 0.25 0.26 0.25 0.24 0.23 0.24 0.24 0.25 0.26 0.30 0.38 0.52 0.56 0.45 0.41 0.38 0.38 0.38 0.42 0.48 0.57 0.64 0.70 0.75 0.67 0.59 0.61 0.59 0.57 0.44 0.33 0.30 0.32 0.43 0.47 0.45 0.42 0.41
0.20 0.23 0.24 0.22 0.22 0.22 0.22 0.23 0.24 0.25 0.27 0.26 0.25 0.27 0.33 0.47 0.79 0.83 0.66 0.53 0.47 0.44 0.42 0.44 0.48 0.60 0.78 0.95 1.06 1.00 0.94 0.95 0.87 0.83 0.70 0.53 0.44 0.47 0.54 0.54 0.57 0.51 0.50
0.27 0.27 0.25 0.23 0.22 0.22 0.22 0.23 0.24 0.24 0.22 0.19 0.18 0.22 0.31 0.48 0.87 0.94 0.76 0.54 0.48 0.48 0.48 0.44 0.42 0.49 0.57 0.72 0.93 1.00 1.05 1.12 1.14 1.10 1.01 0.86 0.62 0.55 0.60 0.73 0.83 0.82 0.71
0.28 0.28 0.27 0.25 0.24 0.22 0.21 0.19 0.18 0.17 0.14 0.11 0.10 0.12 0.19 0.36 0.74 0.83 0.70 0.47 0.38 0.40 0.40 0.36 0.35 0.35 0.38 0.38 0.48 0.55 0.64 0.78 0.98 1.13 1.22 1.01 0.78 0.69 0.81 0.98 1.02 1.00 0.81
0.25 0.23 0.19 0.17 0.16 0.15 0.15 0.14 0.12 0.11 0.09 0.07 0.06 0.06 0.08 0.17 0.51 0.74 0.60 0.33 0.28 0.31 0.31 0.34 0.36 0.34 0.33 0.39 0.46 0.47 0.44 0.48 0.67 0.90 1.05 0.96 0.88 0.87 1.01 1.24 1.38 1.44 1.16
0.15 0.12 0.09 0.07 0.08 0.09 0.09 0.08 0.07 0.06 0.05 0.04 0.04 0.04 0.05 0.08 0.31 0.66 0.63 0.29 0.27 0.26 0.28 0.38 0.43 0.40 0.39 0.51 0.64 0.62 0.46 0.38 0.44 0.72 0.98 1.02 1.06 1.24 1.43 1.75 2.00 2.06 1.79
0.07 0.05 0.03 0.02 0.03 0.04 0.04 0.04 0.04 0.04 0.04 0.03 0.03 0.03 0.04 0.05 0.19 0.55 0.76 0.39 0.31 0.26 0.28 0.38 0.58 0.57 0.54 0.58 0.66 0.67 0.61 0.41 0.37 0.42 0.51 0.62 0.69 0.76 1.04 1.41 1.63 1.80 1.79
0.02 0.01 0.01 0.01 0.01 0.02 0.02 0.02 0.03 0.04 0.04 0.04 0.04 0.03 0.03 0.04 0.09 0.35 0.77 0.66 0.46 0.38 0.37 0.44 0.56 0.55 0.55 0.56 0.62 0.63 0.62 0.58 0.56 0.55 0.49 0.44 0.47 0.58 0.73 1.00 1.23 1.43 1.60
0.00 0.01 0.01 0.01 0.01 0.02 0.02 0.03 0.03 0.04 0.05 0.05 0.06 0.05 0.04 0.04 0.08 0.23 0.53 0.69 0.61 0.45 0.42 0.37 0.44 0.47 0.52 0.55 0.53 0.54 0.57 0.62 0.60 0.51 0.42 0.35 0.35 0.43 0.54 0.72 0.96 1.11 1.21
0.01 0.01 0.01 0.01 0.02 0.02 0.03 0.04 0.05 0.05 0.08 0.10 0.10 0.09 0.07 0.06 0.09 0.22 0.33 0.38 0.46 0.41 0.44 0.57 0.51 0.44 0.41 0.35 0.31 0.37 0.40 0.41 0.46 0.43 0.34 0.25 0.24 0.29 0.38 0.52 0.69 0.87 0.99
0.01 0.01 0.02 0.02 0.02 0.03 0.03 0.04 0.06 0.09 0.20 0.28 0.24 0.20 0.14 0.11 0.19 0.36 0.39 0.30 0.34 0.37 0.36 0.43 0.42 0.32 0.24 0.18 0.16 0.18 0.21 0.28 0.36 0.39 0.30 0.22 0.19 0.24 0.32 0.42 0.59 0.75 0.94
0.02 0.02 0.03 0.03 0.03 0.04 0.04 0.05 0.08 0.10 0.27 0.47 0.42 0.40 0.38 0.36 0.45 0.69 0.67 0.57 0.57 0.57 0.57 0.54 0.43 0.31 0.26 0.21 0.16 0.13 0.15 0.21 0.28 0.29 0.28 0.26 0.24 0.25 0.27 0.34 0.53 0.71 0.89
0.04 0.04 0.05 0.05 0.05 0.06 0.07 0.07 0.08 0.10 0.16 0.20 0.24 0.35 0.34 0.45 0.57 0.56 0.53 0.52 0.53 0.55 0.60 0.57 0.38 0.28 0.25 0.22 0.20 0.17 0.15 0.16 0.18 0.23 0.27 0.27 0.28 0.29 0.29 0.32 0.48 0.66 0.76
0.06 0.07 0.09 0.08 0.08 0.10 0.11 0.13 0.12 0.09 0.08 0.09 0.11 0.19 0.28 0.38 0.43 0.42 0.44 0.39 0.36 0.37 0.43 0.34 0.24 0.21 0.19 0.18 0.18 0.18 0.16 0.12 0.16 0.22 0.26 0.27 0.30 0.34 0.35 0.38 0.45 0.57 0.67
0.07 0.09 0.11 0.10 0.11 0.13 0.15 0.16 0.17 0.17 0.14 0.08 0.07 0.11 0.18 0.26 0.31 0.33 0.35 0.33 0.26 0.21 0.22 0.22 0.20 0.18 0.18 0.19 0.18 0.18 0.17 0.16 0.18 0.22 0.24 0.25 0.31 0.40 0.42 0.40 0.44 0.57 0.67
0.08 0.09 0.12 0.13 0.14 0.14 0.16 0.16 0.16 0.16 0.16 0.12 0.10 0.11 0.14 0.17 0.19 0.19 0.22 0.25 0.24 0.19 0.17 0.17 0.18 0.20 0.21 0.21 0.19 0.19 0.20 0.20 0.18 0.21 0.23 0.24 0.29 0.40 0.42 0.37 0.41 0.52 0.73
0.08 0.11 0.15 0.15 0.15 0.15 0.16 0.18 0.19 0.20 0.20 0.18 0.17 0.18 0.23 0.28 0.26 0.19 0.18 0.21 0.22 0.21 0.20 0.21 0.19 0.20 0.22 0.23 0.23 0.22 0.22 0.20 0.18 0.21 0.23 0.24 0.29 0.38 0.42 0.39 0.45 0.56 0.66
0.11 0.12 0.15 0.16 0.16 0.17 0.20 0.24 0.26 0.28 0.29 0.25 0.19 0.18 0.41 0.51 0.37 0.24 0.21 0.21 0.25 0.27 0.27 0.26 0.23 0.21 0.21 0.24 0.26 0.24 0.23 0.20 0.18 0.22 0.25 0.26 0.30 0.38 0.39 0.43 0.48 0.54 0.63
0.15 0.17 0.18 0.19 0.19 0.20 0.25 0.27 0.29 0.31 0.29 0.26 0.20 0.17 0.24 0.26 0.23 0.21 0.20 0.20 0.22 0.26 0.29 0.34 0.30 0.24 0.25 0.30 0.32 0.32 0.27 0.21 0.19 0.24 0.29 0.29 0.32 0.37 0.41 0.46 0.50 0.57 0.65
0.20 0.22 0.21 0.19 0.19 0.23 0.24 0.23 0.26 0.29 0.28 0.26 0.24 0.22 0.20 0.21 0.22 0.23 0.23 0.23 0.25 0.27 0.28 0.33 0.34 0.27 0.23 0.27 0.31 0.38 0.40 0.31 0.27 0.34 0.43 0.42 0.39 0.40 0.45 0.50 0.52 0.59 0.65
0.25 0.25 0.25 0.24 0.23 0.25 0.27 0.27 0.26 0.27 0.28 0.28 0.26 0.24 0.22 0.22 0.22 0.21 0.21 0.22 0.26 0.27 0.29 0.33 0.34 0.30 0.27 0.28 0.31 0.33 0.35 0.40 0.53 0.60 0.58 0.59 0.53 0.47 0.49 0.54 0.54 0.56 0.63
0.26 0.27 0.28 0.28 0.29 0.30 0.31 0.29 0.27 0.28 0.29 0.29 0.28 0.26 0.23 0.23 0.22 0.21 0.21 0.23 0.27 0.28 0.26 0.28 0.31 0.31 0.28 0.27 0.27 0.29 0.33 0.46 0.65 0.89 1.05 1.01 0.80 0.61 0.58 0.60 0.59 0.60 0.65
0.24 0.24 0.26 0.27 0.30 0.33 0.36 0.36 0.32 0.32 0.35 0.33 0.30 0.29 0.29 0.28 0.26 0.24 0.26 0.31 0.35 0.34 0.30 0.28 0.27 0.27 0.28 0.28 0.26 0.28 0.39 0.60 0.77 0.99 1.34 1.48 1.16 0.82 0.69 0.72 0.67 0.68 0.72

GEFSGL_prec_meanprecacc_174.txt.gz
Total_Precipitation_Accumulation
0.02 0.02 0.03 0.04 0.04 0.05 0.05 0.06 0.07 0.08 0.09 0.10 0.10 0.11 0.13 0.16 0.19 0.23 0.27 0.32 0.35 0.36 0.36 0.39 0.40 0.40 0.40 0.38 0.38 0.38 0.41 0.55 0.58 0.20 0.11 0.18 0.29 0.34 0.34 0.31 0.29 0.28 0.26
0.04 0.04 0.05 0.06 0.07 0.10 0.12 0.13 0.14 0.14 0.15 0.15 0.14 0.14 0.14 0.15 0.18 0.21 0.25 0.29 0.35 0.39 0.41 0.45 0.46 0.46 0.48 0.48 0.49 0.47 0.46 0.49 0.60 0.41 0.18 0.17 0.26 0.34 0.38 0.37 0.29 0.26 0.24
0.05 0.06 0.07 0.10 0.13 0.17 0.20 0.20 0.20 0.20 0.20 0.19 0.20 0.20 0.21 0.24 0.28 0.29 0.28 0.30 0.34 0.36 0.38 0.44 0.49 0.55 0.58 0.56 0.57 0.55 0.51 0.45 0.48 0.50 0.30 0.22 0.25 0.31 0.36 0.39 0.36 0.33 0.28
0.10 0.12 0.15 0.19 0.23 0.26 0.26 0.26 0.24 0.24 0.25 0.24 0.25 0.27 0.30 0.38 0.52 0.56 0.45 0.41 0.39 0.38 0.38 0.42 0.48 0.57 0.65 0.71 0.75 0.67 0.59 0.61 0.59 0.58 0.45 0.34 0.30 0.32 0.43 0.47 0.45 0.42 0.41
0.21 0.24 0.25 0.24 0.23 0.23 0.23 0.23 0.24 0.26 0.27 0.26 0.25 0.27 0.33 0.47 0.79 0.83 0.67 0.54 0.47 0.45 0.42 0.44 0.48 0.61 0.78 0.95 1.06 1.00 0.94 0.95 0.88 0.84 0.71 0.54 0.45 0.47 0.54 0.54 0.58 0.51 0.50
0.28 0.28 0.26 0.24 0.23 0.23 0.24 0.24 0.24 0.24 0.22 0.19 0.18 0.22 0.31 0.48 0.87 0.94 0.77 0.54 0.48 0.49 0.49 0.44 0.42 0.49 0.58 0.72 0.93 1.00 1.06 1.13 1.15 1.11 1.02 0.87 0.63 0.55 0.60 0.73 0.83 0.83 0.71
0.28 0.29 0.27 0.25 0.25 0.23 0.22 0.20 0.19 0.18 0.14 0.12 0.10 0.13 0.20 0.37 0.74 0.84 0.70 0.48 0.38 0.40 0.40 0.36 0.35 0.35 0.38 0.38 0.48 0.56 0.64 0.79 0.99 1.14 1.23 1.01 0.79 0.69 0.82 0.99 1.03 1.01 0.81
0.25 0.23 0.20 0.17 0.16 0.16 0.16 0.15 0.13 0.12 0.10 0.08 0.07 0.07 0.09 0.17 0.51 0.74 0.60 0.33 0.29 0.31 0.31 0.34 0.36 0.34 0.33 0.39 0.46 0.48 0.45 0.48 0.67 0.90 1.05 0.96 0.88 0.88 1.02 1.25 1.39 1.44 1.16
0.15 0.12 0.09 0.07 0.08 0.09 0.10 0.10 0.08 0.07 0.06 0.05 0.04 0.05 0.05 0.09 0.31 0.67 0.64 0.29 0.27 0.26 0.29 0.39 0.44 0.40 0.40 0.52 0.65 0.63 0.47 0.39 0.44 0.72 0.98 1.03 1.07 1.24 1.43 1.75 2.01 2.07 1.79
0.07 0.05 0.03 0.02 0.03 0.04 0.04 0.04 0.05 0.05 0.05 0.05 0.04 0.04 0.04 0.05 0.19 0.56 0.77 0.39 0.32 0.26 0.29 0.39 0.58 0.57 0.55 0.59 0.67 0.68 0.62 0.42 0.38 0.43 0.52 0.62 0.69 0.76 1.04 1.41 1.64 1.81 1.80
0.02 0.02 0.01 0.01 0.01 0.02 0.02 0.03 0.04 0.05 0.06 0.06 0.05 0.04 0.04 0.05 0.09 0.36 0.78 0.67 0.47 0.39 0.38 0.44 0.57 0.57 0.57 0.58 0.64 0.64 0.64 0.60 0.58 0.56 0.50 0.45 0.48 0.59 0.73 1.00 1.24 1.44 1.62
0.01 0.01 0.01 0.01 0.02 0.02 0.03 0.04 0.04 0.05 0.06 0.07 0.07 0.06 0.05 0.05 0.09 0.25 0.54 0.71 0.63 0.46 0.43 0.38 0.45 0.49 0.54 0.58 0.56 0.56 0.59 0.64 0.61 0.53 0.44 0.36 0.36 0.43 0.55 0.72 0.97 1.11 1.22
0.02 0.02 0.02 0.02 0.03 0.03 0.04 0.05 0.05 0.06 0.09 0.12 0.12 0.11 0.08 0.07 0.11 0.25 0.35 0.41 0.48 0.42 0.45 0.59 0.54 0.47 0.44 0.38 0.34 0.39 0.42 0.43 0.48 0.45 0.36 0.27 0.25 0.30 0.39 0.53 0.69 0.88 1.00
0.02 0.03 0.03 0.03 0.04 0.04 0.05 0.05 0.07 0.09 0.20 0.29 0.25 0.21 0.16 0.13 0.21 0.39 0.41 0.33 0.36 0.39 0.37 0.45 0.45 0.36 0.28 0.22 0.20 0.21 0.23 0.30 0.38 0.41 0.32 0.23 0.21 0.25 0.33 0.44 0.60 0.75 0.95
0.04 0.04 0.04 0.04 0.05 0.06 0.06 0.07 0.10 0.12 0.28 0.48 0.44 0.42 0.39 0.38 0.47 0.71 0.69 0.59 0.59 0.59 0.58 0.56 0.45 0.34 0.28 0.23 0.18 0.15 0.16 0.22 0.30 0.31 0.29 0.28 0.25 0.26 0.29 0.35 0.54 0.71 0.90
0.06 0.06 0.07 0.07 0.07 0.08 0.09 0.10 0.10 0.12 0.18 0.22 0.26 0.36 0.36 0.47 0.59 0.58 0.55 0.54 0.56 0.58 0.62 0.59 0.40 0.30 0.27 0.24 0.23 0.20 0.17 0.18 0.20 0.25 0.28 0.29 0.30 0.30 0.31 0.33 0.49 0.66 0.76
0.08 0.09 0.11 0.10 0.10 0.12 0.14 0.16 0.15 0.11 0.10 0.10 0.13 0.21 0.30 0.42 0.46 0.45 0.48 0.43 0.40 0.41 0.46 0.38 0.28 0.24 0.22 0.21 0.21 0.21 0.19 0.15 0.18 0.24 0.28 0.29 0.32 0.35 0.37 0.39 0.46 0.58 0.67
0.10 0.11 0.13 0.13 0.14 0.15 0.17 0.18 0.19 0.19 0.15 0.10 0.09 0.13 0.20 0.28 0.34 0.36 0.39 0.38 0.31 0.25 0.26 0.26 0.23 0.20 0.20 0.21 0.20 0.20 0.19 0.18 0.20 0.24 0.26 0.27 0.32 0.41 0.43 0.41 0.45 0.58 0.67
0.10 0.12 0.15 0.17 0.18 0.18 0.19 0.19 0.19 0.18 0.17 0.15 0.13 0.14 0.17 0.20 0.22 0.22 0.25 0.28 0.26 0.21 0.19 0.20 0.20 0.22 0.24 0.23 0.21 0.20 0.21 0.21 0.20 0.23 0.24 0.25 0.30 0.41 0.44 0.38 0.42 0.53 0.73
0.10 0.14 0.18 0.19 0.20 0.20 0.21 0.22 0.23 0.23 0.23 0.21 0.20 0.20 0.26 0.31 0.29 0.22 0.20 0.23 0.25 0.23 0.22 0.24 0.21 0.22 0.24 0.24 0.25 0.24 0.23 0.21 0.20 0.22 0.24 0.26 0.30 0.39 0.43 0.40 0.46 0.56 0.66
0.13 0.15 0.18 0.20 0.21 0.22 0.24 0.28 0.29 0.31 0.31 0.27 0.21 0.21 0.44 0.54 0.40 0.26 0.23 0.24 0.27 0.30 0.29 0.28 0.24 0.22 0.23 0.25 0.27 0.25 0.24 0.21 0.20 0.24 0.27 0.28 0.32 0.40 0.40 0.45 0.49 0.55 0.64
0.18 0.20 0.21 0.22 0.22 0.24 0.29 0.30 0.32 0.34 0.32 0.29 0.23 0.21 0.28 0.29 0.26 0.24 0.23 0.23 0.25 0.28 0.31 0.35 0.32 0.25 0.26 0.31 0.33 0.34 0.29 0.23 0.21 0.25 0.30 0.31 0.34 0.38 0.42 0.48 0.51 0.58 0.66
0.23 0.24 0.24 0.22 0.22 0.26 0.28 0.26 0.28 0.32 0.32 0.29 0.27 0.25 0.24 0.24 0.24 0.25 0.26 0.25 0.27 0.29 0.30 0.34 0.36 0.29 0.24 0.29 0.33 0.40 0.42 0.33 0.28 0.35 0.45 0.43 0.41 0.42 0.46 0.51 0.53 0.60 0.65
0.29 0.29 0.28 0.26 0.26 0.28 0.30 0.30 0.29 0.30 0.32 0.32 0.30 0.27 0.25 0.25 0.24 0.23 0.24 0.25 0.28 0.29 0.30 0.35 0.36 0.32 0.28 0.30 0.33 0.34 0.37 0.42 0.55 0.62 0.60 0.60 0.55 0.48 0.50 0.55 0.55 0.57 0.64
0.30 0.30 0.30 0.31 0.32 0.33 0.34 0.33 0.30 0.31 0.33 0.34 0.32 0.29 0.26 0.25 0.24 0.23 0.23 0.25 0.29 0.29 0.27 0.30 0.33 0.33 0.30 0.28 0.29 0.30 0.34 0.48 0.67 0.92 1.07 1.03 0.82 0.62 0.60 0.62 0.60 0.61 0.66
0.28 0.27 0.28 0.30 0.33 0.36 0.39 0.40 0.36 0.36 0.38 0.36 0.33 0.32 0.31 0.30 0.28 0.26 0.27 0.32 0.37 0.35 0.31 0.29 0.28 0.29 0.29 0.29 0.27 0.29 0.41 0.61 0.79 1.01 1.37 1.51 1.19 0.84 0.71 0.74 0.69 0.69 0.73

GEFSGL_prec_meanprecacc_180.txt.gz
Total_Precipitation_Accumulation
0.03 0.05 0.09 0.13 0.11 0.08 0.07 0.07 0.08 0.09 0.10 0.10 0.10 0.11 0.13 0.16 0.19 0.24 0.28 0.32 0.36 0.36 0.37 0.39 0.41 0.41 0.41 0.39 0.38 0.38 0.41 0.55 0.59 0.21 0.11 0.18 0.29 0.34 0.34 0.31 0.29 0.28 0.26
0.04 0.05 0.07 0.12 0.15 0.16 0.17 0.15 0.15 0.15 0.15 0.15 0.14 0.14 0.14 0.15 0.18 0.21 0.25 0.29 0.35 0.39 0.41 0.45 0.47 0.47 0.49 0.48 0.49 0.48 0.46 0.50 0.61 0.42 0.18 0.17 0.26 0.34 0.38 0.37 0.29 0.26 0.24
0.05 0.06 0.08 0.12 0.17 0.22 0.25 0.26 0.24 0.22 0.21 0.20 0.20 0.20 0.21 0.24 0.28 0.29 0.28 0.31 0.34 0.37 0.39 0.45 0.49 0.55 0.59 0.57 0.57 0.56 0.51 0.46 0.49 0.50 0.31 0.22 0.25 0.31 0.36 0.39 0.36 0.33 0.28
0.10 0.13 0.16 0.20 0.24 0.29 0.30 0.30 0.30 0.28 0.27 0.25 0.25 0.27 0.31 0.38 0.52 0.56 0.46 0.42 0.39 0.38 0.38 0.42 0.49 0.58 0.65 0.71 0.76 0.67 0.60 0.62 0.60 0.58 0.46 0.34 0.31 0.32 0.43 0.47 0.46 0.43 0.41
0.21 0.24 0.25 0.24 0.24 0.25 0.26 0.27 0.29 0.31 0.31 0.28 0.27 0.28 0.33 0.47 0.79 0.83 0.67 0.54 0.47 0.45 0.43 0.45 0.49 0.62 0.80 0.96 1.07 1.01 0.95 0.96 0.89 0.85 0.72 0.55 0.45 0.47 0.55 0.54 0.58 0.51 0.50
0.28 0.28 0.27 0.25 0.24 0.24 0.26 0.27 0.28 0.29 0.26 0.22 0.20 0.23 0.32 0.49 0.88 0.94 0.77 0.55 0.49 0.50 0.50 0.45 0.43 0.50 0.59 0.74 0.95 1.01 1.07 1.14 1.16 1.12 1.02 0.87 0.63 0.55 0.60 0.73 0.83 0.83 0.71
0.29 0.29 0.28 0.26 0.26 0.25 0.24 0.23 0.23 0.22 0.18 0.15 0.12 0.14 0.20 0.37 0.75 0.84 0.71 0.48 0.39 0.41 0.41 0.37 0.35 0.35 0.39 0.39 0.49 0.57 0.65 0.80 1.00 1.15 1.24 1.01 0.79 0.69 0.82 0.99 1.03 1.01 0.82
0.27 0.24 0.20 0.18 0.17 0.17 0.18 0.18 0.16 0.15 0.14 0.12 0.09 0.08 0.09 0.18 0.52 0.76 0.62 0.35 0.30 0.32 0.32 0.34 0.36 0.34 0.34 0.40 0.47 0.49 0.46 0.49 0.68 0.91 1.06 0.96 0.88 0.88 1.03 1.26 1.40 1.45 1.16
0.17 0.14 0.11 0.09 0.09 0.10 0.12 0.12 0.11 0.11 0.10 0.09 0.08 0.08 0.07 0.10 0.33 0.68 0.66 0.31 0.28 0.27 0.29 0.39 0.44 0.41 0.41 0.53 0.66 0.64 0.48 0.39 0.45 0.73 0.99 1.04 1.07 1.25 1.44 1.76 2.02 2.07 1.80
0.09 0.07 0.05 0.04 0.05 0.06 0.06 0.07 0.07 0.08 0.08 0.08 0.08 0.07 0.07 0.07 0.21 0.57 0.79 0.41 0.33 0.28 0.29 0.40 0.60 0.59 0.57 0.61 0.68 0.69 0.64 0.43 0.38 0.44 0.53 0.63 0.70 0.77 1.06 1.43 1.65 1.83 1.81
0.04 0.03 0.03 0.03 0.04 0.04 0.05 0.06 0.06 0.08 0.09 0.09 0.08 0.07 0.07 0.07 0.11 0.38 0.79 0.68 0.49 0.41 0.39 0.46 0.58 0.59 0.59 0.60 0.66 0.65 0.65 0.61 0.59 0.57 0.52 0.47 0.50 0.61 0.75 1.02 1.25 1.46 1.64
0.03 0.03 0.03 0.04 0.04 0.04 0.06 0.07 0.08 0.08 0.09 0.10 0.10 0.10 0.08 0.07 0.11 0.26 0.56 0.72 0.64 0.48 0.44 0.39 0.46 0.51 0.56 0.59 0.57 0.58 0.62 0.66 0.63 0.55 0.46 0.39 0.39 0.46 0.57 0.74 0.98 1.13 1.24
0.03 0.04 0.04 0.05 0.05 0.06 0.07 0.09 0.08 0.08 0.11 0.14 0.15 0.14 0.11 0.10 0.13 0.26 0.37 0.43 0.50 0.44 0.47 0.61 0.55 0.49 0.47 0.40 0.36 0.42 0.45 0.46 0.51 0.49 0.39 0.30 0.28 0.33 0.42 0.56 0.72 0.90 1.02
0.03 0.04 0.05 0.06 0.07 0.07 0.08 0.08 0.09 0.11 0.23 0.31 0.27 0.24 0.18 0.17 0.24 0.41 0.44 0.36 0.39 0.42 0.40 0.47 0.48 0.39 0.31 0.25 0.24 0.25 0.27 0.33 0.42 0.45 0.36 0.27 0.24 0.28 0.36 0.47 0.64 0.79 0.98
0.04 0.05 0.06 0.07 0.08 0.09 0.08 0.08 0.11 0.14 0.30 0.50 0.46 0.44 0.42 0.40 0.50 0.74 0.72 0.62 0.62 0.62 0.61 0.59 0.48 0.37 0.32 0.26 0.22 0.19 0.20 0.26 0.34 0.35 0.34 0.32 0.29 0.30 0.32 0.38 0.57 0.74 0.92
0.07 0.07 0.08 0.09 0.10 0.11 0.12 0.12 0.12 0.14 0.21 0.25 0.29 0.39 0.39 0.50 0.63 0.62 0.58 0.57 0.59 0.61 0.65 0.61 0.43 0.33 0.31 0.29 0.27 0.24 0.22 0.23 0.25 0.30 0.33 0.34 0.35 0.35 0.35 0.37 0.51 0.69 0.78
0.09 0.10 0.13 0.13 0.14 0.15 0.17 0.19 0.17 0.14 0.14 0.14 0.17 0.24 0.34 0.46 0.51 0.50 0.53 0.48 0.46 0.46 0.50 0.41 0.31 0.28 0.27 0.27 0.27 0.27 0.24 0.19 0.22 0.29 0.32 0.33 0.36 0.39 0.40 0.42 0.49 0.61 0.70
0.11 0.13 0.15 0.16 0.18 0.19 0.21 0.22 0.22 0.23 0.20 0.16 0.15 0.19 0.26 0.34 0.39 0.42 0.45 0.45 0.38 0.31 0.31 0.30 0.27 0.25 0.26 0.26 0.25 0.25 0.23 0.22 0.24 0.27 0.29 0.29 0.34 0.43 0.45 0.43 0.46 0.60 0.69
0.11 0.13 0.16 0.19 0.21 0.22 0.24 0.24 0.24 0.24 0.23 0.20 0.19 0.21 0.24 0.26 0.27 0.28 0.30 0.32 0.31 0.26 0.24 0.25 0.25 0.26 0.28 0.27 0.25 0.24 0.24 0.24 0.23 0.25 0.26 0.26 0.31 0.43 0.45 0.39 0.44 0.55 0.75
0.11 0.15 0.19 0.21 0.23 0.24 0.26 0.27 0.28 0.30 0.29 0.26 0.26 0.26 0.32 0.36 0.32 0.26 0.24 0.26 0.28 0.26 0.25 0.27 0.24 0.25 0.27 0.27 0.28 0.27 0.26 0.23 0.22 0.24 0.26 0.27 0.32 0.41 0.45 0.42 0.48 0.58 0.68
0.14 0.16 0.19 0.21 0.23 0.25 0.29 0.33 0.35 0.37 0.38 0.33 0.27 0.26 0.48 0.57 0.42 0.28 0.26 0.26 0.29 0.32 0.31 0.30 0.26 0.25 0.26 0.28 0.30 0.28 0.27 0.23 0.22 0.26 0.29 0.30 0.34 0.41 0.42 0.46 0.51 0.57 0.65
0.19 0.21 0.22 0.24 0.25 0.27 0.33 0.36 0.38 0.39 0.38 0.34 0.27 0.25 0.31 0.31 0.28 0.26 0.25 0.25 0.27 0.30 0.33 0.38 0.34 0.28 0.29 0.34 0.36 0.36 0.31 0.25 0.23 0.28 0.32 0.33 0.36 0.40 0.43 0.49 0.53 0.59 0.67
0.25 0.27 0.26 0.25 0.25 0.30 0.32 0.31 0.35 0.37 0.36 0.33 0.30 0.28 0.26 0.26 0.27 0.28 0.28 0.27 0.29 0.31 0.33 0.37 0.39 0.32 0.27 0.31 0.36 0.42 0.44 0.35 0.31 0.38 0.47 0.45 0.42 0.43 0.47 0.52 0.54 0.61 0.67
0.32 0.32 0.32 0.29 0.29 0.31 0.33 0.33 0.35 0.34 0.35 0.35 0.32 0.30 0.28 0.27 0.26 0.25 0.26 0.27 0.30 0.32 0.33 0.38 0.39 0.35 0.31 0.32 0.35 0.37 0.40 0.45 0.58 0.65 0.62 0.62 0.56 0.49 0.51 0.56 0.56 0.58 0.65
0.32 0.33 0.34 0.34 0.35 0.36 0.38 0.36 0.35 0.35 0.36 0.37 0.35 0.32 0.29 0.28 0.27 0.26 0.26 0.28 0.32 0.32 0.31 0.33 0.36 0.35 0.32 0.30 0.31 0.32 0.37 0.51 0.69 0.94 1.10 1.05 0.84 0.64 0.61 0.63 0.61 0.62 0.67
0.30 0.30 0.31 0.33 0.36 0.39 0.43 0.43 0.41 0.40 0.42 0.40 0.37 0.36 0.34 0.34 0.31 0.29 0.30 0.35 0.40 0.38 0.35 0.32 0.31 0.31 0.31 0.31 0.29 0.31 0.43 0.63 0.81 1.03 1.39 1.53 1.21 0.86 0.73 0.75 0.71 0.71 0.75

GEFSGL_prec_meanprecacc_186.txt.gz
Total_Precipitation_Accumulation
0.05 0.06 0.10 0.14 0.13 0.12 0.11 0.10 0.10 0.11 0.13 0.15 0.15 0.15 0.16 0.17 0.21 0.26 0.30 0.35 0.38 0.39 0.39 0.41 0.42 0.42 0.42 0.40 0.40 0.40 0.43 0.57 0.61 0.21 0.12 0.18 0.29 0.34 0.34 0.31 0.29 0.28 0.26
0.06 0.07 0.08 0.13 0.18 0.20 0.21 0.20 0.18 0.18 0.18 0.19 0.19 0.19 0.18 0.18 0.20 0.23 0.27 0.32 0.38 0.42 0.44 0.47 0.48 0.48 0.50 0.49 0.50 0.49 0.48 0.51 0.63 0.43 0.19 0.18 0.26 0.34 0.38 0.37 0.30 0.27 0.24
0.08 0.08 0.10 0.13 0.19 0.25 0.29 0.31 0.30 0.27 0.25 0.24 0.24 0.24 0.25 0.27 0.30 0.31 0.31 0.34 0.38 0.40 0.42 0.46 0.51 0.57 0.60 0.58 0.59 0.58 0.53 0.48 0.51 0.53 0.32 0.23 0.26 0.31 0.36 0.39 0.36 0.33 0.29
0.14 0.14 0.17 0.21 0.26 0.31 0.33 0.33 0.34 0.33 0.32 0.31 0.30 0.30 0.34 0.41 0.54 0.58 0.48 0.44 0.42 0.42 0.42 0.46 0.51 0.60 0.67 0.73 0.78 0.70 0.63 0.65 0.63 0.61 0.48 0.35 0.32 0.33 0.44 0.48 0.46 0.43 0.42
0.27 0.27 0.27 0.25 0.26 0.26 0.28 0.29 0.31 0.34 0.36 0.35 0.32 0.32 0.36 0.50 0.81 0.85 0.69 0.56 0.50 0.48 0.47 0.49 0.53 0.65 0.82 0.98 1.09 1.03 0.97 0.99 0.92 0.88 0.74 0.56 0.46 0.49 0.55 0.55 0.59 0.52 0.51
0.32 0.31 0.28 0.26 0.25 0.26 0.27 0.29 0.30 0.31 0.30 0.28 0.27 0.28 0.35 0.52 0.91 0.97 0.79 0.58 0.52 0.53 0.53 0.48 0.47 0.53 0.61 0.76 0.96 1.03 1.09 1.16 1.19 1.14 1.05 0.89 0.64 0.57 0.61 0.74 0.84 0.84 0.72
0.31 0.31 0.29 0.27 0.27 0.26 0.25 0.24 0.24 0.23 0.22 0.20 0.20 0.21 0.25 0.40 0.78 0.87 0.74 0.52 0.43 0.45 0.45 0.41 0.39 0.38 0.41 0.40 0.51 0.59 0.68 0.82 1.02 1.16 1.25 1.02 0.80 0.70 0.83 1.01 1.05 1.03 0.83
0.28 0.26 0.22 0.19 0.18 0.18 0.19 0.19 0.17 0.16 0.17 0.16 0.15 0.15 0.15 0.21 0.55 0.79 0.65 0.39 0.34 0.37 0.38 0.39 0.40 0.37 0.36 0.42 0.49 0.51 0.48 0.51 0.69 0.92 1.07 0.97 0.89 0.89 1.05 1.28 1.42 1.47 1.18
0.18 0.15 0.12 0.10 0.10 0.11 0.13 0.13 0.12 0.12 0.12 0.12 0.13 0.13 0.13 0.15 0.36 0.72 0.70 0.35 0.34 0.32 0.35 0.45 0.50 0.44 0.44 0.56 0.69 0.67 0.51 0.41 0.47 0.75 1.00 1.05 1.09 1.27 1.46 1.79 2.04 2.10 1.83
0.11 0.08 0.06 0.05 0.05 0.06 0.07 0.08 0.08 0.10 0.11 0.11 0.12 0.13 0.13 0.12 0.26 0.63 0.84 0.46 0.39 0.33 0.34 0.45 0.67 0.63 0.61 0.65 0.73 0.74 0.68 0.47 0.42 0.47 0.56 0.66 0.72 0.79 1.08 1.45 1.67 1.85 1.85
0.07 0.06 0.05 0.05 0.04 0.05 0.06 0.07 0.08 0.10 0.12 0.13 0.13 0.13 0.14 0.12 0.17 0.43 0.85 0.74 0.53 0.45 0.43 0.49 0.62 0.64 0.63 0.65 0.70 0.70 0.70 0.66 0.63 0.62 0.56 0.51 0.53 0.64 0.78 1.05 1.28 1.49 1.68
0.06 0.06 0.06 0.05 0.05 0.05 0.06 0.08 0.10 0.11 0.12 0.13 0.15 0.15 0.13 0.12 0.16 0.31 0.60 0.77 0.69 0.51 0.48 0.42 0.49 0.54 0.59 0.63 0.61 0.63 0.67 0.71 0.67 0.60 0.51 0.43 0.42 0.49 0.60 0.77 1.02 1.16 1.27
0.05 0.06 0.06 0.06 0.06 0.07 0.09 0.11 0.11 0.11 0.14 0.17 0.18 0.18 0.15 0.13 0.17 0.31 0.41 0.47 0.54 0.48 0.50 0.64 0.58 0.53 0.50 0.43 0.40 0.46 0.49 0.49 0.54 0.52 0.43 0.34 0.31 0.36 0.46 0.60 0.77 0.95 1.07
0.05 0.06 0.07 0.07 0.08 0.08 0.09 0.10 0.11 0.13 0.25 0.34 0.31 0.28 0.22 0.20 0.27 0.45 0.48 0.41 0.44 0.46 0.45 0.52 0.52 0.42 0.35 0.29 0.28 0.29 0.30 0.36 0.45 0.48 0.40 0.32 0.29 0.34 0.42 0.52 0.69 0.83 1.02
0.07 0.07 0.09 0.09 0.10 0.11 0.11 0.12 0.14 0.16 0.33 0.54 0.51 0.49 0.46 0.44 0.53 0.79 0.78 0.67 0.67 0.67 0.66 0.64 0.52 0.41 0.35 0.30 0.25 0.22 0.23 0.30 0.39 0.40 0.40 0.38 0.36 0.37 0.39 0.44 0.62 0.79 0.97
0.09 0.09 0.11 0.12 0.13 0.15 0.16 0.17 0.17 0.18 0.25 0.29 0.33 0.43 0.42 0.53 0.66 0.66 0.63 0.62 0.65 0.67 0.71 0.67 0.48 0.37 0.35 0.32 0.31 0.28 0.26 0.28 0.30 0.35 0.39 0.41 0.42 0.42 0.41 0.42 0.57 0.73 0.82
0.11 0.13 0.15 0.16 0.17 0.20 0.22 0.24 0.21 0.17 0.17 0.17 0.19 0.27 0.36 0.48 0.54 0.54 0.57 0.54 0.52 0.53 0.56 0.47 0.37 0.33 0.31 0.30 0.31 0.31 0.28 0.25 0.28 0.35 0.39 0.40 0.43 0.45 0.46 0.47 0.52 0.64 0.73
0.13 0.15 0.18 0.19 0.22 0.23 0.26 0.27 0.26 0.25 0.23 0.19 0.18 0.22 0.29 0.38 0.44 0.47 0.51 0.51 0.45 0.38 0.38 0.37 0.34 0.30 0.30 0.31 0.30 0.30 0.29 0.28 0.31 0.34 0.35 0.35 0.40 0.48 0.49 0.45 0.49 0.62 0.71
0.14 0.15 0.19 0.23 0.25 0.27 0.29 0.29 0.28 0.27 0.26 0.24 0.23 0.25 0.29 0.33 0.34 0.35 0.36 0.38 0.36 0.32 0.30 0.31 0.30 0.31 0.32 0.31 0.29 0.28 0.29 0.29 0.28 0.29 0.30 0.30 0.34 0.45 0.47 0.41 0.45 0.57 0.77
0.13 0.17 0.22 0.24 0.27 0.28 0.31 0.32 0.32 0.33 0.32 0.30 0.30 0.31 0.38 0.44 0.41 0.33 0.30 0.31 0.32 0.31 0.30 0.31 0.29 0.29 0.31 0.32 0.32 0.30 0.30 0.27 0.25 0.28 0.29 0.30 0.34 0.43 0.46 0.44 0.49 0.60 0.70
0.17 0.19 0.23 0.24 0.26 0.29 0.34 0.38 0.38 0.41 0.42 0.37 0.31 0.31 0.53 0.63 0.49 0.35 0.31 0.32 0.34 0.35 0.35 0.33 0.29 0.27 0.29 0.31 0.33 0.32 0.30 0.28 0.26 0.30 0.33 0.33 0.36 0.43 0.44 0.48 0.53 0.59 0.67
0.22 0.24 0.26 0.27 0.28 0.31 0.37 0.40 0.42 0.44 0.42 0.38 0.33 0.31 0.38 0.37 0.33 0.31 0.30 0.30 0.32 0.34 0.36 0.40 0.36 0.30 0.31 0.36 0.38 0.39 0.34 0.29 0.27 0.32 0.36 0.36 0.38 0.43 0.46 0.52 0.55 0.62 0.70
0.27 0.29 0.29 0.28 0.29 0.35 0.37 0.35 0.39 0.42 0.41 0.38 0.35 0.34 0.32 0.32 0.32 0.32 0.32 0.31 0.33 0.35 0.36 0.40 0.41 0.34 0.29 0.33 0.38 0.45 0.47 0.39 0.34 0.42 0.50 0.49 0.46 0.46 0.50 0.55 0.57 0.64 0.69
0.34 0.34 0.34 0.32 0.32 0.35 0.37 0.37 0.38 0.39 0.40 0.40 0.38 0.35 0.34 0.32 0.31 0.30 0.31 0.31 0.34 0.35 0.37 0.41 0.43 0.38 0.34 0.36 0.38 0.40 0.43 0.48 0.62 0.69 0.66 0.66 0.60 0.52 0.55 0.59 0.59 0.61 0.67
0.34 0.35 0.36 0.37 0.37 0.39 0.40 0.38 0.38 0.39 0.40 0.41 0.40 0.37 0.35 0.33 0.31 0.30 0.31 0.34 0.37 0.37 0.35 0.37 0.40 0.40 0.36 0.34 0.34 0.36 0.40 0.54 0.73 0.98 1.14 1.09 0.87 0.67 0.64 0.66 0.64 0.65 0.69
0.33 0.32 0.33 0.36 0.39 0.42 0.45 0.46 0.44 0.43 0.46 0.44 0.41 0.41 0.40 0.39 0.37 0.35 0.36 0.42 0.47 0.45 0.40 0.38 0.36 0.36 0.35 0.35 0.33 0.34 0.46 0.67 0.84 1.06 1.43 1.57 1.24 0.89 0.75 0.77 0.73 0.73 0.77

GEFSGL_prec_meanprecacc_192.txt.gz
Total_Precipitation_Accumulation
0.08 0.09 0.13 0.19 0.19 0.18 0.18 0.18 0.16 0.16 0.17 0.18 0.18 0.18 0.19 0.21 0.27 0.33 0.35 0.40 0.44 0.44 0.45 0.47 0.48 0.48 0.49 0.47 0.48 0.49 0.51 0.65 0.66 0.24 0.14 0.20 0.32 0.36 0.35 0.33 0.31 0.30 0.27
0.09 0.10 0.12 0.17 0.23 0.26 0.28 0.27 0.26 0.24 0.22 0.22 0.23 0.24 0.22 0.21 0.26 0.30 0.33 0.36 0.42 0.47 0.49 0.53 0.55 0.55 0.57 0.56 0.58 0.57 0.56 0.59 0.69 0.48 0.22 0.21 0.29 0.36 0.41 0.39 0.31 0.28 0.26
0.10 0.11 0.14 0.18 0.24 0.31 0.35 0.38 0.37 0.34 0.32 0.29 0.28 0.29 0.30 0.33 0.36 0.38 0.38 0.40 0.42 0.44 0.46 0.51 0.56 0.62 0.66 0.64 0.65 0.64 0.58 0.53 0.56 0.57 0.37 0.27 0.29 0.34 0.39 0.41 0.38 0.35 0.30
0.17 0.18 0.22 0.28 0.32 0.36 0.39 0.39 0.39 0.40 0.41 0.39 0.37 0.36 0.38 0.47 0.62 0.65 0.54 0.50 0.47 0.46 0.46 0.50 0.56 0.65 0.73 0.80 0.86 0.77 0.69 0.70 0.68 0.67 0.52 0.39 0.35 0.35 0.46 0.50 0.48 0.45 0.44
0.31 0.32 0.31 0.32 0.35 0.34 0.34 0.34 0.36 0.40 0.43 0.43 0.39 0.39 0.42 0.55 0.87 0.92 0.74 0.61 0.55 0.53 0.51 0.52 0.57 0.70 0.88 1.05 1.16 1.11 1.05 1.05 0.98 0.94 0.79 0.61 0.50 0.51 0.58 0.57 0.61 0.54 0.53
0.38 0.39 0.35 0.31 0.32 0.36 0.36 0.34 0.35 0.36 0.35 0.35 0.34 0.36 0.43 0.59 0.97 1.03 0.84 0.62 0.57 0.57 0.56 0.51 0.50 0.57 0.67 0.82 1.03 1.09 1.16 1.24 1.26 1.20 1.10 0.93 0.68 0.59 0.64 0.77 0.88 0.88 0.76
0.37 0.40 0.38 0.33 0.32 0.34 0.35 0.31 0.30 0.28 0.27 0.26 0.26 0.28 0.33 0.49 0.86 0.94 0.80 0.56 0.48 0.49 0.49 0.44 0.43 0.43 0.47 0.47 0.58 0.66 0.74 0.90 1.10 1.23 1.30 1.06 0.83 0.73 0.87 1.05 1.08 1.06 0.86
0.32 0.32 0.32 0.25 0.22 0.24 0.27 0.25 0.23 0.22 0.23 0.23 0.22 0.22 0.21 0.28 0.63 0.86 0.72 0.45 0.40 0.41 0.41 0.43 0.44 0.42 0.42 0.48 0.56 0.58 0.55 0.58 0.76 0.98 1.12 1.01 0.93 0.93 1.08 1.32 1.45 1.50 1.20
0.22 0.20 0.21 0.17 0.13 0.15 0.18 0.18 0.17 0.17 0.17 0.18 0.21 0.21 0.19 0.20 0.42 0.78 0.77 0.42 0.40 0.37 0.39 0.50 0.55 0.50 0.51 0.63 0.75 0.73 0.58 0.49 0.54 0.80 1.05 1.10 1.14 1.32 1.51 1.83 2.08 2.14 1.86
0.13 0.12 0.16 0.13 0.09 0.09 0.11 0.11 0.12 0.13 0.15 0.16 0.18 0.22 0.21 0.18 0.32 0.69 0.91 0.54 0.46 0.39 0.39 0.51 0.73 0.70 0.68 0.72 0.78 0.80 0.75 0.54 0.48 0.52 0.61 0.70 0.76 0.84 1.13 1.49 1.72 1.90 1.89
0.08 0.09 0.14 0.14 0.08 0.06 0.08 0.09 0.11 0.13 0.16 0.17 0.17 0.19 0.22 0.20 0.24 0.51 0.94 0.83 0.62 0.52 0.49 0.54 0.67 0.71 0.70 0.71 0.76 0.76 0.76 0.71 0.69 0.67 0.61 0.55 0.57 0.68 0.83 1.09 1.32 1.53 1.71
0.07 0.09 0.12 0.15 0.10 0.07 0.08 0.10 0.11 0.13 0.17 0.18 0.19 0.20 0.20 0.20 0.24 0.40 0.70 0.87 0.78 0.58 0.53 0.46 0.53 0.60 0.66 0.68 0.67 0.69 0.72 0.75 0.71 0.65 0.55 0.47 0.47 0.54 0.65 0.82 1.06 1.20 1.30
0.06 0.09 0.10 0.13 0.12 0.11 0.11 0.12 0.12 0.13 0.18 0.23 0.23 0.24 0.21 0.20 0.25 0.39 0.49 0.54 0.61 0.55 0.56 0.70 0.64 0.58 0.55 0.50 0.46 0.52 0.55 0.53 0.58 0.56 0.47 0.37 0.34 0.40 0.50 0.65 0.81 0.99 1.11
0.06 0.09 0.11 0.12 0.14 0.12 0.11 0.12 0.13 0.15 0.28 0.38 0.36 0.32 0.26 0.24 0.32 0.51 0.54 0.46 0.50 0.53 0.52 0.61 0.59 0.49 0.41 0.36 0.34 0.34 0.34 0.40 0.48 0.52 0.43 0.35 0.32 0.37 0.46 0.57 0.74 0.88 1.08
0.08 0.10 0.12 0.13 0.13 0.15 0.14 0.14 0.17 0.18 0.36 0.58 0.55 0.55 0.52 0.49 0.58 0.84 0.82 0.71 0.71 0.71 0.72 0.71 0.60 0.47 0.42 0.36 0.32 0.28 0.28 0.35 0.43 0.44 0.44 0.42 0.40 0.41 0.44 0.49 0.67 0.84 1.02
0.11 0.12 0.14 0.16 0.16 0.18 0.19 0.20 0.20 0.21 0.28 0.32 0.37 0.48 0.47 0.59 0.71 0.70 0.66 0.65 0.68 0.71 0.75 0.72 0.54 0.43 0.40 0.37 0.37 0.34 0.30 0.32 0.34 0.38 0.43 0.45 0.46 0.47 0.46 0.48 0.62 0.79 0.88
0.15 0.17 0.19 0.20 0.21 0.23 0.26 0.27 0.25 0.22 0.21 0.21 0.23 0.31 0.40 0.53 0.58 0.57 0.60 0.57 0.55 0.57 0.61 0.51 0.41 0.37 0.36 0.35 0.35 0.35 0.32 0.27 0.31 0.38 0.43 0.44 0.48 0.51 0.51 0.53 0.58 0.69 0.77
0.19 0.20 0.22 0.23 0.25 0.26 0.28 0.29 0.28 0.28 0.26 0.22 0.21 0.25 0.34 0.42 0.48 0.51 0.55 0.55 0.49 0.43 0.42 0.41 0.38 0.35 0.35 0.35 0.33 0.33 0.32 0.31 0.33 0.37 0.38 0.39 0.44 0.51 0.52 0.49 0.52 0.65 0.74
0.19 0.20 0.22 0.26 0.28 0.29 0.32 0.32 0.30 0.29 0.28 0.26 0.26 0.29 0.34 0.38 0.40 0.40 0.41 0.42 0.41 0.37 0.35 0.35 0.35 0.36 0.37 0.35 0.33 0.31 0.32 0.32 0.31 0.33 0.34 0.34 0.38 0.49 0.50 0.44 0.48 0.59 0.80
0.17 0.21 0.25 0.27 0.30 0.31 0.33 0.35 0.35 0.35 0.34 0.32 0.33 0.35 0.42 0.48 0.45 0.39 0.35 0.35 0.36 0.35 0.35 0.36 0.33 0.34 0.36 0.37 0.37 0.35 0.35 0.32 0.30 0.32 0.34 0.35 0.38 0.47 0.50 0.47 0.52 0.63 0.73
0.21 0.23 0.27 0.28 0.29 0.32 0.36 0.40 0.41 0.43 0.44 0.40 0.34 0.35 0.58 0.67 0.53 0.39 0.36 0.36 0.38 0.40 0.39 0.37 0.34 0.32 0.34 0.36 0.38 0.37 0.35 0.33 0.31 0.36 0.39 0.38 0.41 0.47 0.47 0.51 0.56 0.62 0.71
0.26 0.28 0.29 0.30 0.31 0.34 0.40 0.42 0.44 0.46 0.44 0.41 0.35 0.34 0.41 0.40 0.36 0.34 0.34 0.34 0.36 0.39 0.40 0.44 0.41 0.34 0.35 0.40 0.42 0.43 0.39 0.34 0.33 0.39 0.44 0.42 0.44 0.48 0.51 0.56 0.60 0.66 0.74
0.31 0.33 0.32 0.30 0.31 0.37 0.40 0.38 0.41 0.44 0.43 0.40 0.38 0.37 0.36 0.35 0.35 0.36 0.37 0.35 0.37 0.40 0.41 0.45 0.46 0.38 0.33 0.37 0.42 0.49 0.51 0.42 0.38 0.47 0.57 0.56 0.52 0.53 0.56 0.60 0.61 0.68 0.73
0.37 0.37 0.37 0.35 0.34 0.37 0.39 0.39 0.41 0.41 0.43 0.42 0.40 0.39 0.38 0.36 0.34 0.33 0.35 0.36 0.38 0.39 0.41 0.46 0.47 0.43 0.38 0.40 0.42 0.44 0.46 0.52 0.66 0.75 0.72 0.73 0.66 0.58 0.60 0.65 0.64 0.65 0.71
0.37 0.38 0.39 0.40 0.40 0.41 0.43 0.41 0.40 0.42 0.43 0.43 0.43 0.41 0.38 0.36 0.34 0.33 0.34 0.38 0.42 0.42 0.40 0.42 0.45 0.45 0.41 0.39 0.38 0.40 0.45 0.60 0.79 1.05 1.21 1.16 0.93 0.73 0.70 0.71 0.69 0.69 0.74
0.36 0.35 0.36 0.39 0.42 0.46 0.49 0.49 0.47 0.47 0.49 0.47 0.44 0.44 0.43 0.42 0.39 0.38 0.40 0.47 0.53 0.51 0.46 0.44 0.42 0.42 0.42 0.41 0.39 0.41 0.53 0.73 0.91 1.12 1.49 1.63 1.29 0.93 0.80 0.82 0.77 0.77 0.81

GEFSGL_prec_meanprecacc_198.txt.gz
Total_Precipitation_Accumulation
0.10 0.12 0.16 0.22 0.22 0.21 0.21 0.21 0.21 0.24 0.28 0.32 0.30 0.28 0.28 0.30 0.36 0.40 0.41 0.43 0.47 0.47 0.47 0.50 0.50 0.51 0.52 0.51 0.52 0.54 0.58 0.73 0.75 0.30 0.19 0.25 0.36 0.41 0.41 0.37 0.35 0.34 0.32
0.11 0.13 0.15 0.20 0.27 0.29 0.30 0.30 0.30 0.31 0.32 0.34 0.36 0.35 0.30 0.28 0.32 0.38 0.41 0.42 0.47 0.50 0.52 0.56 0.58 0.59 0.61 0.61 0.63 0.63 0.62 0.67 0.78 0.56 0.29 0.27 0.35 0.42 0.46 0.45 0.37 0.33 0.30
0.11 0.14 0.17 0.21 0.28 0.35 0.39 0.41 0.40 0.39 0.41 0.39 0.39 0.41 0.40 0.40 0.42 0.44 0.45 0.47 0.48 0.49 0.50 0.55 0.60 0.66 0.70 0.68 0.68 0.68 0.63 0.58 0.62 0.64 0.42 0.32 0.34 0.40 0.45 0.47 0.44 0.41 0.36
0.17 0.19 0.25 0.31 0.34 0.39 0.43 0.44 0.45 0.46 0.47 0.48 0.47 0.46 0.48 0.54 0.67 0.70 0.60 0.58 0.55 0.52 0.51 0.55 0.61 0.70 0.78 0.84 0.90 0.81 0.73 0.75 0.74 0.73 0.59 0.45 0.42 0.42 0.53 0.57 0.55 0.51 0.49
0.31 0.33 0.33 0.34 0.38 0.37 0.37 0.39 0.42 0.47 0.49 0.50 0.48 0.49 0.51 0.63 0.93 0.96 0.80 0.69 0.63 0.60 0.56 0.57 0.62 0.76 0.95 1.12 1.22 1.16 1.10 1.12 1.05 1.01 0.86 0.67 0.56 0.58 0.65 0.64 0.67 0.59 0.57
0.39 0.40 0.37 0.33 0.34 0.38 0.39 0.38 0.40 0.44 0.43 0.43 0.43 0.44 0.51 0.66 1.03 1.07 0.89 0.67 0.63 0.64 0.63 0.57 0.55 0.63 0.73 0.88 1.09 1.15 1.23 1.32 1.35 1.29 1.18 1.01 0.75 0.66 0.70 0.83 0.94 0.94 0.81
0.39 0.41 0.41 0.35 0.33 0.35 0.37 0.35 0.34 0.34 0.34 0.33 0.34 0.35 0.38 0.54 0.91 0.99 0.85 0.61 0.53 0.54 0.55 0.51 0.51 0.50 0.54 0.52 0.63 0.71 0.80 0.96 1.17 1.31 1.38 1.13 0.89 0.79 0.93 1.11 1.15 1.12 0.91
0.35 0.34 0.34 0.27 0.24 0.26 0.30 0.28 0.27 0.26 0.29 0.31 0.31 0.29 0.27 0.33 0.68 0.92 0.79 0.50 0.45 0.47 0.47 0.49 0.52 0.50 0.49 0.53 0.60 0.63 0.59 0.62 0.82 1.04 1.19 1.07 0.98 0.98 1.14 1.38 1.53 1.57 1.26
0.24 0.22 0.23 0.18 0.15 0.18 0.22 0.22 0.21 0.21 0.23 0.25 0.28 0.29 0.27 0.28 0.49 0.86 0.86 0.50 0.46 0.43 0.45 0.56 0.63 0.57 0.58 0.70 0.81 0.79 0.63 0.54 0.59 0.86 1.10 1.15 1.19 1.37 1.56 1.89 2.15 2.21 1.92
0.15 0.14 0.17 0.15 0.12 0.13 0.16 0.17 0.18 0.19 0.21 0.22 0.24 0.30 0.30 0.27 0.40 0.78 1.01 0.63 0.54 0.46 0.47 0.59 0.82 0.78 0.75 0.79 0.85 0.87 0.82 0.60 0.53 0.57 0.66 0.75 0.80 0.87 1.18 1.54 1.77 1.96 1.95
0.10 0.11 0.16 0.16 0.11 0.10 0.12 0.13 0.16 0.19 0.21 0.22 0.23 0.24 0.28 0.27 0.32 0.60 1.04 0.92 0.70 0.60 0.57 0.63 0.76 0.80 0.79 0.79 0.84 0.84 0.84 0.78 0.75 0.73 0.67 0.61 0.63 0.74 0.89 1.15 1.38 1.59 1.77
0.08 0.10 0.13 0.18 0.13 0.10 0.11 0.13 0.14 0.18 0.22 0.23 0.23 0.24 0.24 0.26 0.31 0.48 0.80 0.98 0.89 0.68 0.62 0.55 0.62 0.69 0.75 0.77 0.75 0.77 0.80 0.82 0.78 0.72 0.62 0.54 0.53 0.60 0.71 0.87 1.12 1.26 1.35
0.07 0.10 0.13 0.17 0.15 0.13 0.14 0.15 0.14 0.16 0.22 0.27 0.28 0.28 0.25 0.25 0.31 0.47 0.59 0.66 0.74 0.67 0.66 0.78 0.72 0.66 0.63 0.57 0.53 0.59 0.62 0.59 0.64 0.63 0.53 0.42 0.40 0.46 0.56 0.71 0.87 1.05 1.16
0.07 0.10 0.14 0.17 0.18 0.16 0.15 0.15 0.15 0.18 0.31 0.41 0.40 0.37 0.31 0.30 0.38 0.58 0.62 0.55 0.60 0.64 0.62 0.69 0.66 0.55 0.47 0.42 0.40 0.40 0.40 0.46 0.55 0.58 0.50 0.41 0.37 0.43 0.52 0.63 0.80 0.95 1.14
0.09 0.11 0.16 0.19 0.20 0.20 0.17 0.17 0.20 0.20 0.39 0.62 0.60 0.60 0.58 0.55 0.64 0.90 0.90 0.79 0.79 0.80 0.80 0.77 0.65 0.52 0.45 0.40 0.35 0.32 0.32 0.40 0.48 0.49 0.50 0.49 0.47 0.49 0.52 0.57 0.74 0.90 1.08
0.13 0.14 0.17 0.21 0.22 0.23 0.22 0.22 0.23 0.24 0.32 0.37 0.42 0.53 0.53 0.65 0.77 0.77 0.74 0.73 0.76 0.80 0.82 0.77 0.58 0.47 0.43 0.40 0.39 0.37 0.33 0.35 0.38 0.43 0.48 0.51 0.52 0.53 0.53 0.55 0.69 0.85 0.94
0.16 0.19 0.22 0.23 0.25 0.27 0.29 0.30 0.28 0.25 0.25 0.26 0.29 0.36 0.46 0.59 0.65 0.65 0.69 0.64 0.64 0.66 0.67 0.56 0.46 0.42 0.40 0.38 0.37 0.37 0.34 0.31 0.35 0.43 0.48 0.50 0.53 0.55 0.55 0.57 0.62 0.73 0.81
0.20 0.22 0.25 0.26 0.28 0.30 0.32 0.32 0.31 0.31 0.30 0.28 0.28 0.32 0.40 0.48 0.54 0.58 0.62 0.61 0.57 0.51 0.48 0.47 0.44 0.40 0.39 0.38 0.37 0.36 0.36 0.35 0.38 0.42 0.43 0.44 0.48 0.55 0.56 0.52 0.55 0.68 0.78
0.21 0.22 0.25 0.28 0.31 0.33 0.35 0.35 0.33 0.32 0.32 0.32 0.32 0.35 0.41 0.44 0.46 0.47 0.46 0.47 0.48 0.43 0.41 0.41 0.41 0.42 0.41 0.39 0.37 0.36 0.37 0.38 0.36 0.38 0.39 0.39 0.43 0.54 0.56 0.49 0.53 0.64 0.84
0.20 0.24 0.29 0.30 0.33 0.34 0.37 0.38 0.38 0.38 0.38 0.37 0.38 0.40 0.48 0.54 0.51 0.45 0.40 0.40 0.42 0.41 0.40 0.41 0.38 0.39 0.42 0.42 0.42 0.40 0.40 0.37 0.35 0.36 0.38 0.39 0.43 0.52 0.54 0.51 0.57 0.67 0.77
0.23 0.26 0.30 0.30 0.31 0.34 0.39 0.43 0.44 0.46 0.47 0.44 0.39 0.40 0.62 0.71 0.58 0.44 0.40 0.41 0.43 0.45 0.44 0.42 0.38 0.37 0.39 0.42 0.44 0.43 0.41 0.38 0.36 0.40 0.43 0.42 0.45 0.52 0.51 0.55 0.60 0.66 0.75
0.29 0.31 0.32 0.33 0.33 0.36 0.42 0.44 0.46 0.48 0.48 0.45 0.41 0.38 0.44 0.43 0.40 0.38 0.38 0.39 0.40 0.43 0.45 0.48 0.45 0.38 0.39 0.45 0.49 0.50 0.45 0.39 0.37 0.43 0.48 0.47 0.48 0.52 0.55 0.60 0.64 0.70 0.78
0.34 0.36 0.35 0.33 0.33 0.40 0.42 0.40 0.43 0.46 0.46 0.44 0.41 0.40 0.38 0.37 0.38 0.39 0.40 0.39 0.40 0.43 0.44 0.48 0.50 0.43 0.38 0.42 0.47 0.54 0.56 0.47 0.43 0.51 0.61 0.60 0.57 0.57 0.60 0.64 0.65 0.71 0.76
0.39 0.40 0.39 0.37 0.36 0.39 0.41 0.41 0.42 0.43 0.45 0.45 0.43 0.42 0.40 0.39 0.37 0.36 0.38 0.39 0.41 0.43 0.45 0.49 0.50 0.46 0.42 0.43 0.46 0.48 0.50 0.55 0.69 0.79 0.76 0.77 0.70 0.62 0.64 0.68 0.67 0.68 0.74
0.39 0.40 0.41 0.41 0.42 0.43 0.44 0.42 0.42 0.44 0.46 0.46 0.45 0.43 0.41 0.39 0.37 0.36 0.37 0.41 0.45 0.46 0.44 0.46 0.48 0.48 0.45 0.42 0.42 0.43 0.49 0.64 0.83 1.09 1.25 1.20 0.97 0.76 0.73 0.74 0.72 0.72 0.77
0.38 0.37 0.38 0.40 0.44 0.47 0.51 0.51 0.49 0.49 0.52 0.49 0.46 0.46 0.46 0.45 0.42 0.40 0.42 0.49 0.56 0.55 0.51 0.48 0.46 0.46 0.46 0.45 0.42 0.45 0.57 0.77 0.95 1.16 1.53 1.66 1.33 0.97 0.83 0.85 0.80 0.80 0.85

GEFSGL_prec_meanprecacc_204.txt.gz
Total_Precipitation_Accumulation
0.11 0.12 0.16 0.22 0.24 0.25 0.25 0.24 0.25 0.28 0.31 0.34 0.31 0.30 0.32 0.37 0.45 0.51 0.52 0.55 0.58 0.58 0.58 0.58 0.58 0.57 0.58 0.56 0.56 0.57 0.61 0.77 0.79 0.32 0.19 0.26 0.38 0.43 0.43 0.40 0.39 0.39 0.38
0.12 0.14 0.15 0.21 0.27 0.31 0.33 0.34 0.35 0.36 0.36 0.37 0.38 0.37 0.33 0.32 0.38 0.45 0.50 0.52 0.57 0.60 0.62 0.65 0.66 0.67 0.68 0.67 0.68 0.66 0.65 0.69 0.81 0.57 0.30 0.28 0.36 0.43 0.48 0.48 0.41 0.38 0.36
0.12 0.15 0.18 0.22 0.28 0.36 0.40 0.43 0.42 0.43 0.45 0.44 0.42 0.44 0.43 0.43 0.46 0.48 0.51 0.54 0.55 0.56 0.58 0.63 0.67 0.73 0.77 0.74 0.74 0.72 0.66 0.60 0.65 0.66 0.44 0.33 0.36 0.42 0.48 0.51 0.49 0.47 0.43
0.18 0.20 0.26 0.33 0.36 0.41 0.45 0.46 0.47 0.48 0.50 0.52 0.51 0.49 0.52 0.59 0.72 0.75 0.65 0.63 0.61 0.58 0.57 0.62 0.68 0.78 0.87 0.93 0.98 0.87 0.78 0.79 0.78 0.78 0.64 0.49 0.45 0.46 0.58 0.62 0.60 0.57 0.55
0.31 0.34 0.34 0.35 0.39 0.39 0.40 0.43 0.46 0.50 0.52 0.53 0.52 0.53 0.55 0.67 0.98 1.02 0.85 0.74 0.68 0.65 0.62 0.63 0.67 0.82 1.01 1.20 1.31 1.25 1.18 1.19 1.12 1.08 0.92 0.73 0.62 0.64 0.70 0.68 0.72 0.64 0.63
0.40 0.41 0.39 0.36 0.36 0.40 0.40 0.40 0.43 0.47 0.47 0.46 0.47 0.48 0.57 0.71 1.08 1.13 0.94 0.73 0.69 0.69 0.69 0.63 0.60 0.68 0.79 0.95 1.16 1.24 1.32 1.40 1.42 1.35 1.24 1.07 0.80 0.71 0.75 0.88 0.99 0.99 0.86
0.41 0.44 0.44 0.40 0.35 0.37 0.39 0.36 0.36 0.36 0.37 0.37 0.38 0.39 0.44 0.60 0.96 1.04 0.90 0.67 0.59 0.60 0.60 0.57 0.55 0.54 0.58 0.57 0.69 0.78 0.88 1.04 1.25 1.39 1.46 1.19 0.95 0.84 0.98 1.17 1.21 1.18 0.96
0.38 0.38 0.39 0.34 0.28 0.28 0.32 0.30 0.28 0.28 0.32 0.35 0.35 0.34 0.32 0.38 0.74 0.99 0.86 0.57 0.51 0.52 0.51 0.53 0.55 0.53 0.52 0.58 0.66 0.69 0.65 0.68 0.88 1.11 1.26 1.13 1.03 1.03 1.19 1.44 1.59 1.64 1.33
0.27 0.24 0.26 0.22 0.20 0.22 0.26 0.24 0.23 0.23 0.26 0.30 0.33 0.36 0.35 0.34 0.57 0.94 0.95 0.58 0.54 0.50 0.50 0.61 0.66 0.60 0.62 0.75 0.87 0.85 0.69 0.59 0.64 0.91 1.16 1.20 1.24 1.42 1.62 1.95 2.22 2.29 1.99
0.19 0.17 0.20 0.17 0.15 0.17 0.22 0.21 0.22 0.22 0.25 0.28 0.31 0.38 0.38 0.35 0.49 0.87 1.10 0.71 0.61 0.53 0.53 0.64 0.87 0.84 0.81 0.85 0.91 0.93 0.89 0.67 0.59 0.63 0.72 0.81 0.86 0.93 1.25 1.60 1.83 2.04 2.02
0.13 0.14 0.19 0.19 0.15 0.14 0.17 0.20 0.21 0.23 0.26 0.27 0.29 0.33 0.37 0.34 0.40 0.69 1.13 1.00 0.77 0.66 0.64 0.69 0.81 0.85 0.84 0.86 0.92 0.91 0.93 0.87 0.84 0.82 0.76 0.69 0.71 0.82 0.96 1.21 1.44 1.66 1.85
0.11 0.13 0.18 0.23 0.18 0.15 0.16 0.18 0.19 0.21 0.26 0.27 0.29 0.31 0.33 0.34 0.39 0.56 0.89 1.07 0.96 0.75 0.70 0.63 0.70 0.76 0.81 0.84 0.83 0.86 0.90 0.91 0.88 0.83 0.75 0.67 0.65 0.71 0.79 0.95 1.19 1.33 1.43
0.10 0.14 0.18 0.22 0.19 0.17 0.19 0.19 0.18 0.20 0.26 0.31 0.32 0.34 0.32 0.34 0.40 0.55 0.67 0.74 0.83 0.76 0.74 0.87 0.81 0.76 0.73 0.67 0.63 0.70 0.72 0.70 0.74 0.73 0.62 0.51 0.49 0.55 0.66 0.81 0.98 1.15 1.27
0.10 0.14 0.19 0.21 0.21 0.20 0.19 0.19 0.19 0.22 0.36 0.46 0.44 0.42 0.37 0.37 0.47 0.66 0.71 0.64 0.69 0.72 0.72 0.79 0.77 0.66 0.57 0.52 0.51 0.52 0.52 0.57 0.66 0.68 0.58 0.49 0.45 0.51 0.62 0.74 0.91 1.06 1.26
0.11 0.15 0.20 0.23 0.23 0.24 0.21 0.21 0.23 0.25 0.45 0.68 0.64 0.65 0.64 0.62 0.72 0.99 0.99 0.88 0.88 0.89 0.89 0.87 0.76 0.62 0.55 0.49 0.44 0.40 0.41 0.48 0.56 0.57 0.58 0.58 0.55 0.57 0.60 0.65 0.83 0.99 1.17
0.15 0.17 0.21 0.25 0.26 0.26 0.26 0.26 0.26 0.28 0.36 0.42 0.46 0.57 0.58 0.71 0.84 0.83 0.82 0.82 0.86 0.88 0.89 0.84 0.67 0.56 0.50 0.47 0.45 0.43 0.39 0.41 0.43 0.49 0.55 0.58 0.60 0.61 0.61 0.62 0.76 0.92 1.01
0.19 0.22 0.26 0.27 0.29 0.30 0.31 0.32 0.31 0.28 0.28 0.30 0.33 0.40 0.50 0.64 0.70 0.71 0.77 0.73 0.72 0.74 0.73 0.62 0.54 0.51 0.47 0.45 0.44 0.42 0.39 0.35 0.39 0.49 0.55 0.57 0.60 0.63 0.63 0.64 0.68 0.79 0.87
0.23 0.26 0.29 0.31 0.32 0.33 0.35 0.34 0.33 0.33 0.32 0.32 0.32 0.35 0.43 0.52 0.59 0.64 0.72 0.70 0.65 0.59 0.56 0.53 0.50 0.48 0.46 0.44 0.43 0.43 0.41 0.39 0.42 0.46 0.48 0.49 0.54 0.62 0.62 0.58 0.60 0.73 0.82
0.23 0.25 0.29 0.32 0.34 0.35 0.37 0.37 0.36 0.34 0.34 0.35 0.35 0.38 0.44 0.47 0.51 0.55 0.55 0.54 0.55 0.52 0.49 0.48 0.47 0.49 0.48 0.45 0.42 0.41 0.42 0.43 0.41 0.42 0.43 0.43 0.47 0.57 0.60 0.53 0.56 0.68 0.88
0.22 0.27 0.32 0.33 0.35 0.36 0.39 0.40 0.40 0.40 0.40 0.39 0.41 0.45 0.52 0.58 0.58 0.52 0.46 0.45 0.48 0.49 0.47 0.48 0.46 0.47 0.49 0.48 0.47 0.45 0.45 0.43 0.41 0.42 0.42 0.43 0.46 0.54 0.57 0.54 0.59 0.70 0.80
0.25 0.28 0.32 0.33 0.34 0.37 0.41 0.45 0.46 0.48 0.49 0.46 0.42 0.43 0.66 0.78 0.66 0.50 0.46 0.46 0.49 0.53 0.52 0.49 0.44 0.43 0.46 0.49 0.51 0.49 0.46 0.43 0.42 0.46 0.47 0.46 0.49 0.55 0.54 0.57 0.62 0.69 0.78
0.30 0.33 0.34 0.35 0.36 0.39 0.45 0.47 0.48 0.50 0.50 0.47 0.43 0.41 0.47 0.48 0.46 0.44 0.44 0.44 0.47 0.50 0.53 0.55 0.50 0.43 0.45 0.51 0.55 0.56 0.51 0.44 0.41 0.47 0.52 0.51 0.53 0.56 0.57 0.62 0.65 0.72 0.80
0.36 0.38 0.37 0.36 0.37 0.43 0.44 0.42 0.45 0.48 0.48 0.46 0.44 0.42 0.41 0.41 0.42 0.44 0.46 0.44 0.46 0.50 0.51 0.54 0.54 0.47 0.43 0.47 0.53 0.60 0.62 0.52 0.47 0.55 0.65 0.63 0.60 0.59 0.62 0.65 0.67 0.73 0.78
0.42 0.43 0.42 0.39 0.39 0.42 0.43 0.43 0.44 0.45 0.47 0.47 0.45 0.44 0.44 0.42 0.40 0.40 0.42 0.44 0.46 0.48 0.50 0.53 0.54 0.50 0.46 0.48 0.51 0.52 0.55 0.61 0.76 0.85 0.81 0.81 0.73 0.65 0.66 0.70 0.68 0.70 0.76
0.41 0.43 0.43 0.44 0.45 0.46 0.48 0.46 0.45 0.46 0.47 0.48 0.47 0.45 0.43 0.42 0.40 0.38 0.40 0.45 0.49 0.50 0.48 0.49 0.51 0.51 0.49 0.47 0.46 0.47 0.54 0.70 0.89 1.15 1.31 1.24 1.01 0.80 0.76 0.77 0.74 0.74 0.79
0.39 0.38 0.40 0.43 0.46 0.50 0.53 0.53 0.51 0.50 0.53 0.51 0.48 0.48 0.48 0.47 0.44 0.42 0.45 0.53 0.59 0.58 0.54 0.52 0.49 0.48 0.49 0.48 0.46 0.49 0.62 0.82 1.01 1.22 1.57 1.70 1.36 1.00 0.86 0.88 0.83 0.83 0.87

GEFSGL_prec_meanprecacc_210.txt.gz
Total_Precipitation_Accumulation
0.13 0.14 0.17 0.23 0.25 0.27 0.28 0.28 0.29 0.32 0.37 0.38 0.34 0.33 0.34 0.40 0.47 0.53 0.54 0.57 0.61 0.62 0.63 0.66 0.65 0.65 0.67 0.66 0.67 0.67 0.69 0.85 0.86 0.37 0.24 0.30 0.41 0.46 0.45 0.42 0.40 0.40 0.40
0.15 0.16 0.17 0.22 0.29 0.33 0.36 0.36 0.37 0.39 0.41 0.43 0.44 0.42 0.36 0.35 0.41 0.48 0.52 0.54 0.59 0.63 0.66 0.71 0.73 0.74 0.77 0.77 0.80 0.78 0.75 0.77 0.87 0.62 0.33 0.32 0.39 0.46 0.51 0.50 0.42 0.39 0.38
0.16 0.17 0.21 0.24 0.31 0.38 0.43 0.45 0.45 0.45 0.48 0.49 0.49 0.51 0.48 0.47 0.50 0.52 0.54 0.56 0.58 0.59 0.61 0.68 0.74 0.81 0.85 0.83 0.84 0.83 0.77 0.70 0.72 0.72 0.49 0.37 0.40 0.45 0.51 0.54 0.52 0.50 0.45
0.23 0.24 0.28 0.35 0.39 0.44 0.48 0.49 0.49 0.50 0.52 0.55 0.56 0.56 0.58 0.64 0.75 0.78 0.68 0.65 0.63 0.60 0.60 0.66 0.73 0.84 0.93 1.00 1.05 0.96 0.87 0.88 0.87 0.86 0.69 0.53 0.49 0.50 0.62 0.66 0.64 0.59 0.57
0.36 0.38 0.38 0.38 0.42 0.42 0.44 0.46 0.49 0.52 0.55 0.55 0.54 0.57 0.62 0.74 1.03 1.05 0.88 0.77 0.71 0.67 0.64 0.65 0.70 0.86 1.07 1.27 1.39 1.32 1.25 1.27 1.20 1.16 1.00 0.79 0.66 0.68 0.73 0.71 0.75 0.67 0.66
0.43 0.46 0.44 0.39 0.39 0.43 0.43 0.43 0.47 0.51 0.50 0.48 0.48 0.50 0.60 0.78 1.15 1.19 0.98 0.76 0.72 0.72 0.71 0.65 0.63 0.72 0.84 1.01 1.23 1.30 1.39 1.48 1.50 1.44 1.32 1.13 0.85 0.75 0.80 0.93 1.03 1.04 0.91
0.42 0.46 0.48 0.44 0.40 0.41 0.42 0.39 0.39 0.40 0.41 0.40 0.39 0.40 0.44 0.62 1.02 1.11 0.95 0.71 0.63 0.63 0.64 0.59 0.59 0.58 0.63 0.62 0.74 0.83 0.93 1.10 1.32 1.46 1.53 1.25 0.99 0.88 1.03 1.24 1.27 1.24 1.02
0.40 0.39 0.40 0.37 0.32 0.32 0.36 0.33 0.32 0.33 0.36 0.37 0.36 0.35 0.33 0.39 0.76 1.03 0.91 0.61 0.56 0.57 0.56 0.57 0.59 0.57 0.56 0.63 0.70 0.74 0.69 0.72 0.92 1.15 1.30 1.17 1.07 1.07 1.24 1.50 1.65 1.69 1.37
0.30 0.28 0.28 0.25 0.23 0.26 0.31 0.28 0.27 0.27 0.30 0.33 0.35 0.37 0.35 0.35 0.58 0.97 0.98 0.63 0.60 0.56 0.56 0.66 0.71 0.64 0.66 0.81 0.92 0.90 0.74 0.63 0.68 0.96 1.21 1.25 1.29 1.48 1.68 2.02 2.29 2.35 2.05
0.21 0.20 0.25 0.21 0.18 0.21 0.26 0.25 0.25 0.26 0.29 0.31 0.33 0.39 0.39 0.36 0.50 0.89 1.13 0.76 0.67 0.59 0.60 0.71 0.94 0.90 0.87 0.91 0.97 0.99 0.94 0.71 0.63 0.67 0.76 0.86 0.91 0.99 1.32 1.68 1.91 2.12 2.10
0.15 0.17 0.23 0.24 0.20 0.19 0.22 0.26 0.25 0.26 0.29 0.31 0.32 0.36 0.39 0.37 0.42 0.71 1.15 1.04 0.82 0.71 0.70 0.78 0.90 0.95 0.92 0.92 0.97 0.96 0.98 0.92 0.88 0.87 0.82 0.77 0.80 0.91 1.05 1.31 1.54 1.76 1.95
0.13 0.16 0.21 0.28 0.24 0.22 0.23 0.25 0.25 0.26 0.30 0.33 0.33 0.35 0.36 0.38 0.43 0.59 0.93 1.12 1.02 0.81 0.76 0.70 0.78 0.87 0.90 0.92 0.89 0.91 0.95 0.98 0.94 0.91 0.83 0.75 0.74 0.80 0.87 1.03 1.28 1.42 1.52
0.12 0.16 0.21 0.26 0.25 0.24 0.24 0.26 0.26 0.27 0.32 0.36 0.37 0.38 0.38 0.40 0.46 0.61 0.71 0.80 0.90 0.82 0.81 0.95 0.90 0.85 0.81 0.75 0.72 0.78 0.79 0.76 0.81 0.80 0.70 0.59 0.56 0.62 0.73 0.89 1.06 1.23 1.34
0.12 0.17 0.21 0.24 0.25 0.25 0.24 0.24 0.26 0.31 0.44 0.52 0.48 0.46 0.43 0.43 0.54 0.73 0.77 0.71 0.77 0.81 0.81 0.89 0.87 0.75 0.66 0.61 0.61 0.61 0.61 0.66 0.74 0.76 0.66 0.56 0.52 0.58 0.69 0.81 0.97 1.12 1.32
0.13 0.16 0.22 0.26 0.27 0.27 0.25 0.25 0.29 0.32 0.54 0.77 0.71 0.70 0.70 0.68 0.79 1.06 1.06 0.95 0.96 0.98 0.98 0.98 0.87 0.73 0.65 0.57 0.52 0.48 0.48 0.57 0.67 0.68 0.69 0.68 0.64 0.66 0.68 0.72 0.90 1.06 1.24
0.16 0.19 0.22 0.27 0.29 0.29 0.29 0.29 0.30 0.33 0.43 0.50 0.54 0.65 0.66 0.79 0.92 0.92 0.89 0.89 0.93 0.96 0.98 0.92 0.75 0.64 0.58 0.55 0.54 0.53 0.49 0.50 0.52 0.57 0.63 0.66 0.69 0.70 0.70 0.71 0.85 1.01 1.08
0.20 0.23 0.28 0.29 0.31 0.32 0.33 0.35 0.34 0.31 0.32 0.36 0.39 0.46 0.57 0.72 0.78 0.79 0.84 0.79 0.78 0.80 0.79 0.68 0.60 0.57 0.54 0.52 0.51 0.51 0.48 0.44 0.48 0.57 0.62 0.65 0.69 0.72 0.72 0.73 0.76 0.86 0.94
0.24 0.27 0.31 0.33 0.34 0.34 0.36 0.36 0.36 0.36 0.36 0.35 0.35 0.39 0.48 0.57 0.64 0.70 0.77 0.74 0.70 0.64 0.60 0.58 0.55 0.53 0.52 0.51 0.50 0.50 0.48 0.47 0.50 0.54 0.56 0.57 0.62 0.70 0.71 0.66 0.68 0.79 0.89
0.25 0.27 0.31 0.34 0.36 0.37 0.39 0.39 0.38 0.37 0.37 0.38 0.38 0.41 0.47 0.51 0.54 0.59 0.60 0.58 0.60 0.57 0.53 0.53 0.52 0.53 0.54 0.51 0.49 0.48 0.49 0.50 0.48 0.49 0.50 0.50 0.54 0.65 0.67 0.60 0.62 0.73 0.93
0.23 0.29 0.34 0.35 0.37 0.38 0.40 0.42 0.42 0.43 0.42 0.42 0.44 0.48 0.55 0.61 0.61 0.57 0.51 0.50 0.54 0.54 0.52 0.53 0.51 0.51 0.55 0.55 0.53 0.51 0.51 0.50 0.48 0.48 0.48 0.49 0.53 0.62 0.64 0.59 0.64 0.74 0.84
0.26 0.29 0.35 0.35 0.36 0.38 0.43 0.47 0.47 0.50 0.51 0.48 0.45 0.47 0.70 0.82 0.71 0.56 0.51 0.52 0.55 0.59 0.57 0.54 0.50 0.48 0.51 0.54 0.56 0.54 0.52 0.49 0.48 0.52 0.53 0.53 0.55 0.61 0.60 0.63 0.66 0.72 0.81
0.32 0.35 0.37 0.38 0.38 0.41 0.47 0.48 0.50 0.52 0.51 0.49 0.45 0.44 0.50 0.52 0.50 0.48 0.48 0.49 0.52 0.56 0.58 0.60 0.55 0.48 0.50 0.57 0.60 0.61 0.56 0.49 0.47 0.53 0.58 0.57 0.58 0.61 0.63 0.67 0.69 0.76 0.83
0.37 0.40 0.40 0.38 0.39 0.45 0.46 0.44 0.47 0.49 0.50 0.47 0.45 0.45 0.44 0.45 0.46 0.49 0.50 0.48 0.51 0.55 0.56 0.59 0.58 0.50 0.46 0.52 0.57 0.65 0.66 0.57 0.52 0.61 0.71 0.68 0.65 0.65 0.66 0.69 0.70 0.76 0.80
0.43 0.44 0.44 0.42 0.42 0.44 0.46 0.45 0.46 0.47 0.49 0.49 0.48 0.47 0.47 0.46 0.45 0.46 0.47 0.48 0.51 0.53 0.55 0.58 0.57 0.53 0.49 0.51 0.55 0.57 0.60 0.67 0.81 0.90 0.87 0.86 0.79 0.70 0.70 0.73 0.71 0.72 0.78
0.43 0.45 0.46 0.46 0.47 0.49 0.50 0.48 0.47 0.48 0.49 0.50 0.49 0.48 0.47 0.46 0.45 0.45 0.46 0.49 0.53 0.54 0.52 0.53 0.55 0.54 0.52 0.50 0.50 0.52 0.59 0.75 0.94 1.21 1.37 1.30 1.06 0.84 0.79 0.80 0.77 0.76 0.80
0.41 0.41 0.42 0.45 0.49 0.52 0.56 0.55 0.53 0.52 0.55 0.53 0.51 0.51 0.51 0.50 0.48 0.48 0.50 0.57 0.63 0.61 0.58 0.56 0.53 0.52 0.52 0.52 0.50 0.53 0.66 0.87 1.06 1.28 1.63 1.76 1.41 1.04 0.90 0.92 0.85 0.84 0.89

GEFSGL_prec_meanprecacc_216.txt.gz
Total_Precipitation_Accumulation
0.13 0.15 0.19 0.24 0.26 0.28 0.30 0.30 0.31 0.35 0.40 0.41 0.38 0.35 0.38 0.45 0.54 0.59 0.60 0.62 0.66 0.66 0.66 0.68 0.68 0.68 0.70 0.69 0.70 0.71 0.76 0.92 0.94 0.42 0.28 0.35 0.47 0.51 0.51 0.48 0.46 0.47 0.47
0.15 0.17 0.18 0.24 0.30 0.34 0.37 0.38 0.40 0.42 0.44 0.47 0.48 0.46 0.40 0.38 0.46 0.54 0.58 0.60 0.65 0.68 0.70 0.74 0.76 0.76 0.79 0.80 0.83 0.82 0.80 0.84 0.96 0.69 0.39 0.38 0.46 0.52 0.57 0.56 0.49 0.46 0.45
0.16 0.18 0.21 0.25 0.32 0.40 0.44 0.47 0.47 0.48 0.52 0.53 0.53 0.55 0.51 0.50 0.53 0.56 0.59 0.62 0.62 0.63 0.65 0.72 0.76 0.83 0.87 0.85 0.87 0.87 0.82 0.76 0.79 0.79 0.54 0.43 0.47 0.52 0.57 0.61 0.59 0.56 0.51
0.23 0.24 0.29 0.35 0.40 0.45 0.50 0.51 0.51 0.53 0.55 0.58 0.59 0.59 0.61 0.67 0.78 0.80 0.71 0.70 0.66 0.64 0.63 0.68 0.75 0.86 0.95 1.01 1.07 0.98 0.90 0.94 0.94 0.93 0.76 0.60 0.56 0.57 0.70 0.74 0.71 0.65 0.62
0.37 0.39 0.38 0.38 0.43 0.43 0.46 0.49 0.51 0.55 0.57 0.58 0.57 0.60 0.65 0.77 1.06 1.08 0.91 0.81 0.75 0.71 0.68 0.68 0.72 0.88 1.09 1.29 1.41 1.34 1.28 1.31 1.25 1.22 1.07 0.87 0.74 0.75 0.81 0.79 0.83 0.73 0.71
0.44 0.47 0.45 0.40 0.40 0.45 0.45 0.46 0.50 0.53 0.53 0.53 0.52 0.54 0.64 0.81 1.19 1.22 1.01 0.79 0.76 0.76 0.75 0.69 0.66 0.75 0.86 1.04 1.26 1.33 1.42 1.52 1.56 1.50 1.38 1.19 0.91 0.81 0.85 0.99 1.10 1.11 0.97
0.44 0.49 0.51 0.45 0.40 0.43 0.44 0.44 0.43 0.44 0.45 0.45 0.45 0.46 0.49 0.66 1.05 1.13 0.98 0.74 0.66 0.67 0.67 0.62 0.62 0.60 0.66 0.64 0.76 0.86 0.96 1.14 1.37 1.53 1.60 1.31 1.04 0.92 1.07 1.28 1.32 1.29 1.07
0.41 0.41 0.43 0.39 0.33 0.36 0.40 0.39 0.36 0.36 0.40 0.41 0.41 0.41 0.38 0.44 0.81 1.06 0.94 0.65 0.59 0.60 0.59 0.61 0.62 0.60 0.59 0.66 0.73 0.76 0.72 0.75 0.97 1.21 1.36 1.22 1.12 1.12 1.30 1.55 1.69 1.75 1.43
0.30 0.28 0.30 0.27 0.27 0.32 0.36 0.33 0.31 0.31 0.32 0.35 0.38 0.42 0.40 0.38 0.62 1.01 1.02 0.68 0.64 0.59 0.59 0.71 0.76 0.68 0.71 0.85 0.96 0.94 0.77 0.67 0.74 1.02 1.27 1.31 1.35 1.53 1.74 2.07 2.34 2.41 2.11
0.21 0.21 0.26 0.25 0.23 0.27 0.32 0.31 0.30 0.29 0.32 0.35 0.38 0.45 0.44 0.39 0.52 0.92 1.17 0.80 0.70 0.62 0.62 0.74 0.98 0.95 0.93 0.98 1.03 1.04 0.99 0.76 0.68 0.73 0.81 0.91 0.96 1.04 1.38 1.73 1.97 2.19 2.16
0.16 0.18 0.25 0.27 0.25 0.24 0.27 0.30 0.30 0.31 0.33 0.35 0.37 0.42 0.45 0.41 0.44 0.74 1.19 1.08 0.85 0.75 0.73 0.80 0.94 1.00 0.99 1.00 1.05 1.03 1.06 1.00 0.96 0.93 0.87 0.82 0.84 0.95 1.11 1.36 1.60 1.84 2.04
0.14 0.17 0.22 0.30 0.27 0.26 0.27 0.27 0.28 0.32 0.35 0.37 0.39 0.41 0.43 0.45 0.47 0.63 0.96 1.16 1.07 0.86 0.80 0.74 0.82 0.93 0.97 1.00 0.97 0.99 1.05 1.07 1.02 0.98 0.89 0.82 0.81 0.86 0.94 1.09 1.34 1.50 1.62
0.13 0.17 0.22 0.28 0.27 0.26 0.27 0.28 0.29 0.30 0.36 0.41 0.43 0.45 0.45 0.47 0.51 0.65 0.76 0.85 0.97 0.89 0.87 1.01 0.97 0.93 0.89 0.84 0.83 0.89 0.90 0.86 0.89 0.87 0.76 0.66 0.63 0.69 0.80 0.96 1.14 1.32 1.44
0.12 0.18 0.22 0.26 0.28 0.28 0.26 0.27 0.29 0.34 0.48 0.56 0.55 0.54 0.49 0.49 0.58 0.78 0.82 0.77 0.83 0.87 0.86 0.95 0.95 0.84 0.74 0.69 0.71 0.73 0.73 0.77 0.84 0.84 0.73 0.63 0.59 0.64 0.76 0.88 1.05 1.20 1.41
0.13 0.17 0.23 0.27 0.29 0.30 0.28 0.28 0.32 0.36 0.58 0.82 0.78 0.77 0.77 0.75 0.84 1.12 1.12 1.01 1.01 1.03 1.04 1.04 0.95 0.81 0.73 0.64 0.61 0.58 0.59 0.68 0.78 0.77 0.76 0.76 0.72 0.73 0.75 0.80 0.98 1.13 1.31
0.17 0.19 0.24 0.29 0.31 0.31 0.30 0.31 0.32 0.36 0.46 0.55 0.61 0.72 0.73 0.86 0.99 0.98 0.95 0.95 0.99 1.02 1.04 0.99 0.83 0.72 0.66 0.62 0.61 0.60 0.57 0.59 0.62 0.68 0.73 0.76 0.78 0.79 0.78 0.79 0.93 1.08 1.15
0.21 0.24 0.28 0.31 0.33 0.34 0.35 0.36 0.35 0.33 0.35 0.39 0.44 0.52 0.64 0.80 0.85 0.85 0.89 0.85 0.84 0.87 0.86 0.75 0.67 0.65 0.62 0.59 0.58 0.58 0.56 0.53 0.58 0.67 0.73 0.75 0.78 0.80 0.80 0.80 0.84 0.94 1.01
0.24 0.28 0.32 0.34 0.35 0.36 0.37 0.38 0.38 0.39 0.39 0.39 0.40 0.44 0.54 0.65 0.72 0.77 0.81 0.78 0.73 0.68 0.65 0.64 0.62 0.60 0.58 0.57 0.57 0.57 0.56 0.55 0.59 0.64 0.65 0.66 0.71 0.78 0.78 0.73 0.75 0.86 0.94
0.25 0.28 0.31 0.35 0.37 0.38 0.40 0.41 0.40 0.39 0.40 0.41 0.42 0.46 0.52 0.56 0.61 0.67 0.66 0.62 0.62 0.60 0.58 0.58 0.57 0.59 0.59 0.56 0.54 0.54 0.55 0.56 0.55 0.57 0.57 0.58 0.61 0.72 0.73 0.65 0.68 0.79 0.98
0.23 0.30 0.35 0.36 0.38 0.39 0.42 0.43 0.44 0.45 0.45 0.45 0.48 0.52 0.60 0.66 0.66 0.63 0.58 0.55 0.58 0.58 0.57 0.59 0.56 0.56 0.60 0.59 0.58 0.56 0.57 0.55 0.53 0.54 0.54 0.55 0.59 0.67 0.70 0.66 0.70 0.80 0.89
0.27 0.30 0.36 0.37 0.38 0.40 0.45 0.49 0.49 0.52 0.53 0.51 0.48 0.51 0.76 0.88 0.77 0.62 0.58 0.58 0.61 0.64 0.62 0.60 0.55 0.52 0.55 0.58 0.60 0.59 0.57 0.54 0.52 0.56 0.58 0.58 0.61 0.67 0.67 0.70 0.74 0.79 0.86
0.33 0.36 0.38 0.40 0.40 0.44 0.49 0.51 0.52 0.54 0.53 0.51 0.48 0.47 0.55 0.56 0.55 0.53 0.53 0.54 0.58 0.62 0.64 0.66 0.61 0.52 0.54 0.61 0.64 0.65 0.60 0.53 0.50 0.57 0.62 0.61 0.63 0.67 0.70 0.75 0.77 0.82 0.88
0.38 0.41 0.42 0.41 0.42 0.48 0.49 0.46 0.48 0.51 0.51 0.49 0.48 0.47 0.48 0.49 0.51 0.53 0.54 0.53 0.57 0.60 0.61 0.63 0.63 0.54 0.49 0.55 0.61 0.69 0.71 0.61 0.56 0.65 0.75 0.73 0.70 0.70 0.73 0.76 0.76 0.81 0.85
0.44 0.46 0.46 0.44 0.45 0.46 0.48 0.47 0.48 0.48 0.50 0.51 0.49 0.48 0.49 0.50 0.49 0.51 0.52 0.52 0.55 0.57 0.59 0.61 0.60 0.55 0.52 0.54 0.57 0.59 0.63 0.70 0.85 0.95 0.91 0.91 0.83 0.75 0.76 0.78 0.76 0.76 0.81
0.45 0.46 0.47 0.48 0.50 0.51 0.52 0.50 0.48 0.49 0.51 0.52 0.51 0.50 0.49 0.48 0.47 0.49 0.50 0.53 0.57 0.57 0.55 0.56 0.57 0.57 0.54 0.52 0.52 0.54 0.61 0.78 0.99 1.26 1.42 1.36 1.11 0.89 0.84 0.84 0.80 0.79 0.83
0.43 0.42 0.44 0.47 0.51 0.54 0.58 0.57 0.54 0.54 0.57 0.55 0.52 0.53 0.54 0.53 0.51 0.51 0.54 0.60 0.66 0.65 0.61 0.58 0.55 0.54 0.54 0.54 0.53 0.56 0.69 0.89 1.09 1.32 1.69 1.83 1.47 1.09 0.95 0.96 0.88 0.87 0.91

GEFSGL_prec_meanprecacc_222.txt.gz
Total_Precipitation_Accumulation
0.13 0.15 0.19 0.25 0.28 0.30 0.33 0.32 0.33 0.36 0.41 0.43 0.40 0.38 0.40 0.48 0.58 0.64 0.64 0.66 0.71 0.71 0.73 0.75 0.74 0.73 0.75 0.74 0.74 0.75 0.78 0.95 0.97 0.44 0.29 0.36 0.49 0.53 0.53 0.50 0.50 0.53 0.55
0.15 0.17 0.19 0.24 0.31 0.35 0.39 0.40 0.42 0.43 0.45 0.48 0.50 0.48 0.42 0.41 0.49 0.58 0.63 0.64 0.69 0.72 0.75 0.80 0.80 0.80 0.84 0.84 0.88 0.86 0.82 0.86 0.98 0.71 0.40 0.39 0.47 0.54 0.60 0.60 0.54 0.54 0.54
0.16 0.18 0.21 0.26 0.33 0.40 0.44 0.47 0.48 0.50 0.53 0.54 0.55 0.57 0.54 0.53 0.56 0.60 0.63 0.66 0.67 0.68 0.69 0.76 0.80 0.86 0.90 0.88 0.90 0.90 0.84 0.78 0.81 0.81 0.56 0.44 0.49 0.54 0.60 0.64 0.63 0.63 0.60
0.24 0.25 0.29 0.36 0.40 0.45 0.50 0.51 0.51 0.53 0.56 0.60 0.61 0.61 0.63 0.70 0.81 0.84 0.75 0.74 0.71 0.68 0.68 0.72 0.78 0.89 0.97 1.03 1.10 1.01 0.93 0.96 0.96 0.96 0.78 0.61 0.57 0.59 0.74 0.78 0.76 0.71 0.69
0.38 0.40 0.39 0.39 0.43 0.43 0.46 0.49 0.52 0.55 0.58 0.59 0.58 0.62 0.67 0.80 1.09 1.12 0.95 0.85 0.80 0.76 0.72 0.73 0.76 0.91 1.12 1.31 1.43 1.37 1.31 1.34 1.29 1.26 1.10 0.89 0.76 0.77 0.85 0.84 0.87 0.79 0.77
0.46 0.48 0.46 0.40 0.40 0.45 0.45 0.47 0.50 0.54 0.54 0.54 0.54 0.55 0.65 0.83 1.22 1.25 1.05 0.84 0.81 0.81 0.80 0.73 0.71 0.78 0.89 1.07 1.29 1.36 1.45 1.55 1.59 1.53 1.41 1.22 0.94 0.84 0.89 1.05 1.16 1.17 1.03
0.46 0.50 0.52 0.45 0.40 0.43 0.45 0.44 0.44 0.44 0.46 0.47 0.47 0.47 0.50 0.67 1.08 1.18 1.02 0.79 0.71 0.72 0.72 0.67 0.67 0.65 0.70 0.68 0.80 0.90 1.00 1.17 1.40 1.56 1.63 1.33 1.07 0.96 1.12 1.34 1.39 1.36 1.12
0.42 0.42 0.43 0.39 0.34 0.36 0.41 0.40 0.36 0.37 0.41 0.42 0.43 0.42 0.40 0.45 0.83 1.10 0.99 0.69 0.63 0.65 0.65 0.66 0.67 0.64 0.63 0.70 0.77 0.80 0.76 0.79 1.00 1.24 1.39 1.25 1.15 1.16 1.35 1.62 1.76 1.81 1.49
0.31 0.29 0.30 0.28 0.27 0.32 0.37 0.34 0.31 0.31 0.33 0.36 0.39 0.43 0.41 0.40 0.64 1.04 1.07 0.72 0.68 0.63 0.64 0.76 0.81 0.73 0.75 0.90 1.02 0.99 0.81 0.70 0.77 1.07 1.33 1.37 1.40 1.58 1.79 2.14 2.41 2.49 2.18
0.21 0.21 0.27 0.25 0.23 0.28 0.34 0.32 0.31 0.30 0.32 0.35 0.38 0.45 0.45 0.40 0.54 0.95 1.22 0.85 0.75 0.66 0.66 0.78 1.03 1.00 0.98 1.02 1.08 1.11 1.06 0.81 0.72 0.77 0.86 0.97 1.02 1.09 1.44 1.79 2.05 2.27 2.24
0.16 0.18 0.25 0.27 0.25 0.25 0.28 0.31 0.31 0.32 0.33 0.36 0.38 0.42 0.46 0.42 0.46 0.76 1.24 1.13 0.90 0.79 0.78 0.84 0.97 1.04 1.03 1.04 1.09 1.08 1.11 1.05 1.01 0.99 0.93 0.88 0.91 1.03 1.19 1.45 1.69 1.93 2.12
0.14 0.17 0.23 0.30 0.28 0.26 0.28 0.28 0.29 0.33 0.37 0.38 0.40 0.42 0.44 0.46 0.48 0.65 1.00 1.22 1.12 0.92 0.86 0.78 0.86 0.97 1.02 1.04 1.01 1.03 1.09 1.13 1.07 1.03 0.96 0.89 0.88 0.94 1.01 1.16 1.41 1.57 1.70
0.13 0.18 0.23 0.28 0.28 0.27 0.28 0.29 0.30 0.33 0.39 0.43 0.45 0.47 0.46 0.48 0.53 0.67 0.79 0.91 1.03 0.95 0.92 1.06 1.02 0.97 0.93 0.88 0.88 0.93 0.94 0.91 0.94 0.92 0.81 0.71 0.68 0.74 0.85 1.01 1.19 1.37 1.50
0.12 0.18 0.23 0.27 0.29 0.28 0.27 0.28 0.30 0.36 0.51 0.59 0.58 0.57 0.52 0.52 0.61 0.81 0.86 0.82 0.89 0.93 0.92 1.00 0.99 0.88 0.78 0.73 0.75 0.77 0.77 0.82 0.91 0.90 0.78 0.67 0.63 0.69 0.81 0.93 1.10 1.25 1.48
0.13 0.17 0.23 0.27 0.29 0.30 0.28 0.29 0.33 0.38 0.61 0.86 0.82 0.81 0.82 0.80 0.88 1.17 1.18 1.07 1.08 1.10 1.10 1.09 0.99 0.86 0.77 0.68 0.65 0.62 0.63 0.72 0.83 0.83 0.82 0.80 0.77 0.78 0.81 0.86 1.03 1.19 1.36
0.17 0.20 0.24 0.29 0.31 0.31 0.31 0.31 0.33 0.37 0.47 0.56 0.63 0.75 0.76 0.91 1.04 1.04 1.02 1.02 1.06 1.09 1.09 1.03 0.87 0.76 0.70 0.66 0.65 0.65 0.62 0.64 0.66 0.73 0.79 0.81 0.83 0.85 0.85 0.86 1.00 1.16 1.22
0.21 0.24 0.29 0.31 0.33 0.34 0.35 0.37 0.36 0.34 0.35 0.40 0.45 0.53 0.66 0.83 0.90 0.90 0.95 0.91 0.90 0.91 0.89 0.78 0.71 0.69 0.66 0.63 0.63 0.63 0.61 0.57 0.62 0.72 0.78 0.81 0.85 0.88 0.88 0.89 0.93 1.03 1.09
0.26 0.29 0.32 0.34 0.36 0.37 0.39 0.39 0.39 0.40 0.40 0.40 0.41 0.46 0.56 0.68 0.78 0.82 0.87 0.83 0.78 0.71 0.69 0.68 0.66 0.65 0.63 0.62 0.62 0.63 0.62 0.61 0.64 0.69 0.71 0.74 0.78 0.86 0.87 0.82 0.84 0.95 1.02
0.26 0.28 0.32 0.36 0.37 0.39 0.41 0.42 0.42 0.41 0.42 0.43 0.44 0.47 0.54 0.60 0.67 0.74 0.75 0.67 0.66 0.63 0.61 0.61 0.60 0.63 0.65 0.63 0.61 0.61 0.62 0.63 0.62 0.63 0.65 0.65 0.69 0.79 0.81 0.74 0.77 0.87 1.06
0.24 0.30 0.36 0.37 0.39 0.40 0.43 0.45 0.46 0.47 0.47 0.47 0.50 0.55 0.63 0.69 0.72 0.70 0.66 0.62 0.62 0.61 0.59 0.62 0.59 0.60 0.64 0.65 0.64 0.62 0.63 0.61 0.60 0.61 0.61 0.62 0.66 0.74 0.77 0.73 0.78 0.88 0.96
0.27 0.31 0.37 0.37 0.39 0.41 0.45 0.50 0.51 0.54 0.55 0.53 0.51 0.55 0.81 0.93 0.82 0.69 0.65 0.65 0.67 0.68 0.66 0.64 0.59 0.56 0.58 0.61 0.64 0.63 0.62 0.59 0.57 0.61 0.64 0.63 0.66 0.73 0.73 0.77 0.80 0.85 0.93
0.33 0.37 0.39 0.41 0.41 0.44 0.50 0.52 0.53 0.55 0.55 0.54 0.51 0.51 0.59 0.61 0.60 0.59 0.59 0.62 0.66 0.68 0.69 0.71 0.65 0.56 0.57 0.64 0.68 0.69 0.64 0.57 0.55 0.62 0.68 0.67 0.69 0.73 0.76 0.80 0.82 0.88 0.94
0.39 0.42 0.43 0.41 0.43 0.49 0.50 0.46 0.49 0.52 0.54 0.52 0.50 0.50 0.51 0.53 0.56 0.59 0.60 0.60 0.64 0.67 0.66 0.67 0.67 0.58 0.52 0.58 0.64 0.73 0.75 0.65 0.61 0.71 0.82 0.80 0.76 0.76 0.79 0.82 0.82 0.87 0.90
0.45 0.46 0.47 0.45 0.45 0.47 0.48 0.48 0.48 0.50 0.52 0.53 0.52 0.51 0.52 0.53 0.53 0.56 0.58 0.59 0.62 0.63 0.64 0.66 0.65 0.60 0.55 0.57 0.60 0.62 0.67 0.74 0.90 1.01 0.98 0.98 0.90 0.81 0.81 0.84 0.82 0.81 0.86
0.46 0.47 0.48 0.49 0.51 0.52 0.53 0.50 0.49 0.50 0.52 0.53 0.53 0.52 0.52 0.51 0.51 0.53 0.55 0.58 0.62 0.63 0.61 0.61 0.62 0.60 0.58 0.56 0.55 0.57 0.65 0.82 1.03 1.31 1.48 1.41 1.16 0.94 0.90 0.90 0.85 0.83 0.87
0.44 0.42 0.44 0.47 0.51 0.55 0.59 0.58 0.55 0.55 0.58 0.56 0.54 0.55 0.56 0.55 0.53 0.54 0.58 0.64 0.70 0.68 0.65 0.63 0.59 0.57 0.57 0.57 0.56 0.60 0.72 0.92 1.13 1.37 1.74 1.88 1.52 1.14 1.00 1.01 0.93 0.91 0.95

GEFSGL_prec_meanprecacc_228.txt.gz
Total_Precipitation_Accumulation
0.13 0.15 0.19 0.26 0.28 0.31 0.34 0.34 0.34 0.39 0.44 0.45 0.41 0.39 0.41 0.49 0.59 0.65 0.66 0.68 0.72 0.73 0.75 0.77 0.77 0.76 0.78 0.77 0.78 0.78 0.82 0.99 1.00 0.46 0.31 0.37 0.50 0.55 0.54 0.51 0.50 0.54 0.56
0.15 0.17 0.19 0.24 0.31 0.35 0.39 0.41 0.44 0.46 0.48 0.50 0.52 0.49 0.43 0.42 0.50 0.60 0.64 0.66 0.71 0.74 0.77 0.82 0.84 0.84 0.87 0.88 0.92 0.91 0.88 0.91 1.02 0.74 0.42 0.41 0.49 0.56 0.62 0.61 0.54 0.54 0.55
0.16 0.18 0.22 0.26 0.33 0.40 0.45 0.48 0.49 0.52 0.56 0.56 0.57 0.58 0.55 0.54 0.57 0.61 0.65 0.67 0.68 0.69 0.71 0.78 0.83 0.91 0.96 0.93 0.94 0.94 0.89 0.83 0.86 0.85 0.59 0.46 0.50 0.55 0.62 0.65 0.64 0.63 0.61
0.24 0.25 0.30 0.37 0.41 0.46 0.51 0.52 0.52 0.54 0.58 0.63 0.64 0.63 0.65 0.71 0.83 0.85 0.77 0.76 0.72 0.69 0.69 0.73 0.80 0.92 1.01 1.09 1.15 1.06 0.97 1.01 1.01 1.01 0.82 0.64 0.59 0.61 0.75 0.80 0.77 0.73 0.70
0.38 0.40 0.40 0.40 0.44 0.44 0.47 0.50 0.52 0.56 0.58 0.60 0.60 0.63 0.69 0.82 1.11 1.14 0.97 0.87 0.81 0.77 0.73 0.74 0.78 0.94 1.15 1.35 1.48 1.42 1.37 1.40 1.34 1.30 1.14 0.92 0.78 0.79 0.87 0.85 0.89 0.80 0.79
0.46 0.49 0.47 0.42 0.41 0.46 0.46 0.47 0.51 0.55 0.55 0.54 0.54 0.56 0.67 0.84 1.23 1.27 1.06 0.85 0.82 0.82 0.81 0.74 0.72 0.81 0.93 1.11 1.33 1.40 1.49 1.60 1.64 1.58 1.45 1.25 0.96 0.86 0.91 1.07 1.19 1.19 1.06
0.47 0.52 0.53 0.46 0.41 0.44 0.46 0.45 0.44 0.45 0.47 0.47 0.47 0.48 0.51 0.68 1.09 1.19 1.04 0.80 0.72 0.73 0.73 0.68 0.68 0.67 0.73 0.71 0.84 0.94 1.03 1.21 1.44 1.60 1.68 1.36 1.09 0.98 1.15 1.37 1.42 1.39 1.16
0.45 0.45 0.46 0.40 0.35 0.37 0.42 0.40 0.37 0.37 0.41 0.43 0.43 0.42 0.40 0.46 0.84 1.11 1.00 0.71 0.65 0.66 0.66 0.68 0.69 0.66 0.66 0.74 0.82 0.85 0.79 0.82 1.03 1.28 1.43 1.29 1.19 1.20 1.39 1.66 1.81 1.86 1.53
0.33 0.32 0.33 0.30 0.29 0.34 0.38 0.35 0.32 0.31 0.33 0.36 0.39 0.43 0.41 0.40 0.65 1.05 1.08 0.74 0.69 0.65 0.66 0.78 0.83 0.74 0.78 0.95 1.07 1.04 0.85 0.73 0.80 1.10 1.37 1.41 1.45 1.64 1.85 2.21 2.48 2.55 2.25
0.23 0.23 0.28 0.26 0.24 0.29 0.34 0.32 0.31 0.30 0.32 0.35 0.38 0.46 0.46 0.40 0.55 0.96 1.23 0.86 0.76 0.67 0.68 0.80 1.06 1.03 1.00 1.07 1.13 1.16 1.11 0.84 0.75 0.80 0.90 1.01 1.05 1.13 1.49 1.85 2.11 2.35 2.31
0.17 0.19 0.26 0.27 0.25 0.26 0.28 0.31 0.31 0.32 0.33 0.36 0.38 0.43 0.46 0.42 0.46 0.77 1.24 1.14 0.91 0.81 0.80 0.86 0.99 1.08 1.07 1.08 1.14 1.12 1.16 1.10 1.05 1.03 0.98 0.92 0.95 1.06 1.22 1.49 1.74 1.99 2.20
0.15 0.18 0.23 0.30 0.28 0.27 0.28 0.29 0.29 0.33 0.37 0.38 0.40 0.42 0.44 0.46 0.49 0.66 1.01 1.23 1.14 0.94 0.88 0.81 0.89 1.01 1.06 1.08 1.05 1.06 1.14 1.18 1.12 1.09 1.02 0.95 0.93 0.98 1.05 1.20 1.45 1.61 1.75
0.14 0.18 0.23 0.29 0.28 0.27 0.28 0.29 0.30 0.33 0.39 0.43 0.45 0.47 0.47 0.48 0.53 0.67 0.80 0.92 1.04 0.97 0.95 1.09 1.05 1.01 0.97 0.92 0.91 0.97 0.98 0.95 1.00 0.98 0.87 0.78 0.74 0.79 0.90 1.05 1.23 1.41 1.54
0.13 0.18 0.24 0.28 0.29 0.28 0.27 0.28 0.30 0.37 0.51 0.59 0.58 0.57 0.53 0.52 0.62 0.82 0.87 0.83 0.91 0.94 0.94 1.03 1.03 0.92 0.82 0.78 0.79 0.80 0.80 0.87 0.96 0.96 0.84 0.73 0.69 0.75 0.86 0.97 1.14 1.29 1.52
0.14 0.18 0.24 0.28 0.30 0.30 0.28 0.29 0.34 0.38 0.62 0.87 0.84 0.82 0.83 0.81 0.90 1.19 1.20 1.09 1.10 1.13 1.14 1.13 1.03 0.90 0.81 0.72 0.68 0.65 0.66 0.77 0.89 0.88 0.88 0.86 0.82 0.83 0.86 0.90 1.08 1.24 1.41
0.18 0.20 0.24 0.29 0.32 0.31 0.31 0.31 0.34 0.38 0.48 0.58 0.65 0.77 0.78 0.93 1.06 1.06 1.04 1.04 1.08 1.12 1.14 1.08 0.91 0.80 0.74 0.69 0.68 0.68 0.65 0.68 0.71 0.78 0.84 0.86 0.88 0.90 0.90 0.90 1.06 1.21 1.28
0.22 0.25 0.30 0.31 0.33 0.34 0.36 0.37 0.37 0.34 0.36 0.41 0.46 0.54 0.68 0.85 0.92 0.92 0.97 0.93 0.93 0.95 0.94 0.83 0.75 0.72 0.69 0.67 0.66 0.67 0.64 0.61 0.66 0.76 0.83 0.86 0.89 0.93 0.94 0.95 1.00 1.09 1.15
0.27 0.30 0.33 0.35 0.36 0.37 0.39 0.40 0.40 0.41 0.41 0.40 0.41 0.46 0.56 0.69 0.79 0.83 0.89 0.86 0.82 0.76 0.73 0.73 0.70 0.68 0.66 0.66 0.66 0.67 0.65 0.64 0.68 0.73 0.76 0.78 0.83 0.91 0.93 0.88 0.90 1.01 1.09
0.26 0.29 0.32 0.36 0.38 0.39 0.42 0.43 0.43 0.42 0.43 0.44 0.44 0.48 0.55 0.61 0.68 0.75 0.76 0.70 0.70 0.67 0.64 0.65 0.63 0.67 0.69 0.67 0.66 0.65 0.67 0.68 0.66 0.68 0.69 0.70 0.74 0.84 0.86 0.79 0.81 0.92 1.12
0.24 0.31 0.37 0.38 0.40 0.41 0.43 0.46 0.47 0.48 0.48 0.48 0.51 0.56 0.64 0.70 0.73 0.71 0.67 0.64 0.65 0.65 0.62 0.65 0.62 0.63 0.68 0.69 0.69 0.67 0.68 0.67 0.65 0.65 0.66 0.67 0.70 0.79 0.82 0.77 0.82 0.93 1.02
0.28 0.31 0.37 0.38 0.39 0.42 0.46 0.51 0.52 0.55 0.57 0.54 0.52 0.56 0.83 0.96 0.84 0.71 0.67 0.68 0.71 0.72 0.69 0.67 0.62 0.58 0.61 0.65 0.68 0.67 0.67 0.64 0.61 0.66 0.68 0.68 0.72 0.79 0.78 0.82 0.85 0.90 0.98
0.34 0.38 0.39 0.41 0.42 0.45 0.51 0.53 0.55 0.57 0.57 0.55 0.52 0.52 0.61 0.63 0.62 0.61 0.62 0.65 0.69 0.72 0.73 0.74 0.68 0.58 0.59 0.68 0.72 0.74 0.68 0.61 0.58 0.66 0.72 0.72 0.74 0.78 0.81 0.85 0.87 0.92 0.99
0.40 0.43 0.43 0.42 0.43 0.49 0.50 0.47 0.51 0.54 0.55 0.54 0.52 0.52 0.53 0.56 0.58 0.61 0.64 0.64 0.68 0.71 0.70 0.71 0.70 0.61 0.55 0.61 0.68 0.77 0.79 0.69 0.65 0.75 0.86 0.84 0.80 0.81 0.84 0.86 0.86 0.91 0.95
0.46 0.47 0.48 0.46 0.46 0.48 0.49 0.48 0.50 0.51 0.54 0.55 0.53 0.53 0.55 0.56 0.57 0.60 0.62 0.64 0.67 0.68 0.68 0.69 0.67 0.62 0.57 0.60 0.63 0.65 0.70 0.78 0.95 1.06 1.03 1.03 0.94 0.86 0.86 0.89 0.86 0.86 0.91
0.47 0.48 0.49 0.50 0.51 0.53 0.54 0.51 0.50 0.51 0.54 0.55 0.55 0.54 0.54 0.54 0.55 0.57 0.59 0.63 0.67 0.67 0.64 0.64 0.65 0.62 0.59 0.57 0.57 0.60 0.68 0.85 1.07 1.36 1.53 1.46 1.20 0.98 0.94 0.93 0.89 0.87 0.91
0.46 0.44 0.46 0.48 0.52 0.56 0.60 0.59 0.56 0.56 0.59 0.57 0.56 0.57 0.58 0.59 0.58 0.59 0.62 0.69 0.74 0.72 0.69 0.66 0.62 0.59 0.59 0.59 0.58 0.62 0.75 0.96 1.16 1.41 1.78 1.92 1.56 1.17 1.03 1.04 0.96 0.95 0.99

GEFSGL_prec_meanprecacc_234.txt.gz
Total_Precipitation_Accumulation
0.14 0.15 0.19 0.26 0.28 0.31 0.34 0.35 0.36 0.40 0.46 0.47 0.43 0.41 0.43 0.50 0.60 0.67 0.67 0.69 0.73 0.74 0.75 0.78 0.77 0.77 0.79 0.78 0.79 0.79 0.83 1.01 1.03 0.48 0.32 0.39 0.51 0.56 0.56 0.54 0.53 0.56 0.58
0.15 0.17 0.19 0.25 0.32 0.36 0.40 0.43 0.45 0.48 0.50 0.53 0.53 0.51 0.45 0.44 0.52 0.61 0.65 0.68 0.73 0.75 0.78 0.83 0.84 0.85 0.88 0.89 0.93 0.93 0.90 0.93 1.04 0.76 0.44 0.43 0.51 0.58 0.63 0.64 0.57 0.57 0.57
0.17 0.19 0.22 0.26 0.33 0.41 0.46 0.49 0.50 0.53 0.58 0.59 0.59 0.60 0.56 0.55 0.59 0.62 0.65 0.68 0.69 0.71 0.73 0.79 0.84 0.92 0.97 0.95 0.96 0.96 0.91 0.84 0.88 0.87 0.60 0.48 0.52 0.58 0.65 0.68 0.67 0.67 0.63
0.24 0.25 0.30 0.37 0.41 0.46 0.51 0.53 0.53 0.55 0.60 0.64 0.65 0.65 0.66 0.72 0.84 0.86 0.77 0.76 0.73 0.70 0.70 0.75 0.82 0.93 1.03 1.10 1.17 1.08 1.00 1.03 1.03 1.03 0.84 0.66 0.61 0.62 0.77 0.82 0.81 0.76 0.73
0.38 0.40 0.40 0.40 0.44 0.44 0.47 0.50 0.53 0.56 0.59 0.61 0.61 0.64 0.70 0.83 1.12 1.14 0.97 0.87 0.82 0.78 0.74 0.75 0.78 0.95 1.16 1.37 1.50 1.44 1.40 1.44 1.38 1.34 1.16 0.94 0.80 0.80 0.88 0.87 0.92 0.83 0.82
0.46 0.49 0.47 0.42 0.41 0.46 0.47 0.48 0.51 0.55 0.56 0.56 0.56 0.57 0.67 0.85 1.24 1.28 1.07 0.86 0.82 0.83 0.82 0.76 0.73 0.82 0.94 1.12 1.34 1.42 1.51 1.63 1.68 1.63 1.49 1.28 0.98 0.87 0.93 1.09 1.21 1.22 1.08
0.48 0.52 0.54 0.47 0.42 0.44 0.46 0.45 0.45 0.45 0.47 0.48 0.49 0.49 0.52 0.68 1.10 1.19 1.04 0.81 0.73 0.74 0.74 0.69 0.69 0.68 0.74 0.72 0.85 0.95 1.05 1.23 1.47 1.64 1.72 1.40 1.12 1.01 1.18 1.40 1.45 1.42 1.18
0.45 0.45 0.46 0.41 0.35 0.38 0.42 0.41 0.37 0.37 0.41 0.43 0.43 0.43 0.40 0.46 0.84 1.12 1.01 0.71 0.65 0.66 0.67 0.69 0.70 0.67 0.67 0.75 0.83 0.86 0.80 0.83 1.05 1.30 1.46 1.32 1.22 1.24 1.44 1.71 1.85 1.90 1.57
0.34 0.33 0.33 0.30 0.30 0.34 0.39 0.36 0.32 0.32 0.34 0.37 0.40 0.43 0.41 0.40 0.65 1.05 1.08 0.74 0.70 0.65 0.66 0.79 0.84 0.75 0.78 0.96 1.09 1.06 0.87 0.74 0.82 1.13 1.41 1.45 1.49 1.68 1.91 2.28 2.54 2.61 2.30
0.24 0.24 0.29 0.27 0.25 0.30 0.35 0.34 0.32 0.31 0.34 0.36 0.39 0.46 0.46 0.40 0.55 0.96 1.23 0.86 0.77 0.67 0.68 0.81 1.07 1.04 1.02 1.09 1.15 1.19 1.13 0.86 0.78 0.83 0.93 1.04 1.09 1.18 1.54 1.90 2.17 2.41 2.36
0.18 0.20 0.26 0.28 0.26 0.27 0.29 0.32 0.32 0.33 0.34 0.36 0.38 0.43 0.46 0.42 0.46 0.77 1.25 1.15 0.92 0.82 0.80 0.87 1.00 1.09 1.08 1.10 1.16 1.15 1.18 1.12 1.08 1.07 1.01 0.95 0.98 1.10 1.27 1.53 1.79 2.04 2.24
0.16 0.18 0.23 0.31 0.29 0.27 0.29 0.29 0.30 0.34 0.37 0.39 0.40 0.42 0.44 0.46 0.49 0.66 1.02 1.24 1.15 0.95 0.89 0.81 0.90 1.02 1.08 1.11 1.07 1.08 1.16 1.21 1.15 1.12 1.06 0.99 0.96 1.02 1.09 1.24 1.50 1.66 1.79
0.15 0.19 0.24 0.30 0.29 0.28 0.29 0.30 0.31 0.34 0.39 0.44 0.46 0.47 0.47 0.49 0.54 0.68 0.81 0.92 1.05 0.98 0.95 1.10 1.06 1.02 0.99 0.94 0.93 0.98 1.00 0.98 1.02 1.01 0.91 0.81 0.78 0.83 0.94 1.10 1.28 1.45 1.59
0.14 0.20 0.25 0.29 0.31 0.30 0.28 0.29 0.31 0.37 0.52 0.60 0.59 0.58 0.53 0.52 0.62 0.82 0.87 0.83 0.91 0.95 0.95 1.04 1.04 0.93 0.83 0.79 0.81 0.82 0.82 0.89 0.98 0.98 0.86 0.76 0.73 0.80 0.92 1.02 1.18 1.33 1.57
0.16 0.20 0.25 0.29 0.31 0.31 0.29 0.30 0.34 0.39 0.63 0.89 0.85 0.84 0.84 0.82 0.91 1.20 1.21 1.11 1.12 1.14 1.15 1.15 1.05 0.91 0.83 0.74 0.70 0.67 0.68 0.79 0.91 0.90 0.90 0.89 0.85 0.88 0.92 0.95 1.12 1.27 1.46
0.20 0.22 0.26 0.31 0.33 0.32 0.32 0.32 0.34 0.38 0.49 0.59 0.66 0.79 0.80 0.94 1.08 1.08 1.05 1.05 1.09 1.13 1.16 1.09 0.92 0.81 0.76 0.71 0.70 0.70 0.68 0.70 0.74 0.80 0.86 0.89 0.92 0.94 0.94 0.95 1.10 1.26 1.33
0.24 0.27 0.31 0.33 0.35 0.35 0.37 0.38 0.38 0.35 0.36 0.41 0.47 0.56 0.69 0.87 0.93 0.93 0.98 0.94 0.94 0.96 0.96 0.85 0.76 0.74 0.71 0.69 0.69 0.69 0.67 0.63 0.68 0.79 0.86 0.90 0.93 0.97 0.99 1.00 1.05 1.15 1.21
0.27 0.31 0.35 0.36 0.37 0.38 0.40 0.41 0.41 0.42 0.41 0.40 0.42 0.47 0.57 0.70 0.80 0.84 0.90 0.87 0.83 0.77 0.74 0.75 0.72 0.70 0.69 0.68 0.68 0.69 0.68 0.66 0.70 0.76 0.79 0.82 0.88 0.96 0.98 0.93 0.95 1.07 1.16
0.27 0.29 0.33 0.37 0.39 0.40 0.43 0.44 0.43 0.43 0.44 0.45 0.45 0.48 0.55 0.61 0.68 0.76 0.77 0.71 0.72 0.69 0.66 0.67 0.66 0.69 0.71 0.70 0.68 0.68 0.69 0.70 0.68 0.70 0.73 0.74 0.78 0.89 0.91 0.85 0.88 0.99 1.19
0.25 0.32 0.38 0.39 0.40 0.41 0.44 0.46 0.48 0.49 0.49 0.49 0.52 0.57 0.65 0.71 0.73 0.72 0.69 0.66 0.67 0.67 0.64 0.67 0.65 0.66 0.70 0.72 0.71 0.69 0.70 0.69 0.68 0.68 0.69 0.70 0.74 0.84 0.87 0.83 0.90 1.00 1.09
0.28 0.32 0.38 0.39 0.40 0.43 0.47 0.52 0.54 0.56 0.58 0.56 0.53 0.57 0.84 0.97 0.85 0.72 0.68 0.70 0.73 0.75 0.72 0.70 0.65 0.61 0.63 0.68 0.71 0.71 0.70 0.67 0.64 0.69 0.71 0.72 0.75 0.82 0.82 0.87 0.91 0.96 1.04
0.35 0.38 0.40 0.42 0.43 0.46 0.52 0.54 0.56 0.58 0.59 0.57 0.53 0.53 0.62 0.64 0.63 0.63 0.64 0.68 0.73 0.77 0.77 0.78 0.71 0.61 0.62 0.70 0.76 0.78 0.72 0.64 0.61 0.69 0.75 0.74 0.77 0.82 0.85 0.89 0.91 0.97 1.04
0.41 0.44 0.44 0.43 0.44 0.50 0.51 0.48 0.52 0.55 0.57 0.55 0.53 0.53 0.54 0.57 0.60 0.63 0.66 0.68 0.72 0.76 0.76 0.75 0.74 0.63 0.57 0.63 0.71 0.80 0.83 0.72 0.68 0.78 0.90 0.87 0.83 0.84 0.87 0.90 0.90 0.96 1.00
0.48 0.49 0.49 0.47 0.47 0.49 0.50 0.49 0.51 0.52 0.55 0.56 0.55 0.55 0.56 0.57 0.59 0.62 0.65 0.67 0.71 0.73 0.73 0.73 0.70 0.64 0.59 0.62 0.65 0.68 0.72 0.81 0.98 1.10 1.07 1.07 0.98 0.88 0.88 0.92 0.90 0.90 0.95
0.49 0.50 0.51 0.52 0.53 0.54 0.54 0.52 0.51 0.52 0.55 0.56 0.56 0.56 0.56 0.56 0.57 0.60 0.63 0.66 0.70 0.71 0.69 0.68 0.67 0.64 0.61 0.59 0.59 0.62 0.71 0.88 1.10 1.39 1.57 1.50 1.23 1.00 0.96 0.96 0.92 0.91 0.95
0.47 0.46 0.47 0.50 0.53 0.57 0.60 0.60 0.57 0.57 0.60 0.59 0.57 0.59 0.60 0.61 0.61 0.62 0.66 0.72 0.77 0.75 0.71 0.69 0.64 0.61 0.60 0.60 0.59 0.63 0.77 0.97 1.19 1.43 1.82 1.96 1.59 1.19 1.05 1.06 0.99 0.98 1.02

GEFSGL_prec_meanprecacc_240.txt.gz
Total_Precipitation_Accumulation
0.14 0.15 0.19 0.26 0.29 0.32 0.35 0.36 0.36 0.41 0.46 0.47 0.43 0.42 0.45 0.53 0.62 0.69 0.69 0.71 0.75 0.75 0.76 0.78 0.78 0.77 0.80 0.79 0.79 0.79 0.84 1.02 1.04 0.49 0.33 0.39 0.52 0.57 0.56 0.54 0.54 0.57 0.58
0.16 0.17 0.19 0.25 0.32 0.37 0.41 0.43 0.46 0.48 0.51 0.54 0.54 0.51 0.46 0.46 0.55 0.63 0.67 0.69 0.74 0.76 0.78 0.84 0.85 0.85 0.88 0.89 0.94 0.93 0.90 0.94 1.05 0.77 0.45 0.43 0.52 0.58 0.64 0.64 0.58 0.57 0.58
0.18 0.19 0.22 0.26 0.34 0.41 0.47 0.50 0.50 0.54 0.59 0.60 0.62 0.62 0.58 0.57 0.62 0.65 0.68 0.70 0.71 0.71 0.73 0.80 0.85 0.92 0.97 0.95 0.96 0.96 0.91 0.85 0.89 0.88 0.61 0.48 0.52 0.58 0.65 0.69 0.67 0.67 0.64
0.25 0.26 0.31 0.37 0.42 0.47 0.52 0.53 0.54 0.56 0.61 0.66 0.67 0.68 0.70 0.74 0.87 0.90 0.80 0.79 0.74 0.71 0.70 0.75 0.82 0.94 1.03 1.11 1.19 1.10 1.01 1.05 1.05 1.04 0.85 0.66 0.61 0.62 0.78 0.83 0.81 0.77 0.74
0.39 0.41 0.41 0.42 0.46 0.46 0.48 0.51 0.53 0.57 0.60 0.62 0.63 0.66 0.72 0.85 1.15 1.18 1.00 0.90 0.83 0.78 0.75 0.75 0.79 0.95 1.17 1.38 1.51 1.46 1.42 1.46 1.40 1.35 1.17 0.95 0.80 0.81 0.89 0.88 0.93 0.84 0.83
0.48 0.50 0.48 0.44 0.43 0.47 0.48 0.48 0.52 0.56 0.57 0.57 0.57 0.59 0.68 0.86 1.26 1.30 1.09 0.87 0.83 0.83 0.82 0.76 0.74 0.82 0.95 1.13 1.36 1.44 1.53 1.65 1.70 1.65 1.51 1.29 0.99 0.88 0.93 1.10 1.22 1.23 1.10
0.49 0.53 0.55 0.48 0.43 0.46 0.47 0.46 0.46 0.46 0.48 0.49 0.50 0.50 0.52 0.69 1.11 1.20 1.05 0.81 0.73 0.74 0.74 0.70 0.70 0.69 0.75 0.73 0.86 0.96 1.06 1.24 1.48 1.66 1.74 1.42 1.13 1.02 1.19 1.42 1.46 1.44 1.20
0.47 0.47 0.47 0.42 0.37 0.39 0.43 0.42 0.39 0.39 0.43 0.44 0.45 0.44 0.41 0.46 0.85 1.12 1.01 0.71 0.65 0.67 0.67 0.69 0.70 0.67 0.67 0.75 0.83 0.87 0.81 0.84 1.06 1.31 1.47 1.33 1.23 1.25 1.45 1.73 1.87 1.92 1.59
0.37 0.35 0.35 0.32 0.31 0.35 0.40 0.37 0.34 0.33 0.35 0.38 0.40 0.44 0.42 0.41 0.66 1.05 1.09 0.74 0.70 0.65 0.66 0.79 0.84 0.75 0.79 0.97 1.10 1.07 0.88 0.75 0.82 1.14 1.41 1.46 1.50 1.70 1.93 2.30 2.57 2.65 2.33
0.27 0.27 0.32 0.29 0.27 0.32 0.37 0.36 0.34 0.32 0.35 0.37 0.40 0.47 0.47 0.41 0.56 0.97 1.24 0.87 0.77 0.68 0.68 0.81 1.07 1.04 1.02 1.10 1.17 1.20 1.14 0.87 0.78 0.84 0.94 1.05 1.10 1.18 1.55 1.92 2.19 2.44 2.40
0.21 0.23 0.30 0.31 0.29 0.30 0.32 0.34 0.34 0.35 0.36 0.38 0.39 0.44 0.47 0.43 0.47 0.78 1.25 1.15 0.92 0.82 0.81 0.87 1.00 1.09 1.09 1.11 1.18 1.16 1.20 1.14 1.10 1.08 1.02 0.96 0.99 1.11 1.28 1.54 1.80 2.07 2.28
0.18 0.21 0.26 0.33 0.31 0.30 0.31 0.32 0.32 0.36 0.39 0.40 0.41 0.44 0.46 0.47 0.50 0.67 1.02 1.24 1.16 0.96 0.90 0.82 0.90 1.03 1.09 1.12 1.08 1.10 1.18 1.23 1.17 1.14 1.08 1.00 0.97 1.03 1.11 1.26 1.51 1.68 1.82
0.16 0.20 0.25 0.31 0.30 0.29 0.31 0.32 0.32 0.35 0.41 0.45 0.47 0.49 0.48 0.50 0.54 0.69 0.81 0.93 1.06 0.99 0.96 1.10 1.07 1.03 0.99 0.95 0.94 0.99 1.01 0.99 1.04 1.02 0.92 0.83 0.79 0.84 0.95 1.12 1.30 1.48 1.62
0.16 0.21 0.26 0.30 0.32 0.31 0.30 0.31 0.33 0.39 0.54 0.62 0.61 0.59 0.54 0.53 0.62 0.82 0.87 0.84 0.92 0.96 0.96 1.04 1.04 0.94 0.84 0.80 0.82 0.83 0.83 0.90 1.00 1.00 0.88 0.78 0.74 0.82 0.93 1.03 1.20 1.35 1.59
0.19 0.23 0.28 0.32 0.33 0.34 0.32 0.32 0.36 0.41 0.65 0.91 0.87 0.85 0.86 0.83 0.91 1.21 1.23 1.12 1.13 1.16 1.17 1.16 1.05 0.92 0.83 0.75 0.71 0.68 0.69 0.80 0.92 0.91 0.92 0.91 0.87 0.90 0.93 0.97 1.13 1.29 1.48
0.22 0.24 0.28 0.33 0.35 0.34 0.34 0.34 0.36 0.40 0.51 0.60 0.67 0.80 0.81 0.96 1.10 1.09 1.07 1.07 1.11 1.14 1.17 1.10 0.93 0.81 0.76 0.72 0.71 0.71 0.69 0.71 0.75 0.81 0.88 0.91 0.93 0.96 0.96 0.97 1.11 1.28 1.35
0.26 0.29 0.33 0.35 0.37 0.37 0.39 0.40 0.40 0.37 0.38 0.43 0.49 0.57 0.71 0.89 0.95 0.95 1.00 0.96 0.95 0.97 0.97 0.86 0.77 0.75 0.72 0.70 0.70 0.70 0.68 0.64 0.70 0.80 0.88 0.92 0.95 0.99 1.01 1.01 1.06 1.17 1.23
0.30 0.33 0.37 0.39 0.40 0.41 0.43 0.43 0.43 0.44 0.43 0.42 0.43 0.48 0.58 0.71 0.81 0.85 0.91 0.88 0.84 0.78 0.76 0.76 0.74 0.71 0.70 0.70 0.70 0.71 0.69 0.68 0.71 0.77 0.81 0.85 0.90 0.99 1.00 0.95 0.97 1.10 1.19
0.28 0.31 0.35 0.38 0.40 0.42 0.45 0.46 0.45 0.44 0.45 0.46 0.46 0.49 0.56 0.62 0.69 0.77 0.78 0.73 0.73 0.70 0.68 0.69 0.67 0.71 0.73 0.71 0.69 0.69 0.71 0.73 0.71 0.73 0.75 0.76 0.80 0.91 0.94 0.88 0.91 1.02 1.22
0.26 0.33 0.39 0.40 0.42 0.43 0.45 0.48 0.49 0.50 0.50 0.50 0.53 0.58 0.66 0.72 0.74 0.73 0.69 0.67 0.69 0.68 0.66 0.69 0.67 0.68 0.72 0.74 0.73 0.71 0.73 0.71 0.70 0.70 0.71 0.72 0.76 0.86 0.90 0.87 0.93 1.03 1.12
0.29 0.33 0.39 0.40 0.41 0.44 0.48 0.53 0.55 0.58 0.59 0.57 0.54 0.58 0.86 0.99 0.87 0.73 0.69 0.71 0.75 0.77 0.74 0.72 0.67 0.63 0.65 0.69 0.73 0.72 0.72 0.68 0.66 0.71 0.73 0.73 0.77 0.85 0.85 0.90 0.94 0.99 1.08
0.36 0.39 0.41 0.43 0.43 0.47 0.53 0.55 0.57 0.59 0.60 0.58 0.54 0.54 0.63 0.65 0.65 0.64 0.65 0.69 0.75 0.79 0.80 0.81 0.74 0.63 0.63 0.72 0.78 0.80 0.74 0.66 0.63 0.71 0.78 0.77 0.79 0.84 0.87 0.92 0.94 1.01 1.07
0.42 0.45 0.45 0.44 0.45 0.51 0.52 0.49 0.53 0.56 0.58 0.56 0.54 0.54 0.55 0.58 0.61 0.65 0.68 0.70 0.75 0.79 0.78 0.78 0.76 0.65 0.59 0.65 0.72 0.82 0.85 0.74 0.70 0.81 0.93 0.91 0.86 0.87 0.90 0.93 0.93 0.99 1.03
0.49 0.50 0.50 0.48 0.48 0.50 0.51 0.50 0.51 0.53 0.56 0.57 0.56 0.56 0.58 0.59 0.60 0.64 0.67 0.69 0.73 0.75 0.75 0.75 0.72 0.66 0.61 0.63 0.66 0.69 0.74 0.83 1.01 1.14 1.11 1.10 1.01 0.91 0.91 0.94 0.92 0.92 0.97
0.50 0.51 0.52 0.53 0.54 0.54 0.55 0.52 0.51 0.53 0.56 0.57 0.58 0.57 0.57 0.58 0.59 0.62 0.65 0.68 0.72 0.73 0.71 0.70 0.69 0.66 0.62 0.60 0.60 0.63 0.73 0.90 1.12 1.43 1.61 1.54 1.26 1.02 0.98 0.98 0.94 0.93 0.98
0.48 0.47 0.48 0.51 0.54 0.57 0.61 0.60 0.58 0.58 0.61 0.60 0.59 0.60 0.62 0.63 0.63 0.65 0.68 0.74 0.79 0.77 0.73 0.70 0.66 0.62 0.61 0.61 0.60 0.65 0.79 0.99 1.21 1.46 1.84 1.99 1.61 1.21 1.07 1.08 1.01 1.00 1.05